<?xml version='1.0' encoding='UTF-8'?>
<gpx version="1.1" creator="https://www.komoot.de" xmlns="http://www.topografix.com/GPX/1/1" xmlns:xsi="http://www.w3.org/2001/XMLSchema-instance" xsi:schemaLocation="http://www.topografix.com/GPX/1/1 http://www.topografix.com/GPX/1/1/gpx.xsd">
  <metadata>
    <name>Altenbergturm - Lautern - Bartholomä</name>
    <author>
      <link href="https://www.komoot.de">
        <text>komoot</text>
        <type>text/html</type>
      </link>
    </author>
  </metadata>
  <trk>
    <name>Altenbergturm - Lautern - Bartholomä</name>
    <trkseg>
      <trkpt lat="48.960713" lon="9.895546">
        <ele>492.792177</ele>
        <time>2025-05-03T07:31:42.961Z</time>
      </trkpt>
      <trkpt lat="48.960599" lon="9.895739">
        <ele>492.792177</ele>
        <time>2025-05-03T07:31:46.741Z</time>
      </trkpt>
      <trkpt lat="48.960713" lon="9.895546">
        <ele>492.792177</ele>
        <time>2025-05-03T07:31:50.430Z</time>
      </trkpt>
      <trkpt lat="48.960499" lon="9.895447">
        <ele>492.792177</ele>
        <time>2025-05-03T07:31:56.555Z</time>
      </trkpt>
      <trkpt lat="48.960465" lon="9.895431">
        <ele>492.792177</ele>
        <time>2025-05-03T07:31:57.536Z</time>
      </trkpt>
      <trkpt lat="48.960465" lon="9.895431">
        <ele>492.792177</ele>
        <time>2025-05-03T07:31:57.545Z</time>
      </trkpt>
      <trkpt lat="48.960465" lon="9.895431">
        <ele>492.792177</ele>
        <time>2025-05-03T07:31:57.545Z</time>
      </trkpt>
      <trkpt lat="48.960442" lon="9.895550">
        <ele>492.792177</ele>
        <time>2025-05-03T07:31:59.651Z</time>
      </trkpt>
      <trkpt lat="48.960442" lon="9.895552">
        <ele>492.792177</ele>
        <time>2025-05-03T07:31:59.685Z</time>
      </trkpt>
      <trkpt lat="48.960445" lon="9.895554">
        <ele>492.792177</ele>
        <time>2025-05-03T07:31:59.770Z</time>
      </trkpt>
      <trkpt lat="48.960445" lon="9.895555">
        <ele>492.792177</ele>
        <time>2025-05-03T07:31:59.787Z</time>
      </trkpt>
      <trkpt lat="48.960445" lon="9.895556">
        <ele>492.792177</ele>
        <time>2025-05-03T07:31:59.804Z</time>
      </trkpt>
      <trkpt lat="48.960445" lon="9.895555">
        <ele>492.792177</ele>
        <time>2025-05-03T07:31:59.821Z</time>
      </trkpt>
      <trkpt lat="48.960445" lon="9.895558">
        <ele>492.792177</ele>
        <time>2025-05-03T07:31:59.872Z</time>
      </trkpt>
      <trkpt lat="48.960442" lon="9.895560">
        <ele>492.792177</ele>
        <time>2025-05-03T07:31:59.957Z</time>
      </trkpt>
      <trkpt lat="48.960442" lon="9.895561">
        <ele>492.792177</ele>
        <time>2025-05-03T07:31:59.974Z</time>
      </trkpt>
      <trkpt lat="48.960442" lon="9.895558">
        <ele>492.792177</ele>
        <time>2025-05-03T07:32:00.025Z</time>
      </trkpt>
      <trkpt lat="48.960438" lon="9.895558">
        <ele>492.792177</ele>
        <time>2025-05-03T07:32:00.128Z</time>
      </trkpt>
      <trkpt lat="48.960438" lon="9.895560">
        <ele>492.792177</ele>
        <time>2025-05-03T07:32:00.162Z</time>
      </trkpt>
      <trkpt lat="48.960438" lon="9.895558">
        <ele>492.792177</ele>
        <time>2025-05-03T07:32:00.196Z</time>
      </trkpt>
      <trkpt lat="48.960438" lon="9.895560">
        <ele>492.792177</ele>
        <time>2025-05-03T07:32:00.230Z</time>
      </trkpt>
      <trkpt lat="48.960434" lon="9.895560">
        <ele>492.792177</ele>
        <time>2025-05-03T07:32:00.333Z</time>
      </trkpt>
      <trkpt lat="48.960434" lon="9.895554">
        <ele>492.792177</ele>
        <time>2025-05-03T07:32:00.435Z</time>
      </trkpt>
      <trkpt lat="48.960434" lon="9.895552">
        <ele>492.792177</ele>
        <time>2025-05-03T07:32:00.469Z</time>
      </trkpt>
      <trkpt lat="48.960434" lon="9.895550">
        <ele>492.792177</ele>
        <time>2025-05-03T07:32:00.503Z</time>
      </trkpt>
      <trkpt lat="48.960434" lon="9.895552">
        <ele>492.792177</ele>
        <time>2025-05-03T07:32:00.537Z</time>
      </trkpt>
      <trkpt lat="48.960434" lon="9.895550">
        <ele>492.792177</ele>
        <time>2025-05-03T07:32:00.571Z</time>
      </trkpt>
      <trkpt lat="48.960430" lon="9.895547">
        <ele>492.792177</ele>
        <time>2025-05-03T07:32:00.686Z</time>
      </trkpt>
      <trkpt lat="48.960430" lon="9.895548">
        <ele>492.792177</ele>
        <time>2025-05-03T07:32:00.703Z</time>
      </trkpt>
      <trkpt lat="48.960430" lon="9.895550">
        <ele>492.792177</ele>
        <time>2025-05-03T07:32:00.737Z</time>
      </trkpt>
      <trkpt lat="48.960430" lon="9.895554">
        <ele>492.792177</ele>
        <time>2025-05-03T07:32:00.805Z</time>
      </trkpt>
      <trkpt lat="48.960430" lon="9.895552">
        <ele>492.792177</ele>
        <time>2025-05-03T07:32:00.839Z</time>
      </trkpt>
      <trkpt lat="48.960434" lon="9.895550">
        <ele>492.792177</ele>
        <time>2025-05-03T07:32:00.948Z</time>
      </trkpt>
      <trkpt lat="48.960434" lon="9.895554">
        <ele>492.792177</ele>
        <time>2025-05-03T07:32:01.016Z</time>
      </trkpt>
      <trkpt lat="48.960434" lon="9.895555">
        <ele>492.792177</ele>
        <time>2025-05-03T07:32:01.033Z</time>
      </trkpt>
      <trkpt lat="48.960434" lon="9.895556">
        <ele>492.792177</ele>
        <time>2025-05-03T07:32:01.050Z</time>
      </trkpt>
      <trkpt lat="48.960434" lon="9.895558">
        <ele>492.792177</ele>
        <time>2025-05-03T07:32:01.084Z</time>
      </trkpt>
      <trkpt lat="48.960430" lon="9.895556">
        <ele>492.792177</ele>
        <time>2025-05-03T07:32:01.193Z</time>
      </trkpt>
      <trkpt lat="48.960430" lon="9.895558">
        <ele>492.792177</ele>
        <time>2025-05-03T07:32:01.227Z</time>
      </trkpt>
      <trkpt lat="48.960430" lon="9.895556">
        <ele>492.792177</ele>
        <time>2025-05-03T07:32:01.261Z</time>
      </trkpt>
      <trkpt lat="48.960430" lon="9.895558">
        <ele>492.792177</ele>
        <time>2025-05-03T07:32:01.295Z</time>
      </trkpt>
      <trkpt lat="48.960430" lon="9.895560">
        <ele>492.792177</ele>
        <time>2025-05-03T07:32:01.329Z</time>
      </trkpt>
      <trkpt lat="48.960430" lon="9.895561">
        <ele>492.792177</ele>
        <time>2025-05-03T07:32:01.346Z</time>
      </trkpt>
      <trkpt lat="48.960430" lon="9.895563">
        <ele>492.792177</ele>
        <time>2025-05-03T07:32:01.379Z</time>
      </trkpt>
      <trkpt lat="48.960430" lon="9.895565">
        <ele>492.792177</ele>
        <time>2025-05-03T07:32:01.413Z</time>
      </trkpt>
      <trkpt lat="48.960430" lon="9.895567">
        <ele>492.792177</ele>
        <time>2025-05-03T07:32:01.447Z</time>
      </trkpt>
      <trkpt lat="48.960430" lon="9.895565">
        <ele>492.792177</ele>
        <time>2025-05-03T07:32:01.481Z</time>
      </trkpt>
      <trkpt lat="48.960430" lon="9.895567">
        <ele>492.792177</ele>
        <time>2025-05-03T07:32:01.517Z</time>
      </trkpt>
      <trkpt lat="48.960434" lon="9.895568">
        <ele>492.792177</ele>
        <time>2025-05-03T07:32:01.622Z</time>
      </trkpt>
      <trkpt lat="48.960430" lon="9.895570">
        <ele>492.792177</ele>
        <time>2025-05-03T07:32:01.730Z</time>
      </trkpt>
      <trkpt lat="48.960430" lon="9.895572">
        <ele>492.792177</ele>
        <time>2025-05-03T07:32:01.764Z</time>
      </trkpt>
      <trkpt lat="48.960430" lon="9.895570">
        <ele>492.792177</ele>
        <time>2025-05-03T07:32:01.798Z</time>
      </trkpt>
      <trkpt lat="48.960430" lon="9.895572">
        <ele>492.792177</ele>
        <time>2025-05-03T07:32:01.832Z</time>
      </trkpt>
      <trkpt lat="48.960430" lon="9.895570">
        <ele>492.792177</ele>
        <time>2025-05-03T07:32:01.866Z</time>
      </trkpt>
      <trkpt lat="48.960430" lon="9.895568">
        <ele>492.792177</ele>
        <time>2025-05-03T07:32:01.900Z</time>
      </trkpt>
      <trkpt lat="48.960430" lon="9.895570">
        <ele>492.792177</ele>
        <time>2025-05-03T07:32:01.934Z</time>
      </trkpt>
      <trkpt lat="48.960430" lon="9.895575">
        <ele>492.792177</ele>
        <time>2025-05-03T07:32:02.019Z</time>
      </trkpt>
      <trkpt lat="48.960430" lon="9.895574">
        <ele>492.792177</ele>
        <time>2025-05-03T07:32:02.036Z</time>
      </trkpt>
      <trkpt lat="48.960430" lon="9.895575">
        <ele>492.792177</ele>
        <time>2025-05-03T07:32:02.053Z</time>
      </trkpt>
      <trkpt lat="48.960430" lon="9.895574">
        <ele>492.792177</ele>
        <time>2025-05-03T07:32:02.070Z</time>
      </trkpt>
      <trkpt lat="48.960430" lon="9.895572">
        <ele>492.792177</ele>
        <time>2025-05-03T07:32:02.104Z</time>
      </trkpt>
      <trkpt lat="48.960430" lon="9.895574">
        <ele>492.792177</ele>
        <time>2025-05-03T07:32:02.138Z</time>
      </trkpt>
      <trkpt lat="48.960430" lon="9.895575">
        <ele>492.792177</ele>
        <time>2025-05-03T07:32:02.155Z</time>
      </trkpt>
      <trkpt lat="48.960430" lon="9.895576">
        <ele>492.792177</ele>
        <time>2025-05-03T07:32:02.172Z</time>
      </trkpt>
      <trkpt lat="48.960434" lon="9.895580">
        <ele>492.792177</ele>
        <time>2025-05-03T07:32:02.296Z</time>
      </trkpt>
      <trkpt lat="48.960434" lon="9.895581">
        <ele>492.792177</ele>
        <time>2025-05-03T07:32:02.313Z</time>
      </trkpt>
      <trkpt lat="48.960434" lon="9.895580">
        <ele>492.792177</ele>
        <time>2025-05-03T07:32:02.330Z</time>
      </trkpt>
      <trkpt lat="48.960434" lon="9.895576">
        <ele>492.792177</ele>
        <time>2025-05-03T07:32:02.398Z</time>
      </trkpt>
      <trkpt lat="48.960438" lon="9.895576">
        <ele>492.792177</ele>
        <time>2025-05-03T07:32:02.501Z</time>
      </trkpt>
      <trkpt lat="48.960434" lon="9.895575">
        <ele>492.792177</ele>
        <time>2025-05-03T07:32:02.606Z</time>
      </trkpt>
      <trkpt lat="48.960434" lon="9.895576">
        <ele>492.792177</ele>
        <time>2025-05-03T07:32:02.623Z</time>
      </trkpt>
      <trkpt lat="48.960438" lon="9.895576">
        <ele>492.792177</ele>
        <time>2025-05-03T07:32:02.726Z</time>
      </trkpt>
      <trkpt lat="48.960438" lon="9.895575">
        <ele>492.792177</ele>
        <time>2025-05-03T07:32:02.743Z</time>
      </trkpt>
      <trkpt lat="48.960442" lon="9.895575">
        <ele>492.792177</ele>
        <time>2025-05-03T07:32:02.847Z</time>
      </trkpt>
      <trkpt lat="48.960442" lon="9.895574">
        <ele>492.792177</ele>
        <time>2025-05-03T07:32:02.864Z</time>
      </trkpt>
      <trkpt lat="48.960442" lon="9.895572">
        <ele>492.792177</ele>
        <time>2025-05-03T07:32:02.898Z</time>
      </trkpt>
      <trkpt lat="48.960442" lon="9.895570">
        <ele>492.792177</ele>
        <time>2025-05-03T07:32:02.932Z</time>
      </trkpt>
      <trkpt lat="48.960442" lon="9.895568">
        <ele>492.792177</ele>
        <time>2025-05-03T07:32:02.966Z</time>
      </trkpt>
      <trkpt lat="48.960442" lon="9.895565">
        <ele>492.792177</ele>
        <time>2025-05-03T07:32:03.017Z</time>
      </trkpt>
      <trkpt lat="48.960438" lon="9.895567">
        <ele>492.792177</ele>
        <time>2025-05-03T07:32:03.125Z</time>
      </trkpt>
      <trkpt lat="48.960442" lon="9.895567">
        <ele>492.792177</ele>
        <time>2025-05-03T07:32:03.229Z</time>
      </trkpt>
      <trkpt lat="48.960442" lon="9.895568">
        <ele>492.792177</ele>
        <time>2025-05-03T07:32:03.246Z</time>
      </trkpt>
      <trkpt lat="48.960442" lon="9.895570">
        <ele>492.792177</ele>
        <time>2025-05-03T07:32:03.280Z</time>
      </trkpt>
      <trkpt lat="48.960442" lon="9.895568">
        <ele>492.792177</ele>
        <time>2025-05-03T07:32:03.314Z</time>
      </trkpt>
      <trkpt lat="48.960442" lon="9.895567">
        <ele>492.792177</ele>
        <time>2025-05-03T07:32:03.331Z</time>
      </trkpt>
      <trkpt lat="48.960442" lon="9.895565">
        <ele>492.792177</ele>
        <time>2025-05-03T07:32:03.365Z</time>
      </trkpt>
      <trkpt lat="48.960438" lon="9.895565">
        <ele>492.792177</ele>
        <time>2025-05-03T07:32:03.468Z</time>
      </trkpt>
      <trkpt lat="48.960438" lon="9.895567">
        <ele>492.792177</ele>
        <time>2025-05-03T07:32:03.502Z</time>
      </trkpt>
      <trkpt lat="48.960438" lon="9.895568">
        <ele>492.792177</ele>
        <time>2025-05-03T07:32:03.519Z</time>
      </trkpt>
      <trkpt lat="48.960434" lon="9.895568">
        <ele>492.792177</ele>
        <time>2025-05-03T07:32:03.623Z</time>
      </trkpt>
      <trkpt lat="48.960434" lon="9.895565">
        <ele>492.792177</ele>
        <time>2025-05-03T07:32:03.674Z</time>
      </trkpt>
      <trkpt lat="48.960438" lon="9.895558">
        <ele>492.792177</ele>
        <time>2025-05-03T07:32:03.831Z</time>
      </trkpt>
      <trkpt lat="48.960438" lon="9.895556">
        <ele>492.792177</ele>
        <time>2025-05-03T07:32:03.865Z</time>
      </trkpt>
      <trkpt lat="48.960438" lon="9.895550">
        <ele>492.792177</ele>
        <time>2025-05-03T07:32:03.967Z</time>
      </trkpt>
      <trkpt lat="48.960438" lon="9.895545">
        <ele>492.792177</ele>
        <time>2025-05-03T07:32:04.052Z</time>
      </trkpt>
      <trkpt lat="48.960438" lon="9.895542">
        <ele>492.792177</ele>
        <time>2025-05-03T07:32:04.103Z</time>
      </trkpt>
      <trkpt lat="48.960438" lon="9.895538">
        <ele>492.792177</ele>
        <time>2025-05-03T07:32:04.171Z</time>
      </trkpt>
      <trkpt lat="48.960438" lon="9.895534">
        <ele>492.792177</ele>
        <time>2025-05-03T07:32:04.239Z</time>
      </trkpt>
      <trkpt lat="48.960438" lon="9.895532">
        <ele>492.792177</ele>
        <time>2025-05-03T07:32:04.273Z</time>
      </trkpt>
      <trkpt lat="48.960442" lon="9.895525">
        <ele>492.792177</ele>
        <time>2025-05-03T07:32:04.430Z</time>
      </trkpt>
      <trkpt lat="48.960442" lon="9.895523">
        <ele>492.792177</ele>
        <time>2025-05-03T07:32:04.464Z</time>
      </trkpt>
      <trkpt lat="48.960442" lon="9.895521">
        <ele>492.792177</ele>
        <time>2025-05-03T07:32:04.498Z</time>
      </trkpt>
      <trkpt lat="48.960442" lon="9.895518">
        <ele>492.792177</ele>
        <time>2025-05-03T07:32:04.549Z</time>
      </trkpt>
      <trkpt lat="48.960438" lon="9.895515">
        <ele>492.792177</ele>
        <time>2025-05-03T07:32:04.664Z</time>
      </trkpt>
      <trkpt lat="48.960434" lon="9.895515">
        <ele>492.792177</ele>
        <time>2025-05-03T07:32:04.768Z</time>
      </trkpt>
      <trkpt lat="48.960438" lon="9.895509">
        <ele>492.792177</ele>
        <time>2025-05-03T07:32:04.913Z</time>
      </trkpt>
      <trkpt lat="48.960438" lon="9.895498">
        <ele>492.792177</ele>
        <time>2025-05-03T07:32:05.100Z</time>
      </trkpt>
      <trkpt lat="48.960438" lon="9.895490">
        <ele>492.792177</ele>
        <time>2025-05-03T07:32:05.235Z</time>
      </trkpt>
      <trkpt lat="48.960442" lon="9.895483">
        <ele>492.791483</ele>
        <time>2025-05-03T07:32:05.393Z</time>
      </trkpt>
      <trkpt lat="48.960445" lon="9.895475">
        <ele>492.790492</ele>
        <time>2025-05-03T07:32:05.550Z</time>
      </trkpt>
      <trkpt lat="48.960442" lon="9.895460">
        <ele>492.788805</ele>
        <time>2025-05-03T07:32:05.816Z</time>
      </trkpt>
      <trkpt lat="48.960442" lon="9.895452">
        <ele>492.787944</ele>
        <time>2025-05-03T07:32:05.952Z</time>
      </trkpt>
      <trkpt lat="48.960453" lon="9.895442">
        <ele>492.785845</ele>
        <time>2025-05-03T07:32:06.283Z</time>
      </trkpt>
      <trkpt lat="48.960457" lon="9.895422">
        <ele>492.783595</ele>
        <time>2025-05-03T07:32:06.638Z</time>
      </trkpt>
      <trkpt lat="48.960468" lon="9.895409">
        <ele>492.781314</ele>
        <time>2025-05-03T07:32:06.998Z</time>
      </trkpt>
      <trkpt lat="48.960472" lon="9.895418">
        <ele>492.780144</ele>
        <time>2025-05-03T07:32:07.183Z</time>
      </trkpt>
      <trkpt lat="48.960476" lon="9.895415">
        <ele>492.779414</ele>
        <time>2025-05-03T07:32:07.298Z</time>
      </trkpt>
      <trkpt lat="48.960480" lon="9.895418">
        <ele>492.778683</ele>
        <time>2025-05-03T07:32:07.413Z</time>
      </trkpt>
      <trkpt lat="48.960487" lon="9.895416">
        <ele>492.777516</ele>
        <time>2025-05-03T07:32:07.598Z</time>
      </trkpt>
      <trkpt lat="48.960491" lon="9.895415">
        <ele>492.776852</ele>
        <time>2025-05-03T07:32:07.702Z</time>
      </trkpt>
      <trkpt lat="48.960499" lon="9.895413">
        <ele>492.775523</ele>
        <time>2025-05-03T07:32:07.912Z</time>
      </trkpt>
      <trkpt lat="48.960510" lon="9.895413">
        <ele>492.773721</ele>
        <time>2025-05-03T07:32:08.197Z</time>
      </trkpt>
      <trkpt lat="48.960522" lon="9.895413">
        <ele>492.771754</ele>
        <time>2025-05-03T07:32:08.507Z</time>
      </trkpt>
      <trkpt lat="48.960525" lon="9.895416">
        <ele>492.771166</ele>
        <time>2025-05-03T07:32:08.600Z</time>
      </trkpt>
      <trkpt lat="48.960529" lon="9.895413">
        <ele>492.770435</ele>
        <time>2025-05-03T07:32:08.715Z</time>
      </trkpt>
      <trkpt lat="48.960533" lon="9.895413">
        <ele>492.769780</ele>
        <time>2025-05-03T07:32:08.818Z</time>
      </trkpt>
      <trkpt lat="48.960537" lon="9.895420">
        <ele>492.768781</ele>
        <time>2025-05-03T07:32:08.976Z</time>
      </trkpt>
      <trkpt lat="48.960541" lon="9.895420">
        <ele>492.768126</ele>
        <time>2025-05-03T07:32:09.079Z</time>
      </trkpt>
      <trkpt lat="48.960545" lon="9.895416">
        <ele>492.767342</ele>
        <time>2025-05-03T07:32:09.203Z</time>
      </trkpt>
      <trkpt lat="48.960548" lon="9.895416">
        <ele>492.766850</ele>
        <time>2025-05-03T07:32:09.281Z</time>
      </trkpt>
      <trkpt lat="48.960552" lon="9.895416">
        <ele>492.766195</ele>
        <time>2025-05-03T07:32:09.384Z</time>
      </trkpt>
      <trkpt lat="48.960556" lon="9.895418">
        <ele>492.765505</ele>
        <time>2025-05-03T07:32:09.494Z</time>
      </trkpt>
      <trkpt lat="48.960556" lon="9.895422">
        <ele>492.765074</ele>
        <time>2025-05-03T07:32:09.562Z</time>
      </trkpt>
      <trkpt lat="48.960556" lon="9.895425">
        <ele>492.764752</ele>
        <time>2025-05-03T07:32:09.612Z</time>
      </trkpt>
      <trkpt lat="48.960556" lon="9.895447">
        <ele>492.762385</ele>
        <time>2025-05-03T07:32:09.986Z</time>
      </trkpt>
      <trkpt lat="48.960560" lon="9.895462">
        <ele>492.760643</ele>
        <time>2025-05-03T07:32:10.261Z</time>
      </trkpt>
      <trkpt lat="48.960556" lon="9.895470">
        <ele>492.759561</ele>
        <time>2025-05-03T07:32:10.432Z</time>
      </trkpt>
      <trkpt lat="48.960548" lon="9.895463">
        <ele>492.758049</ele>
        <time>2025-05-03T07:32:10.670Z</time>
      </trkpt>
      <trkpt lat="48.960545" lon="9.895470">
        <ele>492.757149</ele>
        <time>2025-05-03T07:32:10.812Z</time>
      </trkpt>
      <trkpt lat="48.960541" lon="9.895473">
        <ele>492.756419</ele>
        <time>2025-05-03T07:32:10.928Z</time>
      </trkpt>
      <trkpt lat="48.960533" lon="9.895480">
        <ele>492.754907</ele>
        <time>2025-05-03T07:32:11.166Z</time>
      </trkpt>
      <trkpt lat="48.960525" lon="9.895478">
        <ele>492.753578</ele>
        <time>2025-05-03T07:32:11.376Z</time>
      </trkpt>
      <trkpt lat="48.960518" lon="9.895478">
        <ele>492.752431</ele>
        <time>2025-05-03T07:32:11.557Z</time>
      </trkpt>
      <trkpt lat="48.960510" lon="9.895485">
        <ele>492.750919</ele>
        <time>2025-05-03T07:32:11.795Z</time>
      </trkpt>
      <trkpt lat="48.960503" lon="9.895487">
        <ele>492.749752</ele>
        <time>2025-05-03T07:32:11.980Z</time>
      </trkpt>
      <trkpt lat="48.960495" lon="9.895489">
        <ele>492.748424</ele>
        <time>2025-05-03T07:32:12.189Z</time>
      </trkpt>
      <trkpt lat="48.960487" lon="9.895489">
        <ele>492.747113</ele>
        <time>2025-05-03T07:32:12.396Z</time>
      </trkpt>
      <trkpt lat="48.960484" lon="9.895487">
        <ele>492.746576</ele>
        <time>2025-05-03T07:32:12.481Z</time>
      </trkpt>
      <trkpt lat="48.960480" lon="9.895482">
        <ele>492.745728</ele>
        <time>2025-05-03T07:32:12.615Z</time>
      </trkpt>
      <trkpt lat="48.960476" lon="9.895472">
        <ele>492.744468</ele>
        <time>2025-05-03T07:32:12.813Z</time>
      </trkpt>
      <trkpt lat="48.960472" lon="9.895463">
        <ele>492.743299</ele>
        <time>2025-05-03T07:32:12.998Z</time>
      </trkpt>
      <trkpt lat="48.960468" lon="9.895445">
        <ele>492.741254</ele>
        <time>2025-05-03T07:32:13.321Z</time>
      </trkpt>
      <trkpt lat="48.960457" lon="9.895427">
        <ele>492.738609</ele>
        <time>2025-05-03T07:32:13.738Z</time>
      </trkpt>
      <trkpt lat="48.960449" lon="9.895411">
        <ele>492.736445</ele>
        <time>2025-05-03T07:32:14.080Z</time>
      </trkpt>
      <trkpt lat="48.960445" lon="9.895393">
        <ele>492.734400</ele>
        <time>2025-05-03T07:32:14.403Z</time>
      </trkpt>
      <trkpt lat="48.960438" lon="9.895373">
        <ele>492.731962</ele>
        <time>2025-05-03T07:32:14.788Z</time>
      </trkpt>
      <trkpt lat="48.960419" lon="9.895317">
        <ele>492.725179</ele>
        <time>2025-05-03T07:32:15.858Z</time>
      </trkpt>
      <trkpt lat="48.960411" lon="9.895282">
        <ele>492.721192</ele>
        <time>2025-05-03T07:32:16.487Z</time>
      </trkpt>
      <trkpt lat="48.960400" lon="9.895245">
        <ele>492.716822</ele>
        <time>2025-05-03T07:32:17.177Z</time>
      </trkpt>
      <trkpt lat="48.960388" lon="9.895220">
        <ele>492.713490</ele>
        <time>2025-05-03T07:32:17.703Z</time>
      </trkpt>
      <trkpt lat="48.960384" lon="9.895226">
        <ele>492.712570</ele>
        <time>2025-05-03T07:32:17.848Z</time>
      </trkpt>
      <trkpt lat="48.960388" lon="9.895224">
        <ele>492.711880</ele>
        <time>2025-05-03T07:32:17.957Z</time>
      </trkpt>
      <trkpt lat="48.960388" lon="9.895222">
        <ele>492.711665</ele>
        <time>2025-05-03T07:32:17.991Z</time>
      </trkpt>
      <trkpt lat="48.960392" lon="9.895220">
        <ele>492.710975</ele>
        <time>2025-05-03T07:32:18.100Z</time>
      </trkpt>
      <trkpt lat="48.960396" lon="9.895218">
        <ele>492.710285</ele>
        <time>2025-05-03T07:32:18.209Z</time>
      </trkpt>
      <trkpt lat="48.960400" lon="9.895220">
        <ele>492.709595</ele>
        <time>2025-05-03T07:32:18.318Z</time>
      </trkpt>
      <trkpt lat="48.960400" lon="9.895222">
        <ele>492.709380</ele>
        <time>2025-05-03T07:32:18.352Z</time>
      </trkpt>
      <trkpt lat="48.960403" lon="9.895217">
        <ele>492.708651</ele>
        <time>2025-05-03T07:32:18.467Z</time>
      </trkpt>
      <trkpt lat="48.960407" lon="9.895211">
        <ele>492.707731</ele>
        <time>2025-05-03T07:32:18.612Z</time>
      </trkpt>
      <trkpt lat="48.960411" lon="9.895215">
        <ele>492.706947</ele>
        <time>2025-05-03T07:32:18.736Z</time>
      </trkpt>
      <trkpt lat="48.960411" lon="9.895217">
        <ele>492.706732</ele>
        <time>2025-05-03T07:32:18.769Z</time>
      </trkpt>
      <trkpt lat="48.960415" lon="9.895217">
        <ele>492.706076</ele>
        <time>2025-05-03T07:32:18.873Z</time>
      </trkpt>
      <trkpt lat="48.960415" lon="9.895218">
        <ele>492.705969</ele>
        <time>2025-05-03T07:32:18.890Z</time>
      </trkpt>
      <trkpt lat="48.960415" lon="9.895213">
        <ele>492.705431</ele>
        <time>2025-05-03T07:32:18.975Z</time>
      </trkpt>
      <trkpt lat="48.960415" lon="9.895208">
        <ele>492.704893</ele>
        <time>2025-05-03T07:32:19.060Z</time>
      </trkpt>
      <trkpt lat="48.960415" lon="9.895206">
        <ele>492.704677</ele>
        <time>2025-05-03T07:32:19.094Z</time>
      </trkpt>
      <trkpt lat="48.960415" lon="9.895204">
        <ele>492.704462</ele>
        <time>2025-05-03T07:32:19.128Z</time>
      </trkpt>
      <trkpt lat="48.960415" lon="9.895202">
        <ele>492.704247</ele>
        <time>2025-05-03T07:32:19.162Z</time>
      </trkpt>
      <trkpt lat="48.960419" lon="9.895200">
        <ele>492.703557</ele>
        <time>2025-05-03T07:32:19.270Z</time>
      </trkpt>
      <trkpt lat="48.960419" lon="9.895199">
        <ele>492.703450</ele>
        <time>2025-05-03T07:32:19.287Z</time>
      </trkpt>
      <trkpt lat="48.960423" lon="9.895197">
        <ele>492.702760</ele>
        <time>2025-05-03T07:32:19.396Z</time>
      </trkpt>
      <trkpt lat="48.960423" lon="9.895195">
        <ele>492.702545</ele>
        <time>2025-05-03T07:32:19.430Z</time>
      </trkpt>
      <trkpt lat="48.960426" lon="9.895195">
        <ele>492.702053</ele>
        <time>2025-05-03T07:32:19.508Z</time>
      </trkpt>
      <trkpt lat="48.960426" lon="9.895193">
        <ele>492.701838</ele>
        <time>2025-05-03T07:32:19.542Z</time>
      </trkpt>
      <trkpt lat="48.960430" lon="9.895193">
        <ele>492.701182</ele>
        <time>2025-05-03T07:32:19.645Z</time>
      </trkpt>
      <trkpt lat="48.960430" lon="9.895191">
        <ele>492.700967</ele>
        <time>2025-05-03T07:32:19.679Z</time>
      </trkpt>
      <trkpt lat="48.960430" lon="9.895190">
        <ele>492.700859</ele>
        <time>2025-05-03T07:32:19.696Z</time>
      </trkpt>
      <trkpt lat="48.960430" lon="9.895188">
        <ele>492.700644</ele>
        <time>2025-05-03T07:32:19.730Z</time>
      </trkpt>
      <trkpt lat="48.960434" lon="9.895186">
        <ele>492.699954</ele>
        <time>2025-05-03T07:32:19.839Z</time>
      </trkpt>
      <trkpt lat="48.960434" lon="9.895188">
        <ele>492.699739</ele>
        <time>2025-05-03T07:32:19.873Z</time>
      </trkpt>
      <trkpt lat="48.960438" lon="9.895188">
        <ele>492.699084</ele>
        <time>2025-05-03T07:32:19.976Z</time>
      </trkpt>
      <trkpt lat="48.960438" lon="9.895186">
        <ele>492.698869</ele>
        <time>2025-05-03T07:32:20.010Z</time>
      </trkpt>
      <trkpt lat="48.960442" lon="9.895186">
        <ele>492.698213</ele>
        <time>2025-05-03T07:32:20.114Z</time>
      </trkpt>
      <trkpt lat="48.960442" lon="9.895185">
        <ele>492.698105</ele>
        <time>2025-05-03T07:32:20.131Z</time>
      </trkpt>
      <trkpt lat="48.960442" lon="9.895184">
        <ele>492.697998</ele>
        <time>2025-05-03T07:32:20.148Z</time>
      </trkpt>
      <trkpt lat="48.960445" lon="9.895182">
        <ele>492.697461</ele>
        <time>2025-05-03T07:32:20.232Z</time>
      </trkpt>
      <trkpt lat="48.960445" lon="9.895180">
        <ele>492.697246</ele>
        <time>2025-05-03T07:32:20.266Z</time>
      </trkpt>
      <trkpt lat="48.960449" lon="9.895180">
        <ele>492.696591</ele>
        <time>2025-05-03T07:32:20.370Z</time>
      </trkpt>
      <trkpt lat="48.960449" lon="9.895178">
        <ele>492.696375</ele>
        <time>2025-05-03T07:32:20.404Z</time>
      </trkpt>
      <trkpt lat="48.960453" lon="9.895177">
        <ele>492.695711</ele>
        <time>2025-05-03T07:32:20.509Z</time>
      </trkpt>
      <trkpt lat="48.960453" lon="9.895178">
        <ele>492.695603</ele>
        <time>2025-05-03T07:32:20.526Z</time>
      </trkpt>
      <trkpt lat="48.960453" lon="9.895177">
        <ele>492.695496</ele>
        <time>2025-05-03T07:32:20.543Z</time>
      </trkpt>
      <trkpt lat="48.960457" lon="9.895177">
        <ele>492.694840</ele>
        <time>2025-05-03T07:32:20.646Z</time>
      </trkpt>
      <trkpt lat="48.960457" lon="9.895175">
        <ele>492.694625</ele>
        <time>2025-05-03T07:32:20.680Z</time>
      </trkpt>
      <trkpt lat="48.960457" lon="9.895173">
        <ele>492.694410</ele>
        <time>2025-05-03T07:32:20.714Z</time>
      </trkpt>
      <trkpt lat="48.960457" lon="9.895172">
        <ele>492.694302</ele>
        <time>2025-05-03T07:32:20.731Z</time>
      </trkpt>
      <trkpt lat="48.960457" lon="9.895170">
        <ele>492.694087</ele>
        <time>2025-05-03T07:32:20.765Z</time>
      </trkpt>
      <trkpt lat="48.960461" lon="9.895170">
        <ele>492.693432</ele>
        <time>2025-05-03T07:32:20.868Z</time>
      </trkpt>
      <trkpt lat="48.960457" lon="9.895170">
        <ele>492.692776</ele>
        <time>2025-05-03T07:32:20.972Z</time>
      </trkpt>
      <trkpt lat="48.960457" lon="9.895173">
        <ele>492.692454</ele>
        <time>2025-05-03T07:32:21.023Z</time>
      </trkpt>
      <trkpt lat="48.960453" lon="9.895175">
        <ele>492.691764</ele>
        <time>2025-05-03T07:32:21.132Z</time>
      </trkpt>
      <trkpt lat="48.960445" lon="9.895173">
        <ele>492.690435</ele>
        <time>2025-05-03T07:32:21.342Z</time>
      </trkpt>
      <trkpt lat="48.960438" lon="9.895170">
        <ele>492.689243</ele>
        <time>2025-05-03T07:32:21.530Z</time>
      </trkpt>
      <trkpt lat="48.960438" lon="9.895168">
        <ele>492.689028</ele>
        <time>2025-05-03T07:32:21.564Z</time>
      </trkpt>
      <trkpt lat="48.960438" lon="9.895162">
        <ele>492.688383</ele>
        <time>2025-05-03T07:32:21.666Z</time>
      </trkpt>
      <trkpt lat="48.960438" lon="9.895152">
        <ele>492.687307</ele>
        <time>2025-05-03T07:32:21.835Z</time>
      </trkpt>
      <trkpt lat="48.960438" lon="9.895153">
        <ele>492.687199</ele>
        <time>2025-05-03T07:32:21.852Z</time>
      </trkpt>
      <trkpt lat="48.960438" lon="9.895150">
        <ele>492.686876</ele>
        <time>2025-05-03T07:32:21.903Z</time>
      </trkpt>
      <trkpt lat="48.960434" lon="9.895148">
        <ele>492.686186</ele>
        <time>2025-05-03T07:32:22.012Z</time>
      </trkpt>
      <trkpt lat="48.960434" lon="9.895150">
        <ele>492.685971</ele>
        <time>2025-05-03T07:32:22.046Z</time>
      </trkpt>
      <trkpt lat="48.960430" lon="9.895155">
        <ele>492.685123</ele>
        <time>2025-05-03T07:32:22.180Z</time>
      </trkpt>
      <trkpt lat="48.960438" lon="9.895166">
        <ele>492.683357</ele>
        <time>2025-05-03T07:32:22.459Z</time>
      </trkpt>
      <trkpt lat="48.960434" lon="9.895165">
        <ele>492.682693</ele>
        <time>2025-05-03T07:32:22.564Z</time>
      </trkpt>
      <trkpt lat="48.960438" lon="9.895165">
        <ele>492.682037</ele>
        <time>2025-05-03T07:32:22.667Z</time>
      </trkpt>
      <trkpt lat="48.960438" lon="9.895164">
        <ele>492.681930</ele>
        <time>2025-05-03T07:32:22.684Z</time>
      </trkpt>
      <trkpt lat="48.960438" lon="9.895162">
        <ele>492.681715</ele>
        <time>2025-05-03T07:32:22.718Z</time>
      </trkpt>
      <trkpt lat="48.960438" lon="9.895164">
        <ele>492.681499</ele>
        <time>2025-05-03T07:32:22.752Z</time>
      </trkpt>
      <trkpt lat="48.960442" lon="9.895166">
        <ele>492.680810</ele>
        <time>2025-05-03T07:32:22.861Z</time>
      </trkpt>
      <trkpt lat="48.960442" lon="9.895175">
        <ele>492.679841</ele>
        <time>2025-05-03T07:32:23.014Z</time>
      </trkpt>
      <trkpt lat="48.960449" lon="9.895178">
        <ele>492.678650</ele>
        <time>2025-05-03T07:32:23.202Z</time>
      </trkpt>
      <trkpt lat="48.960453" lon="9.895172">
        <ele>492.677730</ele>
        <time>2025-05-03T07:32:23.347Z</time>
      </trkpt>
      <trkpt lat="48.960453" lon="9.895162">
        <ele>492.676654</ele>
        <time>2025-05-03T07:32:23.517Z</time>
      </trkpt>
      <trkpt lat="48.960449" lon="9.895148">
        <ele>492.675011</ele>
        <time>2025-05-03T07:32:23.776Z</time>
      </trkpt>
      <trkpt lat="48.960445" lon="9.895152">
        <ele>492.674227</ele>
        <time>2025-05-03T07:32:23.900Z</time>
      </trkpt>
      <trkpt lat="48.960449" lon="9.895148">
        <ele>492.673443</ele>
        <time>2025-05-03T07:32:24.023Z</time>
      </trkpt>
      <trkpt lat="48.960445" lon="9.895145">
        <ele>492.672712</ele>
        <time>2025-05-03T07:32:24.139Z</time>
      </trkpt>
      <trkpt lat="48.960445" lon="9.895142">
        <ele>492.672389</ele>
        <time>2025-05-03T07:32:24.190Z</time>
      </trkpt>
      <trkpt lat="48.960442" lon="9.895150">
        <ele>492.671398</ele>
        <time>2025-05-03T07:32:24.346Z</time>
      </trkpt>
      <trkpt lat="48.960442" lon="9.895142">
        <ele>492.670537</ele>
        <time>2025-05-03T07:32:24.482Z</time>
      </trkpt>
      <trkpt lat="48.960438" lon="9.895139">
        <ele>492.669806</ele>
        <time>2025-05-03T07:32:24.597Z</time>
      </trkpt>
      <trkpt lat="48.960434" lon="9.895137">
        <ele>492.669117</ele>
        <time>2025-05-03T07:32:24.706Z</time>
      </trkpt>
      <trkpt lat="48.960430" lon="9.895130">
        <ele>492.668118</ele>
        <time>2025-05-03T07:32:24.864Z</time>
      </trkpt>
      <trkpt lat="48.960430" lon="9.895128">
        <ele>492.667903</ele>
        <time>2025-05-03T07:32:24.898Z</time>
      </trkpt>
      <trkpt lat="48.960430" lon="9.895117">
        <ele>492.666719</ele>
        <time>2025-05-03T07:32:25.084Z</time>
      </trkpt>
      <trkpt lat="48.960426" lon="9.895115">
        <ele>492.666029</ele>
        <time>2025-05-03T07:32:25.193Z</time>
      </trkpt>
      <trkpt lat="48.960423" lon="9.895123">
        <ele>492.665038</ele>
        <time>2025-05-03T07:32:25.350Z</time>
      </trkpt>
      <trkpt lat="48.960415" lon="9.895120">
        <ele>492.663688</ele>
        <time>2025-05-03T07:32:25.563Z</time>
      </trkpt>
      <trkpt lat="48.960403" lon="9.895122">
        <ele>492.661710</ele>
        <time>2025-05-03T07:32:25.875Z</time>
      </trkpt>
      <trkpt lat="48.960411" lon="9.895122">
        <ele>492.660399</ele>
        <time>2025-05-03T07:32:26.082Z</time>
      </trkpt>
      <trkpt lat="48.960415" lon="9.895130">
        <ele>492.659317</ele>
        <time>2025-05-03T07:32:26.253Z</time>
      </trkpt>
      <trkpt lat="48.960430" lon="9.895148">
        <ele>492.656188</ele>
        <time>2025-05-03T07:32:26.747Z</time>
      </trkpt>
      <trkpt lat="48.960442" lon="9.895159">
        <ele>492.653893</ele>
        <time>2025-05-03T07:32:27.109Z</time>
      </trkpt>
      <trkpt lat="48.960438" lon="9.895160">
        <ele>492.653228</ele>
        <time>2025-05-03T07:32:27.214Z</time>
      </trkpt>
      <trkpt lat="48.960445" lon="9.895168">
        <ele>492.651794</ele>
        <time>2025-05-03T07:32:27.440Z</time>
      </trkpt>
      <trkpt lat="48.960445" lon="9.895166">
        <ele>492.651579</ele>
        <time>2025-05-03T07:32:27.474Z</time>
      </trkpt>
      <trkpt lat="48.960449" lon="9.895166">
        <ele>492.650923</ele>
        <time>2025-05-03T07:32:27.578Z</time>
      </trkpt>
      <trkpt lat="48.960449" lon="9.895165">
        <ele>492.650816</ele>
        <time>2025-05-03T07:32:27.595Z</time>
      </trkpt>
      <trkpt lat="48.960445" lon="9.895165">
        <ele>492.650160</ele>
        <time>2025-05-03T07:32:27.698Z</time>
      </trkpt>
      <trkpt lat="48.960445" lon="9.895164">
        <ele>492.650053</ele>
        <time>2025-05-03T07:32:27.715Z</time>
      </trkpt>
      <trkpt lat="48.960445" lon="9.895165">
        <ele>492.649945</ele>
        <time>2025-05-03T07:32:27.732Z</time>
      </trkpt>
      <trkpt lat="48.960442" lon="9.895165">
        <ele>492.649454</ele>
        <time>2025-05-03T07:32:27.810Z</time>
      </trkpt>
      <trkpt lat="48.960442" lon="9.895164">
        <ele>492.649346</ele>
        <time>2025-05-03T07:32:27.827Z</time>
      </trkpt>
      <trkpt lat="48.960445" lon="9.895162">
        <ele>492.648809</ele>
        <time>2025-05-03T07:32:27.911Z</time>
      </trkpt>
      <trkpt lat="48.960445" lon="9.895164">
        <ele>492.648594</ele>
        <time>2025-05-03T07:32:27.945Z</time>
      </trkpt>
      <trkpt lat="48.960445" lon="9.895165">
        <ele>492.648487</ele>
        <time>2025-05-03T07:32:27.962Z</time>
      </trkpt>
      <trkpt lat="48.960445" lon="9.895162">
        <ele>492.648164</ele>
        <time>2025-05-03T07:32:28.013Z</time>
      </trkpt>
      <trkpt lat="48.960449" lon="9.895162">
        <ele>492.647508</ele>
        <time>2025-05-03T07:32:28.117Z</time>
      </trkpt>
      <trkpt lat="48.960449" lon="9.895164">
        <ele>492.647293</ele>
        <time>2025-05-03T07:32:28.151Z</time>
      </trkpt>
      <trkpt lat="48.960445" lon="9.895164">
        <ele>492.646638</ele>
        <time>2025-05-03T07:32:28.254Z</time>
      </trkpt>
      <trkpt lat="48.960442" lon="9.895164">
        <ele>492.646146</ele>
        <time>2025-05-03T07:32:28.332Z</time>
      </trkpt>
      <trkpt lat="48.960442" lon="9.895165">
        <ele>492.646038</ele>
        <time>2025-05-03T07:32:28.349Z</time>
      </trkpt>
      <trkpt lat="48.960442" lon="9.895164">
        <ele>492.645931</ele>
        <time>2025-05-03T07:32:28.366Z</time>
      </trkpt>
      <trkpt lat="48.960445" lon="9.895162">
        <ele>492.645394</ele>
        <time>2025-05-03T07:32:28.450Z</time>
      </trkpt>
      <trkpt lat="48.960449" lon="9.895160">
        <ele>492.644704</ele>
        <time>2025-05-03T07:32:28.559Z</time>
      </trkpt>
      <trkpt lat="48.960453" lon="9.895159">
        <ele>492.644040</ele>
        <time>2025-05-03T07:32:28.664Z</time>
      </trkpt>
      <trkpt lat="48.960453" lon="9.895157">
        <ele>492.643825</ele>
        <time>2025-05-03T07:32:28.698Z</time>
      </trkpt>
      <trkpt lat="48.960453" lon="9.895155">
        <ele>492.643610</ele>
        <time>2025-05-03T07:32:28.732Z</time>
      </trkpt>
      <trkpt lat="48.960457" lon="9.895155">
        <ele>492.642954</ele>
        <time>2025-05-03T07:32:28.835Z</time>
      </trkpt>
      <trkpt lat="48.960457" lon="9.895153">
        <ele>492.642739</ele>
        <time>2025-05-03T07:32:28.869Z</time>
      </trkpt>
      <trkpt lat="48.960457" lon="9.895152">
        <ele>492.642631</ele>
        <time>2025-05-03T07:32:28.886Z</time>
      </trkpt>
      <trkpt lat="48.960461" lon="9.895152">
        <ele>492.641976</ele>
        <time>2025-05-03T07:32:28.990Z</time>
      </trkpt>
      <trkpt lat="48.960461" lon="9.895150">
        <ele>492.641761</ele>
        <time>2025-05-03T07:32:29.024Z</time>
      </trkpt>
      <trkpt lat="48.960457" lon="9.895152">
        <ele>492.641071</ele>
        <time>2025-05-03T07:32:29.132Z</time>
      </trkpt>
      <trkpt lat="48.960461" lon="9.895150">
        <ele>492.640381</ele>
        <time>2025-05-03T07:32:29.241Z</time>
      </trkpt>
      <trkpt lat="48.960461" lon="9.895152">
        <ele>492.640166</ele>
        <time>2025-05-03T07:32:29.275Z</time>
      </trkpt>
      <trkpt lat="48.960464" lon="9.895152">
        <ele>492.639674</ele>
        <time>2025-05-03T07:32:29.353Z</time>
      </trkpt>
      <trkpt lat="48.960464" lon="9.895153">
        <ele>492.639567</ele>
        <time>2025-05-03T07:32:29.370Z</time>
      </trkpt>
      <trkpt lat="48.960461" lon="9.895155">
        <ele>492.639030</ele>
        <time>2025-05-03T07:32:29.455Z</time>
      </trkpt>
      <trkpt lat="48.960461" lon="9.895157">
        <ele>492.638815</ele>
        <time>2025-05-03T07:32:29.489Z</time>
      </trkpt>
      <trkpt lat="48.960461" lon="9.895160">
        <ele>492.638492</ele>
        <time>2025-05-03T07:32:29.540Z</time>
      </trkpt>
      <trkpt lat="48.960464" lon="9.895160">
        <ele>492.638000</ele>
        <time>2025-05-03T07:32:29.617Z</time>
      </trkpt>
      <trkpt lat="48.960464" lon="9.895162">
        <ele>492.637785</ele>
        <time>2025-05-03T07:32:29.651Z</time>
      </trkpt>
      <trkpt lat="48.960468" lon="9.895162">
        <ele>492.637130</ele>
        <time>2025-05-03T07:32:29.755Z</time>
      </trkpt>
      <trkpt lat="48.960468" lon="9.895160">
        <ele>492.636914</ele>
        <time>2025-05-03T07:32:29.789Z</time>
      </trkpt>
      <trkpt lat="48.960472" lon="9.895159">
        <ele>492.636250</ele>
        <time>2025-05-03T07:32:29.893Z</time>
      </trkpt>
      <trkpt lat="48.960468" lon="9.895159">
        <ele>492.635595</ele>
        <time>2025-05-03T07:32:29.997Z</time>
      </trkpt>
      <trkpt lat="48.960468" lon="9.895153">
        <ele>492.634949</ele>
        <time>2025-05-03T07:32:30.099Z</time>
      </trkpt>
      <trkpt lat="48.960468" lon="9.895155">
        <ele>492.634734</ele>
        <time>2025-05-03T07:32:30.133Z</time>
      </trkpt>
      <trkpt lat="48.960472" lon="9.895153">
        <ele>492.634044</ele>
        <time>2025-05-03T07:32:30.242Z</time>
      </trkpt>
      <trkpt lat="48.960476" lon="9.895153">
        <ele>492.633389</ele>
        <time>2025-05-03T07:32:30.345Z</time>
      </trkpt>
      <trkpt lat="48.960472" lon="9.895157">
        <ele>492.632604</ele>
        <time>2025-05-03T07:32:30.469Z</time>
      </trkpt>
      <trkpt lat="48.960472" lon="9.895159">
        <ele>492.632389</ele>
        <time>2025-05-03T07:32:30.503Z</time>
      </trkpt>
      <trkpt lat="48.960468" lon="9.895157">
        <ele>492.631699</ele>
        <time>2025-05-03T07:32:30.612Z</time>
      </trkpt>
      <trkpt lat="48.960468" lon="9.895159">
        <ele>492.631484</ele>
        <time>2025-05-03T07:32:30.646Z</time>
      </trkpt>
      <trkpt lat="48.960468" lon="9.895157">
        <ele>492.631269</ele>
        <time>2025-05-03T07:32:30.680Z</time>
      </trkpt>
      <trkpt lat="48.960472" lon="9.895157">
        <ele>492.630613</ele>
        <time>2025-05-03T07:32:30.783Z</time>
      </trkpt>
      <trkpt lat="48.960468" lon="9.895157">
        <ele>492.629958</ele>
        <time>2025-05-03T07:32:30.886Z</time>
      </trkpt>
      <trkpt lat="48.960464" lon="9.895159">
        <ele>492.629268</ele>
        <time>2025-05-03T07:32:30.995Z</time>
      </trkpt>
      <trkpt lat="48.960464" lon="9.895160">
        <ele>492.629160</ele>
        <time>2025-05-03T07:32:31.012Z</time>
      </trkpt>
      <trkpt lat="48.960464" lon="9.895159">
        <ele>492.629053</ele>
        <time>2025-05-03T07:32:31.029Z</time>
      </trkpt>
      <trkpt lat="48.960468" lon="9.895159">
        <ele>492.628397</ele>
        <time>2025-05-03T07:32:31.133Z</time>
      </trkpt>
      <trkpt lat="48.960464" lon="9.895159">
        <ele>492.627742</ele>
        <time>2025-05-03T07:32:31.236Z</time>
      </trkpt>
      <trkpt lat="48.960464" lon="9.895155">
        <ele>492.627312</ele>
        <time>2025-05-03T07:32:31.304Z</time>
      </trkpt>
      <trkpt lat="48.960464" lon="9.895159">
        <ele>492.626881</ele>
        <time>2025-05-03T07:32:31.372Z</time>
      </trkpt>
      <trkpt lat="48.960468" lon="9.895159">
        <ele>492.626226</ele>
        <time>2025-05-03T07:32:31.475Z</time>
      </trkpt>
      <trkpt lat="48.960464" lon="9.895157">
        <ele>492.625536</ele>
        <time>2025-05-03T07:32:31.584Z</time>
      </trkpt>
      <trkpt lat="48.960461" lon="9.895155">
        <ele>492.624999</ele>
        <time>2025-05-03T07:32:31.669Z</time>
      </trkpt>
      <trkpt lat="48.960461" lon="9.895157">
        <ele>492.624784</ele>
        <time>2025-05-03T07:32:31.703Z</time>
      </trkpt>
      <trkpt lat="48.960464" lon="9.895153">
        <ele>492.624131</ele>
        <time>2025-05-03T07:32:31.806Z</time>
      </trkpt>
      <trkpt lat="48.960468" lon="9.895152">
        <ele>492.623466</ele>
        <time>2025-05-03T07:32:31.911Z</time>
      </trkpt>
      <trkpt lat="48.960468" lon="9.895150">
        <ele>492.623251</ele>
        <time>2025-05-03T07:32:31.945Z</time>
      </trkpt>
      <trkpt lat="48.960464" lon="9.895150">
        <ele>492.622596</ele>
        <time>2025-05-03T07:32:32.048Z</time>
      </trkpt>
      <trkpt lat="48.960464" lon="9.895146">
        <ele>492.622165</ele>
        <time>2025-05-03T07:32:32.116Z</time>
      </trkpt>
      <trkpt lat="48.960468" lon="9.895146">
        <ele>492.621510</ele>
        <time>2025-05-03T07:32:32.220Z</time>
      </trkpt>
      <trkpt lat="48.960468" lon="9.895145">
        <ele>492.621402</ele>
        <time>2025-05-03T07:32:32.237Z</time>
      </trkpt>
      <trkpt lat="48.960468" lon="9.895146">
        <ele>492.621295</ele>
        <time>2025-05-03T07:32:32.254Z</time>
      </trkpt>
      <trkpt lat="48.960472" lon="9.895150">
        <ele>492.620510</ele>
        <time>2025-05-03T07:32:32.377Z</time>
      </trkpt>
      <trkpt lat="48.960472" lon="9.895148">
        <ele>492.620295</ele>
        <time>2025-05-03T07:32:32.411Z</time>
      </trkpt>
      <trkpt lat="48.960472" lon="9.895150">
        <ele>492.620080</ele>
        <time>2025-05-03T07:32:32.445Z</time>
      </trkpt>
      <trkpt lat="48.960472" lon="9.895152">
        <ele>492.619865</ele>
        <time>2025-05-03T07:32:32.479Z</time>
      </trkpt>
      <trkpt lat="48.960476" lon="9.895153">
        <ele>492.619201</ele>
        <time>2025-05-03T07:32:32.584Z</time>
      </trkpt>
      <trkpt lat="48.960480" lon="9.895153">
        <ele>492.618545</ele>
        <time>2025-05-03T07:32:32.687Z</time>
      </trkpt>
      <trkpt lat="48.960476" lon="9.895153">
        <ele>492.617890</ele>
        <time>2025-05-03T07:32:32.791Z</time>
      </trkpt>
      <trkpt lat="48.960476" lon="9.895155">
        <ele>492.617674</ele>
        <time>2025-05-03T07:32:32.825Z</time>
      </trkpt>
      <trkpt lat="48.960480" lon="9.895153">
        <ele>492.616985</ele>
        <time>2025-05-03T07:32:32.934Z</time>
      </trkpt>
      <trkpt lat="48.960480" lon="9.895155">
        <ele>492.616769</ele>
        <time>2025-05-03T07:32:32.968Z</time>
      </trkpt>
      <trkpt lat="48.960480" lon="9.895157">
        <ele>492.616554</ele>
        <time>2025-05-03T07:32:33.002Z</time>
      </trkpt>
      <trkpt lat="48.960484" lon="9.895157">
        <ele>492.615899</ele>
        <time>2025-05-03T07:32:33.105Z</time>
      </trkpt>
      <trkpt lat="48.960487" lon="9.895157">
        <ele>492.615407</ele>
        <time>2025-05-03T07:32:33.183Z</time>
      </trkpt>
      <trkpt lat="48.960491" lon="9.895157">
        <ele>492.614752</ele>
        <time>2025-05-03T07:32:33.286Z</time>
      </trkpt>
      <trkpt lat="48.960495" lon="9.895157">
        <ele>492.614096</ele>
        <time>2025-05-03T07:32:33.390Z</time>
      </trkpt>
      <trkpt lat="48.960495" lon="9.895159">
        <ele>492.613881</ele>
        <time>2025-05-03T07:32:33.424Z</time>
      </trkpt>
      <trkpt lat="48.960495" lon="9.895160">
        <ele>492.613773</ele>
        <time>2025-05-03T07:32:33.441Z</time>
      </trkpt>
      <trkpt lat="48.960491" lon="9.895160">
        <ele>492.613118</ele>
        <time>2025-05-03T07:32:33.544Z</time>
      </trkpt>
      <trkpt lat="48.960491" lon="9.895159">
        <ele>492.613010</ele>
        <time>2025-05-03T07:32:33.561Z</time>
      </trkpt>
      <trkpt lat="48.960491" lon="9.895157">
        <ele>492.612795</ele>
        <time>2025-05-03T07:32:33.595Z</time>
      </trkpt>
      <trkpt lat="48.960491" lon="9.895159">
        <ele>492.612580</ele>
        <time>2025-05-03T07:32:33.629Z</time>
      </trkpt>
      <trkpt lat="48.960491" lon="9.895157">
        <ele>492.612365</ele>
        <time>2025-05-03T07:32:33.663Z</time>
      </trkpt>
      <trkpt lat="48.960491" lon="9.895155">
        <ele>492.612150</ele>
        <time>2025-05-03T07:32:33.697Z</time>
      </trkpt>
      <trkpt lat="48.960491" lon="9.895153">
        <ele>492.611934</ele>
        <time>2025-05-03T07:32:33.731Z</time>
      </trkpt>
      <trkpt lat="48.960491" lon="9.895152">
        <ele>492.611827</ele>
        <time>2025-05-03T07:32:33.748Z</time>
      </trkpt>
      <trkpt lat="48.960491" lon="9.895150">
        <ele>492.611612</ele>
        <time>2025-05-03T07:32:33.782Z</time>
      </trkpt>
      <trkpt lat="48.960491" lon="9.895148">
        <ele>492.611396</ele>
        <time>2025-05-03T07:32:33.816Z</time>
      </trkpt>
      <trkpt lat="48.960491" lon="9.895146">
        <ele>492.611181</ele>
        <time>2025-05-03T07:32:33.850Z</time>
      </trkpt>
      <trkpt lat="48.960491" lon="9.895148">
        <ele>492.610966</ele>
        <time>2025-05-03T07:32:33.884Z</time>
      </trkpt>
      <trkpt lat="48.960491" lon="9.895150">
        <ele>492.610751</ele>
        <time>2025-05-03T07:32:33.918Z</time>
      </trkpt>
      <trkpt lat="48.960487" lon="9.895146">
        <ele>492.609967</ele>
        <time>2025-05-03T07:32:34.041Z</time>
      </trkpt>
      <trkpt lat="48.960484" lon="9.895145">
        <ele>492.609463</ele>
        <time>2025-05-03T07:32:34.121Z</time>
      </trkpt>
      <trkpt lat="48.960480" lon="9.895143">
        <ele>492.608774</ele>
        <time>2025-05-03T07:32:34.230Z</time>
      </trkpt>
      <trkpt lat="48.960480" lon="9.895145">
        <ele>492.608558</ele>
        <time>2025-05-03T07:32:34.264Z</time>
      </trkpt>
      <trkpt lat="48.960480" lon="9.895143">
        <ele>492.608343</ele>
        <time>2025-05-03T07:32:34.298Z</time>
      </trkpt>
      <trkpt lat="48.960484" lon="9.895143">
        <ele>492.607688</ele>
        <time>2025-05-03T07:32:34.401Z</time>
      </trkpt>
      <trkpt lat="48.960480" lon="9.895142">
        <ele>492.607023</ele>
        <time>2025-05-03T07:32:34.506Z</time>
      </trkpt>
      <trkpt lat="48.960484" lon="9.895142">
        <ele>492.606368</ele>
        <time>2025-05-03T07:32:34.609Z</time>
      </trkpt>
      <trkpt lat="48.960480" lon="9.895142">
        <ele>492.605712</ele>
        <time>2025-05-03T07:32:34.713Z</time>
      </trkpt>
      <trkpt lat="48.960480" lon="9.895143">
        <ele>492.605605</ele>
        <time>2025-05-03T07:32:34.730Z</time>
      </trkpt>
      <trkpt lat="48.960484" lon="9.895143">
        <ele>492.604949</ele>
        <time>2025-05-03T07:32:34.833Z</time>
      </trkpt>
      <trkpt lat="48.960480" lon="9.895145">
        <ele>492.604259</ele>
        <time>2025-05-03T07:32:34.942Z</time>
      </trkpt>
      <trkpt lat="48.960480" lon="9.895146">
        <ele>492.604152</ele>
        <time>2025-05-03T07:32:34.959Z</time>
      </trkpt>
      <trkpt lat="48.960480" lon="9.895145">
        <ele>492.604044</ele>
        <time>2025-05-03T07:32:34.976Z</time>
      </trkpt>
      <trkpt lat="48.960480" lon="9.895146">
        <ele>492.603937</ele>
        <time>2025-05-03T07:32:34.993Z</time>
      </trkpt>
      <trkpt lat="48.960480" lon="9.895145">
        <ele>492.603829</ele>
        <time>2025-05-03T07:32:35.010Z</time>
      </trkpt>
      <trkpt lat="48.960476" lon="9.895146">
        <ele>492.603165</ele>
        <time>2025-05-03T07:32:35.115Z</time>
      </trkpt>
      <trkpt lat="48.960476" lon="9.895148">
        <ele>492.602950</ele>
        <time>2025-05-03T07:32:35.149Z</time>
      </trkpt>
      <trkpt lat="48.960472" lon="9.895146">
        <ele>492.602260</ele>
        <time>2025-05-03T07:32:35.258Z</time>
      </trkpt>
      <trkpt lat="48.960476" lon="9.895148">
        <ele>492.601570</ele>
        <time>2025-05-03T07:32:35.367Z</time>
      </trkpt>
      <trkpt lat="48.960476" lon="9.895150">
        <ele>492.601355</ele>
        <time>2025-05-03T07:32:35.401Z</time>
      </trkpt>
      <trkpt lat="48.960472" lon="9.895148">
        <ele>492.600665</ele>
        <time>2025-05-03T07:32:35.509Z</time>
      </trkpt>
      <trkpt lat="48.960472" lon="9.895146">
        <ele>492.600450</ele>
        <time>2025-05-03T07:32:35.543Z</time>
      </trkpt>
      <trkpt lat="48.960476" lon="9.895146">
        <ele>492.599794</ele>
        <time>2025-05-03T07:32:35.647Z</time>
      </trkpt>
      <trkpt lat="48.960472" lon="9.895146">
        <ele>492.599139</ele>
        <time>2025-05-03T07:32:35.750Z</time>
      </trkpt>
      <trkpt lat="48.960472" lon="9.895145">
        <ele>492.599031</ele>
        <time>2025-05-03T07:32:35.767Z</time>
      </trkpt>
      <trkpt lat="48.960468" lon="9.895143">
        <ele>492.598341</ele>
        <time>2025-05-03T07:32:35.876Z</time>
      </trkpt>
      <trkpt lat="48.960472" lon="9.895143">
        <ele>492.597686</ele>
        <time>2025-05-03T07:32:35.980Z</time>
      </trkpt>
      <trkpt lat="48.960468" lon="9.895145">
        <ele>492.596996</ele>
        <time>2025-05-03T07:32:36.088Z</time>
      </trkpt>
      <trkpt lat="48.960468" lon="9.895143">
        <ele>492.596781</ele>
        <time>2025-05-03T07:32:36.122Z</time>
      </trkpt>
      <trkpt lat="48.960472" lon="9.895145">
        <ele>492.596091</ele>
        <time>2025-05-03T07:32:36.231Z</time>
      </trkpt>
      <trkpt lat="48.960468" lon="9.895145">
        <ele>492.595435</ele>
        <time>2025-05-03T07:32:36.335Z</time>
      </trkpt>
      <trkpt lat="48.960468" lon="9.895143">
        <ele>492.595220</ele>
        <time>2025-05-03T07:32:36.369Z</time>
      </trkpt>
      <trkpt lat="48.960468" lon="9.895140">
        <ele>492.594897</ele>
        <time>2025-05-03T07:32:36.420Z</time>
      </trkpt>
      <trkpt lat="48.960464" lon="9.895140">
        <ele>492.594242</ele>
        <time>2025-05-03T07:32:36.523Z</time>
      </trkpt>
      <trkpt lat="48.960468" lon="9.895139">
        <ele>492.593577</ele>
        <time>2025-05-03T07:32:36.628Z</time>
      </trkpt>
      <trkpt lat="48.960468" lon="9.895142">
        <ele>492.593255</ele>
        <time>2025-05-03T07:32:36.679Z</time>
      </trkpt>
      <trkpt lat="48.960464" lon="9.895140">
        <ele>492.592565</ele>
        <time>2025-05-03T07:32:36.788Z</time>
      </trkpt>
      <trkpt lat="48.960461" lon="9.895137">
        <ele>492.591977</ele>
        <time>2025-05-03T07:32:36.880Z</time>
      </trkpt>
      <trkpt lat="48.960461" lon="9.895135">
        <ele>492.591761</ele>
        <time>2025-05-03T07:32:36.914Z</time>
      </trkpt>
      <trkpt lat="48.960464" lon="9.895133">
        <ele>492.591225</ele>
        <time>2025-05-03T07:32:36.999Z</time>
      </trkpt>
      <trkpt lat="48.960461" lon="9.895133">
        <ele>492.590733</ele>
        <time>2025-05-03T07:32:37.077Z</time>
      </trkpt>
      <trkpt lat="48.960461" lon="9.895132">
        <ele>492.590626</ele>
        <time>2025-05-03T07:32:37.094Z</time>
      </trkpt>
      <trkpt lat="48.960457" lon="9.895130">
        <ele>492.589936</ele>
        <time>2025-05-03T07:32:37.203Z</time>
      </trkpt>
      <trkpt lat="48.960453" lon="9.895128">
        <ele>492.589246</ele>
        <time>2025-05-03T07:32:37.311Z</time>
      </trkpt>
      <trkpt lat="48.960453" lon="9.895125">
        <ele>492.588923</ele>
        <time>2025-05-03T07:32:37.362Z</time>
      </trkpt>
      <trkpt lat="48.960453" lon="9.895123">
        <ele>492.588708</ele>
        <time>2025-05-03T07:32:37.396Z</time>
      </trkpt>
      <trkpt lat="48.960453" lon="9.895122">
        <ele>492.588600</ele>
        <time>2025-05-03T07:32:37.413Z</time>
      </trkpt>
      <trkpt lat="48.960453" lon="9.895125">
        <ele>492.588277</ele>
        <time>2025-05-03T07:32:37.464Z</time>
      </trkpt>
      <trkpt lat="48.960449" lon="9.895128">
        <ele>492.587547</ele>
        <time>2025-05-03T07:32:37.580Z</time>
      </trkpt>
      <trkpt lat="48.960449" lon="9.895130">
        <ele>492.587332</ele>
        <time>2025-05-03T07:32:37.614Z</time>
      </trkpt>
      <trkpt lat="48.960449" lon="9.895132">
        <ele>492.587116</ele>
        <time>2025-05-03T07:32:37.648Z</time>
      </trkpt>
      <trkpt lat="48.960449" lon="9.895135">
        <ele>492.586794</ele>
        <time>2025-05-03T07:32:37.698Z</time>
      </trkpt>
      <trkpt lat="48.960453" lon="9.895137">
        <ele>492.586104</ele>
        <time>2025-05-03T07:32:37.807Z</time>
      </trkpt>
      <trkpt lat="48.960453" lon="9.895139">
        <ele>492.585889</ele>
        <time>2025-05-03T07:32:37.841Z</time>
      </trkpt>
      <trkpt lat="48.960453" lon="9.895140">
        <ele>492.585781</ele>
        <time>2025-05-03T07:32:37.858Z</time>
      </trkpt>
      <trkpt lat="48.960457" lon="9.895142">
        <ele>492.585091</ele>
        <time>2025-05-03T07:32:37.967Z</time>
      </trkpt>
      <trkpt lat="48.960457" lon="9.895143">
        <ele>492.584983</ele>
        <time>2025-05-03T07:32:37.984Z</time>
      </trkpt>
      <trkpt lat="48.960457" lon="9.895142">
        <ele>492.584876</ele>
        <time>2025-05-03T07:32:38.001Z</time>
      </trkpt>
      <trkpt lat="48.960457" lon="9.895143">
        <ele>492.584768</ele>
        <time>2025-05-03T07:32:38.018Z</time>
      </trkpt>
      <trkpt lat="48.960461" lon="9.895143">
        <ele>492.584113</ele>
        <time>2025-05-03T07:32:38.122Z</time>
      </trkpt>
      <trkpt lat="48.960461" lon="9.895145">
        <ele>492.583898</ele>
        <time>2025-05-03T07:32:38.156Z</time>
      </trkpt>
      <trkpt lat="48.960464" lon="9.895143">
        <ele>492.583361</ele>
        <time>2025-05-03T07:32:38.240Z</time>
      </trkpt>
      <trkpt lat="48.960464" lon="9.895145">
        <ele>492.583146</ele>
        <time>2025-05-03T07:32:38.274Z</time>
      </trkpt>
      <trkpt lat="48.960468" lon="9.895145">
        <ele>492.582490</ele>
        <time>2025-05-03T07:32:38.378Z</time>
      </trkpt>
      <trkpt lat="48.960468" lon="9.895143">
        <ele>492.582275</ele>
        <time>2025-05-03T07:32:38.412Z</time>
      </trkpt>
      <trkpt lat="48.960468" lon="9.895142">
        <ele>492.582168</ele>
        <time>2025-05-03T07:32:38.429Z</time>
      </trkpt>
      <trkpt lat="48.960468" lon="9.895140">
        <ele>492.581952</ele>
        <time>2025-05-03T07:32:38.463Z</time>
      </trkpt>
      <trkpt lat="48.960468" lon="9.895142">
        <ele>492.581737</ele>
        <time>2025-05-03T07:32:38.497Z</time>
      </trkpt>
      <trkpt lat="48.960472" lon="9.895142">
        <ele>492.581082</ele>
        <time>2025-05-03T07:32:38.600Z</time>
      </trkpt>
      <trkpt lat="48.960476" lon="9.895140">
        <ele>492.580392</ele>
        <time>2025-05-03T07:32:38.709Z</time>
      </trkpt>
      <trkpt lat="48.960472" lon="9.895140">
        <ele>492.579736</ele>
        <time>2025-05-03T07:32:38.812Z</time>
      </trkpt>
      <trkpt lat="48.960472" lon="9.895142">
        <ele>492.579521</ele>
        <time>2025-05-03T07:32:38.846Z</time>
      </trkpt>
      <trkpt lat="48.960472" lon="9.895145">
        <ele>492.579198</ele>
        <time>2025-05-03T07:32:38.897Z</time>
      </trkpt>
      <trkpt lat="48.960468" lon="9.895145">
        <ele>492.578543</ele>
        <time>2025-05-03T07:32:39.001Z</time>
      </trkpt>
      <trkpt lat="48.960472" lon="9.895145">
        <ele>492.577887</ele>
        <time>2025-05-03T07:32:39.104Z</time>
      </trkpt>
      <trkpt lat="48.960476" lon="9.895146">
        <ele>492.577223</ele>
        <time>2025-05-03T07:32:39.209Z</time>
      </trkpt>
      <trkpt lat="48.960472" lon="9.895148">
        <ele>492.576533</ele>
        <time>2025-05-03T07:32:39.318Z</time>
      </trkpt>
      <trkpt lat="48.960472" lon="9.895150">
        <ele>492.576318</ele>
        <time>2025-05-03T07:32:39.352Z</time>
      </trkpt>
      <trkpt lat="48.960472" lon="9.895148">
        <ele>492.576103</ele>
        <time>2025-05-03T07:32:39.386Z</time>
      </trkpt>
      <trkpt lat="48.960476" lon="9.895150">
        <ele>492.575413</ele>
        <time>2025-05-03T07:32:39.495Z</time>
      </trkpt>
      <trkpt lat="48.960476" lon="9.895148">
        <ele>492.575198</ele>
        <time>2025-05-03T07:32:39.529Z</time>
      </trkpt>
      <trkpt lat="48.960480" lon="9.895148">
        <ele>492.574542</ele>
        <time>2025-05-03T07:32:39.632Z</time>
      </trkpt>
      <trkpt lat="48.960480" lon="9.895150">
        <ele>492.574327</ele>
        <time>2025-05-03T07:32:39.666Z</time>
      </trkpt>
      <trkpt lat="48.960476" lon="9.895150">
        <ele>492.573672</ele>
        <time>2025-05-03T07:32:39.769Z</time>
      </trkpt>
      <trkpt lat="48.960480" lon="9.895150">
        <ele>492.573016</ele>
        <time>2025-05-03T07:32:39.873Z</time>
      </trkpt>
      <trkpt lat="48.960480" lon="9.895152">
        <ele>492.572801</ele>
        <time>2025-05-03T07:32:39.907Z</time>
      </trkpt>
      <trkpt lat="48.960480" lon="9.895150">
        <ele>492.572586</ele>
        <time>2025-05-03T07:32:39.941Z</time>
      </trkpt>
      <trkpt lat="48.960480" lon="9.895152">
        <ele>492.572371</ele>
        <time>2025-05-03T07:32:39.975Z</time>
      </trkpt>
      <trkpt lat="48.960480" lon="9.895153">
        <ele>492.572263</ele>
        <time>2025-05-03T07:32:39.992Z</time>
      </trkpt>
      <trkpt lat="48.960480" lon="9.895152">
        <ele>492.572155</ele>
        <time>2025-05-03T07:32:40.009Z</time>
      </trkpt>
      <trkpt lat="48.960480" lon="9.895153">
        <ele>492.572048</ele>
        <time>2025-05-03T07:32:40.026Z</time>
      </trkpt>
      <trkpt lat="48.960476" lon="9.895152">
        <ele>492.571383</ele>
        <time>2025-05-03T07:32:40.130Z</time>
      </trkpt>
      <trkpt lat="48.960476" lon="9.895155">
        <ele>492.571061</ele>
        <time>2025-05-03T07:32:40.181Z</time>
      </trkpt>
      <trkpt lat="48.960480" lon="9.895153">
        <ele>492.570371</ele>
        <time>2025-05-03T07:32:40.290Z</time>
      </trkpt>
      <trkpt lat="48.960480" lon="9.895155">
        <ele>492.570156</ele>
        <time>2025-05-03T07:32:40.324Z</time>
      </trkpt>
      <trkpt lat="48.960480" lon="9.895157">
        <ele>492.569940</ele>
        <time>2025-05-03T07:32:40.358Z</time>
      </trkpt>
      <trkpt lat="48.960476" lon="9.895155">
        <ele>492.569251</ele>
        <time>2025-05-03T07:32:40.467Z</time>
      </trkpt>
      <trkpt lat="48.960480" lon="9.895157">
        <ele>492.568561</ele>
        <time>2025-05-03T07:32:40.576Z</time>
      </trkpt>
      <trkpt lat="48.960484" lon="9.895157">
        <ele>492.567905</ele>
        <time>2025-05-03T07:32:40.679Z</time>
      </trkpt>
      <trkpt lat="48.960484" lon="9.895159">
        <ele>492.567690</ele>
        <time>2025-05-03T07:32:40.713Z</time>
      </trkpt>
      <trkpt lat="48.960487" lon="9.895159">
        <ele>492.567198</ele>
        <time>2025-05-03T07:32:40.791Z</time>
      </trkpt>
      <trkpt lat="48.960491" lon="9.895159">
        <ele>492.566543</ele>
        <time>2025-05-03T07:32:40.894Z</time>
      </trkpt>
      <trkpt lat="48.960495" lon="9.895160">
        <ele>492.565879</ele>
        <time>2025-05-03T07:32:40.999Z</time>
      </trkpt>
      <trkpt lat="48.960495" lon="9.895162">
        <ele>492.565663</ele>
        <time>2025-05-03T07:32:41.033Z</time>
      </trkpt>
      <trkpt lat="48.960491" lon="9.895164">
        <ele>492.564973</ele>
        <time>2025-05-03T07:32:41.142Z</time>
      </trkpt>
      <trkpt lat="48.960491" lon="9.895165">
        <ele>492.564866</ele>
        <time>2025-05-03T07:32:41.159Z</time>
      </trkpt>
      <trkpt lat="48.960495" lon="9.895164">
        <ele>492.564202</ele>
        <time>2025-05-03T07:32:41.264Z</time>
      </trkpt>
      <trkpt lat="48.960495" lon="9.895165">
        <ele>492.564094</ele>
        <time>2025-05-03T07:32:41.281Z</time>
      </trkpt>
      <trkpt lat="48.960495" lon="9.895164">
        <ele>492.563986</ele>
        <time>2025-05-03T07:32:41.298Z</time>
      </trkpt>
      <trkpt lat="48.960495" lon="9.895162">
        <ele>492.563771</ele>
        <time>2025-05-03T07:32:41.332Z</time>
      </trkpt>
      <trkpt lat="48.960499" lon="9.895162">
        <ele>492.563116</ele>
        <time>2025-05-03T07:32:41.435Z</time>
      </trkpt>
      <trkpt lat="48.960503" lon="9.895164">
        <ele>492.562426</ele>
        <time>2025-05-03T07:32:41.544Z</time>
      </trkpt>
      <trkpt lat="48.960503" lon="9.895165">
        <ele>492.562318</ele>
        <time>2025-05-03T07:32:41.561Z</time>
      </trkpt>
      <trkpt lat="48.960503" lon="9.895164">
        <ele>492.562211</ele>
        <time>2025-05-03T07:32:41.578Z</time>
      </trkpt>
      <trkpt lat="48.960503" lon="9.895162">
        <ele>492.561996</ele>
        <time>2025-05-03T07:32:41.612Z</time>
      </trkpt>
      <trkpt lat="48.960506" lon="9.895164">
        <ele>492.561459</ele>
        <time>2025-05-03T07:32:41.697Z</time>
      </trkpt>
      <trkpt lat="48.960506" lon="9.895162">
        <ele>492.561244</ele>
        <time>2025-05-03T07:32:41.731Z</time>
      </trkpt>
      <trkpt lat="48.960506" lon="9.895164">
        <ele>492.561028</ele>
        <time>2025-05-03T07:32:41.765Z</time>
      </trkpt>
      <trkpt lat="48.960506" lon="9.895162">
        <ele>492.560813</ele>
        <time>2025-05-03T07:32:41.799Z</time>
      </trkpt>
      <trkpt lat="48.960506" lon="9.895160">
        <ele>492.560598</ele>
        <time>2025-05-03T07:32:41.833Z</time>
      </trkpt>
      <trkpt lat="48.960506" lon="9.895159">
        <ele>492.560491</ele>
        <time>2025-05-03T07:32:41.850Z</time>
      </trkpt>
      <trkpt lat="48.960506" lon="9.895155">
        <ele>492.560060</ele>
        <time>2025-05-03T07:32:41.918Z</time>
      </trkpt>
      <trkpt lat="48.960506" lon="9.895153">
        <ele>492.559845</ele>
        <time>2025-05-03T07:32:41.951Z</time>
      </trkpt>
      <trkpt lat="48.960503" lon="9.895153">
        <ele>492.559353</ele>
        <time>2025-05-03T07:32:42.029Z</time>
      </trkpt>
      <trkpt lat="48.960506" lon="9.895152">
        <ele>492.558850</ele>
        <time>2025-05-03T07:32:42.108Z</time>
      </trkpt>
      <trkpt lat="48.960503" lon="9.895152">
        <ele>492.558358</ele>
        <time>2025-05-03T07:32:42.186Z</time>
      </trkpt>
      <trkpt lat="48.960503" lon="9.895150">
        <ele>492.558143</ele>
        <time>2025-05-03T07:32:42.220Z</time>
      </trkpt>
      <trkpt lat="48.960506" lon="9.895150">
        <ele>492.557652</ele>
        <time>2025-05-03T07:32:42.298Z</time>
      </trkpt>
      <trkpt lat="48.960506" lon="9.895148">
        <ele>492.557436</ele>
        <time>2025-05-03T07:32:42.332Z</time>
      </trkpt>
      <trkpt lat="48.960503" lon="9.895146">
        <ele>492.556900</ele>
        <time>2025-05-03T07:32:42.416Z</time>
      </trkpt>
      <trkpt lat="48.960503" lon="9.895145">
        <ele>492.556792</ele>
        <time>2025-05-03T07:32:42.433Z</time>
      </trkpt>
      <trkpt lat="48.960499" lon="9.895145">
        <ele>492.556137</ele>
        <time>2025-05-03T07:32:42.537Z</time>
      </trkpt>
      <trkpt lat="48.960499" lon="9.895143">
        <ele>492.555922</ele>
        <time>2025-05-03T07:32:42.571Z</time>
      </trkpt>
      <trkpt lat="48.960499" lon="9.895145">
        <ele>492.555706</ele>
        <time>2025-05-03T07:32:42.605Z</time>
      </trkpt>
      <trkpt lat="48.960499" lon="9.895146">
        <ele>492.555599</ele>
        <time>2025-05-03T07:32:42.622Z</time>
      </trkpt>
      <trkpt lat="48.960503" lon="9.895146">
        <ele>492.554943</ele>
        <time>2025-05-03T07:32:42.725Z</time>
      </trkpt>
      <trkpt lat="48.960506" lon="9.895146">
        <ele>492.554452</ele>
        <time>2025-05-03T07:32:42.803Z</time>
      </trkpt>
      <trkpt lat="48.960506" lon="9.895145">
        <ele>492.554344</ele>
        <time>2025-05-03T07:32:42.820Z</time>
      </trkpt>
      <trkpt lat="48.960510" lon="9.895145">
        <ele>492.553689</ele>
        <time>2025-05-03T07:32:42.923Z</time>
      </trkpt>
      <trkpt lat="48.960510" lon="9.895148">
        <ele>492.553366</ele>
        <time>2025-05-03T07:32:42.974Z</time>
      </trkpt>
      <trkpt lat="48.960514" lon="9.895155">
        <ele>492.552367</ele>
        <time>2025-05-03T07:32:43.132Z</time>
      </trkpt>
      <trkpt lat="48.960514" lon="9.895160">
        <ele>492.551829</ele>
        <time>2025-05-03T07:32:43.216Z</time>
      </trkpt>
      <trkpt lat="48.960518" lon="9.895165">
        <ele>492.550981</ele>
        <time>2025-05-03T07:32:43.350Z</time>
      </trkpt>
      <trkpt lat="48.960518" lon="9.895178">
        <ele>492.549583</ele>
        <time>2025-05-03T07:32:43.571Z</time>
      </trkpt>
      <trkpt lat="48.960506" lon="9.895191">
        <ele>492.547170</ele>
        <time>2025-05-03T07:32:43.952Z</time>
      </trkpt>
      <trkpt lat="48.960506" lon="9.895202">
        <ele>492.545986</ele>
        <time>2025-05-03T07:32:44.139Z</time>
      </trkpt>
      <trkpt lat="48.960499" lon="9.895213">
        <ele>492.544338</ele>
        <time>2025-05-03T07:32:44.399Z</time>
      </trkpt>
      <trkpt lat="48.960499" lon="9.895217">
        <ele>492.543907</ele>
        <time>2025-05-03T07:32:44.467Z</time>
      </trkpt>
      <trkpt lat="48.960495" lon="9.895228">
        <ele>492.542555</ele>
        <time>2025-05-03T07:32:44.680Z</time>
      </trkpt>
      <trkpt lat="48.960495" lon="9.895237">
        <ele>492.541586</ele>
        <time>2025-05-03T07:32:44.833Z</time>
      </trkpt>
      <trkpt lat="48.960495" lon="9.895248">
        <ele>492.540403</ele>
        <time>2025-05-03T07:32:45.020Z</time>
      </trkpt>
      <trkpt lat="48.960495" lon="9.895260">
        <ele>492.539112</ele>
        <time>2025-05-03T07:32:45.223Z</time>
      </trkpt>
      <trkpt lat="48.960491" lon="9.895273">
        <ele>492.537567</ele>
        <time>2025-05-03T07:32:45.467Z</time>
      </trkpt>
      <trkpt lat="48.960491" lon="9.895285">
        <ele>492.536276</ele>
        <time>2025-05-03T07:32:45.671Z</time>
      </trkpt>
      <trkpt lat="48.960491" lon="9.895291">
        <ele>492.535630</ele>
        <time>2025-05-03T07:32:45.773Z</time>
      </trkpt>
      <trkpt lat="48.960487" lon="9.895305">
        <ele>492.533987</ele>
        <time>2025-05-03T07:32:46.032Z</time>
      </trkpt>
      <trkpt lat="48.960484" lon="9.895317">
        <ele>492.532606</ele>
        <time>2025-05-03T07:32:46.250Z</time>
      </trkpt>
      <trkpt lat="48.960468" lon="9.895353">
        <ele>492.527928</ele>
        <time>2025-05-03T07:32:46.988Z</time>
      </trkpt>
      <trkpt lat="48.960457" lon="9.895357">
        <ele>492.526075</ele>
        <time>2025-05-03T07:32:47.280Z</time>
      </trkpt>
      <trkpt lat="48.960445" lon="9.895358">
        <ele>492.524106</ele>
        <time>2025-05-03T07:32:47.590Z</time>
      </trkpt>
      <trkpt lat="48.960449" lon="9.895369">
        <ele>492.522753</ele>
        <time>2025-05-03T07:32:47.804Z</time>
      </trkpt>
      <trkpt lat="48.960453" lon="9.895376">
        <ele>492.521754</ele>
        <time>2025-05-03T07:32:47.962Z</time>
      </trkpt>
      <trkpt lat="48.960457" lon="9.895387">
        <ele>492.520402</ele>
        <time>2025-05-03T07:32:48.176Z</time>
      </trkpt>
      <trkpt lat="48.960468" lon="9.895395">
        <ele>492.518404</ele>
        <time>2025-05-03T07:32:48.491Z</time>
      </trkpt>
      <trkpt lat="48.960468" lon="9.895402">
        <ele>492.517651</ele>
        <time>2025-05-03T07:32:48.610Z</time>
      </trkpt>
      <trkpt lat="48.960476" lon="9.895400">
        <ele>492.516322</ele>
        <time>2025-05-03T07:32:48.820Z</time>
      </trkpt>
      <trkpt lat="48.960476" lon="9.895402">
        <ele>492.516107</ele>
        <time>2025-05-03T07:32:48.854Z</time>
      </trkpt>
      <trkpt lat="48.960476" lon="9.895409">
        <ele>492.515354</ele>
        <time>2025-05-03T07:32:48.973Z</time>
      </trkpt>
      <trkpt lat="48.960476" lon="9.895415">
        <ele>492.514708</ele>
        <time>2025-05-03T07:32:49.074Z</time>
      </trkpt>
      <trkpt lat="48.960476" lon="9.895418">
        <ele>492.514386</ele>
        <time>2025-05-03T07:32:49.125Z</time>
      </trkpt>
      <trkpt lat="48.960468" lon="9.895420">
        <ele>492.513057</ele>
        <time>2025-05-03T07:32:49.335Z</time>
      </trkpt>
      <trkpt lat="48.960461" lon="9.895422">
        <ele>492.511890</ele>
        <time>2025-05-03T07:32:49.519Z</time>
      </trkpt>
      <trkpt lat="48.960457" lon="9.895420">
        <ele>492.511200</ele>
        <time>2025-05-03T07:32:49.628Z</time>
      </trkpt>
      <trkpt lat="48.960457" lon="9.895422">
        <ele>492.510985</ele>
        <time>2025-05-03T07:32:49.662Z</time>
      </trkpt>
      <trkpt lat="48.960461" lon="9.895423">
        <ele>492.510321</ele>
        <time>2025-05-03T07:32:49.767Z</time>
      </trkpt>
      <trkpt lat="48.960464" lon="9.895425">
        <ele>492.509784</ele>
        <time>2025-05-03T07:32:49.852Z</time>
      </trkpt>
      <trkpt lat="48.960472" lon="9.895423">
        <ele>492.508455</ele>
        <time>2025-05-03T07:32:50.061Z</time>
      </trkpt>
      <trkpt lat="48.960476" lon="9.895418">
        <ele>492.507607</ele>
        <time>2025-05-03T07:32:50.195Z</time>
      </trkpt>
      <trkpt lat="48.960480" lon="9.895416">
        <ele>492.506918</ele>
        <time>2025-05-03T07:32:50.304Z</time>
      </trkpt>
      <trkpt lat="48.960484" lon="9.895413">
        <ele>492.506187</ele>
        <time>2025-05-03T07:32:50.419Z</time>
      </trkpt>
      <trkpt lat="48.960491" lon="9.895415">
        <ele>492.505020</ele>
        <time>2025-05-03T07:32:50.603Z</time>
      </trkpt>
      <trkpt lat="48.960495" lon="9.895413">
        <ele>492.504330</ele>
        <time>2025-05-03T07:32:50.712Z</time>
      </trkpt>
      <trkpt lat="48.960499" lon="9.895410">
        <ele>492.503599</ele>
        <time>2025-05-03T07:32:50.828Z</time>
      </trkpt>
      <trkpt lat="48.960503" lon="9.895405">
        <ele>492.502751</ele>
        <time>2025-05-03T07:32:50.961Z</time>
      </trkpt>
      <trkpt lat="48.960510" lon="9.895409">
        <ele>492.501526</ele>
        <time>2025-05-03T07:32:51.155Z</time>
      </trkpt>
      <trkpt lat="48.960514" lon="9.895411">
        <ele>492.500836</ele>
        <time>2025-05-03T07:32:51.264Z</time>
      </trkpt>
      <trkpt lat="48.960533" lon="9.895430">
        <ele>492.497245</ele>
        <time>2025-05-03T07:32:51.851Z</time>
      </trkpt>
      <trkpt lat="48.960541" lon="9.895443">
        <ele>492.496123</ele>
        <time>2025-05-03T07:32:52.154Z</time>
      </trkpt>
      <trkpt lat="48.960545" lon="9.895450">
        <ele>492.495539</ele>
        <time>2025-05-03T07:32:52.312Z</time>
      </trkpt>
      <trkpt lat="48.960548" lon="9.895456">
        <ele>492.495065</ele>
        <time>2025-05-03T07:32:52.440Z</time>
      </trkpt>
      <trkpt lat="48.960552" lon="9.895452">
        <ele>492.494606</ele>
        <time>2025-05-03T07:32:52.563Z</time>
      </trkpt>
      <trkpt lat="48.960556" lon="9.895460">
        <ele>492.493973</ele>
        <time>2025-05-03T07:32:52.734Z</time>
      </trkpt>
      <trkpt lat="48.960560" lon="9.895456">
        <ele>492.493515</ele>
        <time>2025-05-03T07:32:52.858Z</time>
      </trkpt>
      <trkpt lat="48.960560" lon="9.895460">
        <ele>492.493263</ele>
        <time>2025-05-03T07:32:52.926Z</time>
      </trkpt>
      <trkpt lat="48.960564" lon="9.895462">
        <ele>492.492860</ele>
        <time>2025-05-03T07:32:53.035Z</time>
      </trkpt>
      <trkpt lat="48.960564" lon="9.895465">
        <ele>492.492671</ele>
        <time>2025-05-03T07:32:53.086Z</time>
      </trkpt>
      <trkpt lat="48.960564" lon="9.895469">
        <ele>492.492419</ele>
        <time>2025-05-03T07:32:53.154Z</time>
      </trkpt>
      <trkpt lat="48.960564" lon="9.895467">
        <ele>492.492293</ele>
        <time>2025-05-03T07:32:53.188Z</time>
      </trkpt>
      <trkpt lat="48.960564" lon="9.895465">
        <ele>492.492167</ele>
        <time>2025-05-03T07:32:53.221Z</time>
      </trkpt>
      <trkpt lat="48.960567" lon="9.895463">
        <ele>492.491853</ele>
        <time>2025-05-03T07:32:53.306Z</time>
      </trkpt>
      <trkpt lat="48.960567" lon="9.895462">
        <ele>492.491791</ele>
        <time>2025-05-03T07:32:53.323Z</time>
      </trkpt>
      <trkpt lat="48.960571" lon="9.895462">
        <ele>492.491407</ele>
        <time>2025-05-03T07:32:53.427Z</time>
      </trkpt>
      <trkpt lat="48.960575" lon="9.895465">
        <ele>492.490980</ele>
        <time>2025-05-03T07:32:53.542Z</time>
      </trkpt>
      <trkpt lat="48.960575" lon="9.895470">
        <ele>492.490665</ele>
        <time>2025-05-03T07:32:53.627Z</time>
      </trkpt>
      <trkpt lat="48.960579" lon="9.895472">
        <ele>492.490262</ele>
        <time>2025-05-03T07:32:53.736Z</time>
      </trkpt>
      <trkpt lat="48.960575" lon="9.895473">
        <ele>492.489873</ele>
        <time>2025-05-03T07:32:53.841Z</time>
      </trkpt>
      <trkpt lat="48.960575" lon="9.895472">
        <ele>492.489810</ele>
        <time>2025-05-03T07:32:53.858Z</time>
      </trkpt>
      <trkpt lat="48.960564" lon="9.895463">
        <ele>492.488613</ele>
        <time>2025-05-03T07:32:54.180Z</time>
      </trkpt>
      <trkpt lat="48.960560" lon="9.895467">
        <ele>492.488155</ele>
        <time>2025-05-03T07:32:54.304Z</time>
      </trkpt>
      <trkpt lat="48.960552" lon="9.895470">
        <ele>492.487365</ele>
        <time>2025-05-03T07:32:54.517Z</time>
      </trkpt>
      <trkpt lat="48.960548" lon="9.895470">
        <ele>492.486982</ele>
        <time>2025-05-03T07:32:54.621Z</time>
      </trkpt>
      <trkpt lat="48.960548" lon="9.895475">
        <ele>492.486667</ele>
        <time>2025-05-03T07:32:54.706Z</time>
      </trkpt>
      <trkpt lat="48.960548" lon="9.895478">
        <ele>492.486478</ele>
        <time>2025-05-03T07:32:54.756Z</time>
      </trkpt>
      <trkpt lat="48.960545" lon="9.895485">
        <ele>492.485952</ele>
        <time>2025-05-03T07:32:54.898Z</time>
      </trkpt>
      <trkpt lat="48.960541" lon="9.895487">
        <ele>492.485549</ele>
        <time>2025-05-03T07:32:55.007Z</time>
      </trkpt>
      <trkpt lat="48.960537" lon="9.895492">
        <ele>492.485053</ele>
        <time>2025-05-03T07:32:55.141Z</time>
      </trkpt>
      <trkpt lat="48.960533" lon="9.895492">
        <ele>492.484670</ele>
        <time>2025-05-03T07:32:55.245Z</time>
      </trkpt>
      <trkpt lat="48.960529" lon="9.895495">
        <ele>492.484242</ele>
        <time>2025-05-03T07:32:55.360Z</time>
      </trkpt>
      <trkpt lat="48.960525" lon="9.895496">
        <ele>492.483854</ele>
        <time>2025-05-03T07:32:55.465Z</time>
      </trkpt>
      <trkpt lat="48.960514" lon="9.895495">
        <ele>492.482798</ele>
        <time>2025-05-03T07:32:55.750Z</time>
      </trkpt>
      <trkpt lat="48.960506" lon="9.895492">
        <ele>492.482008</ele>
        <time>2025-05-03T07:32:55.963Z</time>
      </trkpt>
      <trkpt lat="48.960503" lon="9.895498">
        <ele>492.481533</ele>
        <time>2025-05-03T07:32:56.091Z</time>
      </trkpt>
      <trkpt lat="48.960495" lon="9.895500">
        <ele>492.480756</ele>
        <time>2025-05-03T07:32:56.300Z</time>
      </trkpt>
      <trkpt lat="48.960491" lon="9.895493">
        <ele>492.480172</ele>
        <time>2025-05-03T07:32:56.458Z</time>
      </trkpt>
      <trkpt lat="48.960487" lon="9.895487">
        <ele>492.479634</ele>
        <time>2025-05-03T07:32:56.603Z</time>
      </trkpt>
      <trkpt lat="48.960484" lon="9.895475">
        <ele>492.478826</ele>
        <time>2025-05-03T07:32:56.821Z</time>
      </trkpt>
      <trkpt lat="48.960476" lon="9.895456">
        <ele>492.477406</ele>
        <time>2025-05-03T07:32:57.204Z</time>
      </trkpt>
      <trkpt lat="48.960472" lon="9.895436">
        <ele>492.476090</ele>
        <time>2025-05-03T07:32:57.559Z</time>
      </trkpt>
      <trkpt lat="48.960464" lon="9.895402">
        <ele>492.473817</ele>
        <time>2025-05-03T07:32:58.173Z</time>
      </trkpt>
      <trkpt lat="48.960445" lon="9.895387">
        <ele>492.471766</ele>
        <time>2025-05-03T07:32:58.726Z</time>
      </trkpt>
      <trkpt lat="48.960445" lon="9.895369">
        <ele>492.470634</ele>
        <time>2025-05-03T07:32:59.032Z</time>
      </trkpt>
      <trkpt lat="48.960438" lon="9.895355">
        <ele>492.469526</ele>
        <time>2025-05-03T07:32:59.331Z</time>
      </trkpt>
      <trkpt lat="48.960442" lon="9.895338">
        <ele>492.468390</ele>
        <time>2025-05-03T07:32:59.637Z</time>
      </trkpt>
      <trkpt lat="48.960434" lon="9.895330">
        <ele>492.467473</ele>
        <time>2025-05-03T07:32:59.885Z</time>
      </trkpt>
      <trkpt lat="48.960434" lon="9.895324">
        <ele>492.467095</ele>
        <time>2025-05-03T07:32:59.987Z</time>
      </trkpt>
      <trkpt lat="48.960430" lon="9.895311">
        <ele>492.466192</ele>
        <time>2025-05-03T07:33:00.230Z</time>
      </trkpt>
      <trkpt lat="48.960430" lon="9.895305">
        <ele>492.465814</ele>
        <time>2025-05-03T07:33:00.332Z</time>
      </trkpt>
      <trkpt lat="48.960426" lon="9.895293">
        <ele>492.464967</ele>
        <time>2025-05-03T07:33:00.561Z</time>
      </trkpt>
      <trkpt lat="48.960426" lon="9.895288">
        <ele>492.464652</ele>
        <time>2025-05-03T07:33:00.646Z</time>
      </trkpt>
      <trkpt lat="48.960423" lon="9.895285">
        <ele>492.464308</ele>
        <time>2025-05-03T07:33:00.738Z</time>
      </trkpt>
      <trkpt lat="48.960423" lon="9.895284">
        <ele>492.464246</ele>
        <time>2025-05-03T07:33:00.755Z</time>
      </trkpt>
      <trkpt lat="48.960423" lon="9.895285">
        <ele>492.464183</ele>
        <time>2025-05-03T07:33:00.772Z</time>
      </trkpt>
      <trkpt lat="48.960423" lon="9.895284">
        <ele>492.464120</ele>
        <time>2025-05-03T07:33:00.789Z</time>
      </trkpt>
      <trkpt lat="48.960423" lon="9.895280">
        <ele>492.463868</ele>
        <time>2025-05-03T07:33:00.857Z</time>
      </trkpt>
      <trkpt lat="48.960423" lon="9.895275">
        <ele>492.463553</ele>
        <time>2025-05-03T07:33:00.942Z</time>
      </trkpt>
      <trkpt lat="48.960423" lon="9.895271">
        <ele>492.463302</ele>
        <time>2025-05-03T07:33:01.010Z</time>
      </trkpt>
      <trkpt lat="48.960423" lon="9.895267">
        <ele>492.463050</ele>
        <time>2025-05-03T07:33:01.078Z</time>
      </trkpt>
      <trkpt lat="48.960423" lon="9.895265">
        <ele>492.462924</ele>
        <time>2025-05-03T07:33:01.112Z</time>
      </trkpt>
      <trkpt lat="48.960423" lon="9.895262">
        <ele>492.462735</ele>
        <time>2025-05-03T07:33:01.163Z</time>
      </trkpt>
      <trkpt lat="48.960423" lon="9.895257">
        <ele>492.462421</ele>
        <time>2025-05-03T07:33:01.248Z</time>
      </trkpt>
      <trkpt lat="48.960423" lon="9.895248">
        <ele>492.461854</ele>
        <time>2025-05-03T07:33:01.401Z</time>
      </trkpt>
      <trkpt lat="48.960423" lon="9.895244">
        <ele>492.461603</ele>
        <time>2025-05-03T07:33:01.469Z</time>
      </trkpt>
      <trkpt lat="48.960426" lon="9.895240">
        <ele>492.461220</ele>
        <time>2025-05-03T07:33:01.572Z</time>
      </trkpt>
      <trkpt lat="48.960430" lon="9.895240">
        <ele>492.460837</ele>
        <time>2025-05-03T07:33:01.675Z</time>
      </trkpt>
      <trkpt lat="48.960423" lon="9.895237">
        <ele>492.460140</ele>
        <time>2025-05-03T07:33:01.863Z</time>
      </trkpt>
      <trkpt lat="48.960419" lon="9.895233">
        <ele>492.459681</ele>
        <time>2025-05-03T07:33:01.987Z</time>
      </trkpt>
      <trkpt lat="48.960419" lon="9.895228">
        <ele>492.459367</ele>
        <time>2025-05-03T07:33:02.072Z</time>
      </trkpt>
      <trkpt lat="48.960423" lon="9.895220">
        <ele>492.458734</ele>
        <time>2025-05-03T07:33:02.243Z</time>
      </trkpt>
      <trkpt lat="48.960426" lon="9.895215">
        <ele>492.458308</ele>
        <time>2025-05-03T07:33:02.358Z</time>
      </trkpt>
      <trkpt lat="48.960426" lon="9.895211">
        <ele>492.458056</ele>
        <time>2025-05-03T07:33:02.426Z</time>
      </trkpt>
      <trkpt lat="48.960426" lon="9.895206">
        <ele>492.457741</ele>
        <time>2025-05-03T07:33:02.510Z</time>
      </trkpt>
      <trkpt lat="48.960426" lon="9.895204">
        <ele>492.457616</ele>
        <time>2025-05-03T07:33:02.544Z</time>
      </trkpt>
      <trkpt lat="48.960426" lon="9.895202">
        <ele>492.457490</ele>
        <time>2025-05-03T07:33:02.578Z</time>
      </trkpt>
      <trkpt lat="48.960426" lon="9.895199">
        <ele>492.457301</ele>
        <time>2025-05-03T07:33:02.629Z</time>
      </trkpt>
      <trkpt lat="48.960430" lon="9.895197">
        <ele>492.456897</ele>
        <time>2025-05-03T07:33:02.738Z</time>
      </trkpt>
      <trkpt lat="48.960430" lon="9.895193">
        <ele>492.456646</ele>
        <time>2025-05-03T07:33:02.806Z</time>
      </trkpt>
      <trkpt lat="48.960430" lon="9.895190">
        <ele>492.456457</ele>
        <time>2025-05-03T07:33:02.857Z</time>
      </trkpt>
      <trkpt lat="48.960430" lon="9.895188">
        <ele>492.456331</ele>
        <time>2025-05-03T07:33:02.891Z</time>
      </trkpt>
      <trkpt lat="48.960430" lon="9.895186">
        <ele>492.456205</ele>
        <time>2025-05-03T07:33:02.925Z</time>
      </trkpt>
      <trkpt lat="48.960434" lon="9.895185">
        <ele>492.455817</ele>
        <time>2025-05-03T07:33:03.030Z</time>
      </trkpt>
      <trkpt lat="48.960434" lon="9.895184">
        <ele>492.455754</ele>
        <time>2025-05-03T07:33:03.047Z</time>
      </trkpt>
      <trkpt lat="48.960434" lon="9.895182">
        <ele>492.455628</ele>
        <time>2025-05-03T07:33:03.081Z</time>
      </trkpt>
      <trkpt lat="48.960438" lon="9.895182">
        <ele>492.455245</ele>
        <time>2025-05-03T07:33:03.184Z</time>
      </trkpt>
      <trkpt lat="48.960434" lon="9.895180">
        <ele>492.454841</ele>
        <time>2025-05-03T07:33:03.293Z</time>
      </trkpt>
      <trkpt lat="48.960438" lon="9.895180">
        <ele>492.454458</ele>
        <time>2025-05-03T07:33:03.396Z</time>
      </trkpt>
      <trkpt lat="48.960438" lon="9.895178">
        <ele>492.454332</ele>
        <time>2025-05-03T07:33:03.430Z</time>
      </trkpt>
      <trkpt lat="48.960442" lon="9.895178">
        <ele>492.453948</ele>
        <time>2025-05-03T07:33:03.534Z</time>
      </trkpt>
      <trkpt lat="48.960442" lon="9.895180">
        <ele>492.453823</ele>
        <time>2025-05-03T07:33:03.568Z</time>
      </trkpt>
      <trkpt lat="48.960442" lon="9.895182">
        <ele>492.453697</ele>
        <time>2025-05-03T07:33:03.602Z</time>
      </trkpt>
      <trkpt lat="48.960442" lon="9.895177">
        <ele>492.453382</ele>
        <time>2025-05-03T07:33:03.687Z</time>
      </trkpt>
      <trkpt lat="48.960434" lon="9.895168">
        <ele>492.452429</ele>
        <time>2025-05-03T07:33:03.944Z</time>
      </trkpt>
      <trkpt lat="48.960430" lon="9.895164">
        <ele>492.451970</ele>
        <time>2025-05-03T07:33:04.068Z</time>
      </trkpt>
      <trkpt lat="48.960430" lon="9.895160">
        <ele>492.451719</ele>
        <time>2025-05-03T07:33:04.135Z</time>
      </trkpt>
      <trkpt lat="48.960430" lon="9.895157">
        <ele>492.451530</ele>
        <time>2025-05-03T07:33:04.186Z</time>
      </trkpt>
      <trkpt lat="48.960430" lon="9.895155">
        <ele>492.451404</ele>
        <time>2025-05-03T07:33:04.220Z</time>
      </trkpt>
      <trkpt lat="48.960430" lon="9.895153">
        <ele>492.451278</ele>
        <time>2025-05-03T07:33:04.254Z</time>
      </trkpt>
      <trkpt lat="48.960426" lon="9.895155">
        <ele>492.450874</ele>
        <time>2025-05-03T07:33:04.363Z</time>
      </trkpt>
      <trkpt lat="48.960426" lon="9.895153">
        <ele>492.450749</ele>
        <time>2025-05-03T07:33:04.397Z</time>
      </trkpt>
      <trkpt lat="48.960426" lon="9.895150">
        <ele>492.450560</ele>
        <time>2025-05-03T07:33:04.448Z</time>
      </trkpt>
      <trkpt lat="48.960426" lon="9.895148">
        <ele>492.450434</ele>
        <time>2025-05-03T07:33:04.482Z</time>
      </trkpt>
      <trkpt lat="48.960426" lon="9.895145">
        <ele>492.450245</ele>
        <time>2025-05-03T07:33:04.533Z</time>
      </trkpt>
      <trkpt lat="48.960426" lon="9.895142">
        <ele>492.450056</ele>
        <time>2025-05-03T07:33:04.584Z</time>
      </trkpt>
      <trkpt lat="48.960426" lon="9.895140">
        <ele>492.449931</ele>
        <time>2025-05-03T07:33:04.618Z</time>
      </trkpt>
      <trkpt lat="48.960430" lon="9.895139">
        <ele>492.449542</ele>
        <time>2025-05-03T07:33:04.723Z</time>
      </trkpt>
      <trkpt lat="48.960430" lon="9.895137">
        <ele>492.449416</ele>
        <time>2025-05-03T07:33:04.757Z</time>
      </trkpt>
      <trkpt lat="48.960426" lon="9.895135">
        <ele>492.449013</ele>
        <time>2025-05-03T07:33:04.866Z</time>
      </trkpt>
      <trkpt lat="48.960426" lon="9.895133">
        <ele>492.448887</ele>
        <time>2025-05-03T07:33:04.900Z</time>
      </trkpt>
      <trkpt lat="48.960430" lon="9.895135">
        <ele>492.448483</ele>
        <time>2025-05-03T07:33:05.008Z</time>
      </trkpt>
      <trkpt lat="48.960430" lon="9.895133">
        <ele>492.448357</ele>
        <time>2025-05-03T07:33:05.042Z</time>
      </trkpt>
      <trkpt lat="48.960434" lon="9.895135">
        <ele>492.447954</ele>
        <time>2025-05-03T07:33:05.151Z</time>
      </trkpt>
      <trkpt lat="48.960430" lon="9.895133">
        <ele>492.447550</ele>
        <time>2025-05-03T07:33:05.260Z</time>
      </trkpt>
      <trkpt lat="48.960434" lon="9.895130">
        <ele>492.447123</ele>
        <time>2025-05-03T07:33:05.375Z</time>
      </trkpt>
      <trkpt lat="48.960434" lon="9.895126">
        <ele>492.446871</ele>
        <time>2025-05-03T07:33:05.443Z</time>
      </trkpt>
      <trkpt lat="48.960430" lon="9.895125">
        <ele>492.446483</ele>
        <time>2025-05-03T07:33:05.548Z</time>
      </trkpt>
      <trkpt lat="48.960430" lon="9.895126">
        <ele>492.446420</ele>
        <time>2025-05-03T07:33:05.565Z</time>
      </trkpt>
      <trkpt lat="48.960434" lon="9.895128">
        <ele>492.446017</ele>
        <time>2025-05-03T07:33:05.674Z</time>
      </trkpt>
      <trkpt lat="48.960438" lon="9.895126">
        <ele>492.445613</ele>
        <time>2025-05-03T07:33:05.783Z</time>
      </trkpt>
      <trkpt lat="48.960438" lon="9.895125">
        <ele>492.445550</ele>
        <time>2025-05-03T07:33:05.800Z</time>
      </trkpt>
      <trkpt lat="48.960438" lon="9.895122">
        <ele>492.445361</ele>
        <time>2025-05-03T07:33:05.851Z</time>
      </trkpt>
      <trkpt lat="48.960438" lon="9.895112">
        <ele>492.444732</ele>
        <time>2025-05-03T07:33:06.021Z</time>
      </trkpt>
      <trkpt lat="48.960442" lon="9.895119">
        <ele>492.444148</ele>
        <time>2025-05-03T07:33:06.178Z</time>
      </trkpt>
      <trkpt lat="48.960445" lon="9.895126">
        <ele>492.443622</ele>
        <time>2025-05-03T07:33:06.320Z</time>
      </trkpt>
      <trkpt lat="48.960445" lon="9.895122">
        <ele>492.443370</ele>
        <time>2025-05-03T07:33:06.388Z</time>
      </trkpt>
      <trkpt lat="48.960449" lon="9.895130">
        <ele>492.442737</ele>
        <time>2025-05-03T07:33:06.559Z</time>
      </trkpt>
      <trkpt lat="48.960449" lon="9.895133">
        <ele>492.442549</ele>
        <time>2025-05-03T07:33:06.610Z</time>
      </trkpt>
      <trkpt lat="48.960445" lon="9.895130">
        <ele>492.442121</ele>
        <time>2025-05-03T07:33:06.725Z</time>
      </trkpt>
      <trkpt lat="48.960445" lon="9.895126">
        <ele>492.441870</ele>
        <time>2025-05-03T07:33:06.793Z</time>
      </trkpt>
      <trkpt lat="48.960445" lon="9.895122">
        <ele>492.441618</ele>
        <time>2025-05-03T07:33:06.861Z</time>
      </trkpt>
      <trkpt lat="48.960445" lon="9.895123">
        <ele>492.441555</ele>
        <time>2025-05-03T07:33:06.878Z</time>
      </trkpt>
      <trkpt lat="48.960449" lon="9.895123">
        <ele>492.441172</ele>
        <time>2025-05-03T07:33:06.981Z</time>
      </trkpt>
      <trkpt lat="48.960445" lon="9.895123">
        <ele>492.440788</ele>
        <time>2025-05-03T07:33:07.085Z</time>
      </trkpt>
      <trkpt lat="48.960449" lon="9.895123">
        <ele>492.440405</ele>
        <time>2025-05-03T07:33:07.188Z</time>
      </trkpt>
      <trkpt lat="48.960453" lon="9.895123">
        <ele>492.440022</ele>
        <time>2025-05-03T07:33:07.292Z</time>
      </trkpt>
      <trkpt lat="48.960453" lon="9.895125">
        <ele>492.439896</ele>
        <time>2025-05-03T07:33:07.326Z</time>
      </trkpt>
      <trkpt lat="48.960457" lon="9.895125">
        <ele>492.439512</ele>
        <time>2025-05-03T07:33:07.429Z</time>
      </trkpt>
      <trkpt lat="48.960453" lon="9.895125">
        <ele>492.439129</ele>
        <time>2025-05-03T07:33:07.532Z</time>
      </trkpt>
      <trkpt lat="48.960457" lon="9.895126">
        <ele>492.438740</ele>
        <time>2025-05-03T07:33:07.637Z</time>
      </trkpt>
      <trkpt lat="48.960461" lon="9.895126">
        <ele>492.438357</ele>
        <time>2025-05-03T07:33:07.741Z</time>
      </trkpt>
      <trkpt lat="48.960461" lon="9.895128">
        <ele>492.438231</ele>
        <time>2025-05-03T07:33:07.775Z</time>
      </trkpt>
      <trkpt lat="48.960464" lon="9.895128">
        <ele>492.437944</ele>
        <time>2025-05-03T07:33:07.852Z</time>
      </trkpt>
      <trkpt lat="48.960464" lon="9.895130">
        <ele>492.437818</ele>
        <time>2025-05-03T07:33:07.886Z</time>
      </trkpt>
      <trkpt lat="48.960464" lon="9.895128">
        <ele>492.437692</ele>
        <time>2025-05-03T07:33:07.920Z</time>
      </trkpt>
      <trkpt lat="48.960468" lon="9.895130">
        <ele>492.437288</ele>
        <time>2025-05-03T07:33:08.029Z</time>
      </trkpt>
      <trkpt lat="48.960468" lon="9.895128">
        <ele>492.437163</ele>
        <time>2025-05-03T07:33:08.063Z</time>
      </trkpt>
      <trkpt lat="48.960468" lon="9.895130">
        <ele>492.437037</ele>
        <time>2025-05-03T07:33:08.097Z</time>
      </trkpt>
      <trkpt lat="48.960468" lon="9.895128">
        <ele>492.436911</ele>
        <time>2025-05-03T07:33:08.131Z</time>
      </trkpt>
      <trkpt lat="48.960468" lon="9.895126">
        <ele>492.436785</ele>
        <time>2025-05-03T07:33:08.165Z</time>
      </trkpt>
      <trkpt lat="48.960468" lon="9.895128">
        <ele>492.436659</ele>
        <time>2025-05-03T07:33:08.199Z</time>
      </trkpt>
      <trkpt lat="48.960468" lon="9.895126">
        <ele>492.436533</ele>
        <time>2025-05-03T07:33:08.233Z</time>
      </trkpt>
      <trkpt lat="48.960464" lon="9.895126">
        <ele>492.436150</ele>
        <time>2025-05-03T07:33:08.336Z</time>
      </trkpt>
      <trkpt lat="48.960461" lon="9.895126">
        <ele>492.435862</ele>
        <time>2025-05-03T07:33:08.414Z</time>
      </trkpt>
      <trkpt lat="48.960453" lon="9.895126">
        <ele>492.435096</ele>
        <time>2025-05-03T07:33:08.621Z</time>
      </trkpt>
      <trkpt lat="48.960445" lon="9.895122">
        <ele>492.434289</ele>
        <time>2025-05-03T07:33:08.838Z</time>
      </trkpt>
      <trkpt lat="48.960442" lon="9.895120">
        <ele>492.433975</ele>
        <time>2025-05-03T07:33:08.923Z</time>
      </trkpt>
      <trkpt lat="48.960442" lon="9.895122">
        <ele>492.433849</ele>
        <time>2025-05-03T07:33:08.957Z</time>
      </trkpt>
      <trkpt lat="48.960442" lon="9.895120">
        <ele>492.433723</ele>
        <time>2025-05-03T07:33:08.991Z</time>
      </trkpt>
      <trkpt lat="48.960442" lon="9.895122">
        <ele>492.433597</ele>
        <time>2025-05-03T07:33:09.025Z</time>
      </trkpt>
      <trkpt lat="48.960445" lon="9.895123">
        <ele>492.433303</ele>
        <time>2025-05-03T07:33:09.105Z</time>
      </trkpt>
      <trkpt lat="48.960445" lon="9.895122">
        <ele>492.433240</ele>
        <time>2025-05-03T07:33:09.122Z</time>
      </trkpt>
      <trkpt lat="48.960445" lon="9.895125">
        <ele>492.433051</ele>
        <time>2025-05-03T07:33:09.172Z</time>
      </trkpt>
      <trkpt lat="48.960449" lon="9.895125">
        <ele>492.432668</ele>
        <time>2025-05-03T07:33:09.276Z</time>
      </trkpt>
      <trkpt lat="48.960449" lon="9.895126">
        <ele>492.432605</ele>
        <time>2025-05-03T07:33:09.293Z</time>
      </trkpt>
      <trkpt lat="48.960445" lon="9.895128">
        <ele>492.432201</ele>
        <time>2025-05-03T07:33:09.402Z</time>
      </trkpt>
      <trkpt lat="48.960449" lon="9.895130">
        <ele>492.431798</ele>
        <time>2025-05-03T07:33:09.511Z</time>
      </trkpt>
      <trkpt lat="48.960453" lon="9.895132">
        <ele>492.431394</ele>
        <time>2025-05-03T07:33:09.620Z</time>
      </trkpt>
      <trkpt lat="48.960453" lon="9.895133">
        <ele>492.431331</ele>
        <time>2025-05-03T07:33:09.637Z</time>
      </trkpt>
      <trkpt lat="48.960453" lon="9.895132">
        <ele>492.431269</ele>
        <time>2025-05-03T07:33:09.654Z</time>
      </trkpt>
      <trkpt lat="48.960453" lon="9.895135">
        <ele>492.431080</ele>
        <time>2025-05-03T07:33:09.704Z</time>
      </trkpt>
      <trkpt lat="48.960453" lon="9.895133">
        <ele>492.430954</ele>
        <time>2025-05-03T07:33:09.738Z</time>
      </trkpt>
      <trkpt lat="48.960453" lon="9.895135">
        <ele>492.430828</ele>
        <time>2025-05-03T07:33:09.772Z</time>
      </trkpt>
      <trkpt lat="48.960457" lon="9.895135">
        <ele>492.430445</ele>
        <time>2025-05-03T07:33:09.876Z</time>
      </trkpt>
      <trkpt lat="48.960453" lon="9.895135">
        <ele>492.430061</ele>
        <time>2025-05-03T07:33:09.979Z</time>
      </trkpt>
      <trkpt lat="48.960457" lon="9.895133">
        <ele>492.429658</ele>
        <time>2025-05-03T07:33:10.088Z</time>
      </trkpt>
      <trkpt lat="48.960457" lon="9.895135">
        <ele>492.429532</ele>
        <time>2025-05-03T07:33:10.122Z</time>
      </trkpt>
      <trkpt lat="48.960457" lon="9.895137">
        <ele>492.429406</ele>
        <time>2025-05-03T07:33:10.156Z</time>
      </trkpt>
      <trkpt lat="48.960453" lon="9.895139">
        <ele>492.429003</ele>
        <time>2025-05-03T07:33:10.265Z</time>
      </trkpt>
      <trkpt lat="48.960453" lon="9.895140">
        <ele>492.428940</ele>
        <time>2025-05-03T07:33:10.282Z</time>
      </trkpt>
      <trkpt lat="48.960453" lon="9.895142">
        <ele>492.428814</ele>
        <time>2025-05-03T07:33:10.316Z</time>
      </trkpt>
      <trkpt lat="48.960453" lon="9.895140">
        <ele>492.428688</ele>
        <time>2025-05-03T07:33:10.350Z</time>
      </trkpt>
      <trkpt lat="48.960449" lon="9.895140">
        <ele>492.428305</ele>
        <time>2025-05-03T07:33:10.453Z</time>
      </trkpt>
      <trkpt lat="48.960449" lon="9.895139">
        <ele>492.428242</ele>
        <time>2025-05-03T07:33:10.470Z</time>
      </trkpt>
      <trkpt lat="48.960449" lon="9.895137">
        <ele>492.428116</ele>
        <time>2025-05-03T07:33:10.504Z</time>
      </trkpt>
      <trkpt lat="48.960449" lon="9.895135">
        <ele>492.427990</ele>
        <time>2025-05-03T07:33:10.538Z</time>
      </trkpt>
      <trkpt lat="48.960449" lon="9.895133">
        <ele>492.427864</ele>
        <time>2025-05-03T07:33:10.572Z</time>
      </trkpt>
      <trkpt lat="48.960449" lon="9.895130">
        <ele>492.427675</ele>
        <time>2025-05-03T07:33:10.623Z</time>
      </trkpt>
      <trkpt lat="48.960449" lon="9.895132">
        <ele>492.427549</ele>
        <time>2025-05-03T07:33:10.657Z</time>
      </trkpt>
      <trkpt lat="48.960445" lon="9.895132">
        <ele>492.427166</ele>
        <time>2025-05-03T07:33:10.760Z</time>
      </trkpt>
      <trkpt lat="48.960445" lon="9.895130">
        <ele>492.427040</ele>
        <time>2025-05-03T07:33:10.794Z</time>
      </trkpt>
      <trkpt lat="48.960442" lon="9.895130">
        <ele>492.426753</ele>
        <time>2025-05-03T07:33:10.872Z</time>
      </trkpt>
      <trkpt lat="48.960442" lon="9.895128">
        <ele>492.426627</ele>
        <time>2025-05-03T07:33:10.906Z</time>
      </trkpt>
      <trkpt lat="48.960438" lon="9.895128">
        <ele>492.426243</ele>
        <time>2025-05-03T07:33:11.009Z</time>
      </trkpt>
      <trkpt lat="48.960438" lon="9.895130">
        <ele>492.426118</ele>
        <time>2025-05-03T07:33:11.043Z</time>
      </trkpt>
      <trkpt lat="48.960442" lon="9.895132">
        <ele>492.425714</ele>
        <time>2025-05-03T07:33:11.152Z</time>
      </trkpt>
      <trkpt lat="48.960445" lon="9.895132">
        <ele>492.425427</ele>
        <time>2025-05-03T07:33:11.230Z</time>
      </trkpt>
      <trkpt lat="48.960445" lon="9.895133">
        <ele>492.425364</ele>
        <time>2025-05-03T07:33:11.247Z</time>
      </trkpt>
      <trkpt lat="48.960445" lon="9.895135">
        <ele>492.425238</ele>
        <time>2025-05-03T07:33:11.281Z</time>
      </trkpt>
      <trkpt lat="48.960449" lon="9.895133">
        <ele>492.424834</ele>
        <time>2025-05-03T07:33:11.390Z</time>
      </trkpt>
      <trkpt lat="48.960453" lon="9.895132">
        <ele>492.424446</ele>
        <time>2025-05-03T07:33:11.494Z</time>
      </trkpt>
      <trkpt lat="48.960453" lon="9.895133">
        <ele>492.424383</ele>
        <time>2025-05-03T07:33:11.511Z</time>
      </trkpt>
      <trkpt lat="48.960449" lon="9.895133">
        <ele>492.423999</ele>
        <time>2025-05-03T07:33:11.615Z</time>
      </trkpt>
      <trkpt lat="48.960449" lon="9.895135">
        <ele>492.423874</ele>
        <time>2025-05-03T07:33:11.649Z</time>
      </trkpt>
      <trkpt lat="48.960449" lon="9.895137">
        <ele>492.423748</ele>
        <time>2025-05-03T07:33:11.683Z</time>
      </trkpt>
      <trkpt lat="48.960449" lon="9.895139">
        <ele>492.423622</ele>
        <time>2025-05-03T07:33:11.717Z</time>
      </trkpt>
      <trkpt lat="48.960449" lon="9.895140">
        <ele>492.423559</ele>
        <time>2025-05-03T07:33:11.734Z</time>
      </trkpt>
      <trkpt lat="48.960445" lon="9.895142">
        <ele>492.423155</ele>
        <time>2025-05-03T07:33:11.843Z</time>
      </trkpt>
      <trkpt lat="48.960445" lon="9.895143">
        <ele>492.423092</ele>
        <time>2025-05-03T07:33:11.860Z</time>
      </trkpt>
      <trkpt lat="48.960445" lon="9.895142">
        <ele>492.423030</ele>
        <time>2025-05-03T07:33:11.876Z</time>
      </trkpt>
      <trkpt lat="48.960442" lon="9.895142">
        <ele>492.422742</ele>
        <time>2025-05-03T07:33:11.954Z</time>
      </trkpt>
      <trkpt lat="48.960442" lon="9.895140">
        <ele>492.422616</ele>
        <time>2025-05-03T07:33:11.988Z</time>
      </trkpt>
      <trkpt lat="48.960442" lon="9.895142">
        <ele>492.422490</ele>
        <time>2025-05-03T07:33:12.022Z</time>
      </trkpt>
      <trkpt lat="48.960442" lon="9.895143">
        <ele>492.422427</ele>
        <time>2025-05-03T07:33:12.039Z</time>
      </trkpt>
      <trkpt lat="48.960445" lon="9.895145">
        <ele>492.422114</ele>
        <time>2025-05-03T07:33:12.124Z</time>
      </trkpt>
      <trkpt lat="48.960442" lon="9.895145">
        <ele>492.421826</ele>
        <time>2025-05-03T07:33:12.201Z</time>
      </trkpt>
      <trkpt lat="48.960445" lon="9.895143">
        <ele>492.421512</ele>
        <time>2025-05-03T07:33:12.286Z</time>
      </trkpt>
      <trkpt lat="48.960442" lon="9.895142">
        <ele>492.421218</ele>
        <time>2025-05-03T07:33:12.365Z</time>
      </trkpt>
      <trkpt lat="48.960442" lon="9.895140">
        <ele>492.421092</ele>
        <time>2025-05-03T07:33:12.399Z</time>
      </trkpt>
      <trkpt lat="48.960442" lon="9.895139">
        <ele>492.421029</ele>
        <time>2025-05-03T07:33:12.416Z</time>
      </trkpt>
      <trkpt lat="48.960438" lon="9.895140">
        <ele>492.420640</ele>
        <time>2025-05-03T07:33:12.521Z</time>
      </trkpt>
      <trkpt lat="48.960442" lon="9.895139">
        <ele>492.420252</ele>
        <time>2025-05-03T07:33:12.626Z</time>
      </trkpt>
      <trkpt lat="48.960438" lon="9.895140">
        <ele>492.419863</ele>
        <time>2025-05-03T07:33:12.731Z</time>
      </trkpt>
      <trkpt lat="48.960438" lon="9.895139">
        <ele>492.419801</ele>
        <time>2025-05-03T07:33:12.748Z</time>
      </trkpt>
      <trkpt lat="48.960434" lon="9.895137">
        <ele>492.419397</ele>
        <time>2025-05-03T07:33:12.857Z</time>
      </trkpt>
      <trkpt lat="48.960434" lon="9.895135">
        <ele>492.419271</ele>
        <time>2025-05-03T07:33:12.891Z</time>
      </trkpt>
      <trkpt lat="48.960434" lon="9.895137">
        <ele>492.419145</ele>
        <time>2025-05-03T07:33:12.925Z</time>
      </trkpt>
      <trkpt lat="48.960434" lon="9.895135">
        <ele>492.419019</ele>
        <time>2025-05-03T07:33:12.959Z</time>
      </trkpt>
      <trkpt lat="48.960434" lon="9.895133">
        <ele>492.418894</ele>
        <time>2025-05-03T07:33:12.993Z</time>
      </trkpt>
      <trkpt lat="48.960430" lon="9.895133">
        <ele>492.418510</ele>
        <time>2025-05-03T07:33:13.096Z</time>
      </trkpt>
      <trkpt lat="48.960434" lon="9.895135">
        <ele>492.418107</ele>
        <time>2025-05-03T07:33:13.205Z</time>
      </trkpt>
      <trkpt lat="48.960438" lon="9.895133">
        <ele>492.417703</ele>
        <time>2025-05-03T07:33:13.314Z</time>
      </trkpt>
      <trkpt lat="48.960442" lon="9.895133">
        <ele>492.417320</ele>
        <time>2025-05-03T07:33:13.417Z</time>
      </trkpt>
      <trkpt lat="48.960442" lon="9.895130">
        <ele>492.417131</ele>
        <time>2025-05-03T07:33:13.468Z</time>
      </trkpt>
      <trkpt lat="48.960442" lon="9.895126">
        <ele>492.416879</ele>
        <time>2025-05-03T07:33:13.536Z</time>
      </trkpt>
      <trkpt lat="48.960442" lon="9.895125">
        <ele>492.416816</ele>
        <time>2025-05-03T07:33:13.553Z</time>
      </trkpt>
      <trkpt lat="48.960442" lon="9.895123">
        <ele>492.416691</ele>
        <time>2025-05-03T07:33:13.587Z</time>
      </trkpt>
      <trkpt lat="48.960442" lon="9.895122">
        <ele>492.416628</ele>
        <time>2025-05-03T07:33:13.604Z</time>
      </trkpt>
      <trkpt lat="48.960445" lon="9.895120">
        <ele>492.416314</ele>
        <time>2025-05-03T07:33:13.689Z</time>
      </trkpt>
      <trkpt lat="48.960449" lon="9.895122">
        <ele>492.415910</ele>
        <time>2025-05-03T07:33:13.798Z</time>
      </trkpt>
      <trkpt lat="48.960449" lon="9.895120">
        <ele>492.415784</ele>
        <time>2025-05-03T07:33:13.831Z</time>
      </trkpt>
      <trkpt lat="48.960445" lon="9.895120">
        <ele>492.415401</ele>
        <time>2025-05-03T07:33:13.935Z</time>
      </trkpt>
      <trkpt lat="48.960449" lon="9.895119">
        <ele>492.415013</ele>
        <time>2025-05-03T07:33:14.040Z</time>
      </trkpt>
      <trkpt lat="48.960449" lon="9.895120">
        <ele>492.414950</ele>
        <time>2025-05-03T07:33:14.057Z</time>
      </trkpt>
      <trkpt lat="48.960449" lon="9.895119">
        <ele>492.414887</ele>
        <time>2025-05-03T07:33:14.074Z</time>
      </trkpt>
      <trkpt lat="48.960449" lon="9.895117">
        <ele>492.414761</ele>
        <time>2025-05-03T07:33:14.108Z</time>
      </trkpt>
      <trkpt lat="48.960453" lon="9.895117">
        <ele>492.414377</ele>
        <time>2025-05-03T07:33:14.211Z</time>
      </trkpt>
      <trkpt lat="48.960453" lon="9.895115">
        <ele>492.414252</ele>
        <time>2025-05-03T07:33:14.245Z</time>
      </trkpt>
      <trkpt lat="48.960457" lon="9.895115">
        <ele>492.413868</ele>
        <time>2025-05-03T07:33:14.348Z</time>
      </trkpt>
      <trkpt lat="48.960457" lon="9.895113">
        <ele>492.413742</ele>
        <time>2025-05-03T07:33:14.382Z</time>
      </trkpt>
      <trkpt lat="48.960461" lon="9.895110">
        <ele>492.413315</ele>
        <time>2025-05-03T07:33:14.498Z</time>
      </trkpt>
      <trkpt lat="48.960464" lon="9.895108">
        <ele>492.413001</ele>
        <time>2025-05-03T07:33:14.582Z</time>
      </trkpt>
      <trkpt lat="48.960464" lon="9.895110">
        <ele>492.412875</ele>
        <time>2025-05-03T07:33:14.616Z</time>
      </trkpt>
      <trkpt lat="48.960464" lon="9.895112">
        <ele>492.412749</ele>
        <time>2025-05-03T07:33:14.650Z</time>
      </trkpt>
      <trkpt lat="48.960464" lon="9.895113">
        <ele>492.412687</ele>
        <time>2025-05-03T07:33:14.667Z</time>
      </trkpt>
      <trkpt lat="48.960468" lon="9.895117">
        <ele>492.412228</ele>
        <time>2025-05-03T07:33:14.791Z</time>
      </trkpt>
      <trkpt lat="48.960472" lon="9.895119">
        <ele>492.411824</ele>
        <time>2025-05-03T07:33:14.900Z</time>
      </trkpt>
      <trkpt lat="48.960472" lon="9.895122">
        <ele>492.411636</ele>
        <time>2025-05-03T07:33:14.951Z</time>
      </trkpt>
      <trkpt lat="48.960472" lon="9.895125">
        <ele>492.411447</ele>
        <time>2025-05-03T07:33:15.002Z</time>
      </trkpt>
      <trkpt lat="48.960476" lon="9.895126">
        <ele>492.411058</ele>
        <time>2025-05-03T07:33:15.107Z</time>
      </trkpt>
      <trkpt lat="48.960476" lon="9.895128">
        <ele>492.410932</ele>
        <time>2025-05-03T07:33:15.141Z</time>
      </trkpt>
      <trkpt lat="48.960480" lon="9.895130">
        <ele>492.410529</ele>
        <time>2025-05-03T07:33:15.249Z</time>
      </trkpt>
      <trkpt lat="48.960476" lon="9.895130">
        <ele>492.410146</ele>
        <time>2025-05-03T07:33:15.353Z</time>
      </trkpt>
      <trkpt lat="48.960472" lon="9.895130">
        <ele>492.409762</ele>
        <time>2025-05-03T07:33:15.456Z</time>
      </trkpt>
      <trkpt lat="48.960468" lon="9.895126">
        <ele>492.409304</ele>
        <time>2025-05-03T07:33:15.580Z</time>
      </trkpt>
      <trkpt lat="48.960468" lon="9.895125">
        <ele>492.409241</ele>
        <time>2025-05-03T07:33:15.597Z</time>
      </trkpt>
      <trkpt lat="48.960472" lon="9.895126">
        <ele>492.408852</ele>
        <time>2025-05-03T07:33:15.702Z</time>
      </trkpt>
      <trkpt lat="48.960480" lon="9.895128">
        <ele>492.408075</ele>
        <time>2025-05-03T07:33:15.912Z</time>
      </trkpt>
      <trkpt lat="48.960480" lon="9.895130">
        <ele>492.407949</ele>
        <time>2025-05-03T07:33:15.945Z</time>
      </trkpt>
      <trkpt lat="48.960480" lon="9.895132">
        <ele>492.407823</ele>
        <time>2025-05-03T07:33:15.979Z</time>
      </trkpt>
      <trkpt lat="48.960480" lon="9.895133">
        <ele>492.407761</ele>
        <time>2025-05-03T07:33:15.996Z</time>
      </trkpt>
      <trkpt lat="48.960480" lon="9.895139">
        <ele>492.407383</ele>
        <time>2025-05-03T07:33:16.098Z</time>
      </trkpt>
      <trkpt lat="48.960480" lon="9.895142">
        <ele>492.407194</ele>
        <time>2025-05-03T07:33:16.149Z</time>
      </trkpt>
      <trkpt lat="48.960480" lon="9.895143">
        <ele>492.407131</ele>
        <time>2025-05-03T07:33:16.166Z</time>
      </trkpt>
      <trkpt lat="48.960480" lon="9.895146">
        <ele>492.406942</ele>
        <time>2025-05-03T07:33:16.217Z</time>
      </trkpt>
      <trkpt lat="48.960480" lon="9.895145">
        <ele>492.406880</ele>
        <time>2025-05-03T07:33:16.234Z</time>
      </trkpt>
      <trkpt lat="48.960480" lon="9.895143">
        <ele>492.406754</ele>
        <time>2025-05-03T07:33:16.268Z</time>
      </trkpt>
      <trkpt lat="48.960480" lon="9.895142">
        <ele>492.406691</ele>
        <time>2025-05-03T07:33:16.285Z</time>
      </trkpt>
      <trkpt lat="48.960480" lon="9.895139">
        <ele>492.406502</ele>
        <time>2025-05-03T07:33:16.336Z</time>
      </trkpt>
      <trkpt lat="48.960476" lon="9.895137">
        <ele>492.406098</ele>
        <time>2025-05-03T07:33:16.445Z</time>
      </trkpt>
      <trkpt lat="48.960480" lon="9.895139">
        <ele>492.405695</ele>
        <time>2025-05-03T07:33:16.554Z</time>
      </trkpt>
      <trkpt lat="48.960484" lon="9.895139">
        <ele>492.405312</ele>
        <time>2025-05-03T07:33:16.657Z</time>
      </trkpt>
      <trkpt lat="48.960480" lon="9.895139">
        <ele>492.404928</ele>
        <time>2025-05-03T07:33:16.761Z</time>
      </trkpt>
      <trkpt lat="48.960480" lon="9.895140">
        <ele>492.404865</ele>
        <time>2025-05-03T07:33:16.778Z</time>
      </trkpt>
      <trkpt lat="48.960484" lon="9.895139">
        <ele>492.404477</ele>
        <time>2025-05-03T07:33:16.882Z</time>
      </trkpt>
      <trkpt lat="48.960480" lon="9.895139">
        <ele>492.404093</ele>
        <time>2025-05-03T07:33:16.986Z</time>
      </trkpt>
      <trkpt lat="48.960484" lon="9.895139">
        <ele>492.403710</ele>
        <time>2025-05-03T07:33:17.089Z</time>
      </trkpt>
      <trkpt lat="48.960484" lon="9.895137">
        <ele>492.403584</ele>
        <time>2025-05-03T07:33:17.123Z</time>
      </trkpt>
      <trkpt lat="48.960480" lon="9.895139">
        <ele>492.403181</ele>
        <time>2025-05-03T07:33:17.232Z</time>
      </trkpt>
      <trkpt lat="48.960480" lon="9.895140">
        <ele>492.403118</ele>
        <time>2025-05-03T07:33:17.249Z</time>
      </trkpt>
      <trkpt lat="48.960484" lon="9.895140">
        <ele>492.402734</ele>
        <time>2025-05-03T07:33:17.353Z</time>
      </trkpt>
      <trkpt lat="48.960484" lon="9.895139">
        <ele>492.402671</ele>
        <time>2025-05-03T07:33:17.370Z</time>
      </trkpt>
      <trkpt lat="48.960487" lon="9.895137">
        <ele>492.402358</ele>
        <time>2025-05-03T07:33:17.454Z</time>
      </trkpt>
      <trkpt lat="48.960487" lon="9.895139">
        <ele>492.402232</ele>
        <time>2025-05-03T07:33:17.488Z</time>
      </trkpt>
      <trkpt lat="48.960487" lon="9.895140">
        <ele>492.402169</ele>
        <time>2025-05-03T07:33:17.505Z</time>
      </trkpt>
      <trkpt lat="48.960484" lon="9.895140">
        <ele>492.401881</ele>
        <time>2025-05-03T07:33:17.583Z</time>
      </trkpt>
      <trkpt lat="48.960484" lon="9.895142">
        <ele>492.401755</ele>
        <time>2025-05-03T07:33:17.617Z</time>
      </trkpt>
      <trkpt lat="48.960480" lon="9.895142">
        <ele>492.401372</ele>
        <time>2025-05-03T07:33:17.720Z</time>
      </trkpt>
      <trkpt lat="48.960480" lon="9.895143">
        <ele>492.401309</ele>
        <time>2025-05-03T07:33:17.737Z</time>
      </trkpt>
      <trkpt lat="48.960480" lon="9.895145">
        <ele>492.401183</ele>
        <time>2025-05-03T07:33:17.771Z</time>
      </trkpt>
      <trkpt lat="48.960480" lon="9.895146">
        <ele>492.401120</ele>
        <time>2025-05-03T07:33:17.788Z</time>
      </trkpt>
      <trkpt lat="48.960484" lon="9.895146">
        <ele>492.400737</ele>
        <time>2025-05-03T07:33:17.892Z</time>
      </trkpt>
      <trkpt lat="48.960487" lon="9.895145">
        <ele>492.400443</ele>
        <time>2025-05-03T07:33:17.971Z</time>
      </trkpt>
      <trkpt lat="48.960487" lon="9.895142">
        <ele>492.400254</ele>
        <time>2025-05-03T07:33:18.022Z</time>
      </trkpt>
      <trkpt lat="48.960487" lon="9.895143">
        <ele>492.400191</ele>
        <time>2025-05-03T07:33:18.039Z</time>
      </trkpt>
      <trkpt lat="48.960487" lon="9.895145">
        <ele>492.400065</ele>
        <time>2025-05-03T07:33:18.073Z</time>
      </trkpt>
      <trkpt lat="48.960491" lon="9.895146">
        <ele>492.399677</ele>
        <time>2025-05-03T07:33:18.178Z</time>
      </trkpt>
      <trkpt lat="48.960487" lon="9.895148">
        <ele>492.399273</ele>
        <time>2025-05-03T07:33:18.287Z</time>
      </trkpt>
      <trkpt lat="48.960487" lon="9.895150">
        <ele>492.399147</ele>
        <time>2025-05-03T07:33:18.320Z</time>
      </trkpt>
      <trkpt lat="48.960487" lon="9.895148">
        <ele>492.399021</ele>
        <time>2025-05-03T07:33:18.354Z</time>
      </trkpt>
      <trkpt lat="48.960484" lon="9.895148">
        <ele>492.398734</ele>
        <time>2025-05-03T07:33:18.432Z</time>
      </trkpt>
      <trkpt lat="48.960484" lon="9.895150">
        <ele>492.398608</ele>
        <time>2025-05-03T07:33:18.466Z</time>
      </trkpt>
      <trkpt lat="48.960484" lon="9.895152">
        <ele>492.398482</ele>
        <time>2025-05-03T07:33:18.500Z</time>
      </trkpt>
      <trkpt lat="48.960487" lon="9.895150">
        <ele>492.398168</ele>
        <time>2025-05-03T07:33:18.585Z</time>
      </trkpt>
      <trkpt lat="48.960487" lon="9.895148">
        <ele>492.398042</ele>
        <time>2025-05-03T07:33:18.619Z</time>
      </trkpt>
      <trkpt lat="48.960484" lon="9.895146">
        <ele>492.397728</ele>
        <time>2025-05-03T07:33:18.703Z</time>
      </trkpt>
      <trkpt lat="48.960484" lon="9.895148">
        <ele>492.397603</ele>
        <time>2025-05-03T07:33:18.737Z</time>
      </trkpt>
      <trkpt lat="48.960484" lon="9.895150">
        <ele>492.397477</ele>
        <time>2025-05-03T07:33:18.771Z</time>
      </trkpt>
      <trkpt lat="48.960484" lon="9.895152">
        <ele>492.397351</ele>
        <time>2025-05-03T07:33:18.805Z</time>
      </trkpt>
      <trkpt lat="48.960487" lon="9.895152">
        <ele>492.397063</ele>
        <time>2025-05-03T07:33:18.883Z</time>
      </trkpt>
      <trkpt lat="48.960487" lon="9.895153">
        <ele>492.397000</ele>
        <time>2025-05-03T07:33:18.900Z</time>
      </trkpt>
      <trkpt lat="48.960487" lon="9.895155">
        <ele>492.396875</ele>
        <time>2025-05-03T07:33:18.934Z</time>
      </trkpt>
      <trkpt lat="48.960491" lon="9.895155">
        <ele>492.396491</ele>
        <time>2025-05-03T07:33:19.037Z</time>
      </trkpt>
      <trkpt lat="48.960495" lon="9.895155">
        <ele>492.396108</ele>
        <time>2025-05-03T07:33:19.141Z</time>
      </trkpt>
      <trkpt lat="48.960495" lon="9.895157">
        <ele>492.395982</ele>
        <time>2025-05-03T07:33:19.174Z</time>
      </trkpt>
      <trkpt lat="48.960495" lon="9.895159">
        <ele>492.395856</ele>
        <time>2025-05-03T07:33:19.208Z</time>
      </trkpt>
      <trkpt lat="48.960499" lon="9.895159">
        <ele>492.395473</ele>
        <time>2025-05-03T07:33:19.312Z</time>
      </trkpt>
      <trkpt lat="48.960503" lon="9.895159">
        <ele>492.395089</ele>
        <time>2025-05-03T07:33:19.415Z</time>
      </trkpt>
      <trkpt lat="48.960506" lon="9.895159">
        <ele>492.394802</ele>
        <time>2025-05-03T07:33:19.493Z</time>
      </trkpt>
      <trkpt lat="48.960506" lon="9.895157">
        <ele>492.394676</ele>
        <time>2025-05-03T07:33:19.527Z</time>
      </trkpt>
      <trkpt lat="48.960506" lon="9.895155">
        <ele>492.394550</ele>
        <time>2025-05-03T07:33:19.561Z</time>
      </trkpt>
      <trkpt lat="48.960506" lon="9.895157">
        <ele>492.394424</ele>
        <time>2025-05-03T07:33:19.595Z</time>
      </trkpt>
      <trkpt lat="48.960506" lon="9.895155">
        <ele>492.394298</ele>
        <time>2025-05-03T07:33:19.629Z</time>
      </trkpt>
      <trkpt lat="48.960506" lon="9.895153">
        <ele>492.394173</ele>
        <time>2025-05-03T07:33:19.663Z</time>
      </trkpt>
      <trkpt lat="48.960506" lon="9.895152">
        <ele>492.394110</ele>
        <time>2025-05-03T07:33:19.680Z</time>
      </trkpt>
      <trkpt lat="48.960503" lon="9.895152">
        <ele>492.393822</ele>
        <time>2025-05-03T07:33:19.757Z</time>
      </trkpt>
      <trkpt lat="48.960503" lon="9.895150">
        <ele>492.393696</ele>
        <time>2025-05-03T07:33:19.791Z</time>
      </trkpt>
      <trkpt lat="48.960499" lon="9.895148">
        <ele>492.393293</ele>
        <time>2025-05-03T07:33:19.900Z</time>
      </trkpt>
      <trkpt lat="48.960499" lon="9.895150">
        <ele>492.393167</ele>
        <time>2025-05-03T07:33:19.934Z</time>
      </trkpt>
      <trkpt lat="48.960499" lon="9.895148">
        <ele>492.393041</ele>
        <time>2025-05-03T07:33:19.968Z</time>
      </trkpt>
      <trkpt lat="48.960495" lon="9.895148">
        <ele>492.392658</ele>
        <time>2025-05-03T07:33:20.071Z</time>
      </trkpt>
      <trkpt lat="48.960495" lon="9.895150">
        <ele>492.392532</ele>
        <time>2025-05-03T07:33:20.105Z</time>
      </trkpt>
      <trkpt lat="48.960495" lon="9.895148">
        <ele>492.392406</ele>
        <time>2025-05-03T07:33:20.139Z</time>
      </trkpt>
      <trkpt lat="48.960495" lon="9.895146">
        <ele>492.392280</ele>
        <time>2025-05-03T07:33:20.173Z</time>
      </trkpt>
      <trkpt lat="48.960495" lon="9.895145">
        <ele>492.392217</ele>
        <time>2025-05-03T07:33:20.190Z</time>
      </trkpt>
      <trkpt lat="48.960495" lon="9.895143">
        <ele>492.392091</ele>
        <time>2025-05-03T07:33:20.224Z</time>
      </trkpt>
      <trkpt lat="48.960495" lon="9.895140">
        <ele>492.391903</ele>
        <time>2025-05-03T07:33:20.275Z</time>
      </trkpt>
      <trkpt lat="48.960499" lon="9.895139">
        <ele>492.391514</ele>
        <time>2025-05-03T07:33:20.380Z</time>
      </trkpt>
      <trkpt lat="48.960499" lon="9.895137">
        <ele>492.391388</ele>
        <time>2025-05-03T07:33:20.414Z</time>
      </trkpt>
      <trkpt lat="48.960499" lon="9.895133">
        <ele>492.391136</ele>
        <time>2025-05-03T07:33:20.482Z</time>
      </trkpt>
      <trkpt lat="48.960499" lon="9.895132">
        <ele>492.391074</ele>
        <time>2025-05-03T07:33:20.499Z</time>
      </trkpt>
      <trkpt lat="48.960503" lon="9.895130">
        <ele>492.390670</ele>
        <time>2025-05-03T07:33:20.608Z</time>
      </trkpt>
      <trkpt lat="48.960503" lon="9.895128">
        <ele>492.390544</ele>
        <time>2025-05-03T07:33:20.642Z</time>
      </trkpt>
      <trkpt lat="48.960499" lon="9.895128">
        <ele>492.390161</ele>
        <time>2025-05-03T07:33:20.745Z</time>
      </trkpt>
      <trkpt lat="48.960503" lon="9.895126">
        <ele>492.389757</ele>
        <time>2025-05-03T07:33:20.854Z</time>
      </trkpt>
      <trkpt lat="48.960503" lon="9.895128">
        <ele>492.389631</ele>
        <time>2025-05-03T07:33:20.888Z</time>
      </trkpt>
      <trkpt lat="48.960506" lon="9.895130">
        <ele>492.389318</ele>
        <time>2025-05-03T07:33:20.973Z</time>
      </trkpt>
      <trkpt lat="48.960506" lon="9.895132">
        <ele>492.389192</ele>
        <time>2025-05-03T07:33:21.007Z</time>
      </trkpt>
      <trkpt lat="48.960510" lon="9.895132">
        <ele>492.388808</ele>
        <time>2025-05-03T07:33:21.110Z</time>
      </trkpt>
      <trkpt lat="48.960510" lon="9.895133">
        <ele>492.388745</ele>
        <time>2025-05-03T07:33:21.127Z</time>
      </trkpt>
      <trkpt lat="48.960510" lon="9.895135">
        <ele>492.388620</ele>
        <time>2025-05-03T07:33:21.161Z</time>
      </trkpt>
      <trkpt lat="48.960510" lon="9.895137">
        <ele>492.388494</ele>
        <time>2025-05-03T07:33:21.195Z</time>
      </trkpt>
      <trkpt lat="48.960510" lon="9.895139">
        <ele>492.388368</ele>
        <time>2025-05-03T07:33:21.229Z</time>
      </trkpt>
      <trkpt lat="48.960510" lon="9.895140">
        <ele>492.388305</ele>
        <time>2025-05-03T07:33:21.246Z</time>
      </trkpt>
      <trkpt lat="48.960510" lon="9.895143">
        <ele>492.388116</ele>
        <time>2025-05-03T07:33:21.297Z</time>
      </trkpt>
      <trkpt lat="48.960510" lon="9.895145">
        <ele>492.387990</ele>
        <time>2025-05-03T07:33:21.331Z</time>
      </trkpt>
      <trkpt lat="48.960510" lon="9.895148">
        <ele>492.387801</ele>
        <time>2025-05-03T07:33:21.382Z</time>
      </trkpt>
      <trkpt lat="48.960510" lon="9.895150">
        <ele>492.387676</ele>
        <time>2025-05-03T07:33:21.416Z</time>
      </trkpt>
      <trkpt lat="48.960510" lon="9.895148">
        <ele>492.387550</ele>
        <time>2025-05-03T07:33:21.450Z</time>
      </trkpt>
      <trkpt lat="48.960506" lon="9.895148">
        <ele>492.387166</ele>
        <time>2025-05-03T07:33:21.553Z</time>
      </trkpt>
      <trkpt lat="48.960499" lon="9.895146">
        <ele>492.386484</ele>
        <time>2025-05-03T07:33:21.737Z</time>
      </trkpt>
      <trkpt lat="48.960495" lon="9.895146">
        <ele>492.386100</ele>
        <time>2025-05-03T07:33:21.841Z</time>
      </trkpt>
      <trkpt lat="48.960499" lon="9.895146">
        <ele>492.385717</ele>
        <time>2025-05-03T07:33:21.944Z</time>
      </trkpt>
      <trkpt lat="48.960495" lon="9.895146">
        <ele>492.385334</ele>
        <time>2025-05-03T07:33:22.048Z</time>
      </trkpt>
      <trkpt lat="48.960495" lon="9.895148">
        <ele>492.385208</ele>
        <time>2025-05-03T07:33:22.082Z</time>
      </trkpt>
      <trkpt lat="48.960495" lon="9.895150">
        <ele>492.385082</ele>
        <time>2025-05-03T07:33:22.116Z</time>
      </trkpt>
      <trkpt lat="48.960499" lon="9.895150">
        <ele>492.384699</ele>
        <time>2025-05-03T07:33:22.219Z</time>
      </trkpt>
      <trkpt lat="48.960495" lon="9.895150">
        <ele>492.384315</ele>
        <time>2025-05-03T07:33:22.322Z</time>
      </trkpt>
      <trkpt lat="48.960495" lon="9.895152">
        <ele>492.384189</ele>
        <time>2025-05-03T07:33:22.356Z</time>
      </trkpt>
      <trkpt lat="48.960495" lon="9.895153">
        <ele>492.384126</ele>
        <time>2025-05-03T07:33:22.373Z</time>
      </trkpt>
      <trkpt lat="48.960499" lon="9.895153">
        <ele>492.383743</ele>
        <time>2025-05-03T07:33:22.477Z</time>
      </trkpt>
      <trkpt lat="48.960499" lon="9.895155">
        <ele>492.383617</ele>
        <time>2025-05-03T07:33:22.511Z</time>
      </trkpt>
      <trkpt lat="48.960495" lon="9.895155">
        <ele>492.383234</ele>
        <time>2025-05-03T07:33:22.614Z</time>
      </trkpt>
      <trkpt lat="48.960495" lon="9.895153">
        <ele>492.383108</ele>
        <time>2025-05-03T07:33:22.648Z</time>
      </trkpt>
      <trkpt lat="48.960495" lon="9.895152">
        <ele>492.383045</ele>
        <time>2025-05-03T07:33:22.665Z</time>
      </trkpt>
      <trkpt lat="48.960495" lon="9.895150">
        <ele>492.382919</ele>
        <time>2025-05-03T07:33:22.699Z</time>
      </trkpt>
      <trkpt lat="48.960495" lon="9.895148">
        <ele>492.382793</ele>
        <time>2025-05-03T07:33:22.733Z</time>
      </trkpt>
      <trkpt lat="48.960495" lon="9.895146">
        <ele>492.382667</ele>
        <time>2025-05-03T07:33:22.767Z</time>
      </trkpt>
      <trkpt lat="48.960495" lon="9.895145">
        <ele>492.382605</ele>
        <time>2025-05-03T07:33:22.784Z</time>
      </trkpt>
      <trkpt lat="48.960495" lon="9.895143">
        <ele>492.382479</ele>
        <time>2025-05-03T07:33:22.818Z</time>
      </trkpt>
      <trkpt lat="48.960499" lon="9.895143">
        <ele>492.382095</ele>
        <time>2025-05-03T07:33:22.921Z</time>
      </trkpt>
      <trkpt lat="48.960499" lon="9.895142">
        <ele>492.382032</ele>
        <time>2025-05-03T07:33:22.938Z</time>
      </trkpt>
      <trkpt lat="48.960503" lon="9.895140">
        <ele>492.381629</ele>
        <time>2025-05-03T07:33:23.047Z</time>
      </trkpt>
      <trkpt lat="48.960499" lon="9.895140">
        <ele>492.381246</ele>
        <time>2025-05-03T07:33:23.151Z</time>
      </trkpt>
      <trkpt lat="48.960495" lon="9.895140">
        <ele>492.380862</ele>
        <time>2025-05-03T07:33:23.254Z</time>
      </trkpt>
      <trkpt lat="48.960491" lon="9.895140">
        <ele>492.380479</ele>
        <time>2025-05-03T07:33:23.358Z</time>
      </trkpt>
      <trkpt lat="48.960487" lon="9.895142">
        <ele>492.380075</ele>
        <time>2025-05-03T07:33:23.466Z</time>
      </trkpt>
      <trkpt lat="48.960484" lon="9.895142">
        <ele>492.379788</ele>
        <time>2025-05-03T07:33:23.544Z</time>
      </trkpt>
      <trkpt lat="48.960484" lon="9.895140">
        <ele>492.379662</ele>
        <time>2025-05-03T07:33:23.578Z</time>
      </trkpt>
      <trkpt lat="48.960484" lon="9.895139">
        <ele>492.379599</ele>
        <time>2025-05-03T07:33:23.595Z</time>
      </trkpt>
      <trkpt lat="48.960480" lon="9.895140">
        <ele>492.379210</ele>
        <time>2025-05-03T07:33:23.700Z</time>
      </trkpt>
      <trkpt lat="48.960480" lon="9.895139">
        <ele>492.379148</ele>
        <time>2025-05-03T07:33:23.717Z</time>
      </trkpt>
      <trkpt lat="48.960476" lon="9.895139">
        <ele>492.378764</ele>
        <time>2025-05-03T07:33:23.820Z</time>
      </trkpt>
      <trkpt lat="48.960476" lon="9.895142">
        <ele>492.378575</ele>
        <time>2025-05-03T07:33:23.871Z</time>
      </trkpt>
      <trkpt lat="48.960476" lon="9.895140">
        <ele>492.378450</ele>
        <time>2025-05-03T07:33:23.905Z</time>
      </trkpt>
      <trkpt lat="48.960476" lon="9.895142">
        <ele>492.378324</ele>
        <time>2025-05-03T07:33:23.939Z</time>
      </trkpt>
      <trkpt lat="48.960472" lon="9.895142">
        <ele>492.377940</ele>
        <time>2025-05-03T07:33:24.042Z</time>
      </trkpt>
      <trkpt lat="48.960468" lon="9.895143">
        <ele>492.377552</ele>
        <time>2025-05-03T07:33:24.147Z</time>
      </trkpt>
      <trkpt lat="48.960468" lon="9.895142">
        <ele>492.377489</ele>
        <time>2025-05-03T07:33:24.164Z</time>
      </trkpt>
      <trkpt lat="48.960468" lon="9.895143">
        <ele>492.377426</ele>
        <time>2025-05-03T07:33:24.181Z</time>
      </trkpt>
      <trkpt lat="48.960464" lon="9.895142">
        <ele>492.377037</ele>
        <time>2025-05-03T07:33:24.286Z</time>
      </trkpt>
      <trkpt lat="48.960464" lon="9.895140">
        <ele>492.376912</ele>
        <time>2025-05-03T07:33:24.320Z</time>
      </trkpt>
      <trkpt lat="48.960468" lon="9.895140">
        <ele>492.376528</ele>
        <time>2025-05-03T07:33:24.424Z</time>
      </trkpt>
      <trkpt lat="48.960468" lon="9.895139">
        <ele>492.376465</ele>
        <time>2025-05-03T07:33:24.440Z</time>
      </trkpt>
      <trkpt lat="48.960472" lon="9.895140">
        <ele>492.376077</ele>
        <time>2025-05-03T07:33:24.545Z</time>
      </trkpt>
      <trkpt lat="48.960472" lon="9.895139">
        <ele>492.376014</ele>
        <time>2025-05-03T07:33:24.562Z</time>
      </trkpt>
      <trkpt lat="48.960476" lon="9.895139">
        <ele>492.375630</ele>
        <time>2025-05-03T07:33:24.666Z</time>
      </trkpt>
      <trkpt lat="48.960480" lon="9.895139">
        <ele>492.375247</ele>
        <time>2025-05-03T07:33:24.769Z</time>
      </trkpt>
      <trkpt lat="48.960480" lon="9.895137">
        <ele>492.375121</ele>
        <time>2025-05-03T07:33:24.803Z</time>
      </trkpt>
      <trkpt lat="48.960484" lon="9.895137">
        <ele>492.374738</ele>
        <time>2025-05-03T07:33:24.907Z</time>
      </trkpt>
      <trkpt lat="48.960480" lon="9.895137">
        <ele>492.374354</ele>
        <time>2025-05-03T07:33:25.010Z</time>
      </trkpt>
      <trkpt lat="48.960480" lon="9.895139">
        <ele>492.374229</ele>
        <time>2025-05-03T07:33:25.044Z</time>
      </trkpt>
      <trkpt lat="48.960484" lon="9.895139">
        <ele>492.373845</ele>
        <time>2025-05-03T07:33:25.148Z</time>
      </trkpt>
      <trkpt lat="48.960487" lon="9.895139">
        <ele>492.373558</ele>
        <time>2025-05-03T07:33:25.225Z</time>
      </trkpt>
      <trkpt lat="48.960484" lon="9.895139">
        <ele>492.373270</ele>
        <time>2025-05-03T07:33:25.303Z</time>
      </trkpt>
      <trkpt lat="48.960484" lon="9.895137">
        <ele>492.373144</ele>
        <time>2025-05-03T07:33:25.337Z</time>
      </trkpt>
      <trkpt lat="48.960480" lon="9.895139">
        <ele>492.372741</ele>
        <time>2025-05-03T07:33:25.446Z</time>
      </trkpt>
      <trkpt lat="48.960480" lon="9.895137">
        <ele>492.372615</ele>
        <time>2025-05-03T07:33:25.479Z</time>
      </trkpt>
      <trkpt lat="48.960484" lon="9.895135">
        <ele>492.372211</ele>
        <time>2025-05-03T07:33:25.588Z</time>
      </trkpt>
      <trkpt lat="48.960480" lon="9.895132">
        <ele>492.371784</ele>
        <time>2025-05-03T07:33:25.704Z</time>
      </trkpt>
      <trkpt lat="48.960484" lon="9.895133">
        <ele>492.371396</ele>
        <time>2025-05-03T07:33:25.808Z</time>
      </trkpt>
      <trkpt lat="48.960484" lon="9.895132">
        <ele>492.371333</ele>
        <time>2025-05-03T07:33:25.825Z</time>
      </trkpt>
      <trkpt lat="48.960487" lon="9.895130">
        <ele>492.371019</ele>
        <time>2025-05-03T07:33:25.910Z</time>
      </trkpt>
      <trkpt lat="48.960487" lon="9.895132">
        <ele>492.370893</ele>
        <time>2025-05-03T07:33:25.944Z</time>
      </trkpt>
      <trkpt lat="48.960487" lon="9.895130">
        <ele>492.370767</ele>
        <time>2025-05-03T07:33:25.978Z</time>
      </trkpt>
      <trkpt lat="48.960491" lon="9.895130">
        <ele>492.370384</ele>
        <time>2025-05-03T07:33:26.081Z</time>
      </trkpt>
      <trkpt lat="48.960491" lon="9.895128">
        <ele>492.370258</ele>
        <time>2025-05-03T07:33:26.115Z</time>
      </trkpt>
      <trkpt lat="48.960491" lon="9.895130">
        <ele>492.370132</ele>
        <time>2025-05-03T07:33:26.149Z</time>
      </trkpt>
      <trkpt lat="48.960491" lon="9.895132">
        <ele>492.370006</ele>
        <time>2025-05-03T07:33:26.183Z</time>
      </trkpt>
      <trkpt lat="48.960495" lon="9.895132">
        <ele>492.369623</ele>
        <time>2025-05-03T07:33:26.287Z</time>
      </trkpt>
      <trkpt lat="48.960495" lon="9.895133">
        <ele>492.369560</ele>
        <time>2025-05-03T07:33:26.304Z</time>
      </trkpt>
      <trkpt lat="48.960495" lon="9.895132">
        <ele>492.369497</ele>
        <time>2025-05-03T07:33:26.321Z</time>
      </trkpt>
      <trkpt lat="48.960499" lon="9.895132">
        <ele>492.369114</ele>
        <time>2025-05-03T07:33:26.424Z</time>
      </trkpt>
      <trkpt lat="48.960495" lon="9.895132">
        <ele>492.368730</ele>
        <time>2025-05-03T07:33:26.528Z</time>
      </trkpt>
      <trkpt lat="48.960495" lon="9.895133">
        <ele>492.368667</ele>
        <time>2025-05-03T07:33:26.545Z</time>
      </trkpt>
      <trkpt lat="48.960495" lon="9.895132">
        <ele>492.368604</ele>
        <time>2025-05-03T07:33:26.562Z</time>
      </trkpt>
      <trkpt lat="48.960495" lon="9.895130">
        <ele>492.368478</ele>
        <time>2025-05-03T07:33:26.596Z</time>
      </trkpt>
      <trkpt lat="48.960491" lon="9.895130">
        <ele>492.368095</ele>
        <time>2025-05-03T07:33:26.699Z</time>
      </trkpt>
      <trkpt lat="48.960491" lon="9.895128">
        <ele>492.367969</ele>
        <time>2025-05-03T07:33:26.733Z</time>
      </trkpt>
      <trkpt lat="48.960491" lon="9.895130">
        <ele>492.367843</ele>
        <time>2025-05-03T07:33:26.767Z</time>
      </trkpt>
      <trkpt lat="48.960487" lon="9.895130">
        <ele>492.367460</ele>
        <time>2025-05-03T07:33:26.870Z</time>
      </trkpt>
      <trkpt lat="48.960484" lon="9.895125">
        <ele>492.367034</ele>
        <time>2025-05-03T07:33:26.985Z</time>
      </trkpt>
      <trkpt lat="48.960480" lon="9.895125">
        <ele>492.366650</ele>
        <time>2025-05-03T07:33:27.089Z</time>
      </trkpt>
      <trkpt lat="48.960480" lon="9.895126">
        <ele>492.366587</ele>
        <time>2025-05-03T07:33:27.106Z</time>
      </trkpt>
      <trkpt lat="48.960484" lon="9.895125">
        <ele>492.366199</ele>
        <time>2025-05-03T07:33:27.211Z</time>
      </trkpt>
      <trkpt lat="48.960484" lon="9.895128">
        <ele>492.366010</ele>
        <time>2025-05-03T07:33:27.261Z</time>
      </trkpt>
      <trkpt lat="48.960480" lon="9.895126">
        <ele>492.365607</ele>
        <time>2025-05-03T07:33:27.370Z</time>
      </trkpt>
      <trkpt lat="48.960476" lon="9.895126">
        <ele>492.365223</ele>
        <time>2025-05-03T07:33:27.474Z</time>
      </trkpt>
      <trkpt lat="48.960476" lon="9.895128">
        <ele>492.365097</ele>
        <time>2025-05-03T07:33:27.508Z</time>
      </trkpt>
      <trkpt lat="48.960480" lon="9.895130">
        <ele>492.364694</ele>
        <time>2025-05-03T07:33:27.617Z</time>
      </trkpt>
      <trkpt lat="48.960476" lon="9.895128">
        <ele>492.364290</ele>
        <time>2025-05-03T07:33:27.726Z</time>
      </trkpt>
      <trkpt lat="48.960472" lon="9.895126">
        <ele>492.363887</ele>
        <time>2025-05-03T07:33:27.834Z</time>
      </trkpt>
      <trkpt lat="48.960468" lon="9.895125">
        <ele>492.363498</ele>
        <time>2025-05-03T07:33:27.939Z</time>
      </trkpt>
      <trkpt lat="48.960468" lon="9.895123">
        <ele>492.363373</ele>
        <time>2025-05-03T07:33:27.973Z</time>
      </trkpt>
      <trkpt lat="48.960472" lon="9.895125">
        <ele>492.362969</ele>
        <time>2025-05-03T07:33:28.082Z</time>
      </trkpt>
      <trkpt lat="48.960476" lon="9.895125">
        <ele>492.362586</ele>
        <time>2025-05-03T07:33:28.185Z</time>
      </trkpt>
      <trkpt lat="48.960472" lon="9.895123">
        <ele>492.362182</ele>
        <time>2025-05-03T07:33:28.294Z</time>
      </trkpt>
      <trkpt lat="48.960468" lon="9.895120">
        <ele>492.361755</ele>
        <time>2025-05-03T07:33:28.410Z</time>
      </trkpt>
      <trkpt lat="48.960468" lon="9.895122">
        <ele>492.361629</ele>
        <time>2025-05-03T07:33:28.444Z</time>
      </trkpt>
      <trkpt lat="48.960468" lon="9.895120">
        <ele>492.361503</ele>
        <time>2025-05-03T07:33:28.478Z</time>
      </trkpt>
      <trkpt lat="48.960468" lon="9.895122">
        <ele>492.361377</ele>
        <time>2025-05-03T07:33:28.512Z</time>
      </trkpt>
      <trkpt lat="48.960472" lon="9.895122">
        <ele>492.360994</ele>
        <time>2025-05-03T07:33:28.615Z</time>
      </trkpt>
      <trkpt lat="48.960472" lon="9.895123">
        <ele>492.360931</ele>
        <time>2025-05-03T07:33:28.632Z</time>
      </trkpt>
      <trkpt lat="48.960468" lon="9.895123">
        <ele>492.360548</ele>
        <time>2025-05-03T07:33:28.735Z</time>
      </trkpt>
      <trkpt lat="48.960464" lon="9.895122">
        <ele>492.360159</ele>
        <time>2025-05-03T07:33:28.840Z</time>
      </trkpt>
      <trkpt lat="48.960461" lon="9.895120">
        <ele>492.359845</ele>
        <time>2025-05-03T07:33:28.925Z</time>
      </trkpt>
      <trkpt lat="48.960464" lon="9.895122">
        <ele>492.359531</ele>
        <time>2025-05-03T07:33:29.010Z</time>
      </trkpt>
      <trkpt lat="48.960464" lon="9.895120">
        <ele>492.359406</ele>
        <time>2025-05-03T07:33:29.044Z</time>
      </trkpt>
      <trkpt lat="48.960461" lon="9.895120">
        <ele>492.359118</ele>
        <time>2025-05-03T07:33:29.121Z</time>
      </trkpt>
      <trkpt lat="48.960464" lon="9.895120">
        <ele>492.358830</ele>
        <time>2025-05-03T07:33:29.199Z</time>
      </trkpt>
      <trkpt lat="48.960464" lon="9.895119">
        <ele>492.358768</ele>
        <time>2025-05-03T07:33:29.216Z</time>
      </trkpt>
      <trkpt lat="48.960461" lon="9.895119">
        <ele>492.358480</ele>
        <time>2025-05-03T07:33:29.293Z</time>
      </trkpt>
      <trkpt lat="48.960461" lon="9.895120">
        <ele>492.358417</ele>
        <time>2025-05-03T07:33:29.310Z</time>
      </trkpt>
      <trkpt lat="48.960464" lon="9.895120">
        <ele>492.358130</ele>
        <time>2025-05-03T07:33:29.388Z</time>
      </trkpt>
      <trkpt lat="48.960468" lon="9.895122">
        <ele>492.357726</ele>
        <time>2025-05-03T07:33:29.497Z</time>
      </trkpt>
      <trkpt lat="48.960468" lon="9.895119">
        <ele>492.357537</ele>
        <time>2025-05-03T07:33:29.548Z</time>
      </trkpt>
      <trkpt lat="48.960464" lon="9.895119">
        <ele>492.357154</ele>
        <time>2025-05-03T07:33:29.651Z</time>
      </trkpt>
      <trkpt lat="48.960468" lon="9.895120">
        <ele>492.356765</ele>
        <time>2025-05-03T07:33:29.756Z</time>
      </trkpt>
      <trkpt lat="48.960468" lon="9.895119">
        <ele>492.356702</ele>
        <time>2025-05-03T07:33:29.773Z</time>
      </trkpt>
      <trkpt lat="48.960468" lon="9.895117">
        <ele>492.356577</ele>
        <time>2025-05-03T07:33:29.807Z</time>
      </trkpt>
      <trkpt lat="48.960468" lon="9.895115">
        <ele>492.356451</ele>
        <time>2025-05-03T07:33:29.841Z</time>
      </trkpt>
      <trkpt lat="48.960468" lon="9.895119">
        <ele>492.356199</ele>
        <time>2025-05-03T07:33:29.909Z</time>
      </trkpt>
      <trkpt lat="48.960468" lon="9.895120">
        <ele>492.356136</ele>
        <time>2025-05-03T07:33:29.926Z</time>
      </trkpt>
      <trkpt lat="48.960464" lon="9.895122">
        <ele>492.355733</ele>
        <time>2025-05-03T07:33:30.035Z</time>
      </trkpt>
      <trkpt lat="48.960468" lon="9.895122">
        <ele>492.355349</ele>
        <time>2025-05-03T07:33:30.138Z</time>
      </trkpt>
      <trkpt lat="48.960468" lon="9.895123">
        <ele>492.355286</ele>
        <time>2025-05-03T07:33:30.155Z</time>
      </trkpt>
      <trkpt lat="48.960468" lon="9.895122">
        <ele>492.355223</ele>
        <time>2025-05-03T07:33:30.172Z</time>
      </trkpt>
      <trkpt lat="48.960464" lon="9.895122">
        <ele>492.354840</ele>
        <time>2025-05-03T07:33:30.275Z</time>
      </trkpt>
      <trkpt lat="48.960464" lon="9.895123">
        <ele>492.354777</ele>
        <time>2025-05-03T07:33:30.292Z</time>
      </trkpt>
      <trkpt lat="48.960464" lon="9.895125">
        <ele>492.354651</ele>
        <time>2025-05-03T07:33:30.326Z</time>
      </trkpt>
      <trkpt lat="48.960464" lon="9.895123">
        <ele>492.354525</ele>
        <time>2025-05-03T07:33:30.360Z</time>
      </trkpt>
      <trkpt lat="48.960464" lon="9.895125">
        <ele>492.354400</ele>
        <time>2025-05-03T07:33:30.394Z</time>
      </trkpt>
      <trkpt lat="48.960464" lon="9.895123">
        <ele>492.354274</ele>
        <time>2025-05-03T07:33:30.428Z</time>
      </trkpt>
      <trkpt lat="48.960464" lon="9.895125">
        <ele>492.354148</ele>
        <time>2025-05-03T07:33:30.462Z</time>
      </trkpt>
      <trkpt lat="48.960464" lon="9.895126">
        <ele>492.354085</ele>
        <time>2025-05-03T07:33:30.479Z</time>
      </trkpt>
      <trkpt lat="48.960464" lon="9.895128">
        <ele>492.353959</ele>
        <time>2025-05-03T07:33:30.513Z</time>
      </trkpt>
      <trkpt lat="48.960464" lon="9.895126">
        <ele>492.353833</ele>
        <time>2025-05-03T07:33:30.547Z</time>
      </trkpt>
      <trkpt lat="48.960464" lon="9.895128">
        <ele>492.353707</ele>
        <time>2025-05-03T07:33:30.581Z</time>
      </trkpt>
      <trkpt lat="48.960468" lon="9.895126">
        <ele>492.353304</ele>
        <time>2025-05-03T07:33:30.690Z</time>
      </trkpt>
      <trkpt lat="48.960468" lon="9.895128">
        <ele>492.353178</ele>
        <time>2025-05-03T07:33:30.724Z</time>
      </trkpt>
      <trkpt lat="48.960468" lon="9.895130">
        <ele>492.353052</ele>
        <time>2025-05-03T07:33:30.758Z</time>
      </trkpt>
      <trkpt lat="48.960468" lon="9.895132">
        <ele>492.352926</ele>
        <time>2025-05-03T07:33:30.792Z</time>
      </trkpt>
      <trkpt lat="48.960468" lon="9.895133">
        <ele>492.352863</ele>
        <time>2025-05-03T07:33:30.809Z</time>
      </trkpt>
      <trkpt lat="48.960472" lon="9.895133">
        <ele>492.352480</ele>
        <time>2025-05-03T07:33:30.912Z</time>
      </trkpt>
      <trkpt lat="48.960472" lon="9.895135">
        <ele>492.352354</ele>
        <time>2025-05-03T07:33:30.946Z</time>
      </trkpt>
      <trkpt lat="48.960472" lon="9.895137">
        <ele>492.352228</ele>
        <time>2025-05-03T07:33:30.980Z</time>
      </trkpt>
      <trkpt lat="48.960476" lon="9.895137">
        <ele>492.351845</ele>
        <time>2025-05-03T07:33:31.084Z</time>
      </trkpt>
      <trkpt lat="48.960476" lon="9.895135">
        <ele>492.351719</ele>
        <time>2025-05-03T07:33:31.117Z</time>
      </trkpt>
      <trkpt lat="48.960476" lon="9.895133">
        <ele>492.351593</ele>
        <time>2025-05-03T07:33:31.151Z</time>
      </trkpt>
      <trkpt lat="48.960476" lon="9.895132">
        <ele>492.351530</ele>
        <time>2025-05-03T07:33:31.168Z</time>
      </trkpt>
      <trkpt lat="48.960472" lon="9.895128">
        <ele>492.351072</ele>
        <time>2025-05-03T07:33:31.292Z</time>
      </trkpt>
      <trkpt lat="48.960476" lon="9.895130">
        <ele>492.350668</ele>
        <time>2025-05-03T07:33:31.401Z</time>
      </trkpt>
      <trkpt lat="48.960480" lon="9.895130">
        <ele>492.350285</ele>
        <time>2025-05-03T07:33:31.504Z</time>
      </trkpt>
      <trkpt lat="48.960480" lon="9.895128">
        <ele>492.350159</ele>
        <time>2025-05-03T07:33:31.538Z</time>
      </trkpt>
      <trkpt lat="48.960480" lon="9.895130">
        <ele>492.350033</ele>
        <time>2025-05-03T07:33:31.572Z</time>
      </trkpt>
      <trkpt lat="48.960480" lon="9.895132">
        <ele>492.349907</ele>
        <time>2025-05-03T07:33:31.606Z</time>
      </trkpt>
      <trkpt lat="48.960480" lon="9.895130">
        <ele>492.349781</ele>
        <time>2025-05-03T07:33:31.640Z</time>
      </trkpt>
      <trkpt lat="48.960480" lon="9.895132">
        <ele>492.349655</ele>
        <time>2025-05-03T07:33:31.674Z</time>
      </trkpt>
      <trkpt lat="48.960484" lon="9.895130">
        <ele>492.349252</ele>
        <time>2025-05-03T07:33:31.783Z</time>
      </trkpt>
      <trkpt lat="48.960484" lon="9.895132">
        <ele>492.349126</ele>
        <time>2025-05-03T07:33:31.817Z</time>
      </trkpt>
      <trkpt lat="48.960480" lon="9.895132">
        <ele>492.348743</ele>
        <time>2025-05-03T07:33:31.921Z</time>
      </trkpt>
      <trkpt lat="48.960484" lon="9.895133">
        <ele>492.348354</ele>
        <time>2025-05-03T07:33:32.025Z</time>
      </trkpt>
      <trkpt lat="48.960484" lon="9.895135">
        <ele>492.348228</ele>
        <time>2025-05-03T07:33:32.059Z</time>
      </trkpt>
      <trkpt lat="48.960484" lon="9.895137">
        <ele>492.348102</ele>
        <time>2025-05-03T07:33:32.093Z</time>
      </trkpt>
      <trkpt lat="48.960480" lon="9.895137">
        <ele>492.347719</ele>
        <time>2025-05-03T07:33:32.197Z</time>
      </trkpt>
      <trkpt lat="48.960476" lon="9.895137">
        <ele>492.347336</ele>
        <time>2025-05-03T07:33:32.300Z</time>
      </trkpt>
      <trkpt lat="48.960480" lon="9.895139">
        <ele>492.346932</ele>
        <time>2025-05-03T07:33:32.409Z</time>
      </trkpt>
      <trkpt lat="48.960476" lon="9.895137">
        <ele>492.346529</ele>
        <time>2025-05-03T07:33:32.518Z</time>
      </trkpt>
      <trkpt lat="48.960472" lon="9.895135">
        <ele>492.346125</ele>
        <time>2025-05-03T07:33:32.627Z</time>
      </trkpt>
      <trkpt lat="48.960472" lon="9.895137">
        <ele>492.345999</ele>
        <time>2025-05-03T07:33:32.661Z</time>
      </trkpt>
      <trkpt lat="48.960476" lon="9.895137">
        <ele>492.345616</ele>
        <time>2025-05-03T07:33:32.764Z</time>
      </trkpt>
      <trkpt lat="48.960476" lon="9.895139">
        <ele>492.345490</ele>
        <time>2025-05-03T07:33:32.798Z</time>
      </trkpt>
      <trkpt lat="48.960472" lon="9.895139">
        <ele>492.345107</ele>
        <time>2025-05-03T07:33:32.902Z</time>
      </trkpt>
      <trkpt lat="48.960472" lon="9.895140">
        <ele>492.345044</ele>
        <time>2025-05-03T07:33:32.919Z</time>
      </trkpt>
      <trkpt lat="48.960472" lon="9.895142">
        <ele>492.344918</ele>
        <time>2025-05-03T07:33:32.952Z</time>
      </trkpt>
      <trkpt lat="48.960472" lon="9.895140">
        <ele>492.344792</ele>
        <time>2025-05-03T07:33:32.986Z</time>
      </trkpt>
      <trkpt lat="48.960472" lon="9.895139">
        <ele>492.344729</ele>
        <time>2025-05-03T07:33:33.003Z</time>
      </trkpt>
      <trkpt lat="48.960468" lon="9.895139">
        <ele>492.344346</ele>
        <time>2025-05-03T07:33:33.107Z</time>
      </trkpt>
      <trkpt lat="48.960468" lon="9.895137">
        <ele>492.344220</ele>
        <time>2025-05-03T07:33:33.141Z</time>
      </trkpt>
      <trkpt lat="48.960468" lon="9.895139">
        <ele>492.344094</ele>
        <time>2025-05-03T07:33:33.175Z</time>
      </trkpt>
      <trkpt lat="48.960464" lon="9.895137">
        <ele>492.343691</ele>
        <time>2025-05-03T07:33:33.284Z</time>
      </trkpt>
      <trkpt lat="48.960464" lon="9.895135">
        <ele>492.343565</ele>
        <time>2025-05-03T07:33:33.318Z</time>
      </trkpt>
      <trkpt lat="48.960461" lon="9.895135">
        <ele>492.343277</ele>
        <time>2025-05-03T07:33:33.395Z</time>
      </trkpt>
      <trkpt lat="48.960457" lon="9.895137">
        <ele>492.342874</ele>
        <time>2025-05-03T07:33:33.504Z</time>
      </trkpt>
      <trkpt lat="48.960461" lon="9.895135">
        <ele>492.342470</ele>
        <time>2025-05-03T07:33:33.613Z</time>
      </trkpt>
      <trkpt lat="48.960461" lon="9.895137">
        <ele>492.342344</ele>
        <time>2025-05-03T07:33:33.647Z</time>
      </trkpt>
      <trkpt lat="48.960457" lon="9.895137">
        <ele>492.341961</ele>
        <time>2025-05-03T07:33:33.750Z</time>
      </trkpt>
      <trkpt lat="48.960457" lon="9.895139">
        <ele>492.341835</ele>
        <time>2025-05-03T07:33:33.784Z</time>
      </trkpt>
      <trkpt lat="48.960457" lon="9.895137">
        <ele>492.341709</ele>
        <time>2025-05-03T07:33:33.818Z</time>
      </trkpt>
      <trkpt lat="48.960457" lon="9.895139">
        <ele>492.341583</ele>
        <time>2025-05-03T07:33:33.852Z</time>
      </trkpt>
      <trkpt lat="48.960457" lon="9.895142">
        <ele>492.341395</ele>
        <time>2025-05-03T07:33:33.903Z</time>
      </trkpt>
      <trkpt lat="48.960457" lon="9.895140">
        <ele>492.341269</ele>
        <time>2025-05-03T07:33:33.937Z</time>
      </trkpt>
      <trkpt lat="48.960457" lon="9.895142">
        <ele>492.341143</ele>
        <time>2025-05-03T07:33:33.971Z</time>
      </trkpt>
      <trkpt lat="48.960457" lon="9.895140">
        <ele>492.341017</ele>
        <time>2025-05-03T07:33:34.005Z</time>
      </trkpt>
      <trkpt lat="48.960461" lon="9.895142">
        <ele>492.340614</ele>
        <time>2025-05-03T07:33:34.114Z</time>
      </trkpt>
      <trkpt lat="48.960461" lon="9.895145">
        <ele>492.340425</ele>
        <time>2025-05-03T07:33:34.165Z</time>
      </trkpt>
      <trkpt lat="48.960461" lon="9.895150">
        <ele>492.340110</ele>
        <time>2025-05-03T07:33:34.250Z</time>
      </trkpt>
      <trkpt lat="48.960464" lon="9.895150">
        <ele>492.339823</ele>
        <time>2025-05-03T07:33:34.327Z</time>
      </trkpt>
      <trkpt lat="48.960461" lon="9.895150">
        <ele>492.339535</ele>
        <time>2025-05-03T07:33:34.405Z</time>
      </trkpt>
      <trkpt lat="48.960461" lon="9.895152">
        <ele>492.339409</ele>
        <time>2025-05-03T07:33:34.439Z</time>
      </trkpt>
      <trkpt lat="48.960464" lon="9.895152">
        <ele>492.339122</ele>
        <time>2025-05-03T07:33:34.516Z</time>
      </trkpt>
      <trkpt lat="48.960468" lon="9.895152">
        <ele>492.338738</ele>
        <time>2025-05-03T07:33:34.620Z</time>
      </trkpt>
      <trkpt lat="48.960468" lon="9.895150">
        <ele>492.338612</ele>
        <time>2025-05-03T07:33:34.654Z</time>
      </trkpt>
      <trkpt lat="48.960468" lon="9.895152">
        <ele>492.338487</ele>
        <time>2025-05-03T07:33:34.688Z</time>
      </trkpt>
      <trkpt lat="48.960468" lon="9.895150">
        <ele>492.338361</ele>
        <time>2025-05-03T07:33:34.722Z</time>
      </trkpt>
      <trkpt lat="48.960468" lon="9.895152">
        <ele>492.338235</ele>
        <time>2025-05-03T07:33:34.756Z</time>
      </trkpt>
      <trkpt lat="48.960464" lon="9.895150">
        <ele>492.337831</ele>
        <time>2025-05-03T07:33:34.865Z</time>
      </trkpt>
      <trkpt lat="48.960468" lon="9.895152">
        <ele>492.337428</ele>
        <time>2025-05-03T07:33:34.973Z</time>
      </trkpt>
      <trkpt lat="48.960468" lon="9.895153">
        <ele>492.337365</ele>
        <time>2025-05-03T07:33:34.990Z</time>
      </trkpt>
      <trkpt lat="48.960468" lon="9.895152">
        <ele>492.337302</ele>
        <time>2025-05-03T07:33:35.007Z</time>
      </trkpt>
      <trkpt lat="48.960468" lon="9.895150">
        <ele>492.337176</ele>
        <time>2025-05-03T07:33:35.041Z</time>
      </trkpt>
      <trkpt lat="48.960468" lon="9.895148">
        <ele>492.337050</ele>
        <time>2025-05-03T07:33:35.075Z</time>
      </trkpt>
      <trkpt lat="48.960464" lon="9.895143">
        <ele>492.336554</ele>
        <time>2025-05-03T07:33:35.209Z</time>
      </trkpt>
      <trkpt lat="48.960464" lon="9.895142">
        <ele>492.336491</ele>
        <time>2025-05-03T07:33:35.226Z</time>
      </trkpt>
      <trkpt lat="48.960464" lon="9.895140">
        <ele>492.336366</ele>
        <time>2025-05-03T07:33:35.260Z</time>
      </trkpt>
      <trkpt lat="48.960464" lon="9.895137">
        <ele>492.336177</ele>
        <time>2025-05-03T07:33:35.311Z</time>
      </trkpt>
      <trkpt lat="48.960464" lon="9.895135">
        <ele>492.336051</ele>
        <time>2025-05-03T07:33:35.345Z</time>
      </trkpt>
      <trkpt lat="48.960461" lon="9.895130">
        <ele>492.335625</ele>
        <time>2025-05-03T07:33:35.460Z</time>
      </trkpt>
      <trkpt lat="48.960457" lon="9.895126">
        <ele>492.335166</ele>
        <time>2025-05-03T07:33:35.584Z</time>
      </trkpt>
      <trkpt lat="48.960457" lon="9.895123">
        <ele>492.334977</ele>
        <time>2025-05-03T07:33:35.635Z</time>
      </trkpt>
      <trkpt lat="48.960449" lon="9.895119">
        <ele>492.334170</ele>
        <time>2025-05-03T07:33:35.852Z</time>
      </trkpt>
      <trkpt lat="48.960449" lon="9.895113">
        <ele>492.333793</ele>
        <time>2025-05-03T07:33:35.954Z</time>
      </trkpt>
      <trkpt lat="48.960445" lon="9.895112">
        <ele>492.333404</ele>
        <time>2025-05-03T07:33:36.059Z</time>
      </trkpt>
      <trkpt lat="48.960442" lon="9.895112">
        <ele>492.333117</ele>
        <time>2025-05-03T07:33:36.137Z</time>
      </trkpt>
      <trkpt lat="48.960445" lon="9.895115">
        <ele>492.332773</ele>
        <time>2025-05-03T07:33:36.229Z</time>
      </trkpt>
      <trkpt lat="48.960442" lon="9.895120">
        <ele>492.332346</ele>
        <time>2025-05-03T07:33:36.344Z</time>
      </trkpt>
      <trkpt lat="48.960442" lon="9.895123">
        <ele>492.332158</ele>
        <time>2025-05-03T07:33:36.395Z</time>
      </trkpt>
      <trkpt lat="48.960445" lon="9.895123">
        <ele>492.331870</ele>
        <time>2025-05-03T07:33:36.473Z</time>
      </trkpt>
      <trkpt lat="48.960438" lon="9.895119">
        <ele>492.331154</ele>
        <time>2025-05-03T07:33:36.666Z</time>
      </trkpt>
      <trkpt lat="48.960434" lon="9.895119">
        <ele>492.330770</ele>
        <time>2025-05-03T07:33:36.770Z</time>
      </trkpt>
      <trkpt lat="48.960434" lon="9.895117">
        <ele>492.330644</ele>
        <time>2025-05-03T07:33:36.804Z</time>
      </trkpt>
      <trkpt lat="48.960438" lon="9.895119">
        <ele>492.330241</ele>
        <time>2025-05-03T07:33:36.913Z</time>
      </trkpt>
      <trkpt lat="48.960442" lon="9.895122">
        <ele>492.329814</ele>
        <time>2025-05-03T07:33:37.028Z</time>
      </trkpt>
      <trkpt lat="48.960430" lon="9.895117">
        <ele>492.328621</ele>
        <time>2025-05-03T07:33:37.350Z</time>
      </trkpt>
      <trkpt lat="48.960430" lon="9.895115">
        <ele>492.328495</ele>
        <time>2025-05-03T07:33:37.384Z</time>
      </trkpt>
      <trkpt lat="48.960434" lon="9.895120">
        <ele>492.327999</ele>
        <time>2025-05-03T07:33:37.517Z</time>
      </trkpt>
      <trkpt lat="48.960434" lon="9.895123">
        <ele>492.327811</ele>
        <time>2025-05-03T07:33:37.568Z</time>
      </trkpt>
      <trkpt lat="48.960426" lon="9.895117">
        <ele>492.326956</ele>
        <time>2025-05-03T07:33:37.799Z</time>
      </trkpt>
      <trkpt lat="48.960430" lon="9.895120">
        <ele>492.326529</ele>
        <time>2025-05-03T07:33:37.914Z</time>
      </trkpt>
      <trkpt lat="48.960430" lon="9.895112">
        <ele>492.326025</ele>
        <time>2025-05-03T07:33:38.050Z</time>
      </trkpt>
      <trkpt lat="48.960430" lon="9.895100">
        <ele>492.325270</ele>
        <time>2025-05-03T07:33:38.254Z</time>
      </trkpt>
      <trkpt lat="48.960430" lon="9.895103">
        <ele>492.325081</ele>
        <time>2025-05-03T07:33:38.305Z</time>
      </trkpt>
      <trkpt lat="48.960426" lon="9.895099">
        <ele>492.325092</ele>
        <time>2025-05-03T07:33:38.428Z</time>
      </trkpt>
      <trkpt lat="48.960423" lon="9.895092">
        <ele>492.325151</ele>
        <time>2025-05-03T07:33:38.570Z</time>
      </trkpt>
      <trkpt lat="48.960403" lon="9.895081">
        <ele>492.325379</ele>
        <time>2025-05-03T07:33:39.120Z</time>
      </trkpt>
      <trkpt lat="48.960407" lon="9.895093">
        <ele>492.325474</ele>
        <time>2025-05-03T07:33:39.349Z</time>
      </trkpt>
      <trkpt lat="48.960407" lon="9.895090">
        <ele>492.325495</ele>
        <time>2025-05-03T07:33:39.400Z</time>
      </trkpt>
      <trkpt lat="48.960407" lon="9.895088">
        <ele>492.325509</ele>
        <time>2025-05-03T07:33:39.434Z</time>
      </trkpt>
      <trkpt lat="48.960407" lon="9.895095">
        <ele>492.325559</ele>
        <time>2025-05-03T07:33:39.552Z</time>
      </trkpt>
      <trkpt lat="48.960419" lon="9.895113">
        <ele>492.325740</ele>
        <time>2025-05-03T07:33:39.988Z</time>
      </trkpt>
      <trkpt lat="48.960430" lon="9.895132">
        <ele>492.325918</ele>
        <time>2025-05-03T07:33:40.418Z</time>
      </trkpt>
      <trkpt lat="48.960426" lon="9.895139">
        <ele>492.325984</ele>
        <time>2025-05-03T07:33:40.576Z</time>
      </trkpt>
      <trkpt lat="48.960438" lon="9.895143">
        <ele>492.326116</ele>
        <time>2025-05-03T07:33:40.893Z</time>
      </trkpt>
      <trkpt lat="48.960442" lon="9.895146">
        <ele>492.326164</ele>
        <time>2025-05-03T07:33:41.009Z</time>
      </trkpt>
      <trkpt lat="48.960442" lon="9.895145">
        <ele>492.326171</ele>
        <time>2025-05-03T07:33:41.026Z</time>
      </trkpt>
      <trkpt lat="48.960438" lon="9.895146">
        <ele>492.326214</ele>
        <time>2025-05-03T07:33:41.130Z</time>
      </trkpt>
      <trkpt lat="48.960434" lon="9.895146">
        <ele>492.326257</ele>
        <time>2025-05-03T07:33:41.234Z</time>
      </trkpt>
      <trkpt lat="48.960434" lon="9.895145">
        <ele>492.326264</ele>
        <time>2025-05-03T07:33:41.251Z</time>
      </trkpt>
      <trkpt lat="48.960434" lon="9.895143">
        <ele>492.326278</ele>
        <time>2025-05-03T07:33:41.285Z</time>
      </trkpt>
      <trkpt lat="48.960434" lon="9.895142">
        <ele>492.326285</ele>
        <time>2025-05-03T07:33:41.302Z</time>
      </trkpt>
      <trkpt lat="48.960434" lon="9.895140">
        <ele>492.326299</ele>
        <time>2025-05-03T07:33:41.336Z</time>
      </trkpt>
      <trkpt lat="48.960426" lon="9.895139">
        <ele>492.326386</ele>
        <time>2025-05-03T07:33:41.543Z</time>
      </trkpt>
      <trkpt lat="48.960423" lon="9.895132">
        <ele>492.326445</ele>
        <time>2025-05-03T07:33:41.685Z</time>
      </trkpt>
      <trkpt lat="48.960423" lon="9.895130">
        <ele>492.326459</ele>
        <time>2025-05-03T07:33:41.719Z</time>
      </trkpt>
      <trkpt lat="48.960423" lon="9.895126">
        <ele>492.326487</ele>
        <time>2025-05-03T07:33:41.787Z</time>
      </trkpt>
      <trkpt lat="48.960426" lon="9.895126">
        <ele>492.326519</ele>
        <time>2025-05-03T07:33:41.865Z</time>
      </trkpt>
      <trkpt lat="48.960426" lon="9.895128">
        <ele>492.326533</ele>
        <time>2025-05-03T07:33:41.899Z</time>
      </trkpt>
      <trkpt lat="48.960423" lon="9.895128">
        <ele>492.326565</ele>
        <time>2025-05-03T07:33:41.976Z</time>
      </trkpt>
      <trkpt lat="48.960430" lon="9.895130">
        <ele>492.326642</ele>
        <time>2025-05-03T07:33:42.160Z</time>
      </trkpt>
      <trkpt lat="48.960426" lon="9.895130">
        <ele>492.326685</ele>
        <time>2025-05-03T07:33:42.264Z</time>
      </trkpt>
      <trkpt lat="48.960430" lon="9.895130">
        <ele>492.326728</ele>
        <time>2025-05-03T07:33:42.367Z</time>
      </trkpt>
      <trkpt lat="48.960430" lon="9.895132">
        <ele>492.326742</ele>
        <time>2025-05-03T07:33:42.401Z</time>
      </trkpt>
      <trkpt lat="48.960434" lon="9.895132">
        <ele>492.326785</ele>
        <time>2025-05-03T07:33:42.505Z</time>
      </trkpt>
      <trkpt lat="48.960434" lon="9.895133">
        <ele>492.326792</ele>
        <time>2025-05-03T07:33:42.522Z</time>
      </trkpt>
      <trkpt lat="48.960438" lon="9.895133">
        <ele>492.326835</ele>
        <time>2025-05-03T07:33:42.625Z</time>
      </trkpt>
      <trkpt lat="48.960438" lon="9.895130">
        <ele>492.326856</ele>
        <time>2025-05-03T07:33:42.676Z</time>
      </trkpt>
      <trkpt lat="48.960438" lon="9.895132">
        <ele>492.326870</ele>
        <time>2025-05-03T07:33:42.710Z</time>
      </trkpt>
      <trkpt lat="48.960438" lon="9.895135">
        <ele>492.326891</ele>
        <time>2025-05-03T07:33:42.761Z</time>
      </trkpt>
      <trkpt lat="48.960442" lon="9.895135">
        <ele>492.326934</ele>
        <time>2025-05-03T07:33:42.864Z</time>
      </trkpt>
      <trkpt lat="48.960442" lon="9.895137">
        <ele>492.326948</ele>
        <time>2025-05-03T07:33:42.898Z</time>
      </trkpt>
      <trkpt lat="48.960442" lon="9.895139">
        <ele>492.326963</ele>
        <time>2025-05-03T07:33:42.932Z</time>
      </trkpt>
      <trkpt lat="48.960438" lon="9.895139">
        <ele>492.327006</ele>
        <time>2025-05-03T07:33:43.036Z</time>
      </trkpt>
      <trkpt lat="48.960442" lon="9.895140">
        <ele>492.327049</ele>
        <time>2025-05-03T07:33:43.141Z</time>
      </trkpt>
      <trkpt lat="48.960442" lon="9.895142">
        <ele>492.327063</ele>
        <time>2025-05-03T07:33:43.175Z</time>
      </trkpt>
      <trkpt lat="48.960442" lon="9.895143">
        <ele>492.327070</ele>
        <time>2025-05-03T07:33:43.192Z</time>
      </trkpt>
      <trkpt lat="48.960445" lon="9.895143">
        <ele>492.327102</ele>
        <time>2025-05-03T07:33:43.269Z</time>
      </trkpt>
      <trkpt lat="48.960445" lon="9.895140">
        <ele>492.327124</ele>
        <time>2025-05-03T07:33:43.320Z</time>
      </trkpt>
      <trkpt lat="48.960449" lon="9.895139">
        <ele>492.327167</ele>
        <time>2025-05-03T07:33:43.425Z</time>
      </trkpt>
      <trkpt lat="48.960449" lon="9.895140">
        <ele>492.327174</ele>
        <time>2025-05-03T07:33:43.442Z</time>
      </trkpt>
      <trkpt lat="48.960453" lon="9.895137">
        <ele>492.327222</ele>
        <time>2025-05-03T07:33:43.557Z</time>
      </trkpt>
      <trkpt lat="48.960453" lon="9.895135">
        <ele>492.327236</ele>
        <time>2025-05-03T07:33:43.591Z</time>
      </trkpt>
      <trkpt lat="48.960453" lon="9.895133">
        <ele>492.327250</ele>
        <time>2025-05-03T07:33:43.625Z</time>
      </trkpt>
      <trkpt lat="48.960449" lon="9.895130">
        <ele>492.327298</ele>
        <time>2025-05-03T07:33:43.740Z</time>
      </trkpt>
      <trkpt lat="48.960449" lon="9.895123">
        <ele>492.327348</ele>
        <time>2025-05-03T07:33:43.859Z</time>
      </trkpt>
      <trkpt lat="48.960449" lon="9.895125">
        <ele>492.327362</ele>
        <time>2025-05-03T07:33:43.893Z</time>
      </trkpt>
      <trkpt lat="48.960445" lon="9.895128">
        <ele>492.327410</ele>
        <time>2025-05-03T07:33:44.008Z</time>
      </trkpt>
      <trkpt lat="48.960445" lon="9.895126">
        <ele>492.327424</ele>
        <time>2025-05-03T07:33:44.042Z</time>
      </trkpt>
      <trkpt lat="48.960449" lon="9.895128">
        <ele>492.327469</ele>
        <time>2025-05-03T07:33:44.151Z</time>
      </trkpt>
      <trkpt lat="48.960449" lon="9.895126">
        <ele>492.327483</ele>
        <time>2025-05-03T07:33:44.185Z</time>
      </trkpt>
      <trkpt lat="48.960453" lon="9.895128">
        <ele>492.327528</ele>
        <time>2025-05-03T07:33:44.294Z</time>
      </trkpt>
      <trkpt lat="48.960453" lon="9.895130">
        <ele>492.327542</ele>
        <time>2025-05-03T07:33:44.328Z</time>
      </trkpt>
      <trkpt lat="48.960457" lon="9.895133">
        <ele>492.327590</ele>
        <time>2025-05-03T07:33:44.443Z</time>
      </trkpt>
      <trkpt lat="48.960457" lon="9.895132">
        <ele>492.327597</ele>
        <time>2025-05-03T07:33:44.460Z</time>
      </trkpt>
      <trkpt lat="48.960457" lon="9.895133">
        <ele>492.327604</ele>
        <time>2025-05-03T07:33:44.477Z</time>
      </trkpt>
      <trkpt lat="48.960457" lon="9.895135">
        <ele>492.327618</ele>
        <time>2025-05-03T07:33:44.511Z</time>
      </trkpt>
      <trkpt lat="48.960457" lon="9.895137">
        <ele>492.327633</ele>
        <time>2025-05-03T07:33:44.545Z</time>
      </trkpt>
      <trkpt lat="48.960457" lon="9.895135">
        <ele>492.327647</ele>
        <time>2025-05-03T07:33:44.579Z</time>
      </trkpt>
      <trkpt lat="48.960457" lon="9.895137">
        <ele>492.327661</ele>
        <time>2025-05-03T07:33:44.613Z</time>
      </trkpt>
      <trkpt lat="48.960457" lon="9.895135">
        <ele>492.327675</ele>
        <time>2025-05-03T07:33:44.647Z</time>
      </trkpt>
      <trkpt lat="48.960457" lon="9.895137">
        <ele>492.327689</ele>
        <time>2025-05-03T07:33:44.681Z</time>
      </trkpt>
      <trkpt lat="48.960461" lon="9.895139">
        <ele>492.327734</ele>
        <time>2025-05-03T07:33:44.790Z</time>
      </trkpt>
      <trkpt lat="48.960464" lon="9.895139">
        <ele>492.327766</ele>
        <time>2025-05-03T07:33:44.868Z</time>
      </trkpt>
      <trkpt lat="48.960461" lon="9.895137">
        <ele>492.327802</ele>
        <time>2025-05-03T07:33:44.952Z</time>
      </trkpt>
      <trkpt lat="48.960461" lon="9.895139">
        <ele>492.327816</ele>
        <time>2025-05-03T07:33:44.986Z</time>
      </trkpt>
      <trkpt lat="48.960461" lon="9.895142">
        <ele>492.327837</ele>
        <time>2025-05-03T07:33:45.037Z</time>
      </trkpt>
      <trkpt lat="48.960464" lon="9.895140">
        <ele>492.327872</ele>
        <time>2025-05-03T07:33:45.122Z</time>
      </trkpt>
      <trkpt lat="48.960461" lon="9.895142">
        <ele>492.327907</ele>
        <time>2025-05-03T07:33:45.207Z</time>
      </trkpt>
      <trkpt lat="48.960464" lon="9.895143">
        <ele>492.327940</ele>
        <time>2025-05-03T07:33:45.286Z</time>
      </trkpt>
      <trkpt lat="48.960464" lon="9.895146">
        <ele>492.327961</ele>
        <time>2025-05-03T07:33:45.337Z</time>
      </trkpt>
      <trkpt lat="48.960464" lon="9.895148">
        <ele>492.327975</ele>
        <time>2025-05-03T07:33:45.371Z</time>
      </trkpt>
      <trkpt lat="48.960461" lon="9.895145">
        <ele>492.328014</ele>
        <time>2025-05-03T07:33:45.464Z</time>
      </trkpt>
      <trkpt lat="48.960457" lon="9.895140">
        <ele>492.328070</ele>
        <time>2025-05-03T07:33:45.597Z</time>
      </trkpt>
      <trkpt lat="48.960457" lon="9.895139">
        <ele>492.328077</ele>
        <time>2025-05-03T07:33:45.614Z</time>
      </trkpt>
      <trkpt lat="48.960457" lon="9.895140">
        <ele>492.328084</ele>
        <time>2025-05-03T07:33:45.631Z</time>
      </trkpt>
      <trkpt lat="48.960457" lon="9.895142">
        <ele>492.328098</ele>
        <time>2025-05-03T07:33:45.665Z</time>
      </trkpt>
      <trkpt lat="48.960457" lon="9.895140">
        <ele>492.328112</ele>
        <time>2025-05-03T07:33:45.699Z</time>
      </trkpt>
      <trkpt lat="48.960457" lon="9.895137">
        <ele>492.328133</ele>
        <time>2025-05-03T07:33:45.750Z</time>
      </trkpt>
      <trkpt lat="48.960457" lon="9.895133">
        <ele>492.328161</ele>
        <time>2025-05-03T07:33:45.818Z</time>
      </trkpt>
      <trkpt lat="48.960457" lon="9.895130">
        <ele>492.328182</ele>
        <time>2025-05-03T07:33:45.869Z</time>
      </trkpt>
      <trkpt lat="48.960457" lon="9.895135">
        <ele>492.328218</ele>
        <time>2025-05-03T07:33:45.954Z</time>
      </trkpt>
      <trkpt lat="48.960461" lon="9.895137">
        <ele>492.328263</ele>
        <time>2025-05-03T07:33:46.063Z</time>
      </trkpt>
      <trkpt lat="48.960457" lon="9.895140">
        <ele>492.328311</ele>
        <time>2025-05-03T07:33:46.178Z</time>
      </trkpt>
      <trkpt lat="48.960457" lon="9.895139">
        <ele>492.328318</ele>
        <time>2025-05-03T07:33:46.195Z</time>
      </trkpt>
      <trkpt lat="48.960457" lon="9.895133">
        <ele>492.328360</ele>
        <time>2025-05-03T07:33:46.297Z</time>
      </trkpt>
      <trkpt lat="48.960457" lon="9.895132">
        <ele>492.328367</ele>
        <time>2025-05-03T07:33:46.314Z</time>
      </trkpt>
      <trkpt lat="48.960457" lon="9.895133">
        <ele>492.328374</ele>
        <time>2025-05-03T07:33:46.331Z</time>
      </trkpt>
      <trkpt lat="48.960457" lon="9.895135">
        <ele>492.328388</ele>
        <time>2025-05-03T07:33:46.365Z</time>
      </trkpt>
      <trkpt lat="48.960457" lon="9.895133">
        <ele>492.328402</ele>
        <time>2025-05-03T07:33:46.399Z</time>
      </trkpt>
      <trkpt lat="48.960457" lon="9.895132">
        <ele>492.328410</ele>
        <time>2025-05-03T07:33:46.416Z</time>
      </trkpt>
      <trkpt lat="48.960457" lon="9.895130">
        <ele>492.328424</ele>
        <time>2025-05-03T07:33:46.450Z</time>
      </trkpt>
      <trkpt lat="48.960457" lon="9.895128">
        <ele>492.328438</ele>
        <time>2025-05-03T07:33:46.484Z</time>
      </trkpt>
      <trkpt lat="48.960461" lon="9.895126">
        <ele>492.328483</ele>
        <time>2025-05-03T07:33:46.593Z</time>
      </trkpt>
      <trkpt lat="48.960464" lon="9.895126">
        <ele>492.328515</ele>
        <time>2025-05-03T07:33:46.670Z</time>
      </trkpt>
      <trkpt lat="48.960468" lon="9.895126">
        <ele>492.328558</ele>
        <time>2025-05-03T07:33:46.774Z</time>
      </trkpt>
      <trkpt lat="48.960464" lon="9.895126">
        <ele>492.328601</ele>
        <time>2025-05-03T07:33:46.877Z</time>
      </trkpt>
      <trkpt lat="48.960468" lon="9.895126">
        <ele>492.328644</ele>
        <time>2025-05-03T07:33:46.981Z</time>
      </trkpt>
      <trkpt lat="48.960464" lon="9.895125">
        <ele>492.328688</ele>
        <time>2025-05-03T07:33:47.085Z</time>
      </trkpt>
      <trkpt lat="48.960464" lon="9.895123">
        <ele>492.328702</ele>
        <time>2025-05-03T07:33:47.119Z</time>
      </trkpt>
      <trkpt lat="48.960464" lon="9.895122">
        <ele>492.328709</ele>
        <time>2025-05-03T07:33:47.136Z</time>
      </trkpt>
      <trkpt lat="48.960464" lon="9.895120">
        <ele>492.328723</ele>
        <time>2025-05-03T07:33:47.170Z</time>
      </trkpt>
      <trkpt lat="48.960464" lon="9.895119">
        <ele>492.328730</ele>
        <time>2025-05-03T07:33:47.187Z</time>
      </trkpt>
      <trkpt lat="48.960464" lon="9.895120">
        <ele>492.328737</ele>
        <time>2025-05-03T07:33:47.204Z</time>
      </trkpt>
      <trkpt lat="48.960468" lon="9.895123">
        <ele>492.328785</ele>
        <time>2025-05-03T07:33:47.320Z</time>
      </trkpt>
      <trkpt lat="48.960472" lon="9.895126">
        <ele>492.328833</ele>
        <time>2025-05-03T07:33:47.435Z</time>
      </trkpt>
      <trkpt lat="48.960476" lon="9.895130">
        <ele>492.328884</ele>
        <time>2025-05-03T07:33:47.559Z</time>
      </trkpt>
      <trkpt lat="48.960476" lon="9.895128">
        <ele>492.328898</ele>
        <time>2025-05-03T07:33:47.593Z</time>
      </trkpt>
      <trkpt lat="48.960480" lon="9.895130">
        <ele>492.328944</ele>
        <time>2025-05-03T07:33:47.701Z</time>
      </trkpt>
      <trkpt lat="48.960476" lon="9.895130">
        <ele>492.328986</ele>
        <time>2025-05-03T07:33:47.805Z</time>
      </trkpt>
      <trkpt lat="48.960472" lon="9.895130">
        <ele>492.329029</ele>
        <time>2025-05-03T07:33:47.908Z</time>
      </trkpt>
      <trkpt lat="48.960468" lon="9.895128">
        <ele>492.329075</ele>
        <time>2025-05-03T07:33:48.017Z</time>
      </trkpt>
      <trkpt lat="48.960468" lon="9.895126">
        <ele>492.329089</ele>
        <time>2025-05-03T07:33:48.051Z</time>
      </trkpt>
      <trkpt lat="48.960472" lon="9.895126">
        <ele>492.329132</ele>
        <time>2025-05-03T07:33:48.155Z</time>
      </trkpt>
      <trkpt lat="48.960472" lon="9.895125">
        <ele>492.329139</ele>
        <time>2025-05-03T07:33:48.172Z</time>
      </trkpt>
      <trkpt lat="48.960476" lon="9.895125">
        <ele>492.329182</ele>
        <time>2025-05-03T07:33:48.275Z</time>
      </trkpt>
      <trkpt lat="48.960476" lon="9.895126">
        <ele>492.329189</ele>
        <time>2025-05-03T07:33:48.292Z</time>
      </trkpt>
      <trkpt lat="48.960476" lon="9.895125">
        <ele>492.329196</ele>
        <time>2025-05-03T07:33:48.309Z</time>
      </trkpt>
      <trkpt lat="48.960472" lon="9.895123">
        <ele>492.329241</ele>
        <time>2025-05-03T07:33:48.418Z</time>
      </trkpt>
      <trkpt lat="48.960472" lon="9.895122">
        <ele>492.329248</ele>
        <time>2025-05-03T07:33:48.435Z</time>
      </trkpt>
      <trkpt lat="48.960472" lon="9.895123">
        <ele>492.329255</ele>
        <time>2025-05-03T07:33:48.452Z</time>
      </trkpt>
      <trkpt lat="48.960472" lon="9.895125">
        <ele>492.329269</ele>
        <time>2025-05-03T07:33:48.486Z</time>
      </trkpt>
      <trkpt lat="48.960476" lon="9.895125">
        <ele>492.329312</ele>
        <time>2025-05-03T07:33:48.589Z</time>
      </trkpt>
      <trkpt lat="48.960480" lon="9.895126">
        <ele>492.329356</ele>
        <time>2025-05-03T07:33:48.694Z</time>
      </trkpt>
      <trkpt lat="48.960480" lon="9.895125">
        <ele>492.329363</ele>
        <time>2025-05-03T07:33:48.711Z</time>
      </trkpt>
      <trkpt lat="48.960480" lon="9.895123">
        <ele>492.329377</ele>
        <time>2025-05-03T07:33:48.745Z</time>
      </trkpt>
      <trkpt lat="48.960484" lon="9.895125">
        <ele>492.329422</ele>
        <time>2025-05-03T07:33:48.854Z</time>
      </trkpt>
      <trkpt lat="48.960487" lon="9.895126">
        <ele>492.329455</ele>
        <time>2025-05-03T07:33:48.933Z</time>
      </trkpt>
      <trkpt lat="48.960491" lon="9.895126">
        <ele>492.329498</ele>
        <time>2025-05-03T07:33:49.037Z</time>
      </trkpt>
      <trkpt lat="48.960491" lon="9.895125">
        <ele>492.329505</ele>
        <time>2025-05-03T07:33:49.054Z</time>
      </trkpt>
      <trkpt lat="48.960491" lon="9.895126">
        <ele>492.329512</ele>
        <time>2025-05-03T07:33:49.071Z</time>
      </trkpt>
      <trkpt lat="48.960495" lon="9.895123">
        <ele>492.329560</ele>
        <time>2025-05-03T07:33:49.186Z</time>
      </trkpt>
      <trkpt lat="48.960491" lon="9.895120">
        <ele>492.329608</ele>
        <time>2025-05-03T07:33:49.301Z</time>
      </trkpt>
      <trkpt lat="48.960491" lon="9.895119">
        <ele>492.329615</ele>
        <time>2025-05-03T07:33:49.318Z</time>
      </trkpt>
      <trkpt lat="48.960491" lon="9.895117">
        <ele>492.329629</ele>
        <time>2025-05-03T07:33:49.352Z</time>
      </trkpt>
      <trkpt lat="48.960491" lon="9.895115">
        <ele>492.329643</ele>
        <time>2025-05-03T07:33:49.386Z</time>
      </trkpt>
      <trkpt lat="48.960491" lon="9.895113">
        <ele>492.329657</ele>
        <time>2025-05-03T07:33:49.420Z</time>
      </trkpt>
      <trkpt lat="48.960491" lon="9.895112">
        <ele>492.329664</ele>
        <time>2025-05-03T07:33:49.437Z</time>
      </trkpt>
      <trkpt lat="48.960487" lon="9.895112">
        <ele>492.329707</ele>
        <time>2025-05-03T07:33:49.540Z</time>
      </trkpt>
      <trkpt lat="48.960487" lon="9.895110">
        <ele>492.329722</ele>
        <time>2025-05-03T07:33:49.574Z</time>
      </trkpt>
      <trkpt lat="48.960491" lon="9.895108">
        <ele>492.329767</ele>
        <time>2025-05-03T07:33:49.683Z</time>
      </trkpt>
      <trkpt lat="48.960491" lon="9.895106">
        <ele>492.329781</ele>
        <time>2025-05-03T07:33:49.717Z</time>
      </trkpt>
      <trkpt lat="48.960491" lon="9.895105">
        <ele>492.329788</ele>
        <time>2025-05-03T07:33:49.734Z</time>
      </trkpt>
      <trkpt lat="48.960487" lon="9.895105">
        <ele>492.329831</ele>
        <time>2025-05-03T07:33:49.838Z</time>
      </trkpt>
      <trkpt lat="48.960487" lon="9.895106">
        <ele>492.329838</ele>
        <time>2025-05-03T07:33:49.855Z</time>
      </trkpt>
      <trkpt lat="48.960487" lon="9.895105">
        <ele>492.329845</ele>
        <time>2025-05-03T07:33:49.872Z</time>
      </trkpt>
      <trkpt lat="48.960484" lon="9.895103">
        <ele>492.329880</ele>
        <time>2025-05-03T07:33:49.956Z</time>
      </trkpt>
      <trkpt lat="48.960484" lon="9.895101">
        <ele>492.329894</ele>
        <time>2025-05-03T07:33:49.990Z</time>
      </trkpt>
      <trkpt lat="48.960480" lon="9.895101">
        <ele>492.329937</ele>
        <time>2025-05-03T07:33:50.094Z</time>
      </trkpt>
      <trkpt lat="48.960476" lon="9.895101">
        <ele>492.329980</ele>
        <time>2025-05-03T07:33:50.197Z</time>
      </trkpt>
      <trkpt lat="48.960472" lon="9.895101">
        <ele>492.330023</ele>
        <time>2025-05-03T07:33:50.301Z</time>
      </trkpt>
      <trkpt lat="48.960468" lon="9.895101">
        <ele>492.330066</ele>
        <time>2025-05-03T07:33:50.404Z</time>
      </trkpt>
      <trkpt lat="48.960468" lon="9.895103">
        <ele>492.330080</ele>
        <time>2025-05-03T07:33:50.438Z</time>
      </trkpt>
      <trkpt lat="48.960468" lon="9.895105">
        <ele>492.330094</ele>
        <time>2025-05-03T07:33:50.472Z</time>
      </trkpt>
      <trkpt lat="48.960468" lon="9.895106">
        <ele>492.330101</ele>
        <time>2025-05-03T07:33:50.489Z</time>
      </trkpt>
      <trkpt lat="48.960468" lon="9.895108">
        <ele>492.330115</ele>
        <time>2025-05-03T07:33:50.523Z</time>
      </trkpt>
      <trkpt lat="48.960468" lon="9.895105">
        <ele>492.330137</ele>
        <time>2025-05-03T07:33:50.574Z</time>
      </trkpt>
      <trkpt lat="48.960468" lon="9.895103">
        <ele>492.330151</ele>
        <time>2025-05-03T07:33:50.608Z</time>
      </trkpt>
      <trkpt lat="48.960468" lon="9.895101">
        <ele>492.330165</ele>
        <time>2025-05-03T07:33:50.642Z</time>
      </trkpt>
      <trkpt lat="48.960468" lon="9.895100">
        <ele>492.330172</ele>
        <time>2025-05-03T07:33:50.659Z</time>
      </trkpt>
      <trkpt lat="48.960472" lon="9.895100">
        <ele>492.330215</ele>
        <time>2025-05-03T07:33:50.762Z</time>
      </trkpt>
      <trkpt lat="48.960472" lon="9.895101">
        <ele>492.330222</ele>
        <time>2025-05-03T07:33:50.779Z</time>
      </trkpt>
      <trkpt lat="48.960472" lon="9.895103">
        <ele>492.330236</ele>
        <time>2025-05-03T07:33:50.813Z</time>
      </trkpt>
      <trkpt lat="48.960476" lon="9.895105">
        <ele>492.330281</ele>
        <time>2025-05-03T07:33:50.922Z</time>
      </trkpt>
      <trkpt lat="48.960476" lon="9.895106">
        <ele>492.330288</ele>
        <time>2025-05-03T07:33:50.939Z</time>
      </trkpt>
      <trkpt lat="48.960472" lon="9.895106">
        <ele>492.330331</ele>
        <time>2025-05-03T07:33:51.041Z</time>
      </trkpt>
      <trkpt lat="48.960472" lon="9.895108">
        <ele>492.330345</ele>
        <time>2025-05-03T07:33:51.076Z</time>
      </trkpt>
      <trkpt lat="48.960476" lon="9.895108">
        <ele>492.330388</ele>
        <time>2025-05-03T07:33:51.180Z</time>
      </trkpt>
      <trkpt lat="48.960476" lon="9.895110">
        <ele>492.330402</ele>
        <time>2025-05-03T07:33:51.213Z</time>
      </trkpt>
      <trkpt lat="48.960472" lon="9.895110">
        <ele>492.330445</ele>
        <time>2025-05-03T07:33:51.317Z</time>
      </trkpt>
      <trkpt lat="48.960472" lon="9.895108">
        <ele>492.330460</ele>
        <time>2025-05-03T07:33:51.350Z</time>
      </trkpt>
      <trkpt lat="48.960472" lon="9.895110">
        <ele>492.330474</ele>
        <time>2025-05-03T07:33:51.385Z</time>
      </trkpt>
      <trkpt lat="48.960472" lon="9.895112">
        <ele>492.330488</ele>
        <time>2025-05-03T07:33:51.419Z</time>
      </trkpt>
      <trkpt lat="48.960472" lon="9.895110">
        <ele>492.330502</ele>
        <time>2025-05-03T07:33:51.452Z</time>
      </trkpt>
      <trkpt lat="48.960468" lon="9.895108">
        <ele>492.330547</ele>
        <time>2025-05-03T07:33:51.562Z</time>
      </trkpt>
      <trkpt lat="48.960472" lon="9.895110">
        <ele>492.330592</ele>
        <time>2025-05-03T07:33:51.671Z</time>
      </trkpt>
      <trkpt lat="48.960472" lon="9.895112">
        <ele>492.330606</ele>
        <time>2025-05-03T07:33:51.705Z</time>
      </trkpt>
      <trkpt lat="48.960472" lon="9.895113">
        <ele>492.330613</ele>
        <time>2025-05-03T07:33:51.722Z</time>
      </trkpt>
      <trkpt lat="48.960472" lon="9.895115">
        <ele>492.330628</ele>
        <time>2025-05-03T07:33:51.755Z</time>
      </trkpt>
      <trkpt lat="48.960472" lon="9.895117">
        <ele>492.330642</ele>
        <time>2025-05-03T07:33:51.790Z</time>
      </trkpt>
      <trkpt lat="48.960472" lon="9.895113">
        <ele>492.330670</ele>
        <time>2025-05-03T07:33:51.857Z</time>
      </trkpt>
      <trkpt lat="48.960476" lon="9.895113">
        <ele>492.330713</ele>
        <time>2025-05-03T07:33:51.961Z</time>
      </trkpt>
      <trkpt lat="48.960476" lon="9.895115">
        <ele>492.330727</ele>
        <time>2025-05-03T07:33:51.994Z</time>
      </trkpt>
      <trkpt lat="48.960480" lon="9.895113">
        <ele>492.330772</ele>
        <time>2025-05-03T07:33:52.104Z</time>
      </trkpt>
      <trkpt lat="48.960484" lon="9.895113">
        <ele>492.330815</ele>
        <time>2025-05-03T07:33:52.207Z</time>
      </trkpt>
      <trkpt lat="48.960484" lon="9.895115">
        <ele>492.330829</ele>
        <time>2025-05-03T07:33:52.241Z</time>
      </trkpt>
      <trkpt lat="48.960487" lon="9.895113">
        <ele>492.330864</ele>
        <time>2025-05-03T07:33:52.326Z</time>
      </trkpt>
      <trkpt lat="48.960487" lon="9.895115">
        <ele>492.330878</ele>
        <time>2025-05-03T07:33:52.360Z</time>
      </trkpt>
      <trkpt lat="48.960487" lon="9.895113">
        <ele>492.330893</ele>
        <time>2025-05-03T07:33:52.394Z</time>
      </trkpt>
      <trkpt lat="48.960487" lon="9.895115">
        <ele>492.330907</ele>
        <time>2025-05-03T07:33:52.428Z</time>
      </trkpt>
      <trkpt lat="48.960491" lon="9.895117">
        <ele>492.330952</ele>
        <time>2025-05-03T07:33:52.537Z</time>
      </trkpt>
      <trkpt lat="48.960487" lon="9.895117">
        <ele>492.330995</ele>
        <time>2025-05-03T07:33:52.640Z</time>
      </trkpt>
      <trkpt lat="48.960487" lon="9.895119">
        <ele>492.331009</ele>
        <time>2025-05-03T07:33:52.674Z</time>
      </trkpt>
      <trkpt lat="48.960491" lon="9.895119">
        <ele>492.331052</ele>
        <time>2025-05-03T07:33:52.777Z</time>
      </trkpt>
      <trkpt lat="48.960487" lon="9.895119">
        <ele>492.331095</ele>
        <time>2025-05-03T07:33:52.880Z</time>
      </trkpt>
      <trkpt lat="48.960484" lon="9.895119">
        <ele>492.331127</ele>
        <time>2025-05-03T07:33:52.958Z</time>
      </trkpt>
      <trkpt lat="48.960484" lon="9.895120">
        <ele>492.331134</ele>
        <time>2025-05-03T07:33:52.975Z</time>
      </trkpt>
      <trkpt lat="48.960480" lon="9.895122">
        <ele>492.331179</ele>
        <time>2025-05-03T07:33:53.083Z</time>
      </trkpt>
      <trkpt lat="48.960480" lon="9.895120">
        <ele>492.331194</ele>
        <time>2025-05-03T07:33:53.118Z</time>
      </trkpt>
      <trkpt lat="48.960484" lon="9.895117">
        <ele>492.331241</ele>
        <time>2025-05-03T07:33:53.234Z</time>
      </trkpt>
      <trkpt lat="48.960480" lon="9.895117">
        <ele>492.331284</ele>
        <time>2025-05-03T07:33:53.337Z</time>
      </trkpt>
      <trkpt lat="48.960484" lon="9.895115">
        <ele>492.331330</ele>
        <time>2025-05-03T07:33:53.446Z</time>
      </trkpt>
      <trkpt lat="48.960480" lon="9.895115">
        <ele>492.331373</ele>
        <time>2025-05-03T07:33:53.549Z</time>
      </trkpt>
      <trkpt lat="48.960476" lon="9.895115">
        <ele>492.331416</ele>
        <time>2025-05-03T07:33:53.653Z</time>
      </trkpt>
      <trkpt lat="48.960472" lon="9.895113">
        <ele>492.331461</ele>
        <time>2025-05-03T07:33:53.761Z</time>
      </trkpt>
      <trkpt lat="48.960468" lon="9.895112">
        <ele>492.331504</ele>
        <time>2025-05-03T07:33:53.866Z</time>
      </trkpt>
      <trkpt lat="48.960472" lon="9.895112">
        <ele>492.331547</ele>
        <time>2025-05-03T07:33:53.969Z</time>
      </trkpt>
      <trkpt lat="48.960472" lon="9.895113">
        <ele>492.331554</ele>
        <time>2025-05-03T07:33:53.987Z</time>
      </trkpt>
      <trkpt lat="48.960468" lon="9.895113">
        <ele>492.331597</ele>
        <time>2025-05-03T07:33:54.090Z</time>
      </trkpt>
      <trkpt lat="48.960468" lon="9.895112">
        <ele>492.331604</ele>
        <time>2025-05-03T07:33:54.107Z</time>
      </trkpt>
      <trkpt lat="48.960468" lon="9.895113">
        <ele>492.331611</ele>
        <time>2025-05-03T07:33:54.124Z</time>
      </trkpt>
      <trkpt lat="48.960468" lon="9.895112">
        <ele>492.331618</ele>
        <time>2025-05-03T07:33:54.141Z</time>
      </trkpt>
      <trkpt lat="48.960468" lon="9.895113">
        <ele>492.331625</ele>
        <time>2025-05-03T07:33:54.158Z</time>
      </trkpt>
      <trkpt lat="48.960468" lon="9.895112">
        <ele>492.331633</ele>
        <time>2025-05-03T07:33:54.175Z</time>
      </trkpt>
      <trkpt lat="48.960468" lon="9.895113">
        <ele>492.331640</ele>
        <time>2025-05-03T07:33:54.192Z</time>
      </trkpt>
      <trkpt lat="48.960468" lon="9.895112">
        <ele>492.331647</ele>
        <time>2025-05-03T07:33:54.209Z</time>
      </trkpt>
      <trkpt lat="48.960468" lon="9.895113">
        <ele>492.331654</ele>
        <time>2025-05-03T07:33:54.226Z</time>
      </trkpt>
      <trkpt lat="48.960464" lon="9.895112">
        <ele>492.331697</ele>
        <time>2025-05-03T07:33:54.331Z</time>
      </trkpt>
      <trkpt lat="48.960468" lon="9.895113">
        <ele>492.331741</ele>
        <time>2025-05-03T07:33:54.436Z</time>
      </trkpt>
      <trkpt lat="48.960472" lon="9.895113">
        <ele>492.331784</ele>
        <time>2025-05-03T07:33:54.539Z</time>
      </trkpt>
      <trkpt lat="48.960476" lon="9.895115">
        <ele>492.331829</ele>
        <time>2025-05-03T07:33:54.648Z</time>
      </trkpt>
      <trkpt lat="48.960472" lon="9.895113">
        <ele>492.331874</ele>
        <time>2025-05-03T07:33:54.757Z</time>
      </trkpt>
      <trkpt lat="48.960468" lon="9.895110">
        <ele>492.331922</ele>
        <time>2025-05-03T07:33:54.872Z</time>
      </trkpt>
      <trkpt lat="48.960468" lon="9.895112">
        <ele>492.331936</ele>
        <time>2025-05-03T07:33:54.906Z</time>
      </trkpt>
      <trkpt lat="48.960472" lon="9.895110">
        <ele>492.331981</ele>
        <time>2025-05-03T07:33:55.015Z</time>
      </trkpt>
      <trkpt lat="48.960476" lon="9.895112">
        <ele>492.332027</ele>
        <time>2025-05-03T07:33:55.124Z</time>
      </trkpt>
      <trkpt lat="48.960480" lon="9.895112">
        <ele>492.332070</ele>
        <time>2025-05-03T07:33:55.227Z</time>
      </trkpt>
      <trkpt lat="48.960480" lon="9.895110">
        <ele>492.332084</ele>
        <time>2025-05-03T07:33:55.261Z</time>
      </trkpt>
      <trkpt lat="48.960472" lon="9.895108">
        <ele>492.332171</ele>
        <time>2025-05-03T07:33:55.471Z</time>
      </trkpt>
      <trkpt lat="48.960468" lon="9.895106">
        <ele>492.332216</ele>
        <time>2025-05-03T07:33:55.580Z</time>
      </trkpt>
      <trkpt lat="48.960468" lon="9.895110">
        <ele>492.332244</ele>
        <time>2025-05-03T07:33:55.648Z</time>
      </trkpt>
      <trkpt lat="48.960468" lon="9.895112">
        <ele>492.332258</ele>
        <time>2025-05-03T07:33:55.682Z</time>
      </trkpt>
      <trkpt lat="48.960468" lon="9.895113">
        <ele>492.332265</ele>
        <time>2025-05-03T07:33:55.699Z</time>
      </trkpt>
      <trkpt lat="48.960468" lon="9.895115">
        <ele>492.332279</ele>
        <time>2025-05-03T07:33:55.733Z</time>
      </trkpt>
      <trkpt lat="48.960468" lon="9.895113">
        <ele>492.332294</ele>
        <time>2025-05-03T07:33:55.767Z</time>
      </trkpt>
      <trkpt lat="48.960461" lon="9.895113">
        <ele>492.332369</ele>
        <time>2025-05-03T07:33:55.948Z</time>
      </trkpt>
      <trkpt lat="48.960464" lon="9.895113">
        <ele>492.332401</ele>
        <time>2025-05-03T07:33:56.025Z</time>
      </trkpt>
      <trkpt lat="48.960461" lon="9.895117">
        <ele>492.332444</ele>
        <time>2025-05-03T07:33:56.128Z</time>
      </trkpt>
      <trkpt lat="48.960461" lon="9.895120">
        <ele>492.332465</ele>
        <time>2025-05-03T07:33:56.179Z</time>
      </trkpt>
      <trkpt lat="48.960461" lon="9.895122">
        <ele>492.332479</ele>
        <time>2025-05-03T07:33:56.213Z</time>
      </trkpt>
      <trkpt lat="48.960457" lon="9.895122">
        <ele>492.332522</ele>
        <time>2025-05-03T07:33:56.317Z</time>
      </trkpt>
      <trkpt lat="48.960453" lon="9.895122">
        <ele>492.332565</ele>
        <time>2025-05-03T07:33:56.420Z</time>
      </trkpt>
      <trkpt lat="48.960453" lon="9.895125">
        <ele>492.332586</ele>
        <time>2025-05-03T07:33:56.471Z</time>
      </trkpt>
      <trkpt lat="48.960457" lon="9.895126">
        <ele>492.332630</ele>
        <time>2025-05-03T07:33:56.576Z</time>
      </trkpt>
      <trkpt lat="48.960457" lon="9.895125">
        <ele>492.332637</ele>
        <time>2025-05-03T07:33:56.593Z</time>
      </trkpt>
      <trkpt lat="48.960453" lon="9.895125">
        <ele>492.332680</ele>
        <time>2025-05-03T07:33:56.696Z</time>
      </trkpt>
      <trkpt lat="48.960449" lon="9.895128">
        <ele>492.332728</ele>
        <time>2025-05-03T07:33:56.812Z</time>
      </trkpt>
      <trkpt lat="48.960453" lon="9.895128">
        <ele>492.332771</ele>
        <time>2025-05-03T07:33:56.915Z</time>
      </trkpt>
      <trkpt lat="48.960457" lon="9.895128">
        <ele>492.332814</ele>
        <time>2025-05-03T07:33:57.019Z</time>
      </trkpt>
      <trkpt lat="48.960457" lon="9.895130">
        <ele>492.332828</ele>
        <time>2025-05-03T07:33:57.053Z</time>
      </trkpt>
      <trkpt lat="48.960453" lon="9.895130">
        <ele>492.332871</ele>
        <time>2025-05-03T07:33:57.156Z</time>
      </trkpt>
      <trkpt lat="48.960457" lon="9.895128">
        <ele>492.332916</ele>
        <time>2025-05-03T07:33:57.265Z</time>
      </trkpt>
      <trkpt lat="48.960453" lon="9.895126">
        <ele>492.332961</ele>
        <time>2025-05-03T07:33:57.374Z</time>
      </trkpt>
      <trkpt lat="48.960457" lon="9.895126">
        <ele>492.333004</ele>
        <time>2025-05-03T07:33:57.477Z</time>
      </trkpt>
      <trkpt lat="48.960457" lon="9.895128">
        <ele>492.333018</ele>
        <time>2025-05-03T07:33:57.511Z</time>
      </trkpt>
      <trkpt lat="48.960457" lon="9.895126">
        <ele>492.333032</ele>
        <time>2025-05-03T07:33:57.545Z</time>
      </trkpt>
      <trkpt lat="48.960457" lon="9.895125">
        <ele>492.333039</ele>
        <time>2025-05-03T07:33:57.562Z</time>
      </trkpt>
      <trkpt lat="48.960457" lon="9.895123">
        <ele>492.333053</ele>
        <time>2025-05-03T07:33:57.596Z</time>
      </trkpt>
      <trkpt lat="48.960453" lon="9.895123">
        <ele>492.333096</ele>
        <time>2025-05-03T07:33:57.699Z</time>
      </trkpt>
      <trkpt lat="48.960453" lon="9.895125">
        <ele>492.333110</ele>
        <time>2025-05-03T07:33:57.733Z</time>
      </trkpt>
      <trkpt lat="48.960457" lon="9.895123">
        <ele>492.333156</ele>
        <time>2025-05-03T07:33:57.842Z</time>
      </trkpt>
      <trkpt lat="48.960457" lon="9.895122">
        <ele>492.333163</ele>
        <time>2025-05-03T07:33:57.859Z</time>
      </trkpt>
      <trkpt lat="48.960457" lon="9.895120">
        <ele>492.333177</ele>
        <time>2025-05-03T07:33:57.893Z</time>
      </trkpt>
      <trkpt lat="48.960457" lon="9.895117">
        <ele>492.333198</ele>
        <time>2025-05-03T07:33:57.944Z</time>
      </trkpt>
      <trkpt lat="48.960461" lon="9.895115">
        <ele>492.333243</ele>
        <time>2025-05-03T07:33:58.053Z</time>
      </trkpt>
      <trkpt lat="48.960461" lon="9.895113">
        <ele>492.333257</ele>
        <time>2025-05-03T07:33:58.087Z</time>
      </trkpt>
      <trkpt lat="48.960461" lon="9.895110">
        <ele>492.333279</ele>
        <time>2025-05-03T07:33:58.138Z</time>
      </trkpt>
      <trkpt lat="48.960464" lon="9.895112">
        <ele>492.333314</ele>
        <time>2025-05-03T07:33:58.223Z</time>
      </trkpt>
      <trkpt lat="48.960464" lon="9.895113">
        <ele>492.333321</ele>
        <time>2025-05-03T07:33:58.240Z</time>
      </trkpt>
      <trkpt lat="48.960464" lon="9.895112">
        <ele>492.333328</ele>
        <time>2025-05-03T07:33:58.257Z</time>
      </trkpt>
      <trkpt lat="48.960468" lon="9.895113">
        <ele>492.333371</ele>
        <time>2025-05-03T07:33:58.361Z</time>
      </trkpt>
      <trkpt lat="48.960472" lon="9.895112">
        <ele>492.333415</ele>
        <time>2025-05-03T07:33:58.466Z</time>
      </trkpt>
      <trkpt lat="48.960472" lon="9.895113">
        <ele>492.333422</ele>
        <time>2025-05-03T07:33:58.483Z</time>
      </trkpt>
      <trkpt lat="48.960476" lon="9.895115">
        <ele>492.333467</ele>
        <time>2025-05-03T07:33:58.592Z</time>
      </trkpt>
      <trkpt lat="48.960476" lon="9.895117">
        <ele>492.333481</ele>
        <time>2025-05-03T07:33:58.626Z</time>
      </trkpt>
      <trkpt lat="48.960476" lon="9.895119">
        <ele>492.333495</ele>
        <time>2025-05-03T07:33:58.660Z</time>
      </trkpt>
      <trkpt lat="48.960476" lon="9.895120">
        <ele>492.333502</ele>
        <time>2025-05-03T07:33:58.677Z</time>
      </trkpt>
      <trkpt lat="48.960476" lon="9.895122">
        <ele>492.333517</ele>
        <time>2025-05-03T07:33:58.711Z</time>
      </trkpt>
      <trkpt lat="48.960476" lon="9.895119">
        <ele>492.333538</ele>
        <time>2025-05-03T07:33:58.762Z</time>
      </trkpt>
      <trkpt lat="48.960476" lon="9.895117">
        <ele>492.333552</ele>
        <time>2025-05-03T07:33:58.796Z</time>
      </trkpt>
      <trkpt lat="48.960476" lon="9.895119">
        <ele>492.333566</ele>
        <time>2025-05-03T07:33:58.830Z</time>
      </trkpt>
      <trkpt lat="48.960476" lon="9.895117">
        <ele>492.333580</ele>
        <time>2025-05-03T07:33:58.864Z</time>
      </trkpt>
      <trkpt lat="48.960476" lon="9.895115">
        <ele>492.333594</ele>
        <time>2025-05-03T07:33:58.898Z</time>
      </trkpt>
      <trkpt lat="48.960472" lon="9.895113">
        <ele>492.333639</ele>
        <time>2025-05-03T07:33:59.007Z</time>
      </trkpt>
      <trkpt lat="48.960472" lon="9.895115">
        <ele>492.333653</ele>
        <time>2025-05-03T07:33:59.041Z</time>
      </trkpt>
      <trkpt lat="48.960472" lon="9.895112">
        <ele>492.333675</ele>
        <time>2025-05-03T07:33:59.091Z</time>
      </trkpt>
      <trkpt lat="48.960476" lon="9.895115">
        <ele>492.333722</ele>
        <time>2025-05-03T07:33:59.207Z</time>
      </trkpt>
      <trkpt lat="48.960476" lon="9.895117">
        <ele>492.333737</ele>
        <time>2025-05-03T07:33:59.241Z</time>
      </trkpt>
      <trkpt lat="48.960476" lon="9.895115">
        <ele>492.333751</ele>
        <time>2025-05-03T07:33:59.275Z</time>
      </trkpt>
      <trkpt lat="48.960472" lon="9.895115">
        <ele>492.333794</ele>
        <time>2025-05-03T07:33:59.378Z</time>
      </trkpt>
      <trkpt lat="48.960472" lon="9.895117">
        <ele>492.333808</ele>
        <time>2025-05-03T07:33:59.412Z</time>
      </trkpt>
      <trkpt lat="48.960468" lon="9.895115">
        <ele>492.333853</ele>
        <time>2025-05-03T07:33:59.521Z</time>
      </trkpt>
      <trkpt lat="48.960468" lon="9.895117">
        <ele>492.333867</ele>
        <time>2025-05-03T07:33:59.555Z</time>
      </trkpt>
      <trkpt lat="48.960468" lon="9.895113">
        <ele>492.333895</ele>
        <time>2025-05-03T07:33:59.623Z</time>
      </trkpt>
      <trkpt lat="48.960472" lon="9.895115">
        <ele>492.333941</ele>
        <time>2025-05-03T07:33:59.732Z</time>
      </trkpt>
      <trkpt lat="48.960472" lon="9.895117">
        <ele>492.333955</ele>
        <time>2025-05-03T07:33:59.766Z</time>
      </trkpt>
      <trkpt lat="48.960472" lon="9.895119">
        <ele>492.333969</ele>
        <time>2025-05-03T07:33:59.800Z</time>
      </trkpt>
      <trkpt lat="48.960472" lon="9.895115">
        <ele>492.333997</ele>
        <time>2025-05-03T07:33:59.867Z</time>
      </trkpt>
      <trkpt lat="48.960472" lon="9.895117">
        <ele>492.334011</ele>
        <time>2025-05-03T07:33:59.901Z</time>
      </trkpt>
      <trkpt lat="48.960472" lon="9.895119">
        <ele>492.334025</ele>
        <time>2025-05-03T07:33:59.935Z</time>
      </trkpt>
      <trkpt lat="48.960472" lon="9.895117">
        <ele>492.334039</ele>
        <time>2025-05-03T07:33:59.969Z</time>
      </trkpt>
      <trkpt lat="48.960472" lon="9.895113">
        <ele>492.334067</ele>
        <time>2025-05-03T07:34:00.037Z</time>
      </trkpt>
      <trkpt lat="48.960472" lon="9.895115">
        <ele>492.334082</ele>
        <time>2025-05-03T07:34:00.071Z</time>
      </trkpt>
      <trkpt lat="48.960472" lon="9.895113">
        <ele>492.334096</ele>
        <time>2025-05-03T07:34:00.105Z</time>
      </trkpt>
      <trkpt lat="48.960476" lon="9.895115">
        <ele>492.334141</ele>
        <time>2025-05-03T07:34:00.214Z</time>
      </trkpt>
      <trkpt lat="48.960476" lon="9.895117">
        <ele>492.334155</ele>
        <time>2025-05-03T07:34:00.248Z</time>
      </trkpt>
      <trkpt lat="48.960472" lon="9.895117">
        <ele>492.334198</ele>
        <time>2025-05-03T07:34:00.351Z</time>
      </trkpt>
      <trkpt lat="48.960476" lon="9.895117">
        <ele>492.334241</ele>
        <time>2025-05-03T07:34:00.455Z</time>
      </trkpt>
      <trkpt lat="48.960472" lon="9.895119">
        <ele>492.334286</ele>
        <time>2025-05-03T07:34:00.564Z</time>
      </trkpt>
      <trkpt lat="48.960472" lon="9.895117">
        <ele>492.334300</ele>
        <time>2025-05-03T07:34:00.598Z</time>
      </trkpt>
      <trkpt lat="48.960472" lon="9.895113">
        <ele>492.334328</ele>
        <time>2025-05-03T07:34:00.666Z</time>
      </trkpt>
      <trkpt lat="48.960468" lon="9.895112">
        <ele>492.334372</ele>
        <time>2025-05-03T07:34:00.771Z</time>
      </trkpt>
      <trkpt lat="48.960468" lon="9.895110">
        <ele>492.334386</ele>
        <time>2025-05-03T07:34:00.804Z</time>
      </trkpt>
      <trkpt lat="48.960472" lon="9.895110">
        <ele>492.334429</ele>
        <time>2025-05-03T07:34:00.908Z</time>
      </trkpt>
      <trkpt lat="48.960468" lon="9.895110">
        <ele>492.334472</ele>
        <time>2025-05-03T07:34:01.011Z</time>
      </trkpt>
      <trkpt lat="48.960461" lon="9.895108">
        <ele>492.334549</ele>
        <time>2025-05-03T07:34:01.196Z</time>
      </trkpt>
      <trkpt lat="48.960461" lon="9.895105">
        <ele>492.334570</ele>
        <time>2025-05-03T07:34:01.247Z</time>
      </trkpt>
      <trkpt lat="48.960461" lon="9.895101">
        <ele>492.334598</ele>
        <time>2025-05-03T07:34:01.314Z</time>
      </trkpt>
      <trkpt lat="48.960461" lon="9.895103">
        <ele>492.334612</ele>
        <time>2025-05-03T07:34:01.348Z</time>
      </trkpt>
      <trkpt lat="48.960464" lon="9.895101">
        <ele>492.334647</ele>
        <time>2025-05-03T07:34:01.433Z</time>
      </trkpt>
      <trkpt lat="48.960464" lon="9.895103">
        <ele>492.334661</ele>
        <time>2025-05-03T07:34:01.467Z</time>
      </trkpt>
      <trkpt lat="48.960468" lon="9.895103">
        <ele>492.334704</ele>
        <time>2025-05-03T07:34:01.571Z</time>
      </trkpt>
      <trkpt lat="48.960464" lon="9.895103">
        <ele>492.334747</ele>
        <time>2025-05-03T07:34:01.674Z</time>
      </trkpt>
      <trkpt lat="48.960461" lon="9.895105">
        <ele>492.334782</ele>
        <time>2025-05-03T07:34:01.759Z</time>
      </trkpt>
      <trkpt lat="48.960457" lon="9.895105">
        <ele>492.334825</ele>
        <time>2025-05-03T07:34:01.862Z</time>
      </trkpt>
      <trkpt lat="48.960457" lon="9.895106">
        <ele>492.334832</ele>
        <time>2025-05-03T07:34:01.879Z</time>
      </trkpt>
      <trkpt lat="48.960453" lon="9.895106">
        <ele>492.334875</ele>
        <time>2025-05-03T07:34:01.983Z</time>
      </trkpt>
      <trkpt lat="48.960449" lon="9.895108">
        <ele>492.334921</ele>
        <time>2025-05-03T07:34:02.091Z</time>
      </trkpt>
      <trkpt lat="48.960445" lon="9.895106">
        <ele>492.334966</ele>
        <time>2025-05-03T07:34:02.200Z</time>
      </trkpt>
      <trkpt lat="48.960445" lon="9.895108">
        <ele>492.334980</ele>
        <time>2025-05-03T07:34:02.234Z</time>
      </trkpt>
      <trkpt lat="48.960449" lon="9.895108">
        <ele>492.335023</ele>
        <time>2025-05-03T07:34:02.338Z</time>
      </trkpt>
      <trkpt lat="48.960449" lon="9.895110">
        <ele>492.335037</ele>
        <time>2025-05-03T07:34:02.372Z</time>
      </trkpt>
      <trkpt lat="48.960449" lon="9.895112">
        <ele>492.335051</ele>
        <time>2025-05-03T07:34:02.406Z</time>
      </trkpt>
      <trkpt lat="48.960449" lon="9.895113">
        <ele>492.335058</ele>
        <time>2025-05-03T07:34:02.423Z</time>
      </trkpt>
      <trkpt lat="48.960449" lon="9.895115">
        <ele>492.335072</ele>
        <time>2025-05-03T07:34:02.456Z</time>
      </trkpt>
      <trkpt lat="48.960449" lon="9.895117">
        <ele>492.335086</ele>
        <time>2025-05-03T07:34:02.490Z</time>
      </trkpt>
      <trkpt lat="48.960453" lon="9.895117">
        <ele>492.335129</ele>
        <time>2025-05-03T07:34:02.594Z</time>
      </trkpt>
      <trkpt lat="48.960453" lon="9.895119">
        <ele>492.335143</ele>
        <time>2025-05-03T07:34:02.628Z</time>
      </trkpt>
      <trkpt lat="48.960453" lon="9.895120">
        <ele>492.335150</ele>
        <time>2025-05-03T07:34:02.645Z</time>
      </trkpt>
      <trkpt lat="48.960453" lon="9.895119">
        <ele>492.335158</ele>
        <time>2025-05-03T07:34:02.662Z</time>
      </trkpt>
      <trkpt lat="48.960449" lon="9.895119">
        <ele>492.335201</ele>
        <time>2025-05-03T07:34:02.765Z</time>
      </trkpt>
      <trkpt lat="48.960449" lon="9.895117">
        <ele>492.335215</ele>
        <time>2025-05-03T07:34:02.799Z</time>
      </trkpt>
      <trkpt lat="48.960445" lon="9.895117">
        <ele>492.335258</ele>
        <time>2025-05-03T07:34:02.903Z</time>
      </trkpt>
      <trkpt lat="48.960449" lon="9.895117">
        <ele>492.335301</ele>
        <time>2025-05-03T07:34:03.006Z</time>
      </trkpt>
      <trkpt lat="48.960453" lon="9.895120">
        <ele>492.335348</ele>
        <time>2025-05-03T07:34:03.121Z</time>
      </trkpt>
      <trkpt lat="48.960457" lon="9.895119">
        <ele>492.335392</ele>
        <time>2025-05-03T07:34:03.226Z</time>
      </trkpt>
      <trkpt lat="48.960457" lon="9.895117">
        <ele>492.335406</ele>
        <time>2025-05-03T07:34:03.260Z</time>
      </trkpt>
      <trkpt lat="48.960461" lon="9.895117">
        <ele>492.335449</ele>
        <time>2025-05-03T07:34:03.364Z</time>
      </trkpt>
      <trkpt lat="48.960461" lon="9.895115">
        <ele>492.335463</ele>
        <time>2025-05-03T07:34:03.398Z</time>
      </trkpt>
      <trkpt lat="48.960461" lon="9.895113">
        <ele>492.335477</ele>
        <time>2025-05-03T07:34:03.431Z</time>
      </trkpt>
      <trkpt lat="48.960464" lon="9.895112">
        <ele>492.335510</ele>
        <time>2025-05-03T07:34:03.511Z</time>
      </trkpt>
      <trkpt lat="48.960464" lon="9.895110">
        <ele>492.335524</ele>
        <time>2025-05-03T07:34:03.545Z</time>
      </trkpt>
      <trkpt lat="48.960464" lon="9.895108">
        <ele>492.335538</ele>
        <time>2025-05-03T07:34:03.579Z</time>
      </trkpt>
      <trkpt lat="48.960464" lon="9.895106">
        <ele>492.335553</ele>
        <time>2025-05-03T07:34:03.613Z</time>
      </trkpt>
      <trkpt lat="48.960464" lon="9.895108">
        <ele>492.335567</ele>
        <time>2025-05-03T07:34:03.647Z</time>
      </trkpt>
      <trkpt lat="48.960468" lon="9.895106">
        <ele>492.335612</ele>
        <time>2025-05-03T07:34:03.756Z</time>
      </trkpt>
      <trkpt lat="48.960468" lon="9.895108">
        <ele>492.335626</ele>
        <time>2025-05-03T07:34:03.790Z</time>
      </trkpt>
      <trkpt lat="48.960468" lon="9.895110">
        <ele>492.335640</ele>
        <time>2025-05-03T07:34:03.824Z</time>
      </trkpt>
      <trkpt lat="48.960468" lon="9.895106">
        <ele>492.335668</ele>
        <time>2025-05-03T07:34:03.891Z</time>
      </trkpt>
      <trkpt lat="48.960464" lon="9.895105">
        <ele>492.335712</ele>
        <time>2025-05-03T07:34:03.996Z</time>
      </trkpt>
      <trkpt lat="48.960461" lon="9.895105">
        <ele>492.335744</ele>
        <time>2025-05-03T07:34:04.074Z</time>
      </trkpt>
      <trkpt lat="48.960457" lon="9.895106">
        <ele>492.335788</ele>
        <time>2025-05-03T07:34:04.179Z</time>
      </trkpt>
      <trkpt lat="48.960457" lon="9.895110">
        <ele>492.335816</ele>
        <time>2025-05-03T07:34:04.247Z</time>
      </trkpt>
      <trkpt lat="48.960453" lon="9.895110">
        <ele>492.335859</ele>
        <time>2025-05-03T07:34:04.350Z</time>
      </trkpt>
      <trkpt lat="48.960457" lon="9.895112">
        <ele>492.335904</ele>
        <time>2025-05-03T07:34:04.459Z</time>
      </trkpt>
      <trkpt lat="48.960453" lon="9.895112">
        <ele>492.335947</ele>
        <time>2025-05-03T07:34:04.562Z</time>
      </trkpt>
      <trkpt lat="48.960453" lon="9.895113">
        <ele>492.335954</ele>
        <time>2025-05-03T07:34:04.579Z</time>
      </trkpt>
      <trkpt lat="48.960449" lon="9.895112">
        <ele>492.335998</ele>
        <time>2025-05-03T07:34:04.684Z</time>
      </trkpt>
      <trkpt lat="48.960449" lon="9.895113">
        <ele>492.336005</ele>
        <time>2025-05-03T07:34:04.701Z</time>
      </trkpt>
      <trkpt lat="48.960449" lon="9.895115">
        <ele>492.336019</ele>
        <time>2025-05-03T07:34:04.735Z</time>
      </trkpt>
      <trkpt lat="48.960445" lon="9.895113">
        <ele>492.336064</ele>
        <time>2025-05-03T07:34:04.844Z</time>
      </trkpt>
      <trkpt lat="48.960445" lon="9.895115">
        <ele>492.336078</ele>
        <time>2025-05-03T07:34:04.878Z</time>
      </trkpt>
      <trkpt lat="48.960445" lon="9.895113">
        <ele>492.336092</ele>
        <time>2025-05-03T07:34:04.912Z</time>
      </trkpt>
      <trkpt lat="48.960445" lon="9.895112">
        <ele>492.336099</ele>
        <time>2025-05-03T07:34:04.929Z</time>
      </trkpt>
      <trkpt lat="48.960445" lon="9.895110">
        <ele>492.336113</ele>
        <time>2025-05-03T07:34:04.963Z</time>
      </trkpt>
      <trkpt lat="48.960442" lon="9.895108">
        <ele>492.336149</ele>
        <time>2025-05-03T07:34:05.048Z</time>
      </trkpt>
      <trkpt lat="48.960442" lon="9.895110">
        <ele>492.336163</ele>
        <time>2025-05-03T07:34:05.082Z</time>
      </trkpt>
      <trkpt lat="48.960442" lon="9.895112">
        <ele>492.336177</ele>
        <time>2025-05-03T07:34:05.116Z</time>
      </trkpt>
      <trkpt lat="48.960442" lon="9.895110">
        <ele>492.336191</ele>
        <time>2025-05-03T07:34:05.150Z</time>
      </trkpt>
      <trkpt lat="48.960442" lon="9.895108">
        <ele>492.336205</ele>
        <time>2025-05-03T07:34:05.184Z</time>
      </trkpt>
      <trkpt lat="48.960442" lon="9.895110">
        <ele>492.336219</ele>
        <time>2025-05-03T07:34:05.217Z</time>
      </trkpt>
      <trkpt lat="48.960442" lon="9.895108">
        <ele>492.336233</ele>
        <time>2025-05-03T07:34:05.251Z</time>
      </trkpt>
      <trkpt lat="48.960445" lon="9.895108">
        <ele>492.336265</ele>
        <time>2025-05-03T07:34:05.329Z</time>
      </trkpt>
      <trkpt lat="48.960442" lon="9.895108">
        <ele>492.336298</ele>
        <time>2025-05-03T07:34:05.407Z</time>
      </trkpt>
      <trkpt lat="48.960442" lon="9.895106">
        <ele>492.336312</ele>
        <time>2025-05-03T07:34:05.441Z</time>
      </trkpt>
      <trkpt lat="48.960445" lon="9.895106">
        <ele>492.336344</ele>
        <time>2025-05-03T07:34:05.518Z</time>
      </trkpt>
      <trkpt lat="48.960449" lon="9.895105">
        <ele>492.336387</ele>
        <time>2025-05-03T07:34:05.623Z</time>
      </trkpt>
      <trkpt lat="48.960453" lon="9.895105">
        <ele>492.336430</ele>
        <time>2025-05-03T07:34:05.726Z</time>
      </trkpt>
      <trkpt lat="48.960453" lon="9.895103">
        <ele>492.336445</ele>
        <time>2025-05-03T07:34:05.760Z</time>
      </trkpt>
      <trkpt lat="48.960457" lon="9.895103">
        <ele>492.336487</ele>
        <time>2025-05-03T07:34:05.864Z</time>
      </trkpt>
      <trkpt lat="48.960457" lon="9.895101">
        <ele>492.336502</ele>
        <time>2025-05-03T07:34:05.898Z</time>
      </trkpt>
      <trkpt lat="48.960457" lon="9.895103">
        <ele>492.336516</ele>
        <time>2025-05-03T07:34:05.932Z</time>
      </trkpt>
      <trkpt lat="48.960461" lon="9.895100">
        <ele>492.336564</ele>
        <time>2025-05-03T07:34:06.047Z</time>
      </trkpt>
      <trkpt lat="48.960461" lon="9.895099">
        <ele>492.336571</ele>
        <time>2025-05-03T07:34:06.064Z</time>
      </trkpt>
      <trkpt lat="48.960461" lon="9.895100">
        <ele>492.336578</ele>
        <time>2025-05-03T07:34:06.081Z</time>
      </trkpt>
      <trkpt lat="48.960464" lon="9.895100">
        <ele>492.336610</ele>
        <time>2025-05-03T07:34:06.159Z</time>
      </trkpt>
      <trkpt lat="48.960468" lon="9.895100">
        <ele>492.336653</ele>
        <time>2025-05-03T07:34:06.262Z</time>
      </trkpt>
      <trkpt lat="48.960468" lon="9.895099">
        <ele>492.336660</ele>
        <time>2025-05-03T07:34:06.279Z</time>
      </trkpt>
      <trkpt lat="48.960468" lon="9.895100">
        <ele>492.336667</ele>
        <time>2025-05-03T07:34:06.296Z</time>
      </trkpt>
      <trkpt lat="48.960468" lon="9.895099">
        <ele>492.336674</ele>
        <time>2025-05-03T07:34:06.313Z</time>
      </trkpt>
      <trkpt lat="48.960472" lon="9.895100">
        <ele>492.336718</ele>
        <time>2025-05-03T07:34:06.418Z</time>
      </trkpt>
      <trkpt lat="48.960476" lon="9.895100">
        <ele>492.336761</ele>
        <time>2025-05-03T07:34:06.521Z</time>
      </trkpt>
      <trkpt lat="48.960476" lon="9.895099">
        <ele>492.336768</ele>
        <time>2025-05-03T07:34:06.538Z</time>
      </trkpt>
      <trkpt lat="48.960476" lon="9.895100">
        <ele>492.336775</ele>
        <time>2025-05-03T07:34:06.555Z</time>
      </trkpt>
      <trkpt lat="48.960480" lon="9.895103">
        <ele>492.336823</ele>
        <time>2025-05-03T07:34:06.670Z</time>
      </trkpt>
      <trkpt lat="48.960484" lon="9.895106">
        <ele>492.336870</ele>
        <time>2025-05-03T07:34:06.786Z</time>
      </trkpt>
      <trkpt lat="48.960491" lon="9.895110">
        <ele>492.336951</ele>
        <time>2025-05-03T07:34:06.979Z</time>
      </trkpt>
      <trkpt lat="48.960495" lon="9.895112">
        <ele>492.336996</ele>
        <time>2025-05-03T07:34:07.088Z</time>
      </trkpt>
      <trkpt lat="48.960495" lon="9.895122">
        <ele>492.337066</ele>
        <time>2025-05-03T07:34:07.258Z</time>
      </trkpt>
      <trkpt lat="48.960499" lon="9.895130">
        <ele>492.337137</ele>
        <time>2025-05-03T07:34:07.428Z</time>
      </trkpt>
      <trkpt lat="48.960499" lon="9.895139">
        <ele>492.337201</ele>
        <time>2025-05-03T07:34:07.581Z</time>
      </trkpt>
      <trkpt lat="48.960503" lon="9.895148">
        <ele>492.337278</ele>
        <time>2025-05-03T07:34:07.766Z</time>
      </trkpt>
      <trkpt lat="48.960499" lon="9.895153">
        <ele>492.337333</ele>
        <time>2025-05-03T07:34:07.900Z</time>
      </trkpt>
      <trkpt lat="48.960495" lon="9.895153">
        <ele>492.337376</ele>
        <time>2025-05-03T07:34:08.003Z</time>
      </trkpt>
      <trkpt lat="48.960495" lon="9.895168">
        <ele>492.337482</ele>
        <time>2025-05-03T07:34:08.258Z</time>
      </trkpt>
      <trkpt lat="48.960495" lon="9.895178">
        <ele>492.337552</ele>
        <time>2025-05-03T07:34:08.428Z</time>
      </trkpt>
      <trkpt lat="48.960499" lon="9.895188">
        <ele>492.337635</ele>
        <time>2025-05-03T07:34:08.626Z</time>
      </trkpt>
      <trkpt lat="48.960495" lon="9.895206">
        <ele>492.337769</ele>
        <time>2025-05-03T07:34:08.949Z</time>
      </trkpt>
      <trkpt lat="48.960491" lon="9.895213">
        <ele>492.337834</ele>
        <time>2025-05-03T07:34:09.107Z</time>
      </trkpt>
      <trkpt lat="48.960487" lon="9.895230">
        <ele>492.337962</ele>
        <time>2025-05-03T07:34:09.413Z</time>
      </trkpt>
      <trkpt lat="48.960491" lon="9.895240">
        <ele>492.338044</ele>
        <time>2025-05-03T07:34:09.612Z</time>
      </trkpt>
      <trkpt lat="48.960487" lon="9.895258">
        <ele>492.338178</ele>
        <time>2025-05-03T07:34:09.935Z</time>
      </trkpt>
      <trkpt lat="48.960491" lon="9.895273">
        <ele>492.338293</ele>
        <time>2025-05-03T07:34:10.210Z</time>
      </trkpt>
      <trkpt lat="48.960487" lon="9.895288">
        <ele>492.338407</ele>
        <time>2025-05-03T07:34:10.485Z</time>
      </trkpt>
      <trkpt lat="48.960484" lon="9.895257">
        <ele>492.338628</ele>
        <time>2025-05-03T07:34:11.017Z</time>
      </trkpt>
      <trkpt lat="48.960484" lon="9.895267">
        <ele>492.338698</ele>
        <time>2025-05-03T07:34:11.186Z</time>
      </trkpt>
      <trkpt lat="48.960484" lon="9.895275">
        <ele>492.338755</ele>
        <time>2025-05-03T07:34:11.322Z</time>
      </trkpt>
      <trkpt lat="48.960487" lon="9.895285">
        <ele>492.338832</ele>
        <time>2025-05-03T07:34:11.509Z</time>
      </trkpt>
      <trkpt lat="48.960487" lon="9.895295">
        <ele>492.338903</ele>
        <time>2025-05-03T07:34:11.679Z</time>
      </trkpt>
      <trkpt lat="48.960487" lon="9.895300">
        <ele>492.338938</ele>
        <time>2025-05-03T07:34:11.764Z</time>
      </trkpt>
      <trkpt lat="48.960491" lon="9.895308">
        <ele>492.339009</ele>
        <time>2025-05-03T07:34:11.934Z</time>
      </trkpt>
      <trkpt lat="48.960495" lon="9.895318">
        <ele>492.339092</ele>
        <time>2025-05-03T07:34:12.133Z</time>
      </trkpt>
      <trkpt lat="48.960499" lon="9.895331">
        <ele>492.339193</ele>
        <time>2025-05-03T07:34:12.377Z</time>
      </trkpt>
      <trkpt lat="48.960495" lon="9.895353">
        <ele>492.339354</ele>
        <time>2025-05-03T07:34:12.765Z</time>
      </trkpt>
      <trkpt lat="48.960491" lon="9.895355">
        <ele>492.339399</ele>
        <time>2025-05-03T07:34:12.873Z</time>
      </trkpt>
      <trkpt lat="48.960484" lon="9.895357">
        <ele>492.339476</ele>
        <time>2025-05-03T07:34:13.058Z</time>
      </trkpt>
      <trkpt lat="48.960484" lon="9.895358">
        <ele>492.339483</ele>
        <time>2025-05-03T07:34:13.075Z</time>
      </trkpt>
      <trkpt lat="48.960484" lon="9.895365">
        <ele>492.339532</ele>
        <time>2025-05-03T07:34:13.193Z</time>
      </trkpt>
      <trkpt lat="48.960480" lon="9.895367">
        <ele>492.339577</ele>
        <time>2025-05-03T07:34:13.302Z</time>
      </trkpt>
      <trkpt lat="48.960480" lon="9.895371">
        <ele>492.339605</ele>
        <time>2025-05-03T07:34:13.370Z</time>
      </trkpt>
      <trkpt lat="48.960472" lon="9.895378">
        <ele>492.339704</ele>
        <time>2025-05-03T07:34:13.609Z</time>
      </trkpt>
      <trkpt lat="48.960468" lon="9.895380">
        <ele>492.339750</ele>
        <time>2025-05-03T07:34:13.718Z</time>
      </trkpt>
      <trkpt lat="48.960457" lon="9.895382">
        <ele>492.339869</ele>
        <time>2025-05-03T07:34:14.004Z</time>
      </trkpt>
      <trkpt lat="48.960449" lon="9.895384">
        <ele>492.339956</ele>
        <time>2025-05-03T07:34:14.214Z</time>
      </trkpt>
      <trkpt lat="48.960442" lon="9.895385">
        <ele>492.340031</ele>
        <time>2025-05-03T07:34:14.396Z</time>
      </trkpt>
      <trkpt lat="48.960430" lon="9.895389">
        <ele>492.340163</ele>
        <time>2025-05-03T07:34:14.713Z</time>
      </trkpt>
      <trkpt lat="48.960426" lon="9.895389">
        <ele>492.340206</ele>
        <time>2025-05-03T07:34:14.817Z</time>
      </trkpt>
      <trkpt lat="48.960423" lon="9.895385">
        <ele>492.340249</ele>
        <time>2025-05-03T07:34:14.920Z</time>
      </trkpt>
      <trkpt lat="48.960415" lon="9.895385">
        <ele>492.340335</ele>
        <time>2025-05-03T07:34:15.127Z</time>
      </trkpt>
      <trkpt lat="48.960411" lon="9.895385">
        <ele>492.340378</ele>
        <time>2025-05-03T07:34:15.230Z</time>
      </trkpt>
      <trkpt lat="48.960400" lon="9.895385">
        <ele>492.340496</ele>
        <time>2025-05-03T07:34:15.515Z</time>
      </trkpt>
      <trkpt lat="48.960396" lon="9.895384">
        <ele>492.340540</ele>
        <time>2025-05-03T07:34:15.619Z</time>
      </trkpt>
      <trkpt lat="48.960388" lon="9.895382">
        <ele>492.340627</ele>
        <time>2025-05-03T07:34:15.829Z</time>
      </trkpt>
      <trkpt lat="48.960381" lon="9.895380">
        <ele>492.340703</ele>
        <time>2025-05-03T07:34:16.013Z</time>
      </trkpt>
      <trkpt lat="48.960373" lon="9.895384">
        <ele>492.340794</ele>
        <time>2025-05-03T07:34:16.231Z</time>
      </trkpt>
      <trkpt lat="48.960365" lon="9.895384">
        <ele>492.340880</ele>
        <time>2025-05-03T07:34:16.438Z</time>
      </trkpt>
      <trkpt lat="48.960358" lon="9.895380">
        <ele>492.340960</ele>
        <time>2025-05-03T07:34:16.631Z</time>
      </trkpt>
      <trkpt lat="48.960354" lon="9.895385">
        <ele>492.341015</ele>
        <time>2025-05-03T07:34:16.765Z</time>
      </trkpt>
      <trkpt lat="48.960354" lon="9.895382">
        <ele>492.341037</ele>
        <time>2025-05-03T07:34:16.816Z</time>
      </trkpt>
      <trkpt lat="48.960354" lon="9.895380">
        <ele>492.341051</ele>
        <time>2025-05-03T07:34:16.850Z</time>
      </trkpt>
      <trkpt lat="48.960354" lon="9.895382">
        <ele>492.341065</ele>
        <time>2025-05-03T07:34:16.884Z</time>
      </trkpt>
      <trkpt lat="48.960358" lon="9.895387">
        <ele>492.341120</ele>
        <time>2025-05-03T07:34:17.018Z</time>
      </trkpt>
      <trkpt lat="48.960358" lon="9.895391">
        <ele>492.341149</ele>
        <time>2025-05-03T07:34:17.086Z</time>
      </trkpt>
      <trkpt lat="48.960354" lon="9.895395">
        <ele>492.341200</ele>
        <time>2025-05-03T07:34:17.210Z</time>
      </trkpt>
      <trkpt lat="48.960358" lon="9.895395">
        <ele>492.341243</ele>
        <time>2025-05-03T07:34:17.313Z</time>
      </trkpt>
      <trkpt lat="48.960365" lon="9.895400">
        <ele>492.341326</ele>
        <time>2025-05-03T07:34:17.513Z</time>
      </trkpt>
      <trkpt lat="48.960365" lon="9.895398">
        <ele>492.341340</ele>
        <time>2025-05-03T07:34:17.547Z</time>
      </trkpt>
      <trkpt lat="48.960373" lon="9.895398">
        <ele>492.341426</ele>
        <time>2025-05-03T07:34:17.754Z</time>
      </trkpt>
      <trkpt lat="48.960373" lon="9.895391">
        <ele>492.341475</ele>
        <time>2025-05-03T07:34:17.873Z</time>
      </trkpt>
      <trkpt lat="48.960365" lon="9.895380">
        <ele>492.341591</ele>
        <time>2025-05-03T07:34:18.152Z</time>
      </trkpt>
      <trkpt lat="48.960365" lon="9.895371">
        <ele>492.341655</ele>
        <time>2025-05-03T07:34:18.304Z</time>
      </trkpt>
      <trkpt lat="48.960361" lon="9.895365">
        <ele>492.341715</ele>
        <time>2025-05-03T07:34:18.450Z</time>
      </trkpt>
      <trkpt lat="48.960361" lon="9.895358">
        <ele>492.341764</ele>
        <time>2025-05-03T07:34:18.568Z</time>
      </trkpt>
      <trkpt lat="48.960365" lon="9.895360">
        <ele>492.341810</ele>
        <time>2025-05-03T07:34:18.677Z</time>
      </trkpt>
      <trkpt lat="48.960361" lon="9.895355">
        <ele>492.341865</ele>
        <time>2025-05-03T07:34:18.811Z</time>
      </trkpt>
      <trkpt lat="48.960365" lon="9.895353">
        <ele>492.341910</ele>
        <time>2025-05-03T07:34:18.920Z</time>
      </trkpt>
      <trkpt lat="48.960365" lon="9.895340">
        <ele>492.342002</ele>
        <time>2025-05-03T07:34:19.141Z</time>
      </trkpt>
      <trkpt lat="48.960361" lon="9.895331">
        <ele>492.342079</ele>
        <time>2025-05-03T07:34:19.325Z</time>
      </trkpt>
      <trkpt lat="48.960361" lon="9.895325">
        <ele>492.342121</ele>
        <time>2025-05-03T07:34:19.427Z</time>
      </trkpt>
      <trkpt lat="48.960361" lon="9.895313">
        <ele>492.342206</ele>
        <time>2025-05-03T07:34:19.631Z</time>
      </trkpt>
      <trkpt lat="48.960354" lon="9.895293">
        <ele>492.342366</ele>
        <time>2025-05-03T07:34:20.016Z</time>
      </trkpt>
      <trkpt lat="48.960350" lon="9.895285">
        <ele>492.342436</ele>
        <time>2025-05-03T07:34:20.186Z</time>
      </trkpt>
      <trkpt lat="48.960346" lon="9.895278">
        <ele>492.342502</ele>
        <time>2025-05-03T07:34:20.344Z</time>
      </trkpt>
      <trkpt lat="48.960342" lon="9.895271">
        <ele>492.342567</ele>
        <time>2025-05-03T07:34:20.502Z</time>
      </trkpt>
      <trkpt lat="48.960339" lon="9.895268">
        <ele>492.342606</ele>
        <time>2025-05-03T07:34:20.594Z</time>
      </trkpt>
      <trkpt lat="48.960342" lon="9.895268">
        <ele>492.342638</ele>
        <time>2025-05-03T07:34:20.672Z</time>
      </trkpt>
      <trkpt lat="48.960346" lon="9.895265">
        <ele>492.342686</ele>
        <time>2025-05-03T07:34:20.788Z</time>
      </trkpt>
      <trkpt lat="48.960350" lon="9.895264">
        <ele>492.342730</ele>
        <time>2025-05-03T07:34:20.892Z</time>
      </trkpt>
      <trkpt lat="48.960350" lon="9.895265">
        <ele>492.342737</ele>
        <time>2025-05-03T07:34:20.909Z</time>
      </trkpt>
      <trkpt lat="48.960346" lon="9.895267">
        <ele>492.342782</ele>
        <time>2025-05-03T07:34:21.018Z</time>
      </trkpt>
      <trkpt lat="48.960346" lon="9.895270">
        <ele>492.342803</ele>
        <time>2025-05-03T07:34:21.069Z</time>
      </trkpt>
      <trkpt lat="48.960350" lon="9.895275">
        <ele>492.342859</ele>
        <time>2025-05-03T07:34:21.203Z</time>
      </trkpt>
      <trkpt lat="48.960350" lon="9.895277">
        <ele>492.342873</ele>
        <time>2025-05-03T07:34:21.237Z</time>
      </trkpt>
      <trkpt lat="48.960354" lon="9.895277">
        <ele>492.342916</ele>
        <time>2025-05-03T07:34:21.340Z</time>
      </trkpt>
      <trkpt lat="48.960350" lon="9.895282">
        <ele>492.342971</ele>
        <time>2025-05-03T07:34:21.474Z</time>
      </trkpt>
      <trkpt lat="48.960354" lon="9.895280">
        <ele>492.343016</ele>
        <time>2025-05-03T07:34:21.583Z</time>
      </trkpt>
      <trkpt lat="48.960350" lon="9.895278">
        <ele>492.343062</ele>
        <time>2025-05-03T07:34:21.692Z</time>
      </trkpt>
      <trkpt lat="48.960350" lon="9.895282">
        <ele>492.343090</ele>
        <time>2025-05-03T07:34:21.760Z</time>
      </trkpt>
      <trkpt lat="48.960350" lon="9.895284">
        <ele>492.343104</ele>
        <time>2025-05-03T07:34:21.794Z</time>
      </trkpt>
      <trkpt lat="48.960350" lon="9.895287">
        <ele>492.343125</ele>
        <time>2025-05-03T07:34:21.845Z</time>
      </trkpt>
      <trkpt lat="48.960350" lon="9.895290">
        <ele>492.343146</ele>
        <time>2025-05-03T07:34:21.896Z</time>
      </trkpt>
      <trkpt lat="48.960350" lon="9.895293">
        <ele>492.343167</ele>
        <time>2025-05-03T07:34:21.947Z</time>
      </trkpt>
      <trkpt lat="48.960342" lon="9.895291">
        <ele>492.343255</ele>
        <time>2025-05-03T07:34:22.156Z</time>
      </trkpt>
      <trkpt lat="48.960346" lon="9.895288">
        <ele>492.343302</ele>
        <time>2025-05-03T07:34:22.272Z</time>
      </trkpt>
      <trkpt lat="48.960350" lon="9.895288">
        <ele>492.343345</ele>
        <time>2025-05-03T07:34:22.375Z</time>
      </trkpt>
      <trkpt lat="48.960350" lon="9.895278">
        <ele>492.343416</ele>
        <time>2025-05-03T07:34:22.545Z</time>
      </trkpt>
      <trkpt lat="48.960350" lon="9.895270">
        <ele>492.343472</ele>
        <time>2025-05-03T07:34:22.681Z</time>
      </trkpt>
      <trkpt lat="48.960350" lon="9.895264">
        <ele>492.343515</ele>
        <time>2025-05-03T07:34:22.783Z</time>
      </trkpt>
      <trkpt lat="48.960354" lon="9.895260">
        <ele>492.343566</ele>
        <time>2025-05-03T07:34:22.906Z</time>
      </trkpt>
      <trkpt lat="48.960361" lon="9.895258">
        <ele>492.343643</ele>
        <time>2025-05-03T07:34:23.090Z</time>
      </trkpt>
      <trkpt lat="48.960369" lon="9.895265">
        <ele>492.343742</ele>
        <time>2025-05-03T07:34:23.329Z</time>
      </trkpt>
      <trkpt lat="48.960373" lon="9.895267">
        <ele>492.343787</ele>
        <time>2025-05-03T07:34:23.438Z</time>
      </trkpt>
      <trkpt lat="48.960377" lon="9.895270">
        <ele>492.343835</ele>
        <time>2025-05-03T07:34:23.553Z</time>
      </trkpt>
      <trkpt lat="48.960381" lon="9.895264">
        <ele>492.343895</ele>
        <time>2025-05-03T07:34:23.698Z</time>
      </trkpt>
      <trkpt lat="48.960384" lon="9.895258">
        <ele>492.343948</ele>
        <time>2025-05-03T07:34:23.826Z</time>
      </trkpt>
      <trkpt lat="48.960388" lon="9.895251">
        <ele>492.344014</ele>
        <time>2025-05-03T07:34:23.984Z</time>
      </trkpt>
      <trkpt lat="48.960392" lon="9.895245">
        <ele>492.344074</ele>
        <time>2025-05-03T07:34:24.129Z</time>
      </trkpt>
      <trkpt lat="48.960392" lon="9.895240">
        <ele>492.344109</ele>
        <time>2025-05-03T07:34:24.214Z</time>
      </trkpt>
      <trkpt lat="48.960388" lon="9.895230">
        <ele>492.344192</ele>
        <time>2025-05-03T07:34:24.413Z</time>
      </trkpt>
      <trkpt lat="48.960388" lon="9.895225">
        <ele>492.344227</ele>
        <time>2025-05-03T07:34:24.498Z</time>
      </trkpt>
      <trkpt lat="48.960384" lon="9.895220">
        <ele>492.344283</ele>
        <time>2025-05-03T07:34:24.632Z</time>
      </trkpt>
      <trkpt lat="48.960381" lon="9.895210">
        <ele>492.344360</ele>
        <time>2025-05-03T07:34:24.819Z</time>
      </trkpt>
      <trkpt lat="48.960377" lon="9.895200">
        <ele>492.336892</ele>
        <time>2025-05-03T07:34:25.018Z</time>
      </trkpt>
      <trkpt lat="48.960377" lon="9.895191">
        <ele>492.330839</ele>
        <time>2025-05-03T07:34:25.170Z</time>
      </trkpt>
      <trkpt lat="48.960377" lon="9.895185">
        <ele>492.326803</ele>
        <time>2025-05-03T07:34:25.272Z</time>
      </trkpt>
      <trkpt lat="48.960377" lon="9.895173">
        <ele>492.318732</ele>
        <time>2025-05-03T07:34:25.476Z</time>
      </trkpt>
      <trkpt lat="48.960377" lon="9.895165">
        <ele>492.313351</ele>
        <time>2025-05-03T07:34:25.612Z</time>
      </trkpt>
      <trkpt lat="48.960377" lon="9.895159">
        <ele>492.309315</ele>
        <time>2025-05-03T07:34:25.714Z</time>
      </trkpt>
      <trkpt lat="48.960381" lon="9.895153">
        <ele>492.303564</ele>
        <time>2025-05-03T07:34:25.859Z</time>
      </trkpt>
      <trkpt lat="48.960388" lon="9.895148">
        <ele>492.295644</ele>
        <time>2025-05-03T07:34:26.059Z</time>
      </trkpt>
      <trkpt lat="48.960392" lon="9.895139">
        <ele>492.288334</ele>
        <time>2025-05-03T07:34:26.243Z</time>
      </trkpt>
      <trkpt lat="48.960396" lon="9.895135">
        <ele>492.283432</ele>
        <time>2025-05-03T07:34:26.367Z</time>
      </trkpt>
      <trkpt lat="48.960396" lon="9.895133">
        <ele>492.282087</ele>
        <time>2025-05-03T07:34:26.401Z</time>
      </trkpt>
      <trkpt lat="48.960400" lon="9.895132">
        <ele>492.277934</ele>
        <time>2025-05-03T07:34:26.506Z</time>
      </trkpt>
      <trkpt lat="48.960403" lon="9.895133">
        <ele>492.274788</ele>
        <time>2025-05-03T07:34:26.585Z</time>
      </trkpt>
      <trkpt lat="48.960403" lon="9.895132">
        <ele>492.274116</ele>
        <time>2025-05-03T07:34:26.602Z</time>
      </trkpt>
      <trkpt lat="48.960403" lon="9.895130">
        <ele>492.272771</ele>
        <time>2025-05-03T07:34:26.636Z</time>
      </trkpt>
      <trkpt lat="48.960407" lon="9.895132">
        <ele>492.268458</ele>
        <time>2025-05-03T07:34:26.745Z</time>
      </trkpt>
      <trkpt lat="48.960407" lon="9.895130">
        <ele>492.267113</ele>
        <time>2025-05-03T07:34:26.779Z</time>
      </trkpt>
      <trkpt lat="48.960411" lon="9.895132">
        <ele>492.262800</ele>
        <time>2025-05-03T07:34:26.888Z</time>
      </trkpt>
      <trkpt lat="48.960415" lon="9.895132">
        <ele>492.258702</ele>
        <time>2025-05-03T07:34:26.991Z</time>
      </trkpt>
      <trkpt lat="48.960415" lon="9.895130">
        <ele>492.257357</ele>
        <time>2025-05-03T07:34:27.025Z</time>
      </trkpt>
      <trkpt lat="48.960419" lon="9.895128">
        <ele>492.253044</ele>
        <time>2025-05-03T07:34:27.134Z</time>
      </trkpt>
      <trkpt lat="48.960415" lon="9.895128">
        <ele>492.248947</ele>
        <time>2025-05-03T07:34:27.238Z</time>
      </trkpt>
      <trkpt lat="48.960415" lon="9.895126">
        <ele>492.247601</ele>
        <time>2025-05-03T07:34:27.272Z</time>
      </trkpt>
      <trkpt lat="48.960419" lon="9.895126">
        <ele>492.243504</ele>
        <time>2025-05-03T07:34:27.375Z</time>
      </trkpt>
      <trkpt lat="48.960419" lon="9.895125">
        <ele>492.242831</ele>
        <time>2025-05-03T07:34:27.392Z</time>
      </trkpt>
      <trkpt lat="48.960423" lon="9.895125">
        <ele>492.238733</ele>
        <time>2025-05-03T07:34:27.496Z</time>
      </trkpt>
      <trkpt lat="48.960426" lon="9.895125">
        <ele>492.235660</ele>
        <time>2025-05-03T07:34:27.573Z</time>
      </trkpt>
      <trkpt lat="48.960430" lon="9.895123">
        <ele>492.231347</ele>
        <time>2025-05-03T07:34:27.682Z</time>
      </trkpt>
      <trkpt lat="48.960434" lon="9.895125">
        <ele>492.227035</ele>
        <time>2025-05-03T07:34:27.791Z</time>
      </trkpt>
      <trkpt lat="48.960438" lon="9.895123">
        <ele>492.222722</ele>
        <time>2025-05-03T07:34:27.900Z</time>
      </trkpt>
      <trkpt lat="48.960442" lon="9.895125">
        <ele>492.218409</ele>
        <time>2025-05-03T07:34:28.009Z</time>
      </trkpt>
      <trkpt lat="48.960445" lon="9.895125">
        <ele>492.215336</ele>
        <time>2025-05-03T07:34:28.086Z</time>
      </trkpt>
      <trkpt lat="48.960445" lon="9.895123">
        <ele>492.213991</ele>
        <time>2025-05-03T07:34:28.120Z</time>
      </trkpt>
      <trkpt lat="48.960445" lon="9.895125">
        <ele>492.212645</ele>
        <time>2025-05-03T07:34:28.154Z</time>
      </trkpt>
      <trkpt lat="48.960449" lon="9.895125">
        <ele>492.208548</ele>
        <time>2025-05-03T07:34:28.258Z</time>
      </trkpt>
      <trkpt lat="48.960449" lon="9.895126">
        <ele>492.207875</ele>
        <time>2025-05-03T07:34:28.275Z</time>
      </trkpt>
      <trkpt lat="48.960449" lon="9.895128">
        <ele>492.206530</ele>
        <time>2025-05-03T07:34:28.309Z</time>
      </trkpt>
      <trkpt lat="48.960445" lon="9.895130">
        <ele>492.202217</ele>
        <time>2025-05-03T07:34:28.418Z</time>
      </trkpt>
      <trkpt lat="48.960449" lon="9.895130">
        <ele>492.198120</ele>
        <time>2025-05-03T07:34:28.521Z</time>
      </trkpt>
      <trkpt lat="48.960449" lon="9.895132">
        <ele>492.196774</ele>
        <time>2025-05-03T07:34:28.555Z</time>
      </trkpt>
      <trkpt lat="48.960445" lon="9.895132">
        <ele>492.192677</ele>
        <time>2025-05-03T07:34:28.659Z</time>
      </trkpt>
      <trkpt lat="48.960449" lon="9.895133">
        <ele>492.188524</ele>
        <time>2025-05-03T07:34:28.764Z</time>
      </trkpt>
      <trkpt lat="48.960449" lon="9.895135">
        <ele>492.187179</ele>
        <time>2025-05-03T07:34:28.798Z</time>
      </trkpt>
      <trkpt lat="48.960449" lon="9.895137">
        <ele>492.185834</ele>
        <time>2025-05-03T07:34:28.832Z</time>
      </trkpt>
      <trkpt lat="48.960449" lon="9.895135">
        <ele>492.184489</ele>
        <time>2025-05-03T07:34:28.866Z</time>
      </trkpt>
      <trkpt lat="48.960449" lon="9.895133">
        <ele>492.183143</ele>
        <time>2025-05-03T07:34:28.900Z</time>
      </trkpt>
      <trkpt lat="48.960453" lon="9.895133">
        <ele>492.179046</ele>
        <time>2025-05-03T07:34:29.003Z</time>
      </trkpt>
      <trkpt lat="48.960457" lon="9.895133">
        <ele>492.174948</ele>
        <time>2025-05-03T07:34:29.106Z</time>
      </trkpt>
      <trkpt lat="48.960457" lon="9.895132">
        <ele>492.174276</ele>
        <time>2025-05-03T07:34:29.123Z</time>
      </trkpt>
      <trkpt lat="48.960457" lon="9.895130">
        <ele>492.172930</ele>
        <time>2025-05-03T07:34:29.157Z</time>
      </trkpt>
      <trkpt lat="48.960457" lon="9.895128">
        <ele>492.171585</ele>
        <time>2025-05-03T07:34:29.191Z</time>
      </trkpt>
      <trkpt lat="48.960457" lon="9.895126">
        <ele>492.170240</ele>
        <time>2025-05-03T07:34:29.225Z</time>
      </trkpt>
      <trkpt lat="48.960457" lon="9.895125">
        <ele>492.169567</ele>
        <time>2025-05-03T07:34:29.242Z</time>
      </trkpt>
      <trkpt lat="48.960457" lon="9.895123">
        <ele>492.168222</ele>
        <time>2025-05-03T07:34:29.276Z</time>
      </trkpt>
      <trkpt lat="48.960461" lon="9.895123">
        <ele>492.164124</ele>
        <time>2025-05-03T07:34:29.380Z</time>
      </trkpt>
      <trkpt lat="48.960461" lon="9.895122">
        <ele>492.163452</ele>
        <time>2025-05-03T07:34:29.397Z</time>
      </trkpt>
      <trkpt lat="48.960461" lon="9.895120">
        <ele>492.162107</ele>
        <time>2025-05-03T07:34:29.431Z</time>
      </trkpt>
      <trkpt lat="48.960461" lon="9.895119">
        <ele>492.161434</ele>
        <time>2025-05-03T07:34:29.448Z</time>
      </trkpt>
      <trkpt lat="48.960464" lon="9.895119">
        <ele>492.158361</ele>
        <time>2025-05-03T07:34:29.525Z</time>
      </trkpt>
      <trkpt lat="48.960464" lon="9.895120">
        <ele>492.157688</ele>
        <time>2025-05-03T07:34:29.542Z</time>
      </trkpt>
      <trkpt lat="48.960468" lon="9.895120">
        <ele>492.153591</ele>
        <time>2025-05-03T07:34:29.646Z</time>
      </trkpt>
      <trkpt lat="48.960468" lon="9.895119">
        <ele>492.152918</ele>
        <time>2025-05-03T07:34:29.663Z</time>
      </trkpt>
      <trkpt lat="48.960468" lon="9.895120">
        <ele>492.152245</ele>
        <time>2025-05-03T07:34:29.679Z</time>
      </trkpt>
      <trkpt lat="48.960468" lon="9.895119">
        <ele>492.151573</ele>
        <time>2025-05-03T07:34:29.696Z</time>
      </trkpt>
      <trkpt lat="48.960468" lon="9.895117">
        <ele>492.150228</ele>
        <time>2025-05-03T07:34:29.730Z</time>
      </trkpt>
      <trkpt lat="48.960468" lon="9.895115">
        <ele>492.148882</ele>
        <time>2025-05-03T07:34:29.764Z</time>
      </trkpt>
      <trkpt lat="48.960468" lon="9.895117">
        <ele>492.147537</ele>
        <time>2025-05-03T07:34:29.798Z</time>
      </trkpt>
      <trkpt lat="48.960464" lon="9.895117">
        <ele>492.143440</ele>
        <time>2025-05-03T07:34:29.902Z</time>
      </trkpt>
      <trkpt lat="48.960464" lon="9.895119">
        <ele>492.142094</ele>
        <time>2025-05-03T07:34:29.936Z</time>
      </trkpt>
      <trkpt lat="48.960464" lon="9.895117">
        <ele>492.140749</ele>
        <time>2025-05-03T07:34:29.970Z</time>
      </trkpt>
      <trkpt lat="48.960468" lon="9.895117">
        <ele>492.136651</ele>
        <time>2025-05-03T07:34:30.073Z</time>
      </trkpt>
      <trkpt lat="48.960468" lon="9.895115">
        <ele>492.135306</ele>
        <time>2025-05-03T07:34:30.107Z</time>
      </trkpt>
      <trkpt lat="48.960464" lon="9.895115">
        <ele>492.131209</ele>
        <time>2025-05-03T07:34:30.211Z</time>
      </trkpt>
      <trkpt lat="48.960464" lon="9.895117">
        <ele>492.129863</ele>
        <time>2025-05-03T07:34:30.244Z</time>
      </trkpt>
      <trkpt lat="48.960464" lon="9.895119">
        <ele>492.128518</ele>
        <time>2025-05-03T07:34:30.278Z</time>
      </trkpt>
      <trkpt lat="48.960468" lon="9.895119">
        <ele>492.124421</ele>
        <time>2025-05-03T07:34:30.382Z</time>
      </trkpt>
      <trkpt lat="48.960464" lon="9.895119">
        <ele>492.120323</ele>
        <time>2025-05-03T07:34:30.485Z</time>
      </trkpt>
      <trkpt lat="48.960461" lon="9.895120">
        <ele>492.117177</ele>
        <time>2025-05-03T07:34:30.565Z</time>
      </trkpt>
      <trkpt lat="48.960464" lon="9.895119">
        <ele>492.114031</ele>
        <time>2025-05-03T07:34:30.644Z</time>
      </trkpt>
      <trkpt lat="48.960464" lon="9.895120">
        <ele>492.113358</ele>
        <time>2025-05-03T07:34:30.661Z</time>
      </trkpt>
      <trkpt lat="48.960461" lon="9.895120">
        <ele>492.110285</ele>
        <time>2025-05-03T07:34:30.739Z</time>
      </trkpt>
      <trkpt lat="48.960461" lon="9.895122">
        <ele>492.108940</ele>
        <time>2025-05-03T07:34:30.773Z</time>
      </trkpt>
      <trkpt lat="48.960461" lon="9.895120">
        <ele>492.107595</ele>
        <time>2025-05-03T07:34:30.807Z</time>
      </trkpt>
      <trkpt lat="48.960461" lon="9.895122">
        <ele>492.106250</ele>
        <time>2025-05-03T07:34:30.841Z</time>
      </trkpt>
      <trkpt lat="48.960461" lon="9.895120">
        <ele>492.104904</ele>
        <time>2025-05-03T07:34:30.875Z</time>
      </trkpt>
      <trkpt lat="48.960461" lon="9.895122">
        <ele>492.103559</ele>
        <time>2025-05-03T07:34:30.909Z</time>
      </trkpt>
      <trkpt lat="48.960461" lon="9.895123">
        <ele>492.102887</ele>
        <time>2025-05-03T07:34:30.925Z</time>
      </trkpt>
      <trkpt lat="48.960461" lon="9.895125">
        <ele>492.101541</ele>
        <time>2025-05-03T07:34:30.959Z</time>
      </trkpt>
      <trkpt lat="48.960461" lon="9.895123">
        <ele>492.100196</ele>
        <time>2025-05-03T07:34:30.993Z</time>
      </trkpt>
      <trkpt lat="48.960461" lon="9.895122">
        <ele>492.099524</ele>
        <time>2025-05-03T07:34:31.010Z</time>
      </trkpt>
      <trkpt lat="48.960464" lon="9.895122">
        <ele>492.096450</ele>
        <time>2025-05-03T07:34:31.088Z</time>
      </trkpt>
      <trkpt lat="48.960464" lon="9.895120">
        <ele>492.095105</ele>
        <time>2025-05-03T07:34:31.122Z</time>
      </trkpt>
      <trkpt lat="48.960464" lon="9.895122">
        <ele>492.093760</ele>
        <time>2025-05-03T07:34:31.156Z</time>
      </trkpt>
      <trkpt lat="48.960464" lon="9.895120">
        <ele>492.092415</ele>
        <time>2025-05-03T07:34:31.190Z</time>
      </trkpt>
      <trkpt lat="48.960468" lon="9.895120">
        <ele>492.088317</ele>
        <time>2025-05-03T07:34:31.293Z</time>
      </trkpt>
      <trkpt lat="48.960468" lon="9.895119">
        <ele>492.087644</ele>
        <time>2025-05-03T07:34:31.310Z</time>
      </trkpt>
      <trkpt lat="48.960468" lon="9.895120">
        <ele>492.086972</ele>
        <time>2025-05-03T07:34:31.327Z</time>
      </trkpt>
      <trkpt lat="48.960468" lon="9.895119">
        <ele>492.086299</ele>
        <time>2025-05-03T07:34:31.344Z</time>
      </trkpt>
      <trkpt lat="48.960468" lon="9.895117">
        <ele>492.084954</ele>
        <time>2025-05-03T07:34:31.378Z</time>
      </trkpt>
      <trkpt lat="48.960468" lon="9.895120">
        <ele>492.082936</ele>
        <time>2025-05-03T07:34:31.429Z</time>
      </trkpt>
      <trkpt lat="48.960468" lon="9.895119">
        <ele>492.082264</ele>
        <time>2025-05-03T07:34:31.446Z</time>
      </trkpt>
      <trkpt lat="48.960468" lon="9.895117">
        <ele>492.080918</ele>
        <time>2025-05-03T07:34:31.480Z</time>
      </trkpt>
      <trkpt lat="48.960468" lon="9.895115">
        <ele>492.079573</ele>
        <time>2025-05-03T07:34:31.514Z</time>
      </trkpt>
      <trkpt lat="48.960468" lon="9.895117">
        <ele>492.078228</ele>
        <time>2025-05-03T07:34:31.548Z</time>
      </trkpt>
      <trkpt lat="48.960468" lon="9.895119">
        <ele>492.076883</ele>
        <time>2025-05-03T07:34:31.582Z</time>
      </trkpt>
      <trkpt lat="48.960472" lon="9.895115">
        <ele>492.071981</ele>
        <time>2025-05-03T07:34:31.706Z</time>
      </trkpt>
      <trkpt lat="48.960472" lon="9.895117">
        <ele>492.070636</ele>
        <time>2025-05-03T07:34:31.740Z</time>
      </trkpt>
      <trkpt lat="48.960472" lon="9.895119">
        <ele>492.069290</ele>
        <time>2025-05-03T07:34:31.774Z</time>
      </trkpt>
      <trkpt lat="48.960476" lon="9.895119">
        <ele>492.065193</ele>
        <time>2025-05-03T07:34:31.877Z</time>
      </trkpt>
      <trkpt lat="48.960476" lon="9.895120">
        <ele>492.064520</ele>
        <time>2025-05-03T07:34:31.894Z</time>
      </trkpt>
      <trkpt lat="48.960476" lon="9.895122">
        <ele>492.063175</ele>
        <time>2025-05-03T07:34:31.928Z</time>
      </trkpt>
      <trkpt lat="48.960472" lon="9.895122">
        <ele>492.059077</ele>
        <time>2025-05-03T07:34:32.031Z</time>
      </trkpt>
      <trkpt lat="48.960472" lon="9.895123">
        <ele>492.058405</ele>
        <time>2025-05-03T07:34:32.048Z</time>
      </trkpt>
      <trkpt lat="48.960472" lon="9.895122">
        <ele>492.057732</ele>
        <time>2025-05-03T07:34:32.066Z</time>
      </trkpt>
      <trkpt lat="48.960472" lon="9.895123">
        <ele>492.057060</ele>
        <time>2025-05-03T07:34:32.083Z</time>
      </trkpt>
      <trkpt lat="48.960468" lon="9.895125">
        <ele>492.052747</ele>
        <time>2025-05-03T07:34:32.191Z</time>
      </trkpt>
      <trkpt lat="48.960468" lon="9.895126">
        <ele>492.052074</ele>
        <time>2025-05-03T07:34:32.208Z</time>
      </trkpt>
      <trkpt lat="48.960464" lon="9.895128">
        <ele>492.047761</ele>
        <time>2025-05-03T07:34:32.317Z</time>
      </trkpt>
      <trkpt lat="48.960464" lon="9.895130">
        <ele>492.046416</ele>
        <time>2025-05-03T07:34:32.351Z</time>
      </trkpt>
      <trkpt lat="48.960461" lon="9.895130">
        <ele>492.043343</ele>
        <time>2025-05-03T07:34:32.429Z</time>
      </trkpt>
      <trkpt lat="48.960461" lon="9.895132">
        <ele>492.041998</ele>
        <time>2025-05-03T07:34:32.463Z</time>
      </trkpt>
      <trkpt lat="48.960461" lon="9.895128">
        <ele>492.039307</ele>
        <time>2025-05-03T07:34:32.531Z</time>
      </trkpt>
      <trkpt lat="48.960461" lon="9.895126">
        <ele>492.037962</ele>
        <time>2025-05-03T07:34:32.565Z</time>
      </trkpt>
      <trkpt lat="48.960457" lon="9.895126">
        <ele>492.033864</ele>
        <time>2025-05-03T07:34:32.669Z</time>
      </trkpt>
      <trkpt lat="48.960457" lon="9.895125">
        <ele>492.033192</ele>
        <time>2025-05-03T07:34:32.686Z</time>
      </trkpt>
      <trkpt lat="48.960457" lon="9.895123">
        <ele>492.031847</ele>
        <time>2025-05-03T07:34:32.720Z</time>
      </trkpt>
      <trkpt lat="48.960453" lon="9.895123">
        <ele>492.027749</ele>
        <time>2025-05-03T07:34:32.823Z</time>
      </trkpt>
      <trkpt lat="48.960453" lon="9.895122">
        <ele>492.027076</ele>
        <time>2025-05-03T07:34:32.840Z</time>
      </trkpt>
      <trkpt lat="48.960453" lon="9.895123">
        <ele>492.026404</ele>
        <time>2025-05-03T07:34:32.857Z</time>
      </trkpt>
      <trkpt lat="48.960453" lon="9.895122">
        <ele>492.025731</ele>
        <time>2025-05-03T07:34:32.874Z</time>
      </trkpt>
      <trkpt lat="48.960449" lon="9.895120">
        <ele>492.021418</ele>
        <time>2025-05-03T07:34:32.983Z</time>
      </trkpt>
      <trkpt lat="48.960449" lon="9.895119">
        <ele>492.020746</ele>
        <time>2025-05-03T07:34:33.000Z</time>
      </trkpt>
      <trkpt lat="48.960449" lon="9.895117">
        <ele>492.019401</ele>
        <time>2025-05-03T07:34:33.034Z</time>
      </trkpt>
      <trkpt lat="48.960449" lon="9.895115">
        <ele>492.018055</ele>
        <time>2025-05-03T07:34:33.068Z</time>
      </trkpt>
      <trkpt lat="48.960449" lon="9.895117">
        <ele>492.016710</ele>
        <time>2025-05-03T07:34:33.102Z</time>
      </trkpt>
      <trkpt lat="48.960449" lon="9.895120">
        <ele>492.014692</ele>
        <time>2025-05-03T07:34:33.153Z</time>
      </trkpt>
      <trkpt lat="48.960449" lon="9.895122">
        <ele>492.013347</ele>
        <time>2025-05-03T07:34:33.187Z</time>
      </trkpt>
      <trkpt lat="48.960442" lon="9.895119">
        <ele>492.005898</ele>
        <time>2025-05-03T07:34:33.375Z</time>
      </trkpt>
      <trkpt lat="48.960438" lon="9.895119">
        <ele>492.001800</ele>
        <time>2025-05-03T07:34:33.478Z</time>
      </trkpt>
      <trkpt lat="48.960434" lon="9.895119">
        <ele>491.997703</ele>
        <time>2025-05-03T07:34:33.581Z</time>
      </trkpt>
      <trkpt lat="48.960438" lon="9.895117">
        <ele>491.993390</ele>
        <time>2025-05-03T07:34:33.690Z</time>
      </trkpt>
      <trkpt lat="48.960434" lon="9.895117">
        <ele>491.989292</ele>
        <time>2025-05-03T07:34:33.794Z</time>
      </trkpt>
      <trkpt lat="48.960434" lon="9.895115">
        <ele>491.987947</ele>
        <time>2025-05-03T07:34:33.828Z</time>
      </trkpt>
      <trkpt lat="48.960434" lon="9.895117">
        <ele>491.986602</ele>
        <time>2025-05-03T07:34:33.862Z</time>
      </trkpt>
      <trkpt lat="48.960438" lon="9.895119">
        <ele>491.982289</ele>
        <time>2025-05-03T07:34:33.971Z</time>
      </trkpt>
      <trkpt lat="48.960438" lon="9.895120">
        <ele>491.981616</ele>
        <time>2025-05-03T07:34:33.988Z</time>
      </trkpt>
      <trkpt lat="48.960438" lon="9.895119">
        <ele>491.980944</ele>
        <time>2025-05-03T07:34:34.004Z</time>
      </trkpt>
      <trkpt lat="48.960442" lon="9.895119">
        <ele>491.976846</ele>
        <time>2025-05-03T07:34:34.108Z</time>
      </trkpt>
      <trkpt lat="48.960442" lon="9.895117">
        <ele>491.975501</ele>
        <time>2025-05-03T07:34:34.142Z</time>
      </trkpt>
      <trkpt lat="48.960442" lon="9.895115">
        <ele>491.974156</ele>
        <time>2025-05-03T07:34:34.176Z</time>
      </trkpt>
      <trkpt lat="48.960442" lon="9.895113">
        <ele>491.972810</ele>
        <time>2025-05-03T07:34:34.210Z</time>
      </trkpt>
      <trkpt lat="48.960442" lon="9.895112">
        <ele>491.972138</ele>
        <time>2025-05-03T07:34:34.227Z</time>
      </trkpt>
      <trkpt lat="48.960445" lon="9.895115">
        <ele>491.968461</ele>
        <time>2025-05-03T07:34:34.320Z</time>
      </trkpt>
      <trkpt lat="48.960445" lon="9.895113">
        <ele>491.967116</ele>
        <time>2025-05-03T07:34:34.354Z</time>
      </trkpt>
      <trkpt lat="48.960442" lon="9.895112">
        <ele>491.963970</ele>
        <time>2025-05-03T07:34:34.433Z</time>
      </trkpt>
      <trkpt lat="48.960442" lon="9.895113">
        <ele>491.963298</ele>
        <time>2025-05-03T07:34:34.450Z</time>
      </trkpt>
      <trkpt lat="48.960442" lon="9.895112">
        <ele>491.962625</ele>
        <time>2025-05-03T07:34:34.467Z</time>
      </trkpt>
      <trkpt lat="48.960445" lon="9.895112">
        <ele>491.959552</ele>
        <time>2025-05-03T07:34:34.545Z</time>
      </trkpt>
      <trkpt lat="48.960442" lon="9.895112">
        <ele>491.956479</ele>
        <time>2025-05-03T07:34:34.622Z</time>
      </trkpt>
      <trkpt lat="48.960442" lon="9.895110">
        <ele>491.955133</ele>
        <time>2025-05-03T07:34:34.656Z</time>
      </trkpt>
      <trkpt lat="48.960442" lon="9.895112">
        <ele>491.953788</ele>
        <time>2025-05-03T07:34:34.690Z</time>
      </trkpt>
      <trkpt lat="48.960442" lon="9.895113">
        <ele>491.953116</ele>
        <time>2025-05-03T07:34:34.707Z</time>
      </trkpt>
      <trkpt lat="48.960438" lon="9.895113">
        <ele>491.949018</ele>
        <time>2025-05-03T07:34:34.810Z</time>
      </trkpt>
      <trkpt lat="48.960438" lon="9.895112">
        <ele>491.948345</ele>
        <time>2025-05-03T07:34:34.827Z</time>
      </trkpt>
      <trkpt lat="48.960438" lon="9.895113">
        <ele>491.947673</ele>
        <time>2025-05-03T07:34:34.844Z</time>
      </trkpt>
      <trkpt lat="48.960438" lon="9.895112">
        <ele>491.947000</ele>
        <time>2025-05-03T07:34:34.861Z</time>
      </trkpt>
      <trkpt lat="48.960438" lon="9.895113">
        <ele>491.946328</ele>
        <time>2025-05-03T07:34:34.878Z</time>
      </trkpt>
      <trkpt lat="48.960438" lon="9.895112">
        <ele>491.945655</ele>
        <time>2025-05-03T07:34:34.895Z</time>
      </trkpt>
      <trkpt lat="48.960434" lon="9.895110">
        <ele>491.941342</ele>
        <time>2025-05-03T07:34:35.004Z</time>
      </trkpt>
      <trkpt lat="48.960430" lon="9.895110">
        <ele>491.937244</ele>
        <time>2025-05-03T07:34:35.108Z</time>
      </trkpt>
      <trkpt lat="48.960430" lon="9.895108">
        <ele>491.935899</ele>
        <time>2025-05-03T07:34:35.142Z</time>
      </trkpt>
      <trkpt lat="48.960430" lon="9.895110">
        <ele>491.934554</ele>
        <time>2025-05-03T07:34:35.176Z</time>
      </trkpt>
      <trkpt lat="48.960434" lon="9.895108">
        <ele>491.930241</ele>
        <time>2025-05-03T07:34:35.284Z</time>
      </trkpt>
      <trkpt lat="48.960430" lon="9.895106">
        <ele>491.925928</ele>
        <time>2025-05-03T07:34:35.393Z</time>
      </trkpt>
      <trkpt lat="48.960430" lon="9.895103">
        <ele>491.923911</ele>
        <time>2025-05-03T07:34:35.444Z</time>
      </trkpt>
      <trkpt lat="48.960434" lon="9.895105">
        <ele>491.919598</ele>
        <time>2025-05-03T07:34:35.553Z</time>
      </trkpt>
      <trkpt lat="48.960434" lon="9.895103">
        <ele>491.918253</ele>
        <time>2025-05-03T07:34:35.587Z</time>
      </trkpt>
      <trkpt lat="48.960438" lon="9.895103">
        <ele>491.914155</ele>
        <time>2025-05-03T07:34:35.691Z</time>
      </trkpt>
      <trkpt lat="48.960438" lon="9.895101">
        <ele>491.912810</ele>
        <time>2025-05-03T07:34:35.724Z</time>
      </trkpt>
      <trkpt lat="48.960442" lon="9.895101">
        <ele>491.908712</ele>
        <time>2025-05-03T07:34:35.828Z</time>
      </trkpt>
      <trkpt lat="48.960442" lon="9.895100">
        <ele>491.908040</ele>
        <time>2025-05-03T07:34:35.845Z</time>
      </trkpt>
      <trkpt lat="48.960438" lon="9.895100">
        <ele>491.903942</ele>
        <time>2025-05-03T07:34:35.948Z</time>
      </trkpt>
      <trkpt lat="48.960442" lon="9.895100">
        <ele>491.899844</ele>
        <time>2025-05-03T07:34:36.052Z</time>
      </trkpt>
      <trkpt lat="48.960442" lon="9.895103">
        <ele>491.897827</ele>
        <time>2025-05-03T07:34:36.103Z</time>
      </trkpt>
      <trkpt lat="48.960438" lon="9.895100">
        <ele>491.893259</ele>
        <time>2025-05-03T07:34:36.218Z</time>
      </trkpt>
      <trkpt lat="48.960434" lon="9.895100">
        <ele>491.889161</ele>
        <time>2025-05-03T07:34:36.322Z</time>
      </trkpt>
      <trkpt lat="48.960438" lon="9.895101">
        <ele>491.885009</ele>
        <time>2025-05-03T07:34:36.426Z</time>
      </trkpt>
      <trkpt lat="48.960438" lon="9.895103">
        <ele>491.883664</ele>
        <time>2025-05-03T07:34:36.460Z</time>
      </trkpt>
      <trkpt lat="48.960442" lon="9.895103">
        <ele>491.879566</ele>
        <time>2025-05-03T07:34:36.564Z</time>
      </trkpt>
      <trkpt lat="48.960438" lon="9.895105">
        <ele>491.875253</ele>
        <time>2025-05-03T07:34:36.673Z</time>
      </trkpt>
      <trkpt lat="48.960442" lon="9.895106">
        <ele>491.871101</ele>
        <time>2025-05-03T07:34:36.778Z</time>
      </trkpt>
      <trkpt lat="48.960442" lon="9.895108">
        <ele>491.869756</ele>
        <time>2025-05-03T07:34:36.812Z</time>
      </trkpt>
      <trkpt lat="48.960445" lon="9.895108">
        <ele>491.866682</ele>
        <time>2025-05-03T07:34:36.890Z</time>
      </trkpt>
      <trkpt lat="48.960445" lon="9.895106">
        <ele>491.865337</ele>
        <time>2025-05-03T07:34:36.923Z</time>
      </trkpt>
      <trkpt lat="48.960445" lon="9.895105">
        <ele>491.864665</ele>
        <time>2025-05-03T07:34:36.940Z</time>
      </trkpt>
      <trkpt lat="48.960442" lon="9.895101">
        <ele>491.860580</ele>
        <time>2025-05-03T07:34:37.044Z</time>
      </trkpt>
      <trkpt lat="48.960442" lon="9.895103">
        <ele>491.859235</ele>
        <time>2025-05-03T07:34:37.078Z</time>
      </trkpt>
      <trkpt lat="48.960442" lon="9.895100">
        <ele>491.857217</ele>
        <time>2025-05-03T07:34:37.128Z</time>
      </trkpt>
      <trkpt lat="48.960442" lon="9.895099">
        <ele>491.856544</ele>
        <time>2025-05-03T07:34:37.145Z</time>
      </trkpt>
      <trkpt lat="48.960445" lon="9.895099">
        <ele>491.853471</ele>
        <time>2025-05-03T07:34:37.223Z</time>
      </trkpt>
      <trkpt lat="48.960445" lon="9.895097">
        <ele>491.852126</ele>
        <time>2025-05-03T07:34:37.257Z</time>
      </trkpt>
      <trkpt lat="48.960442" lon="9.895095">
        <ele>491.848771</ele>
        <time>2025-05-03T07:34:37.342Z</time>
      </trkpt>
      <trkpt lat="48.960438" lon="9.895093">
        <ele>491.844459</ele>
        <time>2025-05-03T07:34:37.451Z</time>
      </trkpt>
      <trkpt lat="48.960438" lon="9.895092">
        <ele>491.843786</ele>
        <time>2025-05-03T07:34:37.468Z</time>
      </trkpt>
      <trkpt lat="48.960438" lon="9.895090">
        <ele>491.842441</ele>
        <time>2025-05-03T07:34:37.501Z</time>
      </trkpt>
      <trkpt lat="48.960438" lon="9.895088">
        <ele>491.841095</ele>
        <time>2025-05-03T07:34:37.535Z</time>
      </trkpt>
      <trkpt lat="48.960434" lon="9.895088">
        <ele>491.836998</ele>
        <time>2025-05-03T07:34:37.639Z</time>
      </trkpt>
      <trkpt lat="48.960434" lon="9.895086">
        <ele>491.835653</ele>
        <time>2025-05-03T07:34:37.673Z</time>
      </trkpt>
      <trkpt lat="48.960438" lon="9.895086">
        <ele>491.831555</ele>
        <time>2025-05-03T07:34:37.776Z</time>
      </trkpt>
      <trkpt lat="48.960438" lon="9.895083">
        <ele>491.829537</ele>
        <time>2025-05-03T07:34:37.827Z</time>
      </trkpt>
      <trkpt lat="48.960434" lon="9.895081">
        <ele>491.825224</ele>
        <time>2025-05-03T07:34:37.936Z</time>
      </trkpt>
      <trkpt lat="48.960430" lon="9.895081">
        <ele>491.821127</ele>
        <time>2025-05-03T07:34:38.040Z</time>
      </trkpt>
      <trkpt lat="48.960434" lon="9.895081">
        <ele>491.817029</ele>
        <time>2025-05-03T07:34:38.143Z</time>
      </trkpt>
      <trkpt lat="48.960434" lon="9.895080">
        <ele>491.816357</ele>
        <time>2025-05-03T07:34:38.160Z</time>
      </trkpt>
      <trkpt lat="48.960438" lon="9.895079">
        <ele>491.812204</ele>
        <time>2025-05-03T07:34:38.265Z</time>
      </trkpt>
      <trkpt lat="48.960442" lon="9.895080">
        <ele>491.808052</ele>
        <time>2025-05-03T07:34:38.370Z</time>
      </trkpt>
      <trkpt lat="48.960438" lon="9.895080">
        <ele>491.803954</ele>
        <time>2025-05-03T07:34:38.473Z</time>
      </trkpt>
      <trkpt lat="48.960442" lon="9.895081">
        <ele>491.799802</ele>
        <time>2025-05-03T07:34:38.578Z</time>
      </trkpt>
      <trkpt lat="48.960442" lon="9.895080">
        <ele>491.799129</ele>
        <time>2025-05-03T07:34:38.595Z</time>
      </trkpt>
      <trkpt lat="48.960434" lon="9.895081">
        <ele>491.790906</ele>
        <time>2025-05-03T07:34:38.802Z</time>
      </trkpt>
      <trkpt lat="48.960438" lon="9.895083">
        <ele>491.786593</ele>
        <time>2025-05-03T07:34:38.911Z</time>
      </trkpt>
      <trkpt lat="48.960442" lon="9.895083">
        <ele>491.782496</ele>
        <time>2025-05-03T07:34:39.015Z</time>
      </trkpt>
      <trkpt lat="48.960445" lon="9.895090">
        <ele>491.776873</ele>
        <time>2025-05-03T07:34:39.157Z</time>
      </trkpt>
      <trkpt lat="48.960449" lon="9.895097">
        <ele>491.770632</ele>
        <time>2025-05-03T07:34:39.314Z</time>
      </trkpt>
      <trkpt lat="48.960453" lon="9.895101">
        <ele>491.765730</ele>
        <time>2025-05-03T07:34:39.438Z</time>
      </trkpt>
      <trkpt lat="48.960457" lon="9.895115">
        <ele>491.755460</ele>
        <time>2025-05-03T07:34:39.697Z</time>
      </trkpt>
      <trkpt lat="48.960457" lon="9.895125">
        <ele>491.748734</ele>
        <time>2025-05-03T07:34:39.867Z</time>
      </trkpt>
      <trkpt lat="48.960464" lon="9.895133">
        <ele>491.739769</ele>
        <time>2025-05-03T07:34:40.093Z</time>
      </trkpt>
      <trkpt lat="48.960464" lon="9.895139">
        <ele>491.735733</ele>
        <time>2025-05-03T07:34:40.195Z</time>
      </trkpt>
      <trkpt lat="48.960468" lon="9.895145">
        <ele>491.729982</ele>
        <time>2025-05-03T07:34:40.341Z</time>
      </trkpt>
      <trkpt lat="48.960464" lon="9.895155">
        <ele>491.722106</ele>
        <time>2025-05-03T07:34:40.540Z</time>
      </trkpt>
      <trkpt lat="48.960461" lon="9.895168">
        <ele>491.712838</ele>
        <time>2025-05-03T07:34:40.774Z</time>
      </trkpt>
      <trkpt lat="48.960461" lon="9.895184">
        <ele>491.702076</ele>
        <time>2025-05-03T07:34:41.045Z</time>
      </trkpt>
      <trkpt lat="48.960457" lon="9.895190">
        <ele>491.696325</ele>
        <time>2025-05-03T07:34:41.191Z</time>
      </trkpt>
      <trkpt lat="48.960457" lon="9.895195">
        <ele>491.692962</ele>
        <time>2025-05-03T07:34:41.275Z</time>
      </trkpt>
      <trkpt lat="48.960457" lon="9.895206">
        <ele>491.685563</ele>
        <time>2025-05-03T07:34:41.462Z</time>
      </trkpt>
      <trkpt lat="48.960457" lon="9.895211">
        <ele>491.682200</ele>
        <time>2025-05-03T07:34:41.547Z</time>
      </trkpt>
      <trkpt lat="48.960457" lon="9.895217">
        <ele>491.678165</ele>
        <time>2025-05-03T07:34:41.649Z</time>
      </trkpt>
      <trkpt lat="48.960457" lon="9.895225">
        <ele>491.672784</ele>
        <time>2025-05-03T07:34:41.785Z</time>
      </trkpt>
      <trkpt lat="48.960457" lon="9.895230">
        <ele>491.669421</ele>
        <time>2025-05-03T07:34:41.870Z</time>
      </trkpt>
      <trkpt lat="48.960457" lon="9.895231">
        <ele>491.668748</ele>
        <time>2025-05-03T07:34:41.887Z</time>
      </trkpt>
      <trkpt lat="48.960461" lon="9.895228">
        <ele>491.664181</ele>
        <time>2025-05-03T07:34:42.002Z</time>
      </trkpt>
      <trkpt lat="48.960461" lon="9.895231">
        <ele>491.662163</ele>
        <time>2025-05-03T07:34:42.053Z</time>
      </trkpt>
      <trkpt lat="48.960461" lon="9.895230">
        <ele>491.661490</ele>
        <time>2025-05-03T07:34:42.070Z</time>
      </trkpt>
      <trkpt lat="48.960464" lon="9.895230">
        <ele>491.658417</ele>
        <time>2025-05-03T07:34:42.147Z</time>
      </trkpt>
      <trkpt lat="48.960468" lon="9.895231">
        <ele>491.654265</ele>
        <time>2025-05-03T07:34:42.252Z</time>
      </trkpt>
      <trkpt lat="48.960468" lon="9.895233">
        <ele>491.652919</ele>
        <time>2025-05-03T07:34:42.286Z</time>
      </trkpt>
      <trkpt lat="48.960472" lon="9.895235">
        <ele>491.648607</ele>
        <time>2025-05-03T07:34:42.395Z</time>
      </trkpt>
      <trkpt lat="48.960476" lon="9.895242">
        <ele>491.642365</ele>
        <time>2025-05-03T07:34:42.553Z</time>
      </trkpt>
      <trkpt lat="48.960476" lon="9.895248">
        <ele>491.638329</ele>
        <time>2025-05-03T07:34:42.655Z</time>
      </trkpt>
      <trkpt lat="48.960476" lon="9.895253">
        <ele>491.634966</ele>
        <time>2025-05-03T07:34:42.739Z</time>
      </trkpt>
      <trkpt lat="48.960480" lon="9.895260">
        <ele>491.628725</ele>
        <time>2025-05-03T07:34:42.897Z</time>
      </trkpt>
      <trkpt lat="48.960480" lon="9.895268">
        <ele>491.623344</ele>
        <time>2025-05-03T07:34:43.033Z</time>
      </trkpt>
      <trkpt lat="48.960476" lon="9.895280">
        <ele>491.614292</ele>
        <time>2025-05-03T07:34:43.261Z</time>
      </trkpt>
      <trkpt lat="48.960472" lon="9.895295">
        <ele>491.603403</ele>
        <time>2025-05-03T07:34:43.536Z</time>
      </trkpt>
      <trkpt lat="48.960468" lon="9.895311">
        <ele>491.591887</ele>
        <time>2025-05-03T07:34:43.827Z</time>
      </trkpt>
      <trkpt lat="48.960464" lon="9.895320">
        <ele>491.584577</ele>
        <time>2025-05-03T07:34:44.012Z</time>
      </trkpt>
      <trkpt lat="48.960461" lon="9.895324">
        <ele>491.580493</ele>
        <time>2025-05-03T07:34:44.115Z</time>
      </trkpt>
      <trkpt lat="48.960461" lon="9.895325">
        <ele>491.579820</ele>
        <time>2025-05-03T07:34:44.132Z</time>
      </trkpt>
      <trkpt lat="48.960457" lon="9.895325">
        <ele>491.575723</ele>
        <time>2025-05-03T07:34:44.235Z</time>
      </trkpt>
      <trkpt lat="48.960457" lon="9.895327">
        <ele>491.574377</ele>
        <time>2025-05-03T07:34:44.269Z</time>
      </trkpt>
      <trkpt lat="48.960457" lon="9.895328">
        <ele>491.573705</ele>
        <time>2025-05-03T07:34:44.286Z</time>
      </trkpt>
      <trkpt lat="48.960457" lon="9.895325">
        <ele>491.571687</ele>
        <time>2025-05-03T07:34:44.337Z</time>
      </trkpt>
      <trkpt lat="48.960457" lon="9.895320">
        <ele>491.568324</ele>
        <time>2025-05-03T07:34:44.422Z</time>
      </trkpt>
      <trkpt lat="48.960457" lon="9.895310">
        <ele>491.561598</ele>
        <time>2025-05-03T07:34:44.592Z</time>
      </trkpt>
      <trkpt lat="48.960457" lon="9.895307">
        <ele>491.559580</ele>
        <time>2025-05-03T07:34:44.643Z</time>
      </trkpt>
      <trkpt lat="48.960453" lon="9.895293">
        <ele>491.549311</ele>
        <time>2025-05-03T07:34:44.902Z</time>
      </trkpt>
      <trkpt lat="48.960457" lon="9.895285">
        <ele>491.542547</ele>
        <time>2025-05-03T07:34:45.073Z</time>
      </trkpt>
      <trkpt lat="48.960457" lon="9.895275">
        <ele>491.535821</ele>
        <time>2025-05-03T07:34:45.243Z</time>
      </trkpt>
      <trkpt lat="48.960461" lon="9.895264">
        <ele>491.527364</ele>
        <time>2025-05-03T07:34:45.456Z</time>
      </trkpt>
      <trkpt lat="48.960468" lon="9.895262">
        <ele>491.520068</ele>
        <time>2025-05-03T07:34:45.640Z</time>
      </trkpt>
      <trkpt lat="48.960468" lon="9.895265">
        <ele>491.518050</ele>
        <time>2025-05-03T07:34:45.691Z</time>
      </trkpt>
      <trkpt lat="48.960468" lon="9.895270">
        <ele>491.514687</ele>
        <time>2025-05-03T07:34:45.776Z</time>
      </trkpt>
      <trkpt lat="48.960468" lon="9.895268">
        <ele>491.513342</ele>
        <time>2025-05-03T07:34:45.810Z</time>
      </trkpt>
      <trkpt lat="48.960468" lon="9.895267">
        <ele>491.512669</ele>
        <time>2025-05-03T07:34:45.827Z</time>
      </trkpt>
      <trkpt lat="48.960472" lon="9.895260">
        <ele>491.506427</ele>
        <time>2025-05-03T07:34:45.985Z</time>
      </trkpt>
      <trkpt lat="48.960476" lon="9.895255">
        <ele>491.501126</ele>
        <time>2025-05-03T07:34:46.119Z</time>
      </trkpt>
      <trkpt lat="48.960480" lon="9.895253">
        <ele>491.496814</ele>
        <time>2025-05-03T07:34:46.227Z</time>
      </trkpt>
      <trkpt lat="48.960480" lon="9.895257">
        <ele>491.494123</ele>
        <time>2025-05-03T07:34:46.295Z</time>
      </trkpt>
      <trkpt lat="48.960480" lon="9.895264">
        <ele>491.489415</ele>
        <time>2025-05-03T07:34:46.414Z</time>
      </trkpt>
      <trkpt lat="48.960472" lon="9.895273">
        <ele>491.479226</ele>
        <time>2025-05-03T07:34:46.671Z</time>
      </trkpt>
      <trkpt lat="48.960468" lon="9.895277">
        <ele>491.474324</ele>
        <time>2025-05-03T07:34:46.795Z</time>
      </trkpt>
      <trkpt lat="48.960464" lon="9.895284">
        <ele>491.468083</ele>
        <time>2025-05-03T07:34:46.953Z</time>
      </trkpt>
      <trkpt lat="48.960461" lon="9.895287">
        <ele>491.464406</ele>
        <time>2025-05-03T07:34:47.046Z</time>
      </trkpt>
      <trkpt lat="48.960457" lon="9.895288">
        <ele>491.460254</ele>
        <time>2025-05-03T07:34:47.150Z</time>
      </trkpt>
      <trkpt lat="48.960457" lon="9.895290">
        <ele>491.458909</ele>
        <time>2025-05-03T07:34:47.184Z</time>
      </trkpt>
      <trkpt lat="48.960457" lon="9.895291">
        <ele>491.458236</ele>
        <time>2025-05-03T07:34:47.201Z</time>
      </trkpt>
      <trkpt lat="48.960453" lon="9.895290">
        <ele>491.454084</ele>
        <time>2025-05-03T07:34:47.306Z</time>
      </trkpt>
      <trkpt lat="48.960453" lon="9.895288">
        <ele>491.452738</ele>
        <time>2025-05-03T07:34:47.340Z</time>
      </trkpt>
      <trkpt lat="48.960449" lon="9.895287">
        <ele>491.448586</ele>
        <time>2025-05-03T07:34:47.445Z</time>
      </trkpt>
      <trkpt lat="48.960453" lon="9.895284">
        <ele>491.444018</ele>
        <time>2025-05-03T07:34:47.560Z</time>
      </trkpt>
      <trkpt lat="48.960453" lon="9.895285">
        <ele>491.443346</ele>
        <time>2025-05-03T07:34:47.577Z</time>
      </trkpt>
      <trkpt lat="48.960453" lon="9.895278">
        <ele>491.438638</ele>
        <time>2025-05-03T07:34:47.696Z</time>
      </trkpt>
      <trkpt lat="48.960457" lon="9.895273">
        <ele>491.433337</ele>
        <time>2025-05-03T07:34:47.830Z</time>
      </trkpt>
      <trkpt lat="48.960457" lon="9.895271">
        <ele>491.431991</ele>
        <time>2025-05-03T07:34:47.864Z</time>
      </trkpt>
      <trkpt lat="48.960461" lon="9.895271">
        <ele>491.427894</ele>
        <time>2025-05-03T07:34:47.967Z</time>
      </trkpt>
      <trkpt lat="48.960461" lon="9.895275">
        <ele>491.425203</ele>
        <time>2025-05-03T07:34:48.035Z</time>
      </trkpt>
      <trkpt lat="48.960461" lon="9.895277">
        <ele>491.423858</ele>
        <time>2025-05-03T07:34:48.069Z</time>
      </trkpt>
      <trkpt lat="48.960461" lon="9.895273">
        <ele>491.421168</ele>
        <time>2025-05-03T07:34:48.137Z</time>
      </trkpt>
      <trkpt lat="48.960461" lon="9.895268">
        <ele>491.417805</ele>
        <time>2025-05-03T07:34:48.222Z</time>
      </trkpt>
      <trkpt lat="48.960461" lon="9.895270">
        <ele>491.416460</ele>
        <time>2025-05-03T07:34:48.256Z</time>
      </trkpt>
      <trkpt lat="48.960461" lon="9.895267">
        <ele>491.414442</ele>
        <time>2025-05-03T07:34:48.307Z</time>
      </trkpt>
      <trkpt lat="48.960461" lon="9.895268">
        <ele>491.413769</ele>
        <time>2025-05-03T07:34:48.324Z</time>
      </trkpt>
      <trkpt lat="48.960461" lon="9.895270">
        <ele>491.412424</ele>
        <time>2025-05-03T07:34:48.358Z</time>
      </trkpt>
      <trkpt lat="48.960464" lon="9.895270">
        <ele>491.409351</ele>
        <time>2025-05-03T07:34:48.436Z</time>
      </trkpt>
      <trkpt lat="48.960468" lon="9.895271">
        <ele>491.405198</ele>
        <time>2025-05-03T07:34:48.541Z</time>
      </trkpt>
      <trkpt lat="48.960472" lon="9.895271">
        <ele>491.401101</ele>
        <time>2025-05-03T07:34:48.644Z</time>
      </trkpt>
      <trkpt lat="48.960472" lon="9.895273">
        <ele>491.399755</ele>
        <time>2025-05-03T07:34:48.678Z</time>
      </trkpt>
      <trkpt lat="48.960476" lon="9.895273">
        <ele>491.395658</ele>
        <time>2025-05-03T07:34:48.782Z</time>
      </trkpt>
      <trkpt lat="48.960476" lon="9.895275">
        <ele>491.394313</ele>
        <time>2025-05-03T07:34:48.816Z</time>
      </trkpt>
      <trkpt lat="48.960476" lon="9.895277">
        <ele>491.392967</ele>
        <time>2025-05-03T07:34:48.850Z</time>
      </trkpt>
      <trkpt lat="48.960476" lon="9.895278">
        <ele>491.392295</ele>
        <time>2025-05-03T07:34:48.867Z</time>
      </trkpt>
      <trkpt lat="48.960476" lon="9.895280">
        <ele>491.390950</ele>
        <time>2025-05-03T07:34:48.901Z</time>
      </trkpt>
      <trkpt lat="48.960476" lon="9.895284">
        <ele>491.388259</ele>
        <time>2025-05-03T07:34:48.968Z</time>
      </trkpt>
      <trkpt lat="48.960472" lon="9.895285">
        <ele>491.384107</ele>
        <time>2025-05-03T07:34:49.073Z</time>
      </trkpt>
      <trkpt lat="48.960472" lon="9.895288">
        <ele>491.382089</ele>
        <time>2025-05-03T07:34:49.124Z</time>
      </trkpt>
      <trkpt lat="48.960472" lon="9.895290">
        <ele>491.380744</ele>
        <time>2025-05-03T07:34:49.158Z</time>
      </trkpt>
      <trkpt lat="48.960468" lon="9.895291">
        <ele>491.376591</ele>
        <time>2025-05-03T07:34:49.263Z</time>
      </trkpt>
      <trkpt lat="48.960472" lon="9.895291">
        <ele>491.372494</ele>
        <time>2025-05-03T07:34:49.366Z</time>
      </trkpt>
      <trkpt lat="48.960468" lon="9.895291">
        <ele>491.368396</ele>
        <time>2025-05-03T07:34:49.470Z</time>
      </trkpt>
      <trkpt lat="48.960468" lon="9.895293">
        <ele>491.367051</ele>
        <time>2025-05-03T07:34:49.504Z</time>
      </trkpt>
      <trkpt lat="48.960472" lon="9.895293">
        <ele>491.362953</ele>
        <time>2025-05-03T07:34:49.607Z</time>
      </trkpt>
      <trkpt lat="48.960468" lon="9.895293">
        <ele>491.358855</ele>
        <time>2025-05-03T07:34:49.711Z</time>
      </trkpt>
      <trkpt lat="48.960468" lon="9.895295">
        <ele>491.357510</ele>
        <time>2025-05-03T07:34:49.745Z</time>
      </trkpt>
      <trkpt lat="48.960468" lon="9.895290">
        <ele>491.354147</ele>
        <time>2025-05-03T07:34:49.830Z</time>
      </trkpt>
      <trkpt lat="48.960468" lon="9.895288">
        <ele>491.352802</ele>
        <time>2025-05-03T07:34:49.863Z</time>
      </trkpt>
      <trkpt lat="48.960468" lon="9.895287">
        <ele>491.352129</ele>
        <time>2025-05-03T07:34:49.880Z</time>
      </trkpt>
      <trkpt lat="48.960472" lon="9.895288">
        <ele>491.347977</ele>
        <time>2025-05-03T07:34:49.985Z</time>
      </trkpt>
      <trkpt lat="48.960472" lon="9.895290">
        <ele>491.346632</ele>
        <time>2025-05-03T07:34:50.019Z</time>
      </trkpt>
      <trkpt lat="48.960468" lon="9.895290">
        <ele>491.342534</ele>
        <time>2025-05-03T07:34:50.123Z</time>
      </trkpt>
      <trkpt lat="48.960468" lon="9.895291">
        <ele>491.341861</ele>
        <time>2025-05-03T07:34:50.140Z</time>
      </trkpt>
      <trkpt lat="48.960468" lon="9.895293">
        <ele>491.340516</ele>
        <time>2025-05-03T07:34:50.174Z</time>
      </trkpt>
      <trkpt lat="48.960468" lon="9.895297">
        <ele>491.337826</ele>
        <time>2025-05-03T07:34:50.242Z</time>
      </trkpt>
      <trkpt lat="48.960468" lon="9.895298">
        <ele>491.337153</ele>
        <time>2025-05-03T07:34:50.259Z</time>
      </trkpt>
      <trkpt lat="48.960468" lon="9.895300">
        <ele>491.335808</ele>
        <time>2025-05-03T07:34:50.293Z</time>
      </trkpt>
      <trkpt lat="48.960468" lon="9.895302">
        <ele>491.334463</ele>
        <time>2025-05-03T07:34:50.326Z</time>
      </trkpt>
      <trkpt lat="48.960468" lon="9.895300">
        <ele>491.333118</ele>
        <time>2025-05-03T07:34:50.360Z</time>
      </trkpt>
      <trkpt lat="48.960472" lon="9.895298">
        <ele>491.328805</ele>
        <time>2025-05-03T07:34:50.469Z</time>
      </trkpt>
      <trkpt lat="48.960472" lon="9.895297">
        <ele>491.328132</ele>
        <time>2025-05-03T07:34:50.486Z</time>
      </trkpt>
      <trkpt lat="48.960472" lon="9.895298">
        <ele>491.327460</ele>
        <time>2025-05-03T07:34:50.503Z</time>
      </trkpt>
      <trkpt lat="48.960472" lon="9.895300">
        <ele>491.326114</ele>
        <time>2025-05-03T07:34:50.537Z</time>
      </trkpt>
      <trkpt lat="48.960468" lon="9.895295">
        <ele>491.320813</ele>
        <time>2025-05-03T07:34:50.671Z</time>
      </trkpt>
      <trkpt lat="48.960472" lon="9.895297">
        <ele>491.316501</ele>
        <time>2025-05-03T07:34:50.780Z</time>
      </trkpt>
      <trkpt lat="48.960476" lon="9.895300">
        <ele>491.311933</ele>
        <time>2025-05-03T07:34:50.895Z</time>
      </trkpt>
      <trkpt lat="48.960476" lon="9.895302">
        <ele>491.310588</ele>
        <time>2025-05-03T07:34:50.929Z</time>
      </trkpt>
      <trkpt lat="48.960476" lon="9.895300">
        <ele>491.309243</ele>
        <time>2025-05-03T07:34:50.963Z</time>
      </trkpt>
      <trkpt lat="48.960476" lon="9.895298">
        <ele>491.307897</ele>
        <time>2025-05-03T07:34:50.997Z</time>
      </trkpt>
      <trkpt lat="48.960476" lon="9.895297">
        <ele>491.307225</ele>
        <time>2025-05-03T07:34:51.014Z</time>
      </trkpt>
      <trkpt lat="48.960476" lon="9.895295">
        <ele>491.305880</ele>
        <time>2025-05-03T07:34:51.048Z</time>
      </trkpt>
      <trkpt lat="48.960476" lon="9.895297">
        <ele>491.304534</ele>
        <time>2025-05-03T07:34:51.082Z</time>
      </trkpt>
      <trkpt lat="48.960480" lon="9.895295">
        <ele>491.300222</ele>
        <time>2025-05-03T07:34:51.191Z</time>
      </trkpt>
      <trkpt lat="48.960480" lon="9.895297">
        <ele>491.298876</ele>
        <time>2025-05-03T07:34:51.225Z</time>
      </trkpt>
      <trkpt lat="48.960480" lon="9.895295">
        <ele>491.297531</ele>
        <time>2025-05-03T07:34:51.259Z</time>
      </trkpt>
      <trkpt lat="48.960480" lon="9.895293">
        <ele>491.296186</ele>
        <time>2025-05-03T07:34:51.293Z</time>
      </trkpt>
      <trkpt lat="48.960480" lon="9.895297">
        <ele>491.293496</ele>
        <time>2025-05-03T07:34:51.361Z</time>
      </trkpt>
      <trkpt lat="48.960484" lon="9.895298">
        <ele>491.289343</ele>
        <time>2025-05-03T07:34:51.465Z</time>
      </trkpt>
      <trkpt lat="48.960484" lon="9.895302">
        <ele>491.286653</ele>
        <time>2025-05-03T07:34:51.533Z</time>
      </trkpt>
      <trkpt lat="48.960484" lon="9.895307">
        <ele>491.283290</ele>
        <time>2025-05-03T07:34:51.618Z</time>
      </trkpt>
      <trkpt lat="48.960484" lon="9.895311">
        <ele>491.280599</ele>
        <time>2025-05-03T07:34:51.686Z</time>
      </trkpt>
      <trkpt lat="48.960487" lon="9.895313">
        <ele>491.277245</ele>
        <time>2025-05-03T07:34:51.771Z</time>
      </trkpt>
      <trkpt lat="48.960487" lon="9.895315">
        <ele>491.275899</ele>
        <time>2025-05-03T07:34:51.805Z</time>
      </trkpt>
      <trkpt lat="48.960487" lon="9.895318">
        <ele>491.273882</ele>
        <time>2025-05-03T07:34:51.856Z</time>
      </trkpt>
      <trkpt lat="48.960487" lon="9.895320">
        <ele>491.272536</ele>
        <time>2025-05-03T07:34:51.890Z</time>
      </trkpt>
      <trkpt lat="48.960484" lon="9.895318">
        <ele>491.269182</ele>
        <time>2025-05-03T07:34:51.975Z</time>
      </trkpt>
      <trkpt lat="48.960484" lon="9.895315">
        <ele>491.267164</ele>
        <time>2025-05-03T07:34:52.025Z</time>
      </trkpt>
      <trkpt lat="48.960484" lon="9.895317">
        <ele>491.265819</ele>
        <time>2025-05-03T07:34:52.059Z</time>
      </trkpt>
      <trkpt lat="48.960484" lon="9.895320">
        <ele>491.263801</ele>
        <time>2025-05-03T07:34:52.110Z</time>
      </trkpt>
      <trkpt lat="48.960484" lon="9.895322">
        <ele>491.262456</ele>
        <time>2025-05-03T07:34:52.144Z</time>
      </trkpt>
      <trkpt lat="48.960484" lon="9.895320">
        <ele>491.261110</ele>
        <time>2025-05-03T07:34:52.178Z</time>
      </trkpt>
      <trkpt lat="48.960487" lon="9.895317">
        <ele>491.257434</ele>
        <time>2025-05-03T07:34:52.271Z</time>
      </trkpt>
      <trkpt lat="48.960487" lon="9.895315">
        <ele>491.256089</ele>
        <time>2025-05-03T07:34:52.305Z</time>
      </trkpt>
      <trkpt lat="48.960487" lon="9.895313">
        <ele>491.254743</ele>
        <time>2025-05-03T07:34:52.339Z</time>
      </trkpt>
      <trkpt lat="48.960491" lon="9.895317">
        <ele>491.249842</ele>
        <time>2025-05-03T07:34:52.463Z</time>
      </trkpt>
      <trkpt lat="48.960487" lon="9.895320">
        <ele>491.245274</ele>
        <time>2025-05-03T07:34:52.578Z</time>
      </trkpt>
      <trkpt lat="48.960487" lon="9.895322">
        <ele>491.243929</ele>
        <time>2025-05-03T07:34:52.612Z</time>
      </trkpt>
      <trkpt lat="48.960487" lon="9.895318">
        <ele>491.241238</ele>
        <time>2025-05-03T07:34:52.680Z</time>
      </trkpt>
      <trkpt lat="48.960487" lon="9.895317">
        <ele>491.240566</ele>
        <time>2025-05-03T07:34:52.697Z</time>
      </trkpt>
      <trkpt lat="48.960487" lon="9.895315">
        <ele>491.239221</ele>
        <time>2025-05-03T07:34:52.731Z</time>
      </trkpt>
      <trkpt lat="48.960487" lon="9.895313">
        <ele>491.237875</ele>
        <time>2025-05-03T07:34:52.765Z</time>
      </trkpt>
      <trkpt lat="48.960487" lon="9.895311">
        <ele>491.236530</ele>
        <time>2025-05-03T07:34:52.799Z</time>
      </trkpt>
      <trkpt lat="48.960491" lon="9.895310">
        <ele>491.232378</ele>
        <time>2025-05-03T07:34:52.904Z</time>
      </trkpt>
      <trkpt lat="48.960495" lon="9.895310">
        <ele>491.228280</ele>
        <time>2025-05-03T07:34:53.007Z</time>
      </trkpt>
      <trkpt lat="48.960495" lon="9.895308">
        <ele>491.226935</ele>
        <time>2025-05-03T07:34:53.041Z</time>
      </trkpt>
      <trkpt lat="48.960495" lon="9.895310">
        <ele>491.225590</ele>
        <time>2025-05-03T07:34:53.075Z</time>
      </trkpt>
      <trkpt lat="48.960495" lon="9.895313">
        <ele>491.223572</ele>
        <time>2025-05-03T07:34:53.126Z</time>
      </trkpt>
      <trkpt lat="48.960495" lon="9.895315">
        <ele>491.222227</ele>
        <time>2025-05-03T07:34:53.160Z</time>
      </trkpt>
      <trkpt lat="48.960495" lon="9.895317">
        <ele>491.220881</ele>
        <time>2025-05-03T07:34:53.194Z</time>
      </trkpt>
      <trkpt lat="48.960499" lon="9.895318">
        <ele>491.216729</ele>
        <time>2025-05-03T07:34:53.299Z</time>
      </trkpt>
      <trkpt lat="48.960495" lon="9.895322">
        <ele>491.211827</ele>
        <time>2025-05-03T07:34:53.423Z</time>
      </trkpt>
      <trkpt lat="48.960495" lon="9.895324">
        <ele>491.210482</ele>
        <time>2025-05-03T07:34:53.457Z</time>
      </trkpt>
      <trkpt lat="48.960495" lon="9.895325">
        <ele>491.209809</ele>
        <time>2025-05-03T07:34:53.474Z</time>
      </trkpt>
      <trkpt lat="48.960499" lon="9.895322">
        <ele>491.205242</ele>
        <time>2025-05-03T07:34:53.589Z</time>
      </trkpt>
      <trkpt lat="48.960503" lon="9.895317">
        <ele>491.199941</ele>
        <time>2025-05-03T07:34:53.723Z</time>
      </trkpt>
      <trkpt lat="48.960503" lon="9.895313">
        <ele>491.197250</ele>
        <time>2025-05-03T07:34:53.791Z</time>
      </trkpt>
      <trkpt lat="48.960510" lon="9.895311">
        <ele>491.189954</ele>
        <time>2025-05-03T07:34:53.975Z</time>
      </trkpt>
      <trkpt lat="48.960506" lon="9.895305">
        <ele>491.184203</ele>
        <time>2025-05-03T07:34:54.120Z</time>
      </trkpt>
      <trkpt lat="48.960510" lon="9.895300">
        <ele>491.178902</ele>
        <time>2025-05-03T07:34:54.254Z</time>
      </trkpt>
      <trkpt lat="48.960510" lon="9.895298">
        <ele>491.177557</ele>
        <time>2025-05-03T07:34:54.288Z</time>
      </trkpt>
      <trkpt lat="48.960514" lon="9.895307">
        <ele>491.170247</ele>
        <time>2025-05-03T07:34:54.473Z</time>
      </trkpt>
      <trkpt lat="48.960514" lon="9.895315">
        <ele>491.164866</ele>
        <time>2025-05-03T07:34:54.608Z</time>
      </trkpt>
      <trkpt lat="48.960518" lon="9.895317">
        <ele>491.160553</ele>
        <time>2025-05-03T07:34:54.717Z</time>
      </trkpt>
      <trkpt lat="48.960522" lon="9.895313">
        <ele>491.155651</ele>
        <time>2025-05-03T07:34:54.841Z</time>
      </trkpt>
      <trkpt lat="48.960525" lon="9.895311">
        <ele>491.152297</ele>
        <time>2025-05-03T07:34:54.926Z</time>
      </trkpt>
      <trkpt lat="48.960499" lon="9.895447">
        <ele>491.057024</ele>
        <time>2025-05-03T07:34:57.329Z</time>
      </trkpt>
      <trkpt lat="48.960713" lon="9.895546">
        <ele>490.827911</ele>
        <time>2025-05-03T07:35:02.517Z</time>
      </trkpt>
      <trkpt lat="48.960957" lon="9.895293">
        <ele>490.525529</ele>
        <time>2025-05-03T07:35:07.607Z</time>
      </trkpt>
      <trkpt lat="48.961118" lon="9.895115">
        <ele>490.191001</ele>
        <time>2025-05-03T07:35:11.140Z</time>
      </trkpt>
      <trkpt lat="48.961625" lon="9.894566">
        <ele>489.091173</ele>
        <time>2025-05-03T07:35:21.998Z</time>
      </trkpt>
      <trkpt lat="48.961689" lon="9.894557">
        <ele>488.977540</ele>
        <time>2025-05-03T07:35:23.104Z</time>
      </trkpt>
      <trkpt lat="48.961813" lon="9.894610">
        <ele>488.749839</ele>
        <time>2025-05-03T07:35:25.354Z</time>
      </trkpt>
      <trkpt lat="48.962030" lon="9.894764">
        <ele>488.326580</ele>
        <time>2025-05-03T07:35:29.556Z</time>
      </trkpt>
      <trkpt lat="48.962309" lon="9.895034">
        <ele>487.742161</ele>
        <time>2025-05-03T07:35:35.608Z</time>
      </trkpt>
      <trkpt lat="48.962398" lon="9.895070">
        <ele>487.579355</ele>
        <time>2025-05-03T07:35:37.558Z</time>
      </trkpt>
      <trkpt lat="48.962610" lon="9.895020">
        <ele>487.594070</ele>
        <time>2025-05-03T07:35:42.481Z</time>
      </trkpt>
      <trkpt lat="48.963141" lon="9.894693">
        <ele>489.858482</ele>
        <time>2025-05-03T07:35:56.716Z</time>
      </trkpt>
      <trkpt lat="48.963293" lon="9.894652">
        <ele>490.468767</ele>
        <time>2025-05-03T07:36:00.781Z</time>
      </trkpt>
      <trkpt lat="48.963495" lon="9.894724">
        <ele>491.288952</ele>
        <time>2025-05-03T07:36:06.431Z</time>
      </trkpt>
      <trkpt lat="48.963710" lon="9.894927">
        <ele>492.289026</ele>
        <time>2025-05-03T07:36:13.549Z</time>
      </trkpt>
      <trkpt lat="48.963845" lon="9.895014">
        <ele>492.868557</ele>
        <time>2025-05-03T07:36:17.704Z</time>
      </trkpt>
      <trkpt lat="48.964073" lon="9.895053">
        <ele>493.775624</ele>
        <time>2025-05-03T07:36:24.284Z</time>
      </trkpt>
      <trkpt lat="48.964117" lon="9.895248">
        <ele>494.310826</ele>
        <time>2025-05-03T07:36:28.104Z</time>
      </trkpt>
      <trkpt lat="48.964193" lon="9.895403">
        <ele>494.834889</ele>
        <time>2025-05-03T07:36:31.670Z</time>
      </trkpt>
      <trkpt lat="48.964383" lon="9.895650">
        <ele>495.879408</ele>
        <time>2025-05-03T07:36:38.609Z</time>
      </trkpt>
      <trkpt lat="48.964455" lon="9.895886">
        <ele>496.593833</ele>
        <time>2025-05-03T07:36:43.242Z</time>
      </trkpt>
      <trkpt lat="48.964417" lon="9.896120">
        <ele>497.255591</ele>
        <time>2025-05-03T07:36:47.464Z</time>
      </trkpt>
      <trkpt lat="48.964427" lon="9.896277">
        <ele>497.688625</ele>
        <time>2025-05-03T07:36:50.166Z</time>
      </trkpt>
      <trkpt lat="48.964887" lon="9.897530">
        <ele>501.629730</ele>
        <time>2025-05-03T07:37:13.223Z</time>
      </trkpt>
      <trkpt lat="48.964954" lon="9.897827">
        <ele>502.488100</ele>
        <time>2025-05-03T07:37:18.158Z</time>
      </trkpt>
      <trkpt lat="48.965116" lon="9.898761">
        <ele>505.121587</ele>
        <time>2025-05-03T07:37:34.006Z</time>
      </trkpt>
      <trkpt lat="48.965195" lon="9.899219">
        <ele>506.412487</ele>
        <time>2025-05-03T07:37:42.103Z</time>
      </trkpt>
      <trkpt lat="48.965293" lon="9.899879">
        <ele>508.257114</ele>
        <time>2025-05-03T07:37:54.180Z</time>
      </trkpt>
      <trkpt lat="48.965293" lon="9.900602">
        <ele>510.038177</ele>
        <time>2025-05-03T07:38:06.989Z</time>
      </trkpt>
      <trkpt lat="48.965238" lon="9.901552">
        <ele>512.025346</ele>
        <time>2025-05-03T07:38:23.418Z</time>
      </trkpt>
      <trkpt lat="48.964953" lon="9.903110">
        <ele>515.242832</ele>
        <time>2025-05-03T07:38:49.032Z</time>
      </trkpt>
      <trkpt lat="48.964793" lon="9.903603">
        <ele>515.727798</ele>
        <time>2025-05-03T07:38:57.615Z</time>
      </trkpt>
      <trkpt lat="48.964646" lon="9.903886">
        <ele>516.046023</ele>
        <time>2025-05-03T07:39:03.285Z</time>
      </trkpt>
      <trkpt lat="48.964345" lon="9.904319">
        <ele>516.602137</ele>
        <time>2025-05-03T07:39:13.208Z</time>
      </trkpt>
      <trkpt lat="48.963921" lon="9.904468">
        <ele>517.186614</ele>
        <time>2025-05-03T07:39:23.411Z</time>
      </trkpt>
      <trkpt lat="48.963564" lon="9.904711">
        <ele>517.255772</ele>
        <time>2025-05-03T07:39:32.276Z</time>
      </trkpt>
      <trkpt lat="48.963356" lon="9.905001">
        <ele>516.587620</ele>
        <time>2025-05-03T07:39:38.164Z</time>
      </trkpt>
      <trkpt lat="48.963089" lon="9.905494">
        <ele>515.593417</ele>
        <time>2025-05-03T07:39:45.921Z</time>
      </trkpt>
      <trkpt lat="48.962749" lon="9.905981">
        <ele>514.487525</ele>
        <time>2025-05-03T07:39:53.869Z</time>
      </trkpt>
      <trkpt lat="48.962244" lon="9.906135">
        <ele>513.253744</ele>
        <time>2025-05-03T07:40:02.248Z</time>
      </trkpt>
      <trkpt lat="48.962077" lon="9.906244">
        <ele>512.498189</ele>
        <time>2025-05-03T07:40:05.223Z</time>
      </trkpt>
      <trkpt lat="48.961883" lon="9.906553">
        <ele>511.330870</ele>
        <time>2025-05-03T07:40:09.852Z</time>
      </trkpt>
      <trkpt lat="48.961727" lon="9.906921">
        <ele>510.134877</ele>
        <time>2025-05-03T07:40:14.623Z</time>
      </trkpt>
      <trkpt lat="48.961538" lon="9.907271">
        <ele>508.897563</ele>
        <time>2025-05-03T07:40:19.582Z</time>
      </trkpt>
      <trkpt lat="48.961116" lon="9.907963">
        <ele>506.318893</ele>
        <time>2025-05-03T07:40:30.666Z</time>
      </trkpt>
      <trkpt lat="48.960170" lon="9.909267">
        <ele>499.844285</ele>
        <time>2025-05-03T07:40:52.022Z</time>
      </trkpt>
      <trkpt lat="48.959934" lon="9.909673">
        <ele>498.002665</ele>
        <time>2025-05-03T07:40:57.938Z</time>
      </trkpt>
      <trkpt lat="48.959848" lon="9.909917">
        <ele>497.062119</ele>
        <time>2025-05-03T07:41:00.994Z</time>
      </trkpt>
      <trkpt lat="48.959810" lon="9.910144">
        <ele>496.413862</ele>
        <time>2025-05-03T07:41:03.611Z</time>
      </trkpt>
      <trkpt lat="48.959803" lon="9.910458">
        <ele>496.015818</ele>
        <time>2025-05-03T07:41:07.176Z</time>
      </trkpt>
      <trkpt lat="48.960001" lon="9.914682">
        <ele>490.901252</ele>
        <time>2025-05-03T07:42:07.204Z</time>
      </trkpt>
      <trkpt lat="48.959975" lon="9.915271">
        <ele>490.232074</ele>
        <time>2025-05-03T07:42:14.916Z</time>
      </trkpt>
      <trkpt lat="48.959925" lon="9.915567">
        <ele>489.814990</ele>
        <time>2025-05-03T07:42:18.714Z</time>
      </trkpt>
      <trkpt lat="48.959851" lon="9.915697">
        <ele>489.276136</ele>
        <time>2025-05-03T07:42:22.043Z</time>
      </trkpt>
      <trkpt lat="48.959706" lon="9.915776">
        <ele>488.541565</ele>
        <time>2025-05-03T07:42:26.522Z</time>
      </trkpt>
      <trkpt lat="48.957816" lon="9.914688">
        <ele>478.844913</ele>
        <time>2025-05-03T07:43:00.645Z</time>
      </trkpt>
      <trkpt lat="48.956895" lon="9.914295">
        <ele>474.172602</ele>
        <time>2025-05-03T07:43:16.921Z</time>
      </trkpt>
      <trkpt lat="48.955317" lon="9.913693">
        <ele>469.411957</ele>
        <time>2025-05-03T07:43:46.071Z</time>
      </trkpt>
      <trkpt lat="48.955190" lon="9.913655">
        <ele>469.097732</ele>
        <time>2025-05-03T07:43:48.858Z</time>
      </trkpt>
      <trkpt lat="48.953640" lon="9.913243">
        <ele>469.798324</ele>
        <time>2025-05-03T07:44:27.690Z</time>
      </trkpt>
      <trkpt lat="48.953260" lon="9.913315">
        <ele>470.310196</ele>
        <time>2025-05-03T07:44:37.344Z</time>
      </trkpt>
      <trkpt lat="48.952736" lon="9.913544">
        <ele>470.778759</ele>
        <time>2025-05-03T07:44:50.990Z</time>
      </trkpt>
      <trkpt lat="48.951313" lon="9.914323">
        <ele>471.510493</ele>
        <time>2025-05-03T07:45:27.140Z</time>
      </trkpt>
      <trkpt lat="48.951014" lon="9.914342">
        <ele>471.001707</ele>
        <time>2025-05-03T07:45:33.378Z</time>
      </trkpt>
      <trkpt lat="48.950846" lon="9.914261">
        <ele>470.702108</ele>
        <time>2025-05-03T07:45:37.018Z</time>
      </trkpt>
      <trkpt lat="48.950685" lon="9.914129">
        <ele>470.391231</ele>
        <time>2025-05-03T07:45:40.741Z</time>
      </trkpt>
      <trkpt lat="48.950536" lon="9.913902">
        <ele>470.032892</ele>
        <time>2025-05-03T07:45:45.002Z</time>
      </trkpt>
      <trkpt lat="48.949027" lon="9.910991">
        <ele>463.354334</ele>
        <time>2025-05-03T07:46:32.266Z</time>
      </trkpt>
      <trkpt lat="48.948909" lon="9.910822">
        <ele>462.813643</ele>
        <time>2025-05-03T07:46:34.834Z</time>
      </trkpt>
      <trkpt lat="48.948812" lon="9.910731">
        <ele>462.440502</ele>
        <time>2025-05-03T07:46:36.653Z</time>
      </trkpt>
      <trkpt lat="48.947902" lon="9.910085">
        <ele>459.354064</ele>
        <time>2025-05-03T07:46:52.920Z</time>
      </trkpt>
      <trkpt lat="48.945726" lon="9.908561">
        <ele>459.515180</ele>
        <time>2025-05-03T07:47:49.501Z</time>
      </trkpt>
      <trkpt lat="48.944525" lon="9.907715">
        <ele>460.258080</ele>
        <time>2025-05-03T07:48:21.173Z</time>
      </trkpt>
      <trkpt lat="48.944400" lon="9.907594">
        <ele>460.319528</ele>
        <time>2025-05-03T07:48:24.320Z</time>
      </trkpt>
      <trkpt lat="48.944180" lon="9.907283">
        <ele>460.444066</ele>
        <time>2025-05-03T07:48:30.077Z</time>
      </trkpt>
      <trkpt lat="48.943995" lon="9.907106">
        <ele>460.471073</ele>
        <time>2025-05-03T07:48:33.939Z</time>
      </trkpt>
      <trkpt lat="48.942931" lon="9.906297">
        <ele>457.261684</ele>
        <time>2025-05-03T07:48:52.741Z</time>
      </trkpt>
      <trkpt lat="48.942738" lon="9.906256">
        <ele>456.735817</ele>
        <time>2025-05-03T07:48:55.867Z</time>
      </trkpt>
      <trkpt lat="48.942594" lon="9.906190">
        <ele>456.329999</ele>
        <time>2025-05-03T07:48:58.365Z</time>
      </trkpt>
      <trkpt lat="48.942481" lon="9.906096">
        <ele>455.982515</ele>
        <time>2025-05-03T07:49:00.562Z</time>
      </trkpt>
      <trkpt lat="48.942250" lon="9.905763">
        <ele>456.314244</ele>
        <time>2025-05-03T07:49:06.663Z</time>
      </trkpt>
      <trkpt lat="48.941830" lon="9.905361">
        <ele>457.880796</ele>
        <time>2025-05-03T07:49:18.089Z</time>
      </trkpt>
      <trkpt lat="48.941596" lon="9.905075">
        <ele>458.828344</ele>
        <time>2025-05-03T07:49:25.890Z</time>
      </trkpt>
      <trkpt lat="48.940991" lon="9.903905">
        <ele>461.927902</ele>
        <time>2025-05-03T07:49:53.234Z</time>
      </trkpt>
      <trkpt lat="48.940790" lon="9.903616">
        <ele>462.818095</ele>
        <time>2025-05-03T07:50:00.791Z</time>
      </trkpt>
      <trkpt lat="48.940496" lon="9.903418">
        <ele>463.853222</ele>
        <time>2025-05-03T07:50:09.004Z</time>
      </trkpt>
      <trkpt lat="48.939660" lon="9.903330">
        <ele>466.551459</ele>
        <time>2025-05-03T07:50:28.615Z</time>
      </trkpt>
      <trkpt lat="48.939419" lon="9.903225">
        <ele>467.209047</ele>
        <time>2025-05-03T07:50:34.276Z</time>
      </trkpt>
      <trkpt lat="48.939270" lon="9.903115">
        <ele>467.371552</ele>
        <time>2025-05-03T07:50:38.008Z</time>
      </trkpt>
      <trkpt lat="48.939024" lon="9.902808">
        <ele>467.683706</ele>
        <time>2025-05-03T07:50:45.264Z</time>
      </trkpt>
      <trkpt lat="48.938515" lon="9.902175">
        <ele>468.328683</ele>
        <time>2025-05-03T07:51:00.239Z</time>
      </trkpt>
      <trkpt lat="48.938066" lon="9.901553">
        <ele>468.883967</ele>
        <time>2025-05-03T07:51:13.765Z</time>
      </trkpt>
      <trkpt lat="48.937948" lon="9.901443">
        <ele>468.673373</ele>
        <time>2025-05-03T07:51:16.667Z</time>
      </trkpt>
      <trkpt lat="48.937798" lon="9.901357">
        <ele>468.429417</ele>
        <time>2025-05-03T07:51:19.934Z</time>
      </trkpt>
      <trkpt lat="48.937534" lon="9.901302">
        <ele>468.023861</ele>
        <time>2025-05-03T07:51:25.131Z</time>
      </trkpt>
      <trkpt lat="48.937279" lon="9.901387">
        <ele>467.626553</ele>
        <time>2025-05-03T07:51:29.916Z</time>
      </trkpt>
      <trkpt lat="48.936374" lon="9.901893">
        <ele>466.163093</ele>
        <time>2025-05-03T07:51:46.342Z</time>
      </trkpt>
      <trkpt lat="48.935727" lon="9.902210">
        <ele>465.471600</ele>
        <time>2025-05-03T07:51:57.755Z</time>
      </trkpt>
      <trkpt lat="48.935347" lon="9.902324">
        <ele>465.077562</ele>
        <time>2025-05-03T07:52:04.750Z</time>
      </trkpt>
      <trkpt lat="48.935011" lon="9.902377">
        <ele>464.733895</ele>
        <time>2025-05-03T07:52:11.654Z</time>
      </trkpt>
      <trkpt lat="48.934786" lon="9.902377">
        <ele>464.504986</ele>
        <time>2025-05-03T07:52:16.643Z</time>
      </trkpt>
      <trkpt lat="48.934409" lon="9.902361">
        <ele>464.936910</ele>
        <time>2025-05-03T07:52:25.304Z</time>
      </trkpt>
      <trkpt lat="48.934049" lon="9.902301">
        <ele>465.935482</ele>
        <time>2025-05-03T07:52:33.879Z</time>
      </trkpt>
      <trkpt lat="48.933804" lon="9.902249">
        <ele>466.617564</ele>
        <time>2025-05-03T07:52:39.902Z</time>
      </trkpt>
      <trkpt lat="48.933226" lon="9.902069">
        <ele>468.244313</ele>
        <time>2025-05-03T07:52:54.602Z</time>
      </trkpt>
      <trkpt lat="48.932832" lon="9.902015">
        <ele>469.308323</ele>
        <time>2025-05-03T07:53:04.474Z</time>
      </trkpt>
      <trkpt lat="48.932569" lon="9.902040">
        <ele>469.471355</ele>
        <time>2025-05-03T07:53:10.908Z</time>
      </trkpt>
      <trkpt lat="48.931990" lon="9.902229">
        <ele>469.837720</ele>
        <time>2025-05-03T07:53:24.946Z</time>
      </trkpt>
      <trkpt lat="48.931660" lon="9.902497">
        <ele>470.069129</ele>
        <time>2025-05-03T07:53:33.251Z</time>
      </trkpt>
      <trkpt lat="48.931260" lon="9.902947">
        <ele>470.376859</ele>
        <time>2025-05-03T07:53:42.412Z</time>
      </trkpt>
      <trkpt lat="48.930858" lon="9.903659">
        <ele>467.786679</ele>
        <time>2025-05-03T07:53:52.060Z</time>
      </trkpt>
      <trkpt lat="48.930650" lon="9.904051">
        <ele>466.227644</ele>
        <time>2025-05-03T07:53:56.901Z</time>
      </trkpt>
      <trkpt lat="48.930298" lon="9.904382">
        <ele>464.279064</ele>
        <time>2025-05-03T07:54:02.894Z</time>
      </trkpt>
      <trkpt lat="48.930093" lon="9.904532">
        <ele>463.207854</ele>
        <time>2025-05-03T07:54:06.247Z</time>
      </trkpt>
      <trkpt lat="48.929784" lon="9.904549">
        <ele>461.812231</ele>
        <time>2025-05-03T07:54:10.942Z</time>
      </trkpt>
      <trkpt lat="48.929265" lon="9.904130">
        <ele>459.922952</ele>
        <time>2025-05-03T07:54:20.403Z</time>
      </trkpt>
      <trkpt lat="48.928737" lon="9.903749">
        <ele>458.043818</ele>
        <time>2025-05-03T07:54:30.352Z</time>
      </trkpt>
      <trkpt lat="48.928520" lon="9.903529">
        <ele>457.205339</ele>
        <time>2025-05-03T07:54:34.888Z</time>
      </trkpt>
      <trkpt lat="48.928253" lon="9.902889">
        <ele>455.570522</ele>
        <time>2025-05-03T07:54:43.209Z</time>
      </trkpt>
      <trkpt lat="48.927590" lon="9.901094">
        <ele>450.960783</ele>
        <time>2025-05-03T07:55:04.500Z</time>
      </trkpt>
      <trkpt lat="48.927309" lon="9.900460">
        <ele>449.530568</ele>
        <time>2025-05-03T07:55:12.837Z</time>
      </trkpt>
      <trkpt lat="48.926791" lon="9.899495">
        <ele>447.747270</ele>
        <time>2025-05-03T07:55:27.426Z</time>
      </trkpt>
      <trkpt lat="48.926071" lon="9.898232">
        <ele>444.807815</ele>
        <time>2025-05-03T07:55:46.981Z</time>
      </trkpt>
      <trkpt lat="48.925932" lon="9.898078">
        <ele>444.163361</ele>
        <time>2025-05-03T07:55:49.789Z</time>
      </trkpt>
      <trkpt lat="48.925792" lon="9.898020">
        <ele>443.619491</ele>
        <time>2025-05-03T07:55:52.131Z</time>
      </trkpt>
      <trkpt lat="48.925590" lon="9.898021">
        <ele>442.862309</ele>
        <time>2025-05-03T07:55:55.348Z</time>
      </trkpt>
      <trkpt lat="48.925301" lon="9.898121">
        <ele>441.751377</ele>
        <time>2025-05-03T07:56:00.199Z</time>
      </trkpt>
      <trkpt lat="48.925136" lon="9.898398">
        <ele>440.830539</ele>
        <time>2025-05-03T07:56:04.145Z</time>
      </trkpt>
      <trkpt lat="48.925073" lon="9.898718">
        <ele>440.007802</ele>
        <time>2025-05-03T07:56:07.639Z</time>
      </trkpt>
      <trkpt lat="48.925007" lon="9.900088">
        <ele>435.463683</ele>
        <time>2025-05-03T07:56:21.771Z</time>
      </trkpt>
      <trkpt lat="48.924979" lon="9.901360">
        <ele>431.003785</ele>
        <time>2025-05-03T07:56:34.967Z</time>
      </trkpt>
      <trkpt lat="48.924897" lon="9.901613">
        <ele>430.015213</ele>
        <time>2025-05-03T07:56:37.867Z</time>
      </trkpt>
      <trkpt lat="48.924770" lon="9.901744">
        <ele>429.039859</ele>
        <time>2025-05-03T07:56:40.252Z</time>
      </trkpt>
      <trkpt lat="48.924621" lon="9.901784">
        <ele>428.014529</ele>
        <time>2025-05-03T07:56:42.585Z</time>
      </trkpt>
      <trkpt lat="48.924504" lon="9.901731">
        <ele>427.187268</ele>
        <time>2025-05-03T07:56:44.455Z</time>
      </trkpt>
      <trkpt lat="48.924301" lon="9.901607">
        <ele>425.704914</ele>
        <time>2025-05-03T07:56:47.785Z</time>
      </trkpt>
      <trkpt lat="48.923964" lon="9.901143">
        <ele>422.625253</ele>
        <time>2025-05-03T07:56:54.629Z</time>
      </trkpt>
      <trkpt lat="48.923885" lon="9.900996">
        <ele>421.779640</ele>
        <time>2025-05-03T07:56:56.484Z</time>
      </trkpt>
      <trkpt lat="48.922952" lon="9.899765">
        <ele>413.018824</ele>
        <time>2025-05-03T07:57:14.784Z</time>
      </trkpt>
      <trkpt lat="48.921548" lon="9.898245">
        <ele>399.279281</ele>
        <time>2025-05-03T07:57:40.489Z</time>
      </trkpt>
      <trkpt lat="48.921278" lon="9.898111">
        <ele>396.666908</ele>
        <time>2025-05-03T07:57:44.580Z</time>
      </trkpt>
      <trkpt lat="48.920470" lon="9.898593">
        <ele>388.683770</ele>
        <time>2025-05-03T07:57:56.914Z</time>
      </trkpt>
      <trkpt lat="48.920308" lon="9.898624">
        <ele>387.133355</ele>
        <time>2025-05-03T07:57:59.229Z</time>
      </trkpt>
      <trkpt lat="48.920153" lon="9.898549">
        <ele>385.499292</ele>
        <time>2025-05-03T07:58:01.517Z</time>
      </trkpt>
      <trkpt lat="48.920076" lon="9.898448">
        <ele>384.477992</ele>
        <time>2025-05-03T07:58:02.960Z</time>
      </trkpt>
      <trkpt lat="48.919557" lon="9.896737">
        <ele>372.036821</ele>
        <time>2025-05-03T07:58:20.493Z</time>
      </trkpt>
      <trkpt lat="48.919362" lon="9.896136">
        <ele>368.373024</ele>
        <time>2025-05-03T07:58:26.875Z</time>
      </trkpt>
      <trkpt lat="48.919276" lon="9.895966">
        <ele>367.488934</ele>
        <time>2025-05-03T07:58:28.938Z</time>
      </trkpt>
      <trkpt lat="48.919077" lon="9.895772">
        <ele>366.006888</ele>
        <time>2025-05-03T07:58:32.439Z</time>
      </trkpt>
      <trkpt lat="48.918022" lon="9.895346">
        <ele>359.161990</ele>
        <time>2025-05-03T07:58:49.369Z</time>
      </trkpt>
      <trkpt lat="48.917929" lon="9.895251">
        <ele>358.459569</ele>
        <time>2025-05-03T07:58:51.218Z</time>
      </trkpt>
      <trkpt lat="48.917837" lon="9.895128">
        <ele>358.356815</ele>
        <time>2025-05-03T07:58:53.248Z</time>
      </trkpt>
      <trkpt lat="48.917769" lon="9.894973">
        <ele>358.355424</ele>
        <time>2025-05-03T07:58:55.339Z</time>
      </trkpt>
      <trkpt lat="48.917730" lon="9.894817">
        <ele>358.354179</ele>
        <time>2025-05-03T07:58:57.278Z</time>
      </trkpt>
      <trkpt lat="48.917704" lon="9.894478">
        <ele>358.351633</ele>
        <time>2025-05-03T07:59:01.382Z</time>
      </trkpt>
      <trkpt lat="48.917739" lon="9.894192">
        <ele>358.349462</ele>
        <time>2025-05-03T07:59:05.210Z</time>
      </trkpt>
      <trkpt lat="48.917842" lon="9.894020">
        <ele>358.347726</ele>
        <time>2025-05-03T07:59:08.266Z</time>
      </trkpt>
      <trkpt lat="48.918033" lon="9.893660">
        <ele>358.344275</ele>
        <time>2025-05-03T07:59:14.786Z</time>
      </trkpt>
      <trkpt lat="48.918362" lon="9.892950">
        <ele>358.337793</ele>
        <time>2025-05-03T07:59:28.407Z</time>
      </trkpt>
      <trkpt lat="48.918505" lon="9.892479">
        <ele>360.005510</ele>
        <time>2025-05-03T07:59:37.686Z</time>
      </trkpt>
      <trkpt lat="48.918579" lon="9.892149">
        <ele>361.184863</ele>
        <time>2025-05-03T07:59:44.550Z</time>
      </trkpt>
      <trkpt lat="48.918626" lon="9.891760">
        <ele>362.522626</ele>
        <time>2025-05-03T07:59:52.637Z</time>
      </trkpt>
      <trkpt lat="48.918670" lon="9.891676">
        <ele>362.885956</ele>
        <time>2025-05-03T07:59:54.797Z</time>
      </trkpt>
      <trkpt lat="48.918331" lon="9.891588">
        <ele>364.656010</ele>
        <time>2025-05-03T08:00:04.861Z</time>
      </trkpt>
      <trkpt lat="48.918220" lon="9.891563">
        <ele>365.233556</ele>
        <time>2025-05-03T08:00:08.002Z</time>
      </trkpt>
      <trkpt lat="48.918100" lon="9.891498">
        <ele>365.889164</ele>
        <time>2025-05-03T08:00:11.563Z</time>
      </trkpt>
      <trkpt lat="48.918086" lon="9.891433">
        <ele>366.120522</ele>
        <time>2025-05-03T08:00:12.741Z</time>
      </trkpt>
      <trkpt lat="48.917971" lon="9.890862">
        <ele>367.653016</ele>
        <time>2025-05-03T08:00:22.814Z</time>
      </trkpt>
      <trkpt lat="48.917964" lon="9.890832">
        <ele>367.664414</ele>
        <time>2025-05-03T08:00:23.343Z</time>
      </trkpt>
      <trkpt lat="48.917668" lon="9.889502">
        <ele>368.167130</ele>
        <time>2025-05-03T08:00:43.643Z</time>
      </trkpt>
      <trkpt lat="48.917335" lon="9.888734">
        <ele>368.496540</ele>
        <time>2025-05-03T08:00:54.956Z</time>
      </trkpt>
      <trkpt lat="48.917034" lon="9.887928">
        <ele>369.600130</ele>
        <time>2025-05-03T08:01:06.647Z</time>
      </trkpt>
      <trkpt lat="48.916827" lon="9.887506">
        <ele>370.363176</ele>
        <time>2025-05-03T08:01:14.456Z</time>
      </trkpt>
      <trkpt lat="48.916667" lon="9.887345">
        <ele>370.786130</ele>
        <time>2025-05-03T08:01:19.082Z</time>
      </trkpt>
      <trkpt lat="48.916531" lon="9.887245">
        <ele>371.119181</ele>
        <time>2025-05-03T08:01:22.853Z</time>
      </trkpt>
      <trkpt lat="48.916392" lon="9.887203">
        <ele>371.431658</ele>
        <time>2025-05-03T08:01:26.439Z</time>
      </trkpt>
      <trkpt lat="48.916175" lon="9.887216">
        <ele>371.910509</ele>
        <time>2025-05-03T08:01:32.029Z</time>
      </trkpt>
      <trkpt lat="48.915726" lon="9.887412">
        <ele>373.754743</ele>
        <time>2025-05-03T08:01:44.381Z</time>
      </trkpt>
      <trkpt lat="48.915336" lon="9.887630">
        <ele>376.539077</ele>
        <time>2025-05-03T08:01:56.148Z</time>
      </trkpt>
      <trkpt lat="48.914664" lon="9.888078">
        <ele>381.455713</ele>
        <time>2025-05-03T08:02:18.678Z</time>
      </trkpt>
      <trkpt lat="48.914219" lon="9.888438">
        <ele>384.888858</ele>
        <time>2025-05-03T08:02:34.060Z</time>
      </trkpt>
      <trkpt lat="48.913191" lon="9.889671">
        <ele>395.711157</ele>
        <time>2025-05-03T08:03:16.286Z</time>
      </trkpt>
      <trkpt lat="48.912991" lon="9.889911">
        <ele>397.817065</ele>
        <time>2025-05-03T08:03:24.900Z</time>
      </trkpt>
      <trkpt lat="48.912064" lon="9.891152">
        <ele>408.364818</ele>
        <time>2025-05-03T08:04:06.995Z</time>
      </trkpt>
      <trkpt lat="48.912002" lon="9.891103">
        <ele>408.965345</ele>
        <time>2025-05-03T08:04:09.370Z</time>
      </trkpt>
      <trkpt lat="48.911931" lon="9.891136">
        <ele>409.603469</ele>
        <time>2025-05-03T08:04:11.845Z</time>
      </trkpt>
      <trkpt lat="48.911898" lon="9.891226">
        <ele>410.185667</ele>
        <time>2025-05-03T08:04:14.168Z</time>
      </trkpt>
      <trkpt lat="48.911919" lon="9.891341">
        <ele>410.859933</ele>
        <time>2025-05-03T08:04:16.800Z</time>
      </trkpt>
      <trkpt lat="48.911720" lon="9.891572">
        <ele>413.011396</ele>
        <time>2025-05-03T08:04:24.989Z</time>
      </trkpt>
      <trkpt lat="48.910968" lon="9.892155">
        <ele>419.538242</ele>
        <time>2025-05-03T08:04:50.712Z</time>
      </trkpt>
      <trkpt lat="48.910738" lon="9.892311">
        <ele>421.407785</ele>
        <time>2025-05-03T08:04:58.058Z</time>
      </trkpt>
      <trkpt lat="48.909834" lon="9.892350">
        <ele>428.121959</ele>
        <time>2025-05-03T08:05:25.352Z</time>
      </trkpt>
      <trkpt lat="48.909532" lon="9.892174">
        <ele>430.697197</ele>
        <time>2025-05-03T08:05:36.162Z</time>
      </trkpt>
      <trkpt lat="48.909301" lon="9.891974">
        <ele>432.823702</ele>
        <time>2025-05-03T08:05:45.505Z</time>
      </trkpt>
      <trkpt lat="48.909096" lon="9.891729">
        <ele>434.909396</ele>
        <time>2025-05-03T08:05:54.834Z</time>
      </trkpt>
      <trkpt lat="48.908885" lon="9.891336">
        <ele>437.577931</ele>
        <time>2025-05-03T08:06:06.575Z</time>
      </trkpt>
      <trkpt lat="48.908872" lon="9.891286">
        <ele>437.860690</ele>
        <time>2025-05-03T08:06:07.832Z</time>
      </trkpt>
      <trkpt lat="48.908697" lon="9.890553">
        <ele>441.961732</ele>
        <time>2025-05-03T08:06:22.897Z</time>
      </trkpt>
      <trkpt lat="48.908616" lon="9.890199">
        <ele>443.737291</ele>
        <time>2025-05-03T08:06:29.523Z</time>
      </trkpt>
      <trkpt lat="48.908510" lon="9.889673">
        <ele>446.182281</ele>
        <time>2025-05-03T08:06:39.272Z</time>
      </trkpt>
      <trkpt lat="48.908435" lon="9.889408">
        <ele>447.464504</ele>
        <time>2025-05-03T08:06:44.273Z</time>
      </trkpt>
      <trkpt lat="48.908341" lon="9.889228">
        <ele>448.486198</ele>
        <time>2025-05-03T08:06:48.361Z</time>
      </trkpt>
      <trkpt lat="48.908214" lon="9.889090">
        <ele>449.541424</ele>
        <time>2025-05-03T08:06:52.669Z</time>
      </trkpt>
      <trkpt lat="48.908145" lon="9.889022">
        <ele>450.097289</ele>
        <time>2025-05-03T08:06:55.011Z</time>
      </trkpt>
      <trkpt lat="48.907492" lon="9.888435">
        <ele>455.375413</ele>
        <time>2025-05-03T08:07:19.011Z</time>
      </trkpt>
      <trkpt lat="48.907340" lon="9.888381">
        <ele>456.832138</ele>
        <time>2025-05-03T08:07:24.665Z</time>
      </trkpt>
      <trkpt lat="48.907276" lon="9.888415">
        <ele>457.464794</ele>
        <time>2025-05-03T08:07:27.256Z</time>
      </trkpt>
      <trkpt lat="48.907224" lon="9.888490">
        <ele>458.133504</ele>
        <time>2025-05-03T08:07:29.998Z</time>
      </trkpt>
      <trkpt lat="48.907198" lon="9.888604">
        <ele>458.873702</ele>
        <time>2025-05-03T08:07:33.187Z</time>
      </trkpt>
      <trkpt lat="48.907239" lon="9.888881">
        <ele>460.615419</ele>
        <time>2025-05-03T08:07:40.459Z</time>
      </trkpt>
      <trkpt lat="48.907592" lon="9.889963">
        <ele>468.025211</ele>
        <time>2025-05-03T08:08:09.626Z</time>
      </trkpt>
      <trkpt lat="48.907614" lon="9.890111">
        <ele>468.955990</ele>
        <time>2025-05-03T08:08:12.983Z</time>
      </trkpt>
      <trkpt lat="48.907665" lon="9.891574">
        <ele>475.844660</ele>
        <time>2025-05-03T08:08:41.736Z</time>
      </trkpt>
      <trkpt lat="48.907654" lon="9.893237">
        <ele>482.662092</ele>
        <time>2025-05-03T08:09:12.338Z</time>
      </trkpt>
      <trkpt lat="48.907536" lon="9.894616">
        <ele>485.753345</ele>
        <time>2025-05-03T08:09:36.107Z</time>
      </trkpt>
      <trkpt lat="48.907410" lon="9.895224">
        <ele>487.132917</ele>
        <time>2025-05-03T08:09:46.162Z</time>
      </trkpt>
      <trkpt lat="48.907260" lon="9.895700">
        <ele>488.275262</ele>
        <time>2025-05-03T08:09:54.231Z</time>
      </trkpt>
      <trkpt lat="48.907090" lon="9.896015">
        <ele>488.847990</ele>
        <time>2025-05-03T08:10:00.297Z</time>
      </trkpt>
      <trkpt lat="48.906900" lon="9.896206">
        <ele>489.017825</ele>
        <time>2025-05-03T08:10:05.313Z</time>
      </trkpt>
      <trkpt lat="48.906709" lon="9.896229">
        <ele>489.160714</ele>
        <time>2025-05-03T08:10:09.469Z</time>
      </trkpt>
      <trkpt lat="48.906553" lon="9.896105">
        <ele>489.291977</ele>
        <time>2025-05-03T08:10:13.285Z</time>
      </trkpt>
      <trkpt lat="48.904390" lon="9.893432">
        <ele>490.673462</ele>
        <time>2025-05-03T08:11:14.907Z</time>
      </trkpt>
      <trkpt lat="48.903247" lon="9.891438">
        <ele>489.664200</ele>
        <time>2025-05-03T08:11:47.088Z</time>
      </trkpt>
      <trkpt lat="48.902287" lon="9.890026">
        <ele>491.719252</ele>
        <time>2025-05-03T08:12:18.086Z</time>
      </trkpt>
      <trkpt lat="48.902007" lon="9.889675">
        <ele>492.379886</ele>
        <time>2025-05-03T08:12:26.912Z</time>
      </trkpt>
      <trkpt lat="48.901602" lon="9.889229">
        <ele>493.336414</ele>
        <time>2025-05-03T08:12:38.848Z</time>
      </trkpt>
      <trkpt lat="48.900854" lon="9.888493">
        <ele>495.125532</ele>
        <time>2025-05-03T08:12:59.557Z</time>
      </trkpt>
      <trkpt lat="48.900312" lon="9.888138">
        <ele>496.310678</ele>
        <time>2025-05-03T08:13:13.099Z</time>
      </trkpt>
      <trkpt lat="48.899727" lon="9.887878">
        <ele>497.699433</ele>
        <time>2025-05-03T08:13:27.551Z</time>
      </trkpt>
      <trkpt lat="48.899380" lon="9.887819">
        <ele>498.507628</ele>
        <time>2025-05-03T08:13:35.928Z</time>
      </trkpt>
      <trkpt lat="48.899233" lon="9.887836">
        <ele>498.848867</ele>
        <time>2025-05-03T08:13:39.463Z</time>
      </trkpt>
      <trkpt lat="48.899029" lon="9.887951">
        <ele>499.352442</ele>
        <time>2025-05-03T08:13:44.681Z</time>
      </trkpt>
      <trkpt lat="48.898151" lon="9.889289">
        <ele>501.970805</ele>
        <time>2025-05-03T08:14:13.779Z</time>
      </trkpt>
      <trkpt lat="48.896030" lon="9.892657">
        <ele>507.119675</ele>
        <time>2025-05-03T08:15:25.052Z</time>
      </trkpt>
      <trkpt lat="48.895788" lon="9.892993">
        <ele>507.002818</ele>
        <time>2025-05-03T08:15:32.268Z</time>
      </trkpt>
      <trkpt lat="48.895592" lon="9.893191">
        <ele>506.918903</ele>
        <time>2025-05-03T08:15:37.266Z</time>
      </trkpt>
      <trkpt lat="48.894474" lon="9.894039">
        <ele>506.337985</ele>
        <time>2025-05-03T08:16:01.010Z</time>
      </trkpt>
      <trkpt lat="48.894276" lon="9.894171">
        <ele>506.097022</ele>
        <time>2025-05-03T08:16:04.827Z</time>
      </trkpt>
      <trkpt lat="48.894112" lon="9.894235">
        <ele>505.908303</ele>
        <time>2025-05-03T08:16:07.863Z</time>
      </trkpt>
      <trkpt lat="48.893413" lon="9.894341">
        <ele>505.125317</ele>
        <time>2025-05-03T08:16:20.977Z</time>
      </trkpt>
      <trkpt lat="48.891101" lon="9.894598">
        <ele>503.656121</ele>
        <time>2025-05-03T08:17:08.107Z</time>
      </trkpt>
      <trkpt lat="48.889601" lon="9.889063">
        <ele>499.819431</ele>
        <time>2025-05-03T08:18:24.218Z</time>
      </trkpt>
      <trkpt lat="48.887813" lon="9.882513">
        <ele>495.997559</ele>
        <time>2025-05-03T08:19:54.830Z</time>
      </trkpt>
      <trkpt lat="48.887662" lon="9.882053">
        <ele>495.840700</ele>
        <time>2025-05-03T08:20:02.206Z</time>
      </trkpt>
      <trkpt lat="48.887610" lon="9.881929">
        <ele>495.847053</ele>
        <time>2025-05-03T08:20:04.371Z</time>
      </trkpt>
      <trkpt lat="48.887559" lon="9.881983">
        <ele>495.930140</ele>
        <time>2025-05-03T08:20:05.833Z</time>
      </trkpt>
      <trkpt lat="48.887192" lon="9.882719">
        <ele>496.742212</ele>
        <time>2025-05-03T08:20:20.157Z</time>
      </trkpt>
      <trkpt lat="48.886892" lon="9.883061">
        <ele>497.243503</ele>
        <time>2025-05-03T08:20:29.092Z</time>
      </trkpt>
      <trkpt lat="48.886810" lon="9.883191">
        <ele>497.401878</ele>
        <time>2025-05-03T08:20:31.936Z</time>
      </trkpt>
      <trkpt lat="48.886676" lon="9.883517">
        <ele>497.739877</ele>
        <time>2025-05-03T08:20:38.005Z</time>
      </trkpt>
      <trkpt lat="48.885816" lon="9.882772">
        <ele>498.921471</ele>
        <time>2025-05-03T08:21:01.123Z</time>
      </trkpt>
      <trkpt lat="48.885308" lon="9.882187">
        <ele>499.631283</ele>
        <time>2025-05-03T08:21:15.889Z</time>
      </trkpt>
      <trkpt lat="48.885126" lon="9.882445">
        <ele>499.908440</ele>
        <time>2025-05-03T08:21:21.516Z</time>
      </trkpt>
      <trkpt lat="48.884970" lon="9.882734">
        <ele>500.182319</ele>
        <time>2025-05-03T08:21:27.082Z</time>
      </trkpt>
      <trkpt lat="48.884648" lon="9.883440">
        <ele>500.748667</ele>
        <time>2025-05-03T08:21:39.974Z</time>
      </trkpt>
      <trkpt lat="48.884565" lon="9.883655">
        <ele>500.911924</ele>
        <time>2025-05-03T08:21:43.739Z</time>
      </trkpt>
      <trkpt lat="48.884352" lon="9.884205">
        <ele>501.329899</ele>
        <time>2025-05-03T08:21:53.279Z</time>
      </trkpt>
      <trkpt lat="48.884212" lon="9.884633">
        <ele>501.642928</ele>
        <time>2025-05-03T08:22:00.289Z</time>
      </trkpt>
      <trkpt lat="48.884169" lon="9.884635">
        <ele>501.685768</ele>
        <time>2025-05-03T08:22:01.260Z</time>
      </trkpt>
      <trkpt lat="48.883978" lon="9.885447">
        <ele>502.040201</ele>
        <time>2025-05-03T08:22:13.698Z</time>
      </trkpt>
      <trkpt lat="48.883936" lon="9.886014">
        <ele>502.089067</ele>
        <time>2025-05-03T08:22:21.781Z</time>
      </trkpt>
      <trkpt lat="48.883950" lon="9.886852">
        <ele>502.160859</ele>
        <time>2025-05-03T08:22:33.523Z</time>
      </trkpt>
      <trkpt lat="48.884049" lon="9.888053">
        <ele>502.082168</ele>
        <time>2025-05-03T08:22:50.146Z</time>
      </trkpt>
      <trkpt lat="48.884074" lon="9.888541">
        <ele>501.771963</ele>
        <time>2025-05-03T08:22:56.651Z</time>
      </trkpt>
      <trkpt lat="48.884071" lon="9.889083">
        <ele>501.428461</ele>
        <time>2025-05-03T08:23:03.697Z</time>
      </trkpt>
      <trkpt lat="48.884070" lon="9.889288">
        <ele>501.298540</ele>
        <time>2025-05-03T08:23:06.310Z</time>
      </trkpt>
      <trkpt lat="48.883911" lon="9.890464">
        <ele>500.537665</ele>
        <time>2025-05-03T08:23:21.133Z</time>
      </trkpt>
      <trkpt lat="48.883646" lon="9.891505">
        <ele>499.228918</ele>
        <time>2025-05-03T08:23:34.172Z</time>
      </trkpt>
      <trkpt lat="48.883015" lon="9.893750">
        <ele>496.933144</ele>
        <time>2025-05-03T08:24:02.532Z</time>
      </trkpt>
      <trkpt lat="48.882753" lon="9.894846">
        <ele>496.471351</ele>
        <time>2025-05-03T08:24:17.884Z</time>
      </trkpt>
      <trkpt lat="48.882671" lon="9.895091">
        <ele>496.362490</ele>
        <time>2025-05-03T08:24:21.797Z</time>
      </trkpt>
      <trkpt lat="48.882466" lon="9.895560">
        <ele>496.186180</ele>
        <time>2025-05-03T08:24:30.043Z</time>
      </trkpt>
      <trkpt lat="48.882007" lon="9.896567">
        <ele>496.918790</ele>
        <time>2025-05-03T08:24:48.136Z</time>
      </trkpt>
      <trkpt lat="48.881876" lon="9.896920">
        <ele>497.161149</ele>
        <time>2025-05-03T08:24:54.195Z</time>
      </trkpt>
      <trkpt lat="48.881685" lon="9.897593">
        <ele>497.599434</ele>
        <time>2025-05-03T08:25:05.111Z</time>
      </trkpt>
      <trkpt lat="48.881366" lon="9.899163">
        <ele>498.118804</ele>
        <time>2025-05-03T08:25:29.154Z</time>
      </trkpt>
      <trkpt lat="48.881326" lon="9.899297">
        <ele>498.155106</ele>
        <time>2025-05-03T08:25:31.290Z</time>
      </trkpt>
      <trkpt lat="48.881292" lon="9.899340">
        <ele>498.171696</ele>
        <time>2025-05-03T08:25:32.265Z</time>
      </trkpt>
      <trkpt lat="48.881094" lon="9.899372">
        <ele>498.246389</ele>
        <time>2025-05-03T08:25:36.590Z</time>
      </trkpt>
      <trkpt lat="48.881030" lon="9.899442">
        <ele>498.275963</ele>
        <time>2025-05-03T08:25:38.285Z</time>
      </trkpt>
      <trkpt lat="48.881022" lon="9.899485">
        <ele>498.286987</ele>
        <time>2025-05-03T08:25:38.916Z</time>
      </trkpt>
      <trkpt lat="48.881175" lon="9.900090">
        <ele>498.446891</ele>
        <time>2025-05-03T08:25:47.773Z</time>
      </trkpt>
      <trkpt lat="48.880917" lon="9.901544">
        <ele>497.871032</ele>
        <time>2025-05-03T08:26:07.478Z</time>
      </trkpt>
      <trkpt lat="48.880352" lon="9.905303">
        <ele>495.817563</ele>
        <time>2025-05-03T08:26:57.470Z</time>
      </trkpt>
      <trkpt lat="48.879993" lon="9.906549">
        <ele>494.316761</ele>
        <time>2025-05-03T08:27:14.186Z</time>
      </trkpt>
      <trkpt lat="48.879731" lon="9.906378">
        <ele>493.801334</ele>
        <time>2025-05-03T08:27:19.494Z</time>
      </trkpt>
      <trkpt lat="48.879617" lon="9.906351">
        <ele>493.592761</ele>
        <time>2025-05-03T08:27:21.615Z</time>
      </trkpt>
      <trkpt lat="48.877650" lon="9.906615">
        <ele>489.274401</ele>
        <time>2025-05-03T08:27:56.986Z</time>
      </trkpt>
      <trkpt lat="48.877106" lon="9.907600">
        <ele>487.378909</ele>
        <time>2025-05-03T08:28:12.326Z</time>
      </trkpt>
      <trkpt lat="48.876961" lon="9.907786">
        <ele>486.981369</ele>
        <time>2025-05-03T08:28:15.792Z</time>
      </trkpt>
      <trkpt lat="48.876796" lon="9.907924">
        <ele>486.586749</ele>
        <time>2025-05-03T08:28:19.256Z</time>
      </trkpt>
      <trkpt lat="48.875771" lon="9.908523">
        <ele>484.302874</ele>
        <time>2025-05-03T08:28:39.442Z</time>
      </trkpt>
      <trkpt lat="48.875620" lon="9.908671">
        <ele>483.972022</ele>
        <time>2025-05-03T08:28:42.747Z</time>
      </trkpt>
      <trkpt lat="48.875382" lon="9.908960">
        <ele>483.411098</ele>
        <time>2025-05-03T08:28:48.360Z</time>
      </trkpt>
      <trkpt lat="48.875159" lon="9.909323">
        <ele>482.809461</ele>
        <time>2025-05-03T08:28:54.392Z</time>
      </trkpt>
      <trkpt lat="48.875011" lon="9.909633">
        <ele>482.345487</ele>
        <time>2025-05-03T08:28:59.042Z</time>
      </trkpt>
      <trkpt lat="48.874677" lon="9.910058">
        <ele>481.543408</ele>
        <time>2025-05-03T08:29:07.088Z</time>
      </trkpt>
      <trkpt lat="48.874553" lon="9.910153">
        <ele>481.287698</ele>
        <time>2025-05-03T08:29:09.698Z</time>
      </trkpt>
      <trkpt lat="48.874301" lon="9.910259">
        <ele>481.038507</ele>
        <time>2025-05-03T08:29:14.715Z</time>
      </trkpt>
      <trkpt lat="48.873884" lon="9.910368">
        <ele>480.844550</ele>
        <time>2025-05-03T08:29:23.276Z</time>
      </trkpt>
      <trkpt lat="48.873852" lon="9.910568">
        <ele>480.782492</ele>
        <time>2025-05-03T08:29:26.115Z</time>
      </trkpt>
      <trkpt lat="48.873839" lon="9.910904">
        <ele>480.681014</ele>
        <time>2025-05-03T08:29:30.914Z</time>
      </trkpt>
      <trkpt lat="48.873889" lon="9.911205">
        <ele>480.587413</ele>
        <time>2025-05-03T08:29:35.456Z</time>
      </trkpt>
      <trkpt lat="48.873942" lon="9.911457">
        <ele>480.507646</ele>
        <time>2025-05-03T08:29:39.376Z</time>
      </trkpt>
      <trkpt lat="48.874013" lon="9.911990">
        <ele>480.343686</ele>
        <time>2025-05-03T08:29:47.501Z</time>
      </trkpt>
      <trkpt lat="48.874021" lon="9.912107">
        <ele>480.308220</ele>
        <time>2025-05-03T08:29:49.224Z</time>
      </trkpt>
      <trkpt lat="48.874031" lon="9.912551">
        <ele>480.190316</ele>
        <time>2025-05-03T08:29:55.619Z</time>
      </trkpt>
      <trkpt lat="48.874029" lon="9.912827">
        <ele>480.118532</ele>
        <time>2025-05-03T08:29:59.456Z</time>
      </trkpt>
      <trkpt lat="48.874077" lon="9.913465">
        <ele>479.951526</ele>
        <time>2025-05-03T08:30:08.058Z</time>
      </trkpt>
      <trkpt lat="48.873645" lon="9.913707">
        <ele>479.769481</ele>
        <time>2025-05-03T08:30:17.143Z</time>
      </trkpt>
      <trkpt lat="48.873514" lon="9.913847">
        <ele>479.706166</ele>
        <time>2025-05-03T08:30:20.325Z</time>
      </trkpt>
      <trkpt lat="48.873347" lon="9.914097">
        <ele>479.613495</ele>
        <time>2025-05-03T08:30:24.989Z</time>
      </trkpt>
      <trkpt lat="48.873174" lon="9.914499">
        <ele>479.939966</ele>
        <time>2025-05-03T08:30:31.569Z</time>
      </trkpt>
      <trkpt lat="48.873036" lon="9.915142">
        <ele>480.634340</ele>
        <time>2025-05-03T08:30:41.597Z</time>
      </trkpt>
      <trkpt lat="48.873022" lon="9.915202">
        <ele>480.699699</ele>
        <time>2025-05-03T08:30:42.562Z</time>
      </trkpt>
      <trkpt lat="48.872901" lon="9.915688">
        <ele>481.233189</ele>
        <time>2025-05-03T08:30:50.596Z</time>
      </trkpt>
      <trkpt lat="48.872989" lon="9.916119">
        <ele>481.696495</ele>
        <time>2025-05-03T08:30:57.671Z</time>
      </trkpt>
      <trkpt lat="48.873054" lon="9.916360">
        <ele>481.963906</ele>
        <time>2025-05-03T08:31:01.752Z</time>
      </trkpt>
      <trkpt lat="48.873066" lon="9.916516">
        <ele>482.125152</ele>
        <time>2025-05-03T08:31:04.202Z</time>
      </trkpt>
      <trkpt lat="48.873027" lon="9.916697">
        <ele>482.320688</ele>
        <time>2025-05-03T08:31:07.164Z</time>
      </trkpt>
      <trkpt lat="48.873286" lon="9.917262">
        <ele>483.703479</ele>
        <time>2025-05-03T08:31:17.880Z</time>
      </trkpt>
      <trkpt lat="48.873374" lon="9.917554">
        <ele>484.381137</ele>
        <time>2025-05-03T08:31:22.916Z</time>
      </trkpt>
      <trkpt lat="48.873409" lon="9.917730">
        <ele>484.769066</ele>
        <time>2025-05-03T08:31:25.796Z</time>
      </trkpt>
      <trkpt lat="48.873420" lon="9.918079">
        <ele>485.506235</ele>
        <time>2025-05-03T08:31:31.345Z</time>
      </trkpt>
      <trkpt lat="48.873394" lon="9.918461">
        <ele>486.316487</ele>
        <time>2025-05-03T08:31:37.504Z</time>
      </trkpt>
      <trkpt lat="48.873359" lon="9.918685">
        <ele>486.802238</ele>
        <time>2025-05-03T08:31:41.263Z</time>
      </trkpt>
      <trkpt lat="48.873269" lon="9.919028">
        <ele>487.581366</ele>
        <time>2025-05-03T08:31:47.442Z</time>
      </trkpt>
      <trkpt lat="48.872894" lon="9.919990">
        <ele>489.809073</ele>
        <time>2025-05-03T08:32:06.781Z</time>
      </trkpt>
      <trkpt lat="48.872735" lon="9.920214">
        <ele>490.453097</ele>
        <time>2025-05-03T08:32:12.513Z</time>
      </trkpt>
      <trkpt lat="48.872509" lon="9.920444">
        <ele>491.261099</ele>
        <time>2025-05-03T08:32:19.457Z</time>
      </trkpt>
      <trkpt lat="48.871941" lon="9.921000">
        <ele>493.268181</ele>
        <time>2025-05-03T08:32:35.335Z</time>
      </trkpt>
      <trkpt lat="48.871529" lon="9.921433">
        <ele>492.427141</ele>
        <time>2025-05-03T08:32:45.285Z</time>
      </trkpt>
      <trkpt lat="48.871492" lon="9.921472">
        <ele>492.312770</ele>
        <time>2025-05-03T08:32:46.074Z</time>
      </trkpt>
      <trkpt lat="48.871449" lon="9.921516">
        <ele>492.181101</ele>
        <time>2025-05-03T08:32:46.971Z</time>
      </trkpt>
      <trkpt lat="48.871146" lon="9.921838">
        <ele>491.241994</ele>
        <time>2025-05-03T08:32:53.051Z</time>
      </trkpt>
      <trkpt lat="48.870135" lon="9.923038">
        <ele>488.184258</ele>
        <time>2025-05-03T08:33:13.041Z</time>
      </trkpt>
      <trkpt lat="48.869060" lon="9.924354">
        <ele>485.419869</ele>
        <time>2025-05-03T08:33:37.945Z</time>
      </trkpt>
      <trkpt lat="48.867596" lon="9.926202">
        <ele>485.253172</ele>
        <time>2025-05-03T08:34:19.326Z</time>
      </trkpt>
      <trkpt lat="48.866728" lon="9.927005">
        <ele>483.890569</ele>
        <time>2025-05-03T08:34:39.102Z</time>
      </trkpt>
      <trkpt lat="48.866051" lon="9.927469">
        <ele>482.884956</ele>
        <time>2025-05-03T08:34:51.812Z</time>
      </trkpt>
      <trkpt lat="48.865177" lon="9.927936">
        <ele>481.167972</ele>
        <time>2025-05-03T08:35:07.611Z</time>
      </trkpt>
      <trkpt lat="48.864608" lon="9.928195">
        <ele>480.067150</ele>
        <time>2025-05-03T08:35:18.428Z</time>
      </trkpt>
      <trkpt lat="48.863087" lon="9.928742">
        <ele>478.694158</ele>
        <time>2025-05-03T08:35:49.337Z</time>
      </trkpt>
      <trkpt lat="48.860756" lon="9.929659">
        <ele>477.328615</ele>
        <time>2025-05-03T08:36:38.566Z</time>
      </trkpt>
      <trkpt lat="48.859024" lon="9.930691">
        <ele>474.762363</ele>
        <time>2025-05-03T08:37:11.876Z</time>
      </trkpt>
      <trkpt lat="48.858848" lon="9.930793">
        <ele>474.577385</ele>
        <time>2025-05-03T08:37:15.670Z</time>
      </trkpt>
      <trkpt lat="48.858505" lon="9.931084">
        <ele>474.191622</ele>
        <time>2025-05-03T08:37:23.938Z</time>
      </trkpt>
      <trkpt lat="48.858260" lon="9.931352">
        <ele>473.895188</ele>
        <time>2025-05-03T08:37:30.283Z</time>
      </trkpt>
      <trkpt lat="48.857651" lon="9.932100">
        <ele>472.978107</ele>
        <time>2025-05-03T08:37:45.697Z</time>
      </trkpt>
      <trkpt lat="48.857181" lon="9.932587">
        <ele>470.472808</ele>
        <time>2025-05-03T08:37:55.065Z</time>
      </trkpt>
      <trkpt lat="48.856935" lon="9.932961">
        <ele>468.940345</ele>
        <time>2025-05-03T08:38:00.389Z</time>
      </trkpt>
      <trkpt lat="48.856755" lon="9.933350">
        <ele>467.562244</ele>
        <time>2025-05-03T08:38:04.994Z</time>
      </trkpt>
      <trkpt lat="48.856180" lon="9.935008">
        <ele>460.928200</ele>
        <time>2025-05-03T08:38:23.025Z</time>
      </trkpt>
      <trkpt lat="48.855871" lon="9.936123">
        <ele>456.068688</ele>
        <time>2025-05-03T08:38:34.741Z</time>
      </trkpt>
      <trkpt lat="48.855792" lon="9.936593">
        <ele>454.090292</ele>
        <time>2025-05-03T08:38:39.392Z</time>
      </trkpt>
      <trkpt lat="48.855767" lon="9.936900">
        <ele>452.593813</ele>
        <time>2025-05-03T08:38:42.337Z</time>
      </trkpt>
      <trkpt lat="48.855769" lon="9.937327">
        <ele>450.528099</ele>
        <time>2025-05-03T08:38:46.364Z</time>
      </trkpt>
      <trkpt lat="48.855832" lon="9.938375">
        <ele>445.437165</ele>
        <time>2025-05-03T08:38:56.172Z</time>
      </trkpt>
      <trkpt lat="48.855829" lon="9.938723">
        <ele>443.753532</ele>
        <time>2025-05-03T08:38:59.380Z</time>
      </trkpt>
      <trkpt lat="48.855707" lon="9.940021">
        <ele>437.324708</ele>
        <time>2025-05-03T08:39:11.487Z</time>
      </trkpt>
      <trkpt lat="48.855701" lon="9.940356">
        <ele>435.665182</ele>
        <time>2025-05-03T08:39:14.593Z</time>
      </trkpt>
      <trkpt lat="48.855695" lon="9.940644">
        <ele>434.238297</ele>
        <time>2025-05-03T08:39:17.263Z</time>
      </trkpt>
      <trkpt lat="48.855797" lon="9.941949">
        <ele>427.730535</ele>
        <time>2025-05-03T08:39:29.528Z</time>
      </trkpt>
      <trkpt lat="48.855868" lon="9.942346">
        <ele>425.843256</ele>
        <time>2025-05-03T08:39:33.436Z</time>
      </trkpt>
      <trkpt lat="48.855944" lon="9.942615">
        <ele>424.513552</ele>
        <time>2025-05-03T08:39:36.238Z</time>
      </trkpt>
      <trkpt lat="48.856056" lon="9.942879">
        <ele>423.086784</ele>
        <time>2025-05-03T08:39:39.267Z</time>
      </trkpt>
      <trkpt lat="48.856143" lon="9.943028">
        <ele>422.181949</ele>
        <time>2025-05-03T08:39:41.160Z</time>
      </trkpt>
      <trkpt lat="48.856403" lon="9.943332">
        <ele>419.917411</ele>
        <time>2025-05-03T08:39:45.864Z</time>
      </trkpt>
      <trkpt lat="48.856797" lon="9.943798">
        <ele>416.470978</ele>
        <time>2025-05-03T08:39:53.011Z</time>
      </trkpt>
      <trkpt lat="48.856892" lon="9.944029">
        <ele>415.233671</ele>
        <time>2025-05-03T08:39:55.566Z</time>
      </trkpt>
      <trkpt lat="48.856882" lon="9.944271">
        <ele>414.106657</ele>
        <time>2025-05-03T08:39:57.845Z</time>
      </trkpt>
      <trkpt lat="48.856842" lon="9.944370">
        <ele>413.564808</ele>
        <time>2025-05-03T08:39:58.929Z</time>
      </trkpt>
      <trkpt lat="48.856741" lon="9.944483">
        <ele>412.675782</ele>
        <time>2025-05-03T08:40:00.708Z</time>
      </trkpt>
      <trkpt lat="48.856673" lon="9.944516">
        <ele>412.169772</ele>
        <time>2025-05-03T08:40:01.716Z</time>
      </trkpt>
      <trkpt lat="48.856549" lon="9.944501">
        <ele>411.287987</ele>
        <time>2025-05-03T08:40:03.457Z</time>
      </trkpt>
      <trkpt lat="48.854778" lon="9.943651">
        <ele>399.530090</ele>
        <time>2025-05-03T08:40:30.021Z</time>
      </trkpt>
      <trkpt lat="48.854583" lon="9.943493">
        <ele>398.486552</ele>
        <time>2025-05-03T08:40:33.467Z</time>
      </trkpt>
      <trkpt lat="48.854369" lon="9.943173">
        <ele>397.068856</ele>
        <time>2025-05-03T08:40:38.234Z</time>
      </trkpt>
      <trkpt lat="48.854290" lon="9.943288">
        <ele>396.552276</ele>
        <time>2025-05-03T08:40:39.958Z</time>
      </trkpt>
      <trkpt lat="48.853763" lon="9.942535">
        <ele>393.450789</ele>
        <time>2025-05-03T08:40:51.753Z</time>
      </trkpt>
      <trkpt lat="48.853706" lon="9.942473">
        <ele>393.266657</ele>
        <time>2025-05-03T08:40:52.934Z</time>
      </trkpt>
      <trkpt lat="48.853609" lon="9.942434">
        <ele>393.003080</ele>
        <time>2025-05-03T08:40:54.594Z</time>
      </trkpt>
      <trkpt lat="48.853382" lon="9.942507">
        <ele>392.393567</ele>
        <time>2025-05-03T08:40:58.444Z</time>
      </trkpt>
      <trkpt lat="48.853218" lon="9.942709">
        <ele>391.839033</ele>
        <time>2025-05-03T08:41:02.011Z</time>
      </trkpt>
      <trkpt lat="48.852983" lon="9.943200">
        <ele>390.789576</ele>
        <time>2025-05-03T08:41:08.541Z</time>
      </trkpt>
      <trkpt lat="48.852823" lon="9.943428">
        <ele>390.213408</ele>
        <time>2025-05-03T08:41:12.114Z</time>
      </trkpt>
      <trkpt lat="48.852416" lon="9.943793">
        <ele>389.186109</ele>
        <time>2025-05-03T08:41:20.350Z</time>
      </trkpt>
      <trkpt lat="48.852167" lon="9.943979">
        <ele>389.512110</ele>
        <time>2025-05-03T08:41:25.739Z</time>
      </trkpt>
      <trkpt lat="48.852120" lon="9.944021">
        <ele>389.576174</ele>
        <time>2025-05-03T08:41:26.838Z</time>
      </trkpt>
      <trkpt lat="48.851786" lon="9.944350">
        <ele>390.043841</ele>
        <time>2025-05-03T08:41:35.239Z</time>
      </trkpt>
      <trkpt lat="48.851710" lon="9.944384">
        <ele>390.136928</ele>
        <time>2025-05-03T08:41:36.988Z</time>
      </trkpt>
      <trkpt lat="48.851645" lon="9.944371">
        <ele>390.213961</ele>
        <time>2025-05-03T08:41:38.435Z</time>
      </trkpt>
      <trkpt lat="48.851366" lon="9.944192">
        <ele>390.569795</ele>
        <time>2025-05-03T08:41:45.430Z</time>
      </trkpt>
      <trkpt lat="48.850765" lon="9.943930">
        <ele>391.492018</ele>
        <time>2025-05-03T08:42:00.874Z</time>
      </trkpt>
      <trkpt lat="48.850458" lon="9.943896">
        <ele>392.807422</ele>
        <time>2025-05-03T08:42:09.031Z</time>
      </trkpt>
      <trkpt lat="48.849728" lon="9.944036">
        <ele>395.951724</ele>
        <time>2025-05-03T08:42:28.926Z</time>
      </trkpt>
      <trkpt lat="48.849526" lon="9.943968">
        <ele>396.835870</ele>
        <time>2025-05-03T08:42:34.358Z</time>
      </trkpt>
      <trkpt lat="48.849375" lon="9.943865">
        <ele>397.543172</ele>
        <time>2025-05-03T08:42:38.491Z</time>
      </trkpt>
      <trkpt lat="48.849286" lon="9.943764">
        <ele>398.017847</ele>
        <time>2025-05-03T08:42:41.217Z</time>
      </trkpt>
      <trkpt lat="48.848926" lon="9.943229">
        <ele>400.089256</ele>
        <time>2025-05-03T08:42:53.562Z</time>
      </trkpt>
      <trkpt lat="48.848749" lon="9.942972">
        <ele>401.068151</ele>
        <time>2025-05-03T08:42:59.442Z</time>
      </trkpt>
      <trkpt lat="48.848552" lon="9.942819">
        <ele>401.952802</ele>
        <time>2025-05-03T08:43:04.794Z</time>
      </trkpt>
      <trkpt lat="48.847744" lon="9.942582">
        <ele>405.243354</ele>
        <time>2025-05-03T08:43:25.385Z</time>
      </trkpt>
      <trkpt lat="48.847215" lon="9.942436">
        <ele>408.002469</ele>
        <time>2025-05-03T08:43:40.882Z</time>
      </trkpt>
      <trkpt lat="48.846841" lon="9.942275">
        <ele>410.295736</ele>
        <time>2025-05-03T08:43:52.401Z</time>
      </trkpt>
      <trkpt lat="48.846462" lon="9.942050">
        <ele>412.696253</ele>
        <time>2025-05-03T08:44:04.341Z</time>
      </trkpt>
      <trkpt lat="48.846192" lon="9.941939">
        <ele>414.346403</ele>
        <time>2025-05-03T08:44:12.202Z</time>
      </trkpt>
      <trkpt lat="48.846039" lon="9.941904">
        <ele>415.259209</ele>
        <time>2025-05-03T08:44:16.451Z</time>
      </trkpt>
      <trkpt lat="48.845715" lon="9.941909">
        <ele>417.145656</ele>
        <time>2025-05-03T08:44:25.194Z</time>
      </trkpt>
      <trkpt lat="48.845516" lon="9.941953">
        <ele>418.265502</ele>
        <time>2025-05-03T08:44:30.548Z</time>
      </trkpt>
      <trkpt lat="48.845288" lon="9.942060">
        <ele>419.594346</ele>
        <time>2025-05-03T08:44:36.902Z</time>
      </trkpt>
      <trkpt lat="48.844812" lon="9.942371">
        <ele>422.479705</ele>
        <time>2025-05-03T08:44:50.927Z</time>
      </trkpt>
      <trkpt lat="48.844570" lon="9.942573">
        <ele>424.017281</ele>
        <time>2025-05-03T08:44:58.617Z</time>
      </trkpt>
      <trkpt lat="48.844355" lon="9.942811">
        <ele>425.498580</ele>
        <time>2025-05-03T08:45:06.158Z</time>
      </trkpt>
      <trkpt lat="48.844070" lon="9.943266">
        <ele>427.682952</ele>
        <time>2025-05-03T08:45:18.033Z</time>
      </trkpt>
      <trkpt lat="48.843926" lon="9.943584">
        <ele>428.940792</ele>
        <time>2025-05-03T08:45:25.368Z</time>
      </trkpt>
      <trkpt lat="48.843825" lon="9.943884">
        <ele>430.038863</ele>
        <time>2025-05-03T08:45:31.751Z</time>
      </trkpt>
      <trkpt lat="48.843710" lon="9.944408">
        <ele>431.838817</ele>
        <time>2025-05-03T08:45:41.818Z</time>
      </trkpt>
      <trkpt lat="48.843669" lon="9.944858">
        <ele>433.319181</ele>
        <time>2025-05-03T08:45:49.668Z</time>
      </trkpt>
      <trkpt lat="48.843658" lon="9.945114">
        <ele>434.155163</ele>
        <time>2025-05-03T08:45:53.970Z</time>
      </trkpt>
      <trkpt lat="48.843691" lon="9.945634">
        <ele>435.731205</ele>
        <time>2025-05-03T08:46:02.445Z</time>
      </trkpt>
      <trkpt lat="48.843950" lon="9.947436">
        <ele>438.169775</ele>
        <time>2025-05-03T08:46:30.873Z</time>
      </trkpt>
      <trkpt lat="48.844117" lon="9.948594">
        <ele>439.575668</ele>
        <time>2025-05-03T08:46:48.592Z</time>
      </trkpt>
      <trkpt lat="48.844187" lon="9.949344">
        <ele>440.239517</ele>
        <time>2025-05-03T08:46:59.878Z</time>
      </trkpt>
      <trkpt lat="48.844188" lon="9.949998">
        <ele>440.812660</ele>
        <time>2025-05-03T08:47:09.615Z</time>
      </trkpt>
      <trkpt lat="48.844150" lon="9.950338">
        <ele>441.114889</ele>
        <time>2025-05-03T08:47:14.777Z</time>
      </trkpt>
      <trkpt lat="48.844087" lon="9.950666">
        <ele>441.414329</ele>
        <time>2025-05-03T08:47:19.925Z</time>
      </trkpt>
      <trkpt lat="48.843911" lon="9.951179">
        <ele>442.148056</ele>
        <time>2025-05-03T08:47:28.733Z</time>
      </trkpt>
      <trkpt lat="48.843754" lon="9.951464">
        <ele>442.749449</ele>
        <time>2025-05-03T08:47:34.455Z</time>
      </trkpt>
      <trkpt lat="48.843527" lon="9.951788">
        <ele>443.515188</ele>
        <time>2025-05-03T08:47:41.792Z</time>
      </trkpt>
      <trkpt lat="48.842914" lon="9.952520">
        <ele>445.432096</ele>
        <time>2025-05-03T08:48:00.467Z</time>
      </trkpt>
      <trkpt lat="48.842639" lon="9.952971">
        <ele>446.556085</ele>
        <time>2025-05-03T08:48:10.339Z</time>
      </trkpt>
      <trkpt lat="48.842468" lon="9.953338">
        <ele>447.551240</ele>
        <time>2025-05-03T08:48:17.588Z</time>
      </trkpt>
      <trkpt lat="48.841773" lon="9.955134">
        <ele>452.167158</ele>
        <time>2025-05-03T08:48:51.469Z</time>
      </trkpt>
      <trkpt lat="48.841654" lon="9.955377">
        <ele>452.925138</ele>
        <time>2025-05-03T08:48:56.434Z</time>
      </trkpt>
      <trkpt lat="48.841424" lon="9.955745">
        <ele>454.195149</ele>
        <time>2025-05-03T08:49:04.790Z</time>
      </trkpt>
      <trkpt lat="48.841227" lon="9.955961">
        <ele>455.118885</ele>
        <time>2025-05-03T08:49:10.894Z</time>
      </trkpt>
      <trkpt lat="48.840959" lon="9.956174">
        <ele>456.268912</ele>
        <time>2025-05-03T08:49:18.544Z</time>
      </trkpt>
      <trkpt lat="48.840600" lon="9.956334">
        <ele>457.691477</ele>
        <time>2025-05-03T08:49:28.083Z</time>
      </trkpt>
      <trkpt lat="48.840147" lon="9.956397">
        <ele>459.250517</ele>
        <time>2025-05-03T08:49:39.707Z</time>
      </trkpt>
      <trkpt lat="48.839547" lon="9.956412">
        <ele>460.682122</ele>
        <time>2025-05-03T08:49:54.516Z</time>
      </trkpt>
      <trkpt lat="48.839163" lon="9.956494">
        <ele>461.607228</ele>
        <time>2025-05-03T08:50:03.724Z</time>
      </trkpt>
      <trkpt lat="48.838910" lon="9.956629">
        <ele>462.246948</ele>
        <time>2025-05-03T08:50:09.968Z</time>
      </trkpt>
      <trkpt lat="48.838604" lon="9.956860">
        <ele>463.062112</ele>
        <time>2025-05-03T08:50:17.750Z</time>
      </trkpt>
      <trkpt lat="48.838271" lon="9.957190">
        <ele>463.034126</ele>
        <time>2025-05-03T08:50:26.413Z</time>
      </trkpt>
      <trkpt lat="48.837759" lon="9.957691">
        <ele>462.611495</ele>
        <time>2025-05-03T08:50:38.502Z</time>
      </trkpt>
      <trkpt lat="48.837333" lon="9.958001">
        <ele>462.283699</ele>
        <time>2025-05-03T08:50:47.620Z</time>
      </trkpt>
      <trkpt lat="48.836796" lon="9.958268">
        <ele>461.624248</ele>
        <time>2025-05-03T08:50:57.900Z</time>
      </trkpt>
      <trkpt lat="48.835572" lon="9.958693">
        <ele>458.716133</ele>
        <time>2025-05-03T08:51:19.339Z</time>
      </trkpt>
      <trkpt lat="48.834313" lon="9.959047">
        <ele>455.727108</ele>
        <time>2025-05-03T08:51:40.848Z</time>
      </trkpt>
      <trkpt lat="48.833322" lon="9.959282">
        <ele>453.312442</ele>
        <time>2025-05-03T08:51:58.498Z</time>
      </trkpt>
      <trkpt lat="48.832899" lon="9.959429">
        <ele>452.029174</ele>
        <time>2025-05-03T08:52:06.270Z</time>
      </trkpt>
      <trkpt lat="48.831834" lon="9.960074">
        <ele>448.638544</ele>
        <time>2025-05-03T08:52:25.106Z</time>
      </trkpt>
      <trkpt lat="48.831030" lon="9.960369">
        <ele>444.445729</ele>
        <time>2025-05-03T08:52:37.617Z</time>
      </trkpt>
      <trkpt lat="48.830841" lon="9.960471">
        <ele>443.362821</ele>
        <time>2025-05-03T08:52:40.577Z</time>
      </trkpt>
      <trkpt lat="48.830547" lon="9.960741">
        <ele>441.507968</ele>
        <time>2025-05-03T08:52:45.606Z</time>
      </trkpt>
      <trkpt lat="48.830351" lon="9.961004">
        <ele>440.096029</ele>
        <time>2025-05-03T08:52:49.416Z</time>
      </trkpt>
      <trkpt lat="48.829563" lon="9.962364">
        <ele>434.062609</ele>
        <time>2025-05-03T08:53:06.979Z</time>
      </trkpt>
      <trkpt lat="48.829204" lon="9.962903">
        <ele>431.561293</ele>
        <time>2025-05-03T08:53:14.651Z</time>
      </trkpt>
      <trkpt lat="48.828342" lon="9.963858">
        <ele>427.942680</ele>
        <time>2025-05-03T08:53:31.966Z</time>
      </trkpt>
      <trkpt lat="48.828218" lon="9.963983">
        <ele>427.566064</ele>
        <time>2025-05-03T08:53:34.560Z</time>
      </trkpt>
      <trkpt lat="48.827973" lon="9.964228">
        <ele>426.823756</ele>
        <time>2025-05-03T08:53:39.787Z</time>
      </trkpt>
      <trkpt lat="48.827884" lon="9.964152">
        <ele>426.565376</ele>
        <time>2025-05-03T08:53:41.648Z</time>
      </trkpt>
      <trkpt lat="48.827790" lon="9.964210">
        <ele>426.308617</ele>
        <time>2025-05-03T08:53:43.503Z</time>
      </trkpt>
      <trkpt lat="48.827760" lon="9.964312">
        <ele>426.122496</ele>
        <time>2025-05-03T08:53:44.859Z</time>
      </trkpt>
      <trkpt lat="48.827777" lon="9.964422">
        <ele>425.934254</ele>
        <time>2025-05-03T08:53:46.239Z</time>
      </trkpt>
      <trkpt lat="48.827198" lon="9.965058">
        <ele>423.510730</ele>
        <time>2025-05-03T08:53:58.913Z</time>
      </trkpt>
      <trkpt lat="48.827040" lon="9.965124">
        <ele>422.842444</ele>
        <time>2025-05-03T08:54:01.594Z</time>
      </trkpt>
      <trkpt lat="48.826855" lon="9.965102">
        <ele>422.085656</ele>
        <time>2025-05-03T08:54:04.491Z</time>
      </trkpt>
      <trkpt lat="48.826698" lon="9.964969">
        <ele>421.352526</ele>
        <time>2025-05-03T08:54:07.262Z</time>
      </trkpt>
      <trkpt lat="48.826362" lon="9.964202">
        <ele>418.878972</ele>
        <time>2025-05-03T08:54:16.389Z</time>
      </trkpt>
      <trkpt lat="48.826166" lon="9.963758">
        <ele>417.462970</ele>
        <time>2025-05-03T08:54:21.587Z</time>
      </trkpt>
      <trkpt lat="48.826041" lon="9.963563">
        <ele>416.772123</ele>
        <time>2025-05-03T08:54:24.233Z</time>
      </trkpt>
      <trkpt lat="48.825953" lon="9.963474">
        <ele>416.364503</ele>
        <time>2025-05-03T08:54:25.797Z</time>
      </trkpt>
      <trkpt lat="48.825772" lon="9.963433">
        <ele>415.658926</ele>
        <time>2025-05-03T08:54:28.560Z</time>
      </trkpt>
      <trkpt lat="48.825590" lon="9.963422">
        <ele>414.956655</ele>
        <time>2025-05-03T08:54:31.335Z</time>
      </trkpt>
      <trkpt lat="48.825517" lon="9.963362">
        <ele>414.636633</ele>
        <time>2025-05-03T08:54:32.618Z</time>
      </trkpt>
      <trkpt lat="48.825456" lon="9.963235">
        <ele>414.237589</ele>
        <time>2025-05-03T08:54:34.238Z</time>
      </trkpt>
      <trkpt lat="48.825375" lon="9.962347">
        <ele>411.962007</ele>
        <time>2025-05-03T08:54:43.928Z</time>
      </trkpt>
      <trkpt lat="48.825248" lon="9.961913">
        <ele>410.852720</ele>
        <time>2025-05-03T08:54:49.231Z</time>
      </trkpt>
      <trkpt lat="48.825037" lon="9.961592">
        <ele>410.751439</ele>
        <time>2025-05-03T08:54:54.538Z</time>
      </trkpt>
      <trkpt lat="48.824934" lon="9.961427">
        <ele>410.700669</ele>
        <time>2025-05-03T08:54:57.364Z</time>
      </trkpt>
      <trkpt lat="48.824866" lon="9.961367">
        <ele>410.673998</ele>
        <time>2025-05-03T08:54:58.883Z</time>
      </trkpt>
      <trkpt lat="48.824718" lon="9.961399">
        <ele>410.623299</ele>
        <time>2025-05-03T08:55:01.825Z</time>
      </trkpt>
      <trkpt lat="48.824617" lon="9.961479">
        <ele>410.584667</ele>
        <time>2025-05-03T08:55:04.133Z</time>
      </trkpt>
      <trkpt lat="48.824320" lon="9.961778">
        <ele>410.463824</ele>
        <time>2025-05-03T08:55:11.562Z</time>
      </trkpt>
      <trkpt lat="48.823662" lon="9.962207">
        <ele>410.396313</ele>
        <time>2025-05-03T08:55:27.593Z</time>
      </trkpt>
      <trkpt lat="48.823624" lon="9.962215">
        <ele>410.456831</ele>
        <time>2025-05-03T08:55:28.472Z</time>
      </trkpt>
      <trkpt lat="48.823274" lon="9.962299">
        <ele>411.015811</ele>
        <time>2025-05-03T08:55:36.728Z</time>
      </trkpt>
      <trkpt lat="48.823240" lon="9.962566">
        <ele>411.298259</ele>
        <time>2025-05-03T08:55:40.943Z</time>
      </trkpt>
      <trkpt lat="48.823163" lon="9.962810">
        <ele>411.579287</ele>
        <time>2025-05-03T08:55:45.114Z</time>
      </trkpt>
      <trkpt lat="48.823032" lon="9.963072">
        <ele>411.920979</ele>
        <time>2025-05-03T08:55:50.165Z</time>
      </trkpt>
      <trkpt lat="48.822894" lon="9.963382">
        <ele>412.309639</ele>
        <time>2025-05-03T08:55:55.902Z</time>
      </trkpt>
      <trkpt lat="48.822640" lon="9.964279">
        <ele>413.239072</ele>
        <time>2025-05-03T08:56:10.592Z</time>
      </trkpt>
      <trkpt lat="48.822609" lon="9.964420">
        <ele>413.337666</ele>
        <time>2025-05-03T08:56:12.810Z</time>
      </trkpt>
      <trkpt lat="48.822202" lon="9.964245">
        <ele>413.763777</ele>
        <time>2025-05-03T08:56:22.292Z</time>
      </trkpt>
      <trkpt lat="48.821783" lon="9.964214">
        <ele>414.186364</ele>
        <time>2025-05-03T08:56:31.539Z</time>
      </trkpt>
      <trkpt lat="48.821400" lon="9.964324">
        <ele>414.579023</ele>
        <time>2025-05-03T08:56:40.120Z</time>
      </trkpt>
      <trkpt lat="48.821222" lon="9.964331">
        <ele>414.758394</ele>
        <time>2025-05-03T08:56:44.123Z</time>
      </trkpt>
      <trkpt lat="48.821056" lon="9.964297">
        <ele>414.962043</ele>
        <time>2025-05-03T08:56:47.921Z</time>
      </trkpt>
      <trkpt lat="48.820855" lon="9.964160">
        <ele>415.483679</ele>
        <time>2025-05-03T08:56:53.000Z</time>
      </trkpt>
      <trkpt lat="48.820598" lon="9.964069">
        <ele>416.108498</ele>
        <time>2025-05-03T08:56:59.173Z</time>
      </trkpt>
      <trkpt lat="48.820438" lon="9.964052">
        <ele>416.488258</ele>
        <time>2025-05-03T08:57:02.977Z</time>
      </trkpt>
      <trkpt lat="48.820218" lon="9.964056">
        <ele>417.009191</ele>
        <time>2025-05-03T08:57:08.225Z</time>
      </trkpt>
      <trkpt lat="48.819420" lon="9.964127">
        <ele>418.901864</ele>
        <time>2025-05-03T08:57:27.584Z</time>
      </trkpt>
      <trkpt lat="48.819173" lon="9.964153">
        <ele>419.423505</ele>
        <time>2025-05-03T08:57:33.615Z</time>
      </trkpt>
      <trkpt lat="48.818800" lon="9.964310">
        <ele>420.159575</ele>
        <time>2025-05-03T08:57:42.834Z</time>
      </trkpt>
      <trkpt lat="48.818335" lon="9.964502">
        <ele>421.075962</ele>
        <time>2025-05-03T08:57:54.068Z</time>
      </trkpt>
      <trkpt lat="48.818193" lon="9.964556">
        <ele>421.354340</ele>
        <time>2025-05-03T08:57:57.427Z</time>
      </trkpt>
      <trkpt lat="48.817469" lon="9.964858">
        <ele>422.757507</ele>
        <time>2025-05-03T08:58:14.444Z</time>
      </trkpt>
      <trkpt lat="48.816942" lon="9.965069">
        <ele>423.667309</ele>
        <time>2025-05-03T08:58:26.864Z</time>
      </trkpt>
      <trkpt lat="48.816908" lon="9.965082">
        <ele>423.725838</ele>
        <time>2025-05-03T08:58:27.656Z</time>
      </trkpt>
      <trkpt lat="48.816462" lon="9.965249">
        <ele>424.492661</ele>
        <time>2025-05-03T08:58:38.227Z</time>
      </trkpt>
      <trkpt lat="48.816247" lon="9.965283">
        <ele>424.853510</ele>
        <time>2025-05-03T08:58:43.260Z</time>
      </trkpt>
      <trkpt lat="48.815959" lon="9.965476">
        <ele>425.379008</ele>
        <time>2025-05-03T08:58:50.636Z</time>
      </trkpt>
      <trkpt lat="48.815598" lon="9.965629">
        <ele>426.263963</ele>
        <time>2025-05-03T08:58:59.495Z</time>
      </trkpt>
      <trkpt lat="48.814761" lon="9.965923">
        <ele>428.579901</ele>
        <time>2025-05-03T08:59:20.141Z</time>
      </trkpt>
      <trkpt lat="48.814268" lon="9.966030">
        <ele>429.922425</ele>
        <time>2025-05-03T08:59:32.201Z</time>
      </trkpt>
      <trkpt lat="48.813771" lon="9.966102">
        <ele>431.208021</ele>
        <time>2025-05-03T08:59:44.255Z</time>
      </trkpt>
      <trkpt lat="48.813433" lon="9.966113">
        <ele>432.053725</ele>
        <time>2025-05-03T08:59:52.366Z</time>
      </trkpt>
      <trkpt lat="48.811971" lon="9.965939">
        <ele>435.612511</ele>
        <time>2025-05-03T09:00:27.059Z</time>
      </trkpt>
      <trkpt lat="48.811896" lon="9.965927">
        <ele>435.775019</ele>
        <time>2025-05-03T09:00:28.830Z</time>
      </trkpt>
      <trkpt lat="48.811598" lon="9.965905">
        <ele>436.417922</ele>
        <time>2025-05-03T09:00:35.748Z</time>
      </trkpt>
      <trkpt lat="48.811071" lon="9.965942">
        <ele>437.554738</ele>
        <time>2025-05-03T09:00:48.067Z</time>
      </trkpt>
      <trkpt lat="48.810630" lon="9.966046">
        <ele>438.516417</ele>
        <time>2025-05-03T09:00:58.566Z</time>
      </trkpt>
      <trkpt lat="48.809724" lon="9.966409">
        <ele>440.732526</ele>
        <time>2025-05-03T09:01:20.866Z</time>
      </trkpt>
      <trkpt lat="48.809152" lon="9.966694">
        <ele>442.177590</ele>
        <time>2025-05-03T09:01:35.221Z</time>
      </trkpt>
      <trkpt lat="48.808904" lon="9.966812">
        <ele>442.801434</ele>
        <time>2025-05-03T09:01:41.367Z</time>
      </trkpt>
      <trkpt lat="48.808083" lon="9.967270">
        <ele>444.867232</ele>
        <time>2025-05-03T09:02:01.873Z</time>
      </trkpt>
      <trkpt lat="48.807495" lon="9.967599">
        <ele>446.342892</ele>
        <time>2025-05-03T09:02:16.619Z</time>
      </trkpt>
      <trkpt lat="48.806270" lon="9.968287">
        <ele>450.274054</ele>
        <time>2025-05-03T09:02:48.054Z</time>
      </trkpt>
      <trkpt lat="48.805787" lon="9.968592">
        <ele>452.017744</ele>
        <time>2025-05-03T09:03:01.068Z</time>
      </trkpt>
      <trkpt lat="48.804630" lon="9.969312">
        <ele>456.548468</ele>
        <time>2025-05-03T09:03:33.069Z</time>
      </trkpt>
      <trkpt lat="48.804339" lon="9.969489">
        <ele>457.727308</ele>
        <time>2025-05-03T09:03:40.905Z</time>
      </trkpt>
      <trkpt lat="48.802721" lon="9.970453">
        <ele>464.241711</ele>
        <time>2025-05-03T09:04:23.623Z</time>
      </trkpt>
      <trkpt lat="48.801771" lon="9.971000">
        <ele>467.576337</ele>
        <time>2025-05-03T09:04:49.965Z</time>
      </trkpt>
      <trkpt lat="48.801662" lon="9.970992">
        <ele>467.825359</ele>
        <time>2025-05-03T09:04:52.763Z</time>
      </trkpt>
      <trkpt lat="48.801459" lon="9.970886">
        <ele>468.315225</ele>
        <time>2025-05-03T09:04:58.178Z</time>
      </trkpt>
      <trkpt lat="48.801533" lon="9.970667">
        <ele>468.685178</ele>
        <time>2025-05-03T09:05:02.138Z</time>
      </trkpt>
      <trkpt lat="48.801593" lon="9.970490">
        <ele>468.984381</ele>
        <time>2025-05-03T09:05:05.291Z</time>
      </trkpt>
      <trkpt lat="48.801829" lon="9.969849">
        <ele>470.088126</ele>
        <time>2025-05-03T09:05:16.407Z</time>
      </trkpt>
      <trkpt lat="48.801593" lon="9.970490">
        <ele>470.967292</ele>
        <time>2025-05-03T09:05:26.635Z</time>
      </trkpt>
      <trkpt lat="48.801533" lon="9.970667">
        <ele>470.986725</ele>
        <time>2025-05-03T09:05:29.217Z</time>
      </trkpt>
      <trkpt lat="48.801459" lon="9.970886">
        <ele>471.010753</ele>
        <time>2025-05-03T09:05:32.315Z</time>
      </trkpt>
      <trkpt lat="48.800888" lon="9.972217">
        <ele>471.165818</ele>
        <time>2025-05-03T09:05:53.341Z</time>
      </trkpt>
      <trkpt lat="48.800775" lon="9.972472">
        <ele>471.195821</ele>
        <time>2025-05-03T09:05:57.908Z</time>
      </trkpt>
      <trkpt lat="48.800488" lon="9.972910">
        <ele>472.014408</ele>
        <time>2025-05-03T09:06:07.343Z</time>
      </trkpt>
      <trkpt lat="48.800218" lon="9.973179">
        <ele>473.020803</ele>
        <time>2025-05-03T09:06:15.069Z</time>
      </trkpt>
      <trkpt lat="48.799529" lon="9.973530">
        <ele>475.285580</ele>
        <time>2025-05-03T09:06:33.213Z</time>
      </trkpt>
      <trkpt lat="48.799354" lon="9.973666">
        <ele>475.898230</ele>
        <time>2025-05-03T09:06:38.154Z</time>
      </trkpt>
      <trkpt lat="48.799228" lon="9.973838">
        <ele>476.426272</ele>
        <time>2025-05-03T09:06:42.428Z</time>
      </trkpt>
      <trkpt lat="48.798966" lon="9.974192">
        <ele>478.013979</ele>
        <time>2025-05-03T09:06:51.347Z</time>
      </trkpt>
      <trkpt lat="48.798917" lon="9.974284">
        <ele>478.429480</ele>
        <time>2025-05-03T09:06:53.358Z</time>
      </trkpt>
      <trkpt lat="48.798639" lon="9.974778">
        <ele>480.711295</ele>
        <time>2025-05-03T09:07:04.438Z</time>
      </trkpt>
      <trkpt lat="48.798589" lon="9.974852">
        <ele>481.083589</ele>
        <time>2025-05-03T09:07:06.306Z</time>
      </trkpt>
      <trkpt lat="48.798401" lon="9.975009">
        <ele>482.227566</ele>
        <time>2025-05-03T09:07:12.015Z</time>
      </trkpt>
      <trkpt lat="48.797918" lon="9.975099">
        <ele>484.822033</ele>
        <time>2025-05-03T09:07:25.466Z</time>
      </trkpt>
      <trkpt lat="48.797864" lon="9.975123">
        <ele>485.122021</ele>
        <time>2025-05-03T09:07:27.066Z</time>
      </trkpt>
      <trkpt lat="48.796269" lon="9.976745">
        <ele>499.309703</ele>
        <time>2025-05-03T09:08:27.069Z</time>
      </trkpt>
      <trkpt lat="48.795945" lon="9.977087">
        <ele>502.795656</ele>
        <time>2025-05-03T09:08:39.840Z</time>
      </trkpt>
      <trkpt lat="48.795143" lon="9.977770">
        <ele>511.384752</ele>
        <time>2025-05-03T09:09:12.577Z</time>
      </trkpt>
      <trkpt lat="48.794876" lon="9.978060">
        <ele>514.451193</ele>
        <time>2025-05-03T09:09:24.030Z</time>
      </trkpt>
      <trkpt lat="48.794745" lon="9.978228">
        <ele>516.052950</ele>
        <time>2025-05-03T09:09:30.094Z</time>
      </trkpt>
      <trkpt lat="48.794198" lon="9.978638">
        <ele>521.599294</ele>
        <time>2025-05-03T09:09:51.796Z</time>
      </trkpt>
      <trkpt lat="48.793299" lon="9.978522">
        <ele>529.755218</ele>
        <time>2025-05-03T09:10:22.272Z</time>
      </trkpt>
      <trkpt lat="48.792954" lon="9.978405">
        <ele>532.950770</ele>
        <time>2025-05-03T09:10:33.699Z</time>
      </trkpt>
      <trkpt lat="48.792426" lon="9.978067">
        <ele>538.380047</ele>
        <time>2025-05-03T09:10:52.696Z</time>
      </trkpt>
      <trkpt lat="48.792237" lon="9.977995">
        <ele>540.232386</ele>
        <time>2025-05-03T09:10:59.267Z</time>
      </trkpt>
      <trkpt lat="48.791425" lon="9.977885">
        <ele>547.981886</ele>
        <time>2025-05-03T09:11:27.156Z</time>
      </trkpt>
      <trkpt lat="48.791114" lon="9.977774">
        <ele>551.167957</ele>
        <time>2025-05-03T09:11:39.297Z</time>
      </trkpt>
      <trkpt lat="48.789897" lon="9.977128">
        <ele>566.357992</ele>
        <time>2025-05-03T09:12:33.349Z</time>
      </trkpt>
      <trkpt lat="48.789713" lon="9.977072">
        <ele>568.569008</ele>
        <time>2025-05-03T09:12:41.154Z</time>
      </trkpt>
      <trkpt lat="48.788930" lon="9.976969">
        <ele>575.672413</ele>
        <time>2025-05-03T09:13:09.646Z</time>
      </trkpt>
      <trkpt lat="48.788637" lon="9.976895">
        <ele>577.962856</ele>
        <time>2025-05-03T09:13:19.028Z</time>
      </trkpt>
      <trkpt lat="48.788422" lon="9.976792">
        <ele>579.701383</ele>
        <time>2025-05-03T09:13:25.680Z</time>
      </trkpt>
      <trkpt lat="48.788155" lon="9.976589">
        <ele>582.004135</ele>
        <time>2025-05-03T09:13:34.053Z</time>
      </trkpt>
      <trkpt lat="48.787957" lon="9.976515">
        <ele>583.576556</ele>
        <time>2025-05-03T09:13:39.512Z</time>
      </trkpt>
      <trkpt lat="48.787760" lon="9.976484">
        <ele>585.103802</ele>
        <time>2025-05-03T09:13:44.659Z</time>
      </trkpt>
      <trkpt lat="48.787335" lon="9.976560">
        <ele>589.282946</ele>
        <time>2025-05-03T09:13:56.596Z</time>
      </trkpt>
      <trkpt lat="48.786664" lon="9.976738">
        <ele>596.102940</ele>
        <time>2025-05-03T09:14:19.525Z</time>
      </trkpt>
      <trkpt lat="48.786390" lon="9.976871">
        <ele>598.983150</ele>
        <time>2025-05-03T09:14:30.625Z</time>
      </trkpt>
      <trkpt lat="48.786072" lon="9.977154">
        <ele>602.673974</ele>
        <time>2025-05-03T09:14:46.992Z</time>
      </trkpt>
      <trkpt lat="48.785917" lon="9.977348">
        <ele>605.275512</ele>
        <time>2025-05-03T09:14:56.650Z</time>
      </trkpt>
      <trkpt lat="48.785643" lon="9.977875">
        <ele>611.845855</ele>
        <time>2025-05-03T09:15:18.343Z</time>
      </trkpt>
      <trkpt lat="48.785476" lon="9.978298">
        <ele>616.672192</ele>
        <time>2025-05-03T09:15:34.177Z</time>
      </trkpt>
      <trkpt lat="48.785332" lon="9.978757">
        <ele>621.647819</ele>
        <time>2025-05-03T09:15:49.966Z</time>
      </trkpt>
      <trkpt lat="48.785103" lon="9.980376">
        <ele>637.655127</ele>
        <time>2025-05-03T09:16:38.856Z</time>
      </trkpt>
      <trkpt lat="48.784924" lon="9.981240">
        <ele>646.289184</ele>
        <time>2025-05-03T09:17:05.758Z</time>
      </trkpt>
      <trkpt lat="48.784586" lon="9.982143">
        <ele>656.189591</ele>
        <time>2025-05-03T09:17:38.636Z</time>
      </trkpt>
      <trkpt lat="48.784182" lon="9.982681">
        <ele>661.692414</ele>
        <time>2025-05-03T09:18:02.601Z</time>
      </trkpt>
      <trkpt lat="48.784005" lon="9.983059">
        <ele>664.817920</ele>
        <time>2025-05-03T09:18:14.677Z</time>
      </trkpt>
      <trkpt lat="48.783926" lon="9.983267">
        <ele>666.436054</ele>
        <time>2025-05-03T09:18:20.476Z</time>
      </trkpt>
      <trkpt lat="48.783843" lon="9.983448">
        <ele>667.922341</ele>
        <time>2025-05-03T09:18:25.506Z</time>
      </trkpt>
      <trkpt lat="48.783746" lon="9.983551">
        <ele>669.133305</ele>
        <time>2025-05-03T09:18:29.361Z</time>
      </trkpt>
      <trkpt lat="48.783521" lon="9.983714">
        <ele>671.683607</ele>
        <time>2025-05-03T09:18:37.094Z</time>
      </trkpt>
      <trkpt lat="48.783555" lon="9.983804">
        <ele>672.382835</ele>
        <time>2025-05-03T09:18:39.035Z</time>
      </trkpt>
      <trkpt lat="48.783592" lon="9.983902">
        <ele>673.144102</ele>
        <time>2025-05-03T09:18:41.185Z</time>
      </trkpt>
      <trkpt lat="48.783698" lon="9.983995">
        <ele>674.396526</ele>
        <time>2025-05-03T09:18:44.541Z</time>
      </trkpt>
      <trkpt lat="48.783817" lon="9.984018">
        <ele>675.016123</ele>
        <time>2025-05-03T09:18:47.728Z</time>
      </trkpt>
      <trkpt lat="48.783825" lon="9.984146">
        <ele>675.365854</ele>
        <time>2025-05-03T09:18:49.980Z</time>
      </trkpt>
      <trkpt lat="48.784252" lon="9.985120">
        <ele>678.548015</ele>
        <time>2025-05-03T09:19:09.328Z</time>
      </trkpt>
      <trkpt lat="48.784533" lon="9.985668">
        <ele>680.436786</ele>
        <time>2025-05-03T09:19:20.566Z</time>
      </trkpt>
      <trkpt lat="48.784632" lon="9.985998">
        <ele>681.423054</ele>
        <time>2025-05-03T09:19:26.523Z</time>
      </trkpt>
      <trkpt lat="48.784748" lon="9.986606">
        <ele>683.089527</ele>
        <time>2025-05-03T09:19:37.078Z</time>
      </trkpt>
      <trkpt lat="48.784734" lon="9.986857">
        <ele>683.740739</ele>
        <time>2025-05-03T09:19:41.270Z</time>
      </trkpt>
      <trkpt lat="48.784650" lon="9.987012">
        <ele>684.259578</ele>
        <time>2025-05-03T09:19:44.623Z</time>
      </trkpt>
      <trkpt lat="48.784470" lon="9.987239">
        <ele>685.177825</ele>
        <time>2025-05-03T09:19:50.556Z</time>
      </trkpt>
      <trkpt lat="48.784267" lon="9.987440">
        <ele>686.128835</ele>
        <time>2025-05-03T09:19:56.791Z</time>
      </trkpt>
      <trkpt lat="48.783544" lon="9.987609">
        <ele>688.999052</ele>
        <time>2025-05-03T09:20:15.662Z</time>
      </trkpt>
      <trkpt lat="48.783105" lon="9.987774">
        <ele>689.515598</ele>
        <time>2025-05-03T09:20:26.718Z</time>
      </trkpt>
      <trkpt lat="48.782735" lon="9.987821">
        <ele>689.885592</ele>
        <time>2025-05-03T09:20:35.385Z</time>
      </trkpt>
      <trkpt lat="48.782673" lon="9.987820">
        <ele>689.947379</ele>
        <time>2025-05-03T09:20:36.803Z</time>
      </trkpt>
      <trkpt lat="48.782292" lon="9.987863">
        <ele>690.328094</ele>
        <time>2025-05-03T09:20:45.412Z</time>
      </trkpt>
      <trkpt lat="48.781337" lon="9.988051">
        <ele>689.188754</ele>
        <time>2025-05-03T09:21:02.979Z</time>
      </trkpt>
      <trkpt lat="48.781180" lon="9.988240">
        <ele>688.361195</ele>
        <time>2025-05-03T09:21:06.206Z</time>
      </trkpt>
      <trkpt lat="48.780272" lon="9.989688">
        <ele>682.882083</ele>
        <time>2025-05-03T09:21:25.914Z</time>
      </trkpt>
      <trkpt lat="48.780163" lon="9.989882">
        <ele>682.136183</ele>
        <time>2025-05-03T09:21:28.370Z</time>
      </trkpt>
      <trkpt lat="48.780099" lon="9.990030">
        <ele>681.618266</ele>
        <time>2025-05-03T09:21:30.076Z</time>
      </trkpt>
      <trkpt lat="48.779150" lon="9.991016">
        <ele>676.511837</ele>
        <time>2025-05-03T09:21:47.599Z</time>
      </trkpt>
      <trkpt lat="48.778273" lon="9.991865">
        <ele>674.173087</ele>
        <time>2025-05-03T09:22:05.891Z</time>
      </trkpt>
      <trkpt lat="48.777481" lon="9.992535">
        <ele>672.716124</ele>
        <time>2025-05-03T09:22:23.790Z</time>
      </trkpt>
      <trkpt lat="48.776678" lon="9.993127">
        <ele>671.080410</ele>
        <time>2025-05-03T09:22:40.449Z</time>
      </trkpt>
      <trkpt lat="48.775960" lon="9.993514">
        <ele>669.665770</ele>
        <time>2025-05-03T09:22:53.797Z</time>
      </trkpt>
      <trkpt lat="48.775134" lon="9.993848">
        <ele>666.935938</ele>
        <time>2025-05-03T09:23:08.077Z</time>
      </trkpt>
      <trkpt lat="48.773860" lon="9.994263">
        <ele>662.004566</ele>
        <time>2025-05-03T09:23:28.467Z</time>
      </trkpt>
      <trkpt lat="48.772887" lon="9.994473">
        <ele>657.421763</ele>
        <time>2025-05-03T09:23:43.137Z</time>
      </trkpt>
      <trkpt lat="48.772117" lon="9.994517">
        <ele>654.056225</ele>
        <time>2025-05-03T09:23:54.955Z</time>
      </trkpt>
      <trkpt lat="48.771326" lon="9.994610">
        <ele>652.537019</ele>
        <time>2025-05-03T09:24:08.209Z</time>
      </trkpt>
      <trkpt lat="48.767044" lon="9.995409">
        <ele>645.176368</ele>
        <time>2025-05-03T09:25:27.503Z</time>
      </trkpt>
      <trkpt lat="48.763191" lon="9.996250">
        <ele>641.769105</ele>
        <time>2025-05-03T09:27:40.429Z</time>
      </trkpt>
      <trkpt lat="48.762189" lon="9.996361">
        <ele>641.611552</ele>
        <time>2025-05-03T09:28:15.207Z</time>
      </trkpt>
      <trkpt lat="48.760031" lon="9.996080">
        <ele>641.573727</ele>
        <time>2025-05-03T09:29:29.919Z</time>
      </trkpt>
      <trkpt lat="48.757356" lon="9.995807">
        <ele>640.578188</ele>
        <time>2025-05-03T09:30:23.330Z</time>
      </trkpt>
      <trkpt lat="48.757370" lon="9.995327">
        <ele>640.623168</ele>
        <time>2025-05-03T09:30:32.105Z</time>
      </trkpt>
      <trkpt lat="48.757413" lon="9.994441">
        <ele>640.706335</ele>
        <time>2025-05-03T09:30:45.448Z</time>
      </trkpt>
      <trkpt lat="48.757359" lon="9.994292">
        <ele>640.722253</ele>
        <time>2025-05-03T09:30:48.037Z</time>
      </trkpt>
      <trkpt lat="48.756942" lon="9.994260">
        <ele>640.788540</ele>
        <time>2025-05-03T09:30:57.687Z</time>
      </trkpt>
      <trkpt lat="48.756593" lon="9.994232">
        <ele>640.851827</ele>
        <time>2025-05-03T09:31:05.632Z</time>
      </trkpt>
      <trkpt lat="48.756463" lon="9.994223">
        <ele>640.875393</ele>
        <time>2025-05-03T09:31:08.579Z</time>
      </trkpt>
      <trkpt lat="48.756378" lon="9.994150">
        <ele>640.893081</ele>
        <time>2025-05-03T09:31:10.766Z</time>
      </trkpt>
      <trkpt lat="48.756342" lon="9.994048">
        <ele>640.906893</ele>
        <time>2025-05-03T09:31:12.470Z</time>
      </trkpt>
      <trkpt lat="48.756337" lon="9.993801">
        <ele>640.936395</ele>
        <time>2025-05-03T09:31:16.055Z</time>
      </trkpt>
      <trkpt lat="48.756360" lon="9.993133">
        <ele>641.016251</ele>
        <time>2025-05-03T09:31:25.656Z</time>
      </trkpt>
      <trkpt lat="48.756171" lon="9.993123">
        <ele>641.050497</ele>
        <time>2025-05-03T09:31:29.742Z</time>
      </trkpt>
      <trkpt lat="48.756189" lon="9.992487">
        <ele>641.202054</ele>
        <time>2025-05-03T09:31:38.673Z</time>
      </trkpt>
      <trkpt lat="48.756274" lon="9.991952">
        <ele>641.378897</ele>
        <time>2025-05-03T09:31:46.463Z</time>
      </trkpt>
      <trkpt lat="48.756272" lon="9.991054">
        <ele>641.667468</ele>
        <time>2025-05-03T09:31:59.645Z</time>
      </trkpt>
      <trkpt lat="48.756295" lon="9.990812">
        <ele>641.746038</ele>
        <time>2025-05-03T09:32:03.358Z</time>
      </trkpt>
      <trkpt lat="48.756117" lon="9.990732">
        <ele>641.836530</ele>
        <time>2025-05-03T09:32:07.692Z</time>
      </trkpt>
      <trkpt lat="48.755846" lon="9.990491">
        <ele>642.101512</ele>
        <time>2025-05-03T09:32:15.139Z</time>
      </trkpt>
      <trkpt lat="48.755684" lon="9.990438">
        <ele>642.472807</ele>
        <time>2025-05-03T09:32:19.120Z</time>
      </trkpt>
      <trkpt lat="48.755704" lon="9.989945">
        <ele>643.202369</ele>
        <time>2025-05-03T09:32:27.047Z</time>
      </trkpt>
      <trkpt lat="48.755621" lon="9.988257">
        <ele>645.702550</ele>
        <time>2025-05-03T09:32:54.509Z</time>
      </trkpt>
      <trkpt lat="48.755630" lon="9.987930">
        <ele>645.988273</ele>
        <time>2025-05-03T09:32:59.725Z</time>
      </trkpt>
      <trkpt lat="48.755638" lon="9.987664">
        <ele>645.988273</ele>
        <time>2025-05-03T09:33:03.902Z</time>
      </trkpt>
      <trkpt lat="48.755506" lon="9.987626">
        <ele>645.988273</ele>
        <time>2025-05-03T09:33:06.951Z</time>
      </trkpt>
      <trkpt lat="48.754999" lon="9.987477">
        <ele>645.988273</ele>
        <time>2025-05-03T09:33:18.291Z</time>
      </trkpt>
      <trkpt lat="48.754571" lon="9.987389">
        <ele>645.988273</ele>
        <time>2025-05-03T09:33:27.181Z</time>
      </trkpt>
      <trkpt lat="48.753831" lon="9.987320">
        <ele>645.988273</ele>
        <time>2025-05-03T09:33:42.283Z</time>
      </trkpt>
      <trkpt lat="48.753988" lon="9.986801">
        <ele>645.988273</ele>
        <time>2025-05-03T09:33:50.294Z</time>
      </trkpt>
    </trkseg>
  </trk>
</gpx>